<?xml version="1.0" encoding="UTF-8" standalone="no" ?>
<gpx xmlns="http://www.topografix.com/GPX/1/1" xmlns:xsi="http://www.w3.org/2001/XMLSchema-instance" xsi:schemaLocation="http://www.topografix.com/GPX/1/1 http://www.topografix.com/GPX/1/1/gpx.xsd" version="1.1" creator="VisuGPX - https://www.visugpx.com">
  <metadata>
    <name>vallée de nouaillac - Vers</name>
    <desc><![CDATA[rando vallée de nouaillac, balisée FFCT]]></desc>
  </metadata>
  <trk>
    <name><![CDATA[Lap 1]]></name>
    <trkseg>
      <trkpt lat="44.47735" lon="1.54364">
        <ele>231</ele>
        <time>2011-04-02T11:57:45</time>
      </trkpt>
      <trkpt lat="44.47735" lon="1.54364">
        <ele>231</ele>
        <time>2011-04-02T11:57:55</time>
      </trkpt>
      <trkpt lat="44.47735" lon="1.54364">
        <ele>231</ele>
        <time>2011-04-02T11:58:09</time>
      </trkpt>
      <trkpt lat="44.47732" lon="1.54363">
        <ele>231</ele>
        <time>2011-04-02T11:58:15</time>
      </trkpt>
      <trkpt lat="44.47732" lon="1.54363">
        <ele>231</ele>
        <time>2011-04-02T11:58:16</time>
      </trkpt>
      <trkpt lat="44.47732" lon="1.54363">
        <ele>231</ele>
        <time>2011-04-02T11:58:31</time>
      </trkpt>
      <trkpt lat="44.47734" lon="1.54359">
        <ele>231</ele>
        <time>2011-04-02T11:58:31</time>
      </trkpt>
      <trkpt lat="44.47733" lon="1.54356">
        <ele>231</ele>
        <time>2011-04-02T11:58:34</time>
      </trkpt>
      <trkpt lat="44.47733" lon="1.54356">
        <ele>231</ele>
        <time>2011-04-02T11:58:35</time>
      </trkpt>
      <trkpt lat="44.47731" lon="1.54352">
        <ele>231</ele>
        <time>2011-04-02T11:58:42</time>
      </trkpt>
      <trkpt lat="44.47729" lon="1.54348">
        <ele>231</ele>
        <time>2011-04-02T11:58:46</time>
      </trkpt>
      <trkpt lat="44.47728" lon="1.54345">
        <ele>231</ele>
        <time>2011-04-02T11:58:49</time>
      </trkpt>
      <trkpt lat="44.47725" lon="1.54343">
        <ele>231</ele>
        <time>2011-04-02T11:58:53</time>
      </trkpt>
      <trkpt lat="44.47722" lon="1.54344">
        <ele>231</ele>
        <time>2011-04-02T11:58:55</time>
      </trkpt>
      <trkpt lat="44.4772" lon="1.54345">
        <ele>231</ele>
        <time>2011-04-02T11:58:58</time>
      </trkpt>
      <trkpt lat="44.47717" lon="1.54345">
        <ele>231</ele>
        <time>2011-04-02T11:59:02</time>
      </trkpt>
      <trkpt lat="44.4772" lon="1.54347">
        <ele>231</ele>
        <time>2011-04-02T11:59:05</time>
      </trkpt>
      <trkpt lat="44.47722" lon="1.54346">
        <ele>231</ele>
        <time>2011-04-02T11:59:08</time>
      </trkpt>
      <trkpt lat="44.47724" lon="1.54348">
        <ele>231</ele>
        <time>2011-04-02T11:59:12</time>
      </trkpt>
      <trkpt lat="44.47724" lon="1.54354">
        <ele>231</ele>
        <time>2011-04-02T11:59:18</time>
      </trkpt>
      <trkpt lat="44.47726" lon="1.54359">
        <ele>231</ele>
        <time>2011-04-02T11:59:24</time>
      </trkpt>
      <trkpt lat="44.47728" lon="1.54362">
        <ele>231</ele>
        <time>2011-04-02T11:59:26</time>
      </trkpt>
      <trkpt lat="44.4773" lon="1.54365">
        <ele>231</ele>
        <time>2011-04-02T11:59:28</time>
      </trkpt>
      <trkpt lat="44.47732" lon="1.54369">
        <ele>231</ele>
        <time>2011-04-02T11:59:34</time>
      </trkpt>
      <trkpt lat="44.47729" lon="1.54373">
        <ele>231</ele>
        <time>2011-04-02T11:59:41</time>
      </trkpt>
      <trkpt lat="44.47728" lon="1.54377">
        <ele>228</ele>
        <time>2011-04-02T11:59:43</time>
      </trkpt>
      <trkpt lat="44.47731" lon="1.54378">
        <ele>228</ele>
        <time>2011-04-02T11:59:46</time>
      </trkpt>
      <trkpt lat="44.47733" lon="1.54375">
        <ele>231</ele>
        <time>2011-04-02T11:59:48</time>
      </trkpt>
      <trkpt lat="44.47731" lon="1.54371">
        <ele>231</ele>
        <time>2011-04-02T11:59:50</time>
      </trkpt>
      <trkpt lat="44.47729" lon="1.54365">
        <ele>231</ele>
        <time>2011-04-02T11:59:52</time>
      </trkpt>
      <trkpt lat="44.47727" lon="1.54359">
        <ele>231</ele>
        <time>2011-04-02T11:59:54</time>
      </trkpt>
      <trkpt lat="44.47724" lon="1.54353">
        <ele>231</ele>
        <time>2011-04-02T11:59:56</time>
      </trkpt>
      <trkpt lat="44.47722" lon="1.54349">
        <ele>231</ele>
        <time>2011-04-02T11:59:57</time>
      </trkpt>
      <trkpt lat="44.47721" lon="1.54346">
        <ele>231</ele>
        <time>2011-04-02T11:59:58</time>
      </trkpt>
      <trkpt lat="44.47717" lon="1.5434">
        <ele>231</ele>
        <time>2011-04-02T12:00:00</time>
      </trkpt>
      <trkpt lat="44.47714" lon="1.54335">
        <ele>231</ele>
        <time>2011-04-02T12:00:02</time>
      </trkpt>
      <trkpt lat="44.47713" lon="1.54332">
        <ele>231</ele>
        <time>2011-04-02T12:00:03</time>
      </trkpt>
      <trkpt lat="44.4771" lon="1.54326">
        <ele>231</ele>
        <time>2011-04-02T12:00:05</time>
      </trkpt>
      <trkpt lat="44.47709" lon="1.54323">
        <ele>231</ele>
        <time>2011-04-02T12:00:06</time>
      </trkpt>
      <trkpt lat="44.47706" lon="1.54316">
        <ele>235</ele>
        <time>2011-04-02T12:00:08</time>
      </trkpt>
      <trkpt lat="44.47706" lon="1.54306">
        <ele>235</ele>
        <time>2011-04-02T12:00:10</time>
      </trkpt>
      <trkpt lat="44.47706" lon="1.54295">
        <ele>235</ele>
        <time>2011-04-02T12:00:12</time>
      </trkpt>
      <trkpt lat="44.47705" lon="1.54285">
        <ele>240</ele>
        <time>2011-04-02T12:00:14</time>
      </trkpt>
      <trkpt lat="44.47705" lon="1.5428">
        <ele>240</ele>
        <time>2011-04-02T12:00:15</time>
      </trkpt>
      <trkpt lat="44.47703" lon="1.5427">
        <ele>240</ele>
        <time>2011-04-02T12:00:17</time>
      </trkpt>
      <trkpt lat="44.47702" lon="1.54266">
        <ele>240</ele>
        <time>2011-04-02T12:00:18</time>
      </trkpt>
      <trkpt lat="44.477" lon="1.54259">
        <ele>240</ele>
        <time>2011-04-02T12:00:20</time>
      </trkpt>
      <trkpt lat="44.47699" lon="1.54256">
        <ele>240</ele>
        <time>2011-04-02T12:00:21</time>
      </trkpt>
      <trkpt lat="44.47697" lon="1.5425">
        <ele>240</ele>
        <time>2011-04-02T12:00:23</time>
      </trkpt>
      <trkpt lat="44.47696" lon="1.54247">
        <ele>240</ele>
        <time>2011-04-02T12:00:24</time>
      </trkpt>
      <trkpt lat="44.47695" lon="1.54244">
        <ele>240</ele>
        <time>2011-04-02T12:00:25</time>
      </trkpt>
      <trkpt lat="44.47693" lon="1.54238">
        <ele>240</ele>
        <time>2011-04-02T12:00:27</time>
      </trkpt>
      <trkpt lat="44.47691" lon="1.54232">
        <ele>240</ele>
        <time>2011-04-02T12:00:29</time>
      </trkpt>
      <trkpt lat="44.47689" lon="1.54226">
        <ele>240</ele>
        <time>2011-04-02T12:00:31</time>
      </trkpt>
      <trkpt lat="44.47687" lon="1.54223">
        <ele>240</ele>
        <time>2011-04-02T12:00:32</time>
      </trkpt>
      <trkpt lat="44.47685" lon="1.54217">
        <ele>240</ele>
        <time>2011-04-02T12:00:34</time>
      </trkpt>
      <trkpt lat="44.47682" lon="1.54211">
        <ele>240</ele>
        <time>2011-04-02T12:00:36</time>
      </trkpt>
      <trkpt lat="44.4768" lon="1.54204">
        <ele>245</ele>
        <time>2011-04-02T12:00:38</time>
      </trkpt>
      <trkpt lat="44.47679" lon="1.54201">
        <ele>245</ele>
        <time>2011-04-02T12:00:39</time>
      </trkpt>
      <trkpt lat="44.47677" lon="1.54194">
        <ele>245</ele>
        <time>2011-04-02T12:00:41</time>
      </trkpt>
      <trkpt lat="44.47676" lon="1.54191">
        <ele>245</ele>
        <time>2011-04-02T12:00:42</time>
      </trkpt>
      <trkpt lat="44.47673" lon="1.54185">
        <ele>245</ele>
        <time>2011-04-02T12:00:44</time>
      </trkpt>
      <trkpt lat="44.47672" lon="1.54182">
        <ele>245</ele>
        <time>2011-04-02T12:00:45</time>
      </trkpt>
      <trkpt lat="44.47669" lon="1.54176">
        <ele>245</ele>
        <time>2011-04-02T12:00:47</time>
      </trkpt>
      <trkpt lat="44.47666" lon="1.5417">
        <ele>245</ele>
        <time>2011-04-02T12:00:49</time>
      </trkpt>
      <trkpt lat="44.47665" lon="1.54167">
        <ele>245</ele>
        <time>2011-04-02T12:00:50</time>
      </trkpt>
      <trkpt lat="44.47661" lon="1.5416">
        <ele>245</ele>
        <time>2011-04-02T12:00:52</time>
      </trkpt>
      <trkpt lat="44.4766" lon="1.54156">
        <ele>245</ele>
        <time>2011-04-02T12:00:53</time>
      </trkpt>
      <trkpt lat="44.47658" lon="1.54152">
        <ele>245</ele>
        <time>2011-04-02T12:00:54</time>
      </trkpt>
      <trkpt lat="44.47655" lon="1.54145">
        <ele>245</ele>
        <time>2011-04-02T12:00:56</time>
      </trkpt>
      <trkpt lat="44.47654" lon="1.54141">
        <ele>245</ele>
        <time>2011-04-02T12:00:57</time>
      </trkpt>
      <trkpt lat="44.47654" lon="1.54137">
        <ele>245</ele>
        <time>2011-04-02T12:00:58</time>
      </trkpt>
      <trkpt lat="44.47653" lon="1.54129">
        <ele>245</ele>
        <time>2011-04-02T12:01:00</time>
      </trkpt>
      <trkpt lat="44.47652" lon="1.54125">
        <ele>245</ele>
        <time>2011-04-02T12:01:01</time>
      </trkpt>
      <trkpt lat="44.47651" lon="1.54118">
        <ele>248</ele>
        <time>2011-04-02T12:01:03</time>
      </trkpt>
      <trkpt lat="44.47651" lon="1.54114">
        <ele>248</ele>
        <time>2011-04-02T12:01:04</time>
      </trkpt>
      <trkpt lat="44.47651" lon="1.5411">
        <ele>248</ele>
        <time>2011-04-02T12:01:05</time>
      </trkpt>
      <trkpt lat="44.4765" lon="1.54101">
        <ele>248</ele>
        <time>2011-04-02T12:01:07</time>
      </trkpt>
      <trkpt lat="44.4765" lon="1.54091">
        <ele>248</ele>
        <time>2011-04-02T12:01:09</time>
      </trkpt>
      <trkpt lat="44.4765" lon="1.54081">
        <ele>248</ele>
        <time>2011-04-02T12:01:11</time>
      </trkpt>
      <trkpt lat="44.47651" lon="1.54076">
        <ele>248</ele>
        <time>2011-04-02T12:01:12</time>
      </trkpt>
      <trkpt lat="44.47652" lon="1.54066">
        <ele>248</ele>
        <time>2011-04-02T12:01:14</time>
      </trkpt>
      <trkpt lat="44.47653" lon="1.54062">
        <ele>248</ele>
        <time>2011-04-02T12:01:15</time>
      </trkpt>
      <trkpt lat="44.47654" lon="1.54053">
        <ele>248</ele>
        <time>2011-04-02T12:01:17</time>
      </trkpt>
      <trkpt lat="44.47654" lon="1.54046">
        <ele>248</ele>
        <time>2011-04-02T12:01:19</time>
      </trkpt>
      <trkpt lat="44.47653" lon="1.5404">
        <ele>249</ele>
        <time>2011-04-02T12:01:21</time>
      </trkpt>
      <trkpt lat="44.47651" lon="1.54032">
        <ele>249</ele>
        <time>2011-04-02T12:01:23</time>
      </trkpt>
      <trkpt lat="44.4765" lon="1.54028">
        <ele>249</ele>
        <time>2011-04-02T12:01:24</time>
      </trkpt>
      <trkpt lat="44.47648" lon="1.54019">
        <ele>249</ele>
        <time>2011-04-02T12:01:26</time>
      </trkpt>
      <trkpt lat="44.47644" lon="1.5401">
        <ele>249</ele>
        <time>2011-04-02T12:01:28</time>
      </trkpt>
      <trkpt lat="44.47641" lon="1.54">
        <ele>249</ele>
        <time>2011-04-02T12:01:30</time>
      </trkpt>
      <trkpt lat="44.47639" lon="1.5399">
        <ele>249</ele>
        <time>2011-04-02T12:01:32</time>
      </trkpt>
      <trkpt lat="44.47637" lon="1.53985">
        <ele>249</ele>
        <time>2011-04-02T12:01:33</time>
      </trkpt>
      <trkpt lat="44.47636" lon="1.53975">
        <ele>249</ele>
        <time>2011-04-02T12:01:35</time>
      </trkpt>
      <trkpt lat="44.47634" lon="1.53967">
        <ele>249</ele>
        <time>2011-04-02T12:01:37</time>
      </trkpt>
      <trkpt lat="44.47633" lon="1.53963">
        <ele>249</ele>
        <time>2011-04-02T12:01:38</time>
      </trkpt>
      <trkpt lat="44.47632" lon="1.53959">
        <ele>249</ele>
        <time>2011-04-02T12:01:39</time>
      </trkpt>
      <trkpt lat="44.47631" lon="1.53955">
        <ele>256</ele>
        <time>2011-04-02T12:01:40</time>
      </trkpt>
      <trkpt lat="44.47631" lon="1.53948">
        <ele>256</ele>
        <time>2011-04-02T12:01:42</time>
      </trkpt>
      <trkpt lat="44.4763" lon="1.5394">
        <ele>256</ele>
        <time>2011-04-02T12:01:44</time>
      </trkpt>
      <trkpt lat="44.4763" lon="1.53937">
        <ele>256</ele>
        <time>2011-04-02T12:01:45</time>
      </trkpt>
      <trkpt lat="44.47629" lon="1.53928">
        <ele>256</ele>
        <time>2011-04-02T12:01:47</time>
      </trkpt>
      <trkpt lat="44.47629" lon="1.53923">
        <ele>256</ele>
        <time>2011-04-02T12:01:48</time>
      </trkpt>
      <trkpt lat="44.47627" lon="1.53915">
        <ele>256</ele>
        <time>2011-04-02T12:01:50</time>
      </trkpt>
      <trkpt lat="44.47625" lon="1.53907">
        <ele>256</ele>
        <time>2011-04-02T12:01:52</time>
      </trkpt>
      <trkpt lat="44.47624" lon="1.53903">
        <ele>238</ele>
        <time>2011-04-02T12:01:53</time>
      </trkpt>
      <trkpt lat="44.47622" lon="1.53895">
        <ele>238</ele>
        <time>2011-04-02T12:01:55</time>
      </trkpt>
      <trkpt lat="44.4762" lon="1.53886">
        <ele>238</ele>
        <time>2011-04-02T12:01:57</time>
      </trkpt>
      <trkpt lat="44.47618" lon="1.53878">
        <ele>238</ele>
        <time>2011-04-02T12:01:59</time>
      </trkpt>
      <trkpt lat="44.47616" lon="1.53873">
        <ele>242</ele>
        <time>2011-04-02T12:02:00</time>
      </trkpt>
      <trkpt lat="44.47615" lon="1.53865">
        <ele>242</ele>
        <time>2011-04-02T12:02:02</time>
      </trkpt>
      <trkpt lat="44.47615" lon="1.5386">
        <ele>242</ele>
        <time>2011-04-02T12:02:03</time>
      </trkpt>
      <trkpt lat="44.47614" lon="1.53856">
        <ele>242</ele>
        <time>2011-04-02T12:02:04</time>
      </trkpt>
      <trkpt lat="44.47612" lon="1.53847">
        <ele>242</ele>
        <time>2011-04-02T12:02:06</time>
      </trkpt>
      <trkpt lat="44.47612" lon="1.53838">
        <ele>242</ele>
        <time>2011-04-02T12:02:08</time>
      </trkpt>
      <trkpt lat="44.47611" lon="1.53834">
        <ele>242</ele>
        <time>2011-04-02T12:02:09</time>
      </trkpt>
      <trkpt lat="44.47611" lon="1.5383">
        <ele>242</ele>
        <time>2011-04-02T12:02:10</time>
      </trkpt>
      <trkpt lat="44.47611" lon="1.53823">
        <ele>242</ele>
        <time>2011-04-02T12:02:12</time>
      </trkpt>
      <trkpt lat="44.47611" lon="1.53815">
        <ele>242</ele>
        <time>2011-04-02T12:02:14</time>
      </trkpt>
      <trkpt lat="44.47611" lon="1.53811">
        <ele>242</ele>
        <time>2011-04-02T12:02:15</time>
      </trkpt>
      <trkpt lat="44.4761" lon="1.53803">
        <ele>242</ele>
        <time>2011-04-02T12:02:17</time>
      </trkpt>
      <trkpt lat="44.47609" lon="1.53796">
        <ele>242</ele>
        <time>2011-04-02T12:02:19</time>
      </trkpt>
      <trkpt lat="44.47609" lon="1.53788">
        <ele>241</ele>
        <time>2011-04-02T12:02:21</time>
      </trkpt>
      <trkpt lat="44.47609" lon="1.53784">
        <ele>241</ele>
        <time>2011-04-02T12:02:22</time>
      </trkpt>
      <trkpt lat="44.47608" lon="1.53773">
        <ele>241</ele>
        <time>2011-04-02T12:02:24</time>
      </trkpt>
      <trkpt lat="44.47608" lon="1.53761">
        <ele>241</ele>
        <time>2011-04-02T12:02:26</time>
      </trkpt>
      <trkpt lat="44.4761" lon="1.53748">
        <ele>241</ele>
        <time>2011-04-02T12:02:28</time>
      </trkpt>
      <trkpt lat="44.47611" lon="1.53742">
        <ele>241</ele>
        <time>2011-04-02T12:02:29</time>
      </trkpt>
      <trkpt lat="44.47612" lon="1.53736">
        <ele>241</ele>
        <time>2011-04-02T12:02:30</time>
      </trkpt>
      <trkpt lat="44.47614" lon="1.53727">
        <ele>241</ele>
        <time>2011-04-02T12:02:32</time>
      </trkpt>
      <trkpt lat="44.47616" lon="1.53722">
        <ele>241</ele>
        <time>2011-04-02T12:02:33</time>
      </trkpt>
      <trkpt lat="44.47619" lon="1.53713">
        <ele>241</ele>
        <time>2011-04-02T12:02:35</time>
      </trkpt>
      <trkpt lat="44.47623" lon="1.53705">
        <ele>234</ele>
        <time>2011-04-02T12:02:37</time>
      </trkpt>
      <trkpt lat="44.47625" lon="1.53701">
        <ele>245</ele>
        <time>2011-04-02T12:02:38</time>
      </trkpt>
      <trkpt lat="44.47628" lon="1.53696">
        <ele>245</ele>
        <time>2011-04-02T12:02:39</time>
      </trkpt>
      <trkpt lat="44.47632" lon="1.53687">
        <ele>245</ele>
        <time>2011-04-02T12:02:41</time>
      </trkpt>
      <trkpt lat="44.47635" lon="1.53682">
        <ele>245</ele>
        <time>2011-04-02T12:02:42</time>
      </trkpt>
      <trkpt lat="44.4764" lon="1.53673">
        <ele>245</ele>
        <time>2011-04-02T12:02:44</time>
      </trkpt>
      <trkpt lat="44.47646" lon="1.53663">
        <ele>245</ele>
        <time>2011-04-02T12:02:46</time>
      </trkpt>
      <trkpt lat="44.47649" lon="1.53656">
        <ele>245</ele>
        <time>2011-04-02T12:02:47</time>
      </trkpt>
      <trkpt lat="44.47653" lon="1.5365">
        <ele>245</ele>
        <time>2011-04-02T12:02:48</time>
      </trkpt>
      <trkpt lat="44.47659" lon="1.53637">
        <ele>245</ele>
        <time>2011-04-02T12:02:50</time>
      </trkpt>
      <trkpt lat="44.47663" lon="1.5363">
        <ele>245</ele>
        <time>2011-04-02T12:02:51</time>
      </trkpt>
      <trkpt lat="44.47667" lon="1.53613">
        <ele>236</ele>
        <time>2011-04-02T12:02:53</time>
      </trkpt>
      <trkpt lat="44.47669" lon="1.53597">
        <ele>236</ele>
        <time>2011-04-02T12:02:55</time>
      </trkpt>
      <trkpt lat="44.4767" lon="1.53585">
        <ele>236</ele>
        <time>2011-04-02T12:02:57</time>
      </trkpt>
      <trkpt lat="44.47669" lon="1.53577">
        <ele>236</ele>
        <time>2011-04-02T12:02:58</time>
      </trkpt>
      <trkpt lat="44.47666" lon="1.5356">
        <ele>236</ele>
        <time>2011-04-02T12:03:00</time>
      </trkpt>
      <trkpt lat="44.47661" lon="1.53544">
        <ele>236</ele>
        <time>2011-04-02T12:03:02</time>
      </trkpt>
      <trkpt lat="44.47655" lon="1.53526">
        <ele>237</ele>
        <time>2011-04-02T12:03:04</time>
      </trkpt>
      <trkpt lat="44.47649" lon="1.53508">
        <ele>237</ele>
        <time>2011-04-02T12:03:06</time>
      </trkpt>
      <trkpt lat="44.47646" lon="1.53499">
        <ele>237</ele>
        <time>2011-04-02T12:03:07</time>
      </trkpt>
      <trkpt lat="44.47638" lon="1.53483">
        <ele>237</ele>
        <time>2011-04-02T12:03:09</time>
      </trkpt>
      <trkpt lat="44.47634" lon="1.53476">
        <ele>237</ele>
        <time>2011-04-02T12:03:10</time>
      </trkpt>
      <trkpt lat="44.47624" lon="1.53463">
        <ele>218</ele>
        <time>2011-04-02T12:03:12</time>
      </trkpt>
      <trkpt lat="44.47619" lon="1.53458">
        <ele>225</ele>
        <time>2011-04-02T12:03:13</time>
      </trkpt>
      <trkpt lat="44.47614" lon="1.53452">
        <ele>225</ele>
        <time>2011-04-02T12:03:14</time>
      </trkpt>
      <trkpt lat="44.47608" lon="1.53447">
        <ele>225</ele>
        <time>2011-04-02T12:03:15</time>
      </trkpt>
      <trkpt lat="44.47595" lon="1.53439">
        <ele>225</ele>
        <time>2011-04-02T12:03:17</time>
      </trkpt>
      <trkpt lat="44.47588" lon="1.53435">
        <ele>225</ele>
        <time>2011-04-02T12:03:18</time>
      </trkpt>
      <trkpt lat="44.47575" lon="1.53426">
        <ele>225</ele>
        <time>2011-04-02T12:03:20</time>
      </trkpt>
      <trkpt lat="44.4757" lon="1.53421">
        <ele>225</ele>
        <time>2011-04-02T12:03:21</time>
      </trkpt>
      <trkpt lat="44.47565" lon="1.53415">
        <ele>225</ele>
        <time>2011-04-02T12:03:22</time>
      </trkpt>
      <trkpt lat="44.47557" lon="1.53403">
        <ele>225</ele>
        <time>2011-04-02T12:03:24</time>
      </trkpt>
      <trkpt lat="44.47547" lon="1.53395">
        <ele>225</ele>
        <time>2011-04-02T12:03:26</time>
      </trkpt>
      <trkpt lat="44.47543" lon="1.53392">
        <ele>225</ele>
        <time>2011-04-02T12:03:27</time>
      </trkpt>
      <trkpt lat="44.47538" lon="1.53386">
        <ele>215</ele>
        <time>2011-04-02T12:03:29</time>
      </trkpt>
      <trkpt lat="44.47533" lon="1.53382">
        <ele>215</ele>
        <time>2011-04-02T12:03:32</time>
      </trkpt>
      <trkpt lat="44.4753" lon="1.5338">
        <ele>215</ele>
        <time>2011-04-02T12:03:34</time>
      </trkpt>
      <trkpt lat="44.47529" lon="1.53378">
        <ele>215</ele>
        <time>2011-04-02T12:03:36</time>
      </trkpt>
      <trkpt lat="44.47528" lon="1.53376">
        <ele>215</ele>
        <time>2011-04-02T12:03:38</time>
      </trkpt>
      <trkpt lat="44.47527" lon="1.53372">
        <ele>216</ele>
        <time>2011-04-02T12:03:40</time>
      </trkpt>
      <trkpt lat="44.47526" lon="1.53368">
        <ele>216</ele>
        <time>2011-04-02T12:03:43</time>
      </trkpt>
      <trkpt lat="44.47524" lon="1.53364">
        <ele>216</ele>
        <time>2011-04-02T12:03:45</time>
      </trkpt>
      <trkpt lat="44.47522" lon="1.53361">
        <ele>216</ele>
        <time>2011-04-02T12:03:47</time>
      </trkpt>
      <trkpt lat="44.47519" lon="1.53354">
        <ele>216</ele>
        <time>2011-04-02T12:03:49</time>
      </trkpt>
      <trkpt lat="44.47517" lon="1.53346">
        <ele>216</ele>
        <time>2011-04-02T12:03:51</time>
      </trkpt>
      <trkpt lat="44.47516" lon="1.53342">
        <ele>216</ele>
        <time>2011-04-02T12:03:52</time>
      </trkpt>
      <trkpt lat="44.47514" lon="1.53335">
        <ele>216</ele>
        <time>2011-04-02T12:03:54</time>
      </trkpt>
      <trkpt lat="44.47513" lon="1.53326">
        <ele>216</ele>
        <time>2011-04-02T12:03:56</time>
      </trkpt>
      <trkpt lat="44.47513" lon="1.53314">
        <ele>216</ele>
        <time>2011-04-02T12:03:58</time>
      </trkpt>
      <trkpt lat="44.47513" lon="1.53308">
        <ele>216</ele>
        <time>2011-04-02T12:03:59</time>
      </trkpt>
      <trkpt lat="44.47513" lon="1.53295">
        <ele>216</ele>
        <time>2011-04-02T12:04:01</time>
      </trkpt>
      <trkpt lat="44.47512" lon="1.53281">
        <ele>210</ele>
        <time>2011-04-02T12:04:03</time>
      </trkpt>
      <trkpt lat="44.47512" lon="1.53267">
        <ele>210</ele>
        <time>2011-04-02T12:04:05</time>
      </trkpt>
      <trkpt lat="44.47513" lon="1.53259">
        <ele>210</ele>
        <time>2011-04-02T12:04:06</time>
      </trkpt>
      <trkpt lat="44.47514" lon="1.53245">
        <ele>210</ele>
        <time>2011-04-02T12:04:08</time>
      </trkpt>
      <trkpt lat="44.47515" lon="1.53232">
        <ele>210</ele>
        <time>2011-04-02T12:04:10</time>
      </trkpt>
      <trkpt lat="44.47515" lon="1.53227">
        <ele>210</ele>
        <time>2011-04-02T12:04:11</time>
      </trkpt>
      <trkpt lat="44.47515" lon="1.53223">
        <ele>210</ele>
        <time>2011-04-02T12:04:12</time>
      </trkpt>
      <trkpt lat="44.47514" lon="1.5322">
        <ele>210</ele>
        <time>2011-04-02T12:04:13</time>
      </trkpt>
      <trkpt lat="44.47512" lon="1.53216">
        <ele>210</ele>
        <time>2011-04-02T12:04:23</time>
      </trkpt>
      <trkpt lat="44.47507" lon="1.53216">
        <ele>210</ele>
        <time>2011-04-02T12:04:25</time>
      </trkpt>
      <trkpt lat="44.47503" lon="1.53216">
        <ele>210</ele>
        <time>2011-04-02T12:04:26</time>
      </trkpt>
      <trkpt lat="44.47499" lon="1.53215">
        <ele>210</ele>
        <time>2011-04-02T12:04:27</time>
      </trkpt>
      <trkpt lat="44.47496" lon="1.53215">
        <ele>210</ele>
        <time>2011-04-02T12:04:28</time>
      </trkpt>
      <trkpt lat="44.47489" lon="1.53212">
        <ele>210</ele>
        <time>2011-04-02T12:04:30</time>
      </trkpt>
      <trkpt lat="44.4748" lon="1.53208">
        <ele>203</ele>
        <time>2011-04-02T12:04:32</time>
      </trkpt>
      <trkpt lat="44.47475" lon="1.53206">
        <ele>203</ele>
        <time>2011-04-02T12:04:33</time>
      </trkpt>
      <trkpt lat="44.47462" lon="1.53204">
        <ele>203</ele>
        <time>2011-04-02T12:04:35</time>
      </trkpt>
      <trkpt lat="44.4745" lon="1.53201">
        <ele>198</ele>
        <time>2011-04-02T12:04:37</time>
      </trkpt>
      <trkpt lat="44.4744" lon="1.53196">
        <ele>198</ele>
        <time>2011-04-02T12:04:39</time>
      </trkpt>
      <trkpt lat="44.47434" lon="1.53193">
        <ele>198</ele>
        <time>2011-04-02T12:04:40</time>
      </trkpt>
      <trkpt lat="44.47425" lon="1.53181">
        <ele>198</ele>
        <time>2011-04-02T12:04:42</time>
      </trkpt>
      <trkpt lat="44.47421" lon="1.53175">
        <ele>198</ele>
        <time>2011-04-02T12:04:43</time>
      </trkpt>
      <trkpt lat="44.47417" lon="1.53169">
        <ele>198</ele>
        <time>2011-04-02T12:04:44</time>
      </trkpt>
      <trkpt lat="44.47407" lon="1.53159">
        <ele>198</ele>
        <time>2011-04-02T12:04:46</time>
      </trkpt>
      <trkpt lat="44.47394" lon="1.53148">
        <ele>198</ele>
        <time>2011-04-02T12:04:48</time>
      </trkpt>
      <trkpt lat="44.47388" lon="1.53146">
        <ele>198</ele>
        <time>2011-04-02T12:04:49</time>
      </trkpt>
      <trkpt lat="44.47381" lon="1.53144">
        <ele>198</ele>
        <time>2011-04-02T12:04:50</time>
      </trkpt>
      <trkpt lat="44.47367" lon="1.53138">
        <ele>197</ele>
        <time>2011-04-02T12:04:52</time>
      </trkpt>
      <trkpt lat="44.47353" lon="1.53131">
        <ele>197</ele>
        <time>2011-04-02T12:04:54</time>
      </trkpt>
      <trkpt lat="44.47347" lon="1.53128">
        <ele>197</ele>
        <time>2011-04-02T12:04:55</time>
      </trkpt>
      <trkpt lat="44.47339" lon="1.53124">
        <ele>190</ele>
        <time>2011-04-02T12:04:56</time>
      </trkpt>
      <trkpt lat="44.47334" lon="1.53122">
        <ele>190</ele>
        <time>2011-04-02T12:04:57</time>
      </trkpt>
      <trkpt lat="44.47325" lon="1.53117">
        <ele>190</ele>
        <time>2011-04-02T12:04:59</time>
      </trkpt>
      <trkpt lat="44.4732" lon="1.53114">
        <ele>190</ele>
        <time>2011-04-02T12:05:00</time>
      </trkpt>
      <trkpt lat="44.47309" lon="1.53109">
        <ele>190</ele>
        <time>2011-04-02T12:05:02</time>
      </trkpt>
      <trkpt lat="44.47304" lon="1.53106">
        <ele>190</ele>
        <time>2011-04-02T12:05:03</time>
      </trkpt>
      <trkpt lat="44.47291" lon="1.53101">
        <ele>184</ele>
        <time>2011-04-02T12:05:05</time>
      </trkpt>
      <trkpt lat="44.47279" lon="1.53092">
        <ele>184</ele>
        <time>2011-04-02T12:05:07</time>
      </trkpt>
      <trkpt lat="44.47267" lon="1.53086">
        <ele>184</ele>
        <time>2011-04-02T12:05:09</time>
      </trkpt>
      <trkpt lat="44.47261" lon="1.53084">
        <ele>184</ele>
        <time>2011-04-02T12:05:10</time>
      </trkpt>
      <trkpt lat="44.4725" lon="1.5308">
        <ele>184</ele>
        <time>2011-04-02T12:05:12</time>
      </trkpt>
      <trkpt lat="44.47244" lon="1.53078">
        <ele>184</ele>
        <time>2011-04-02T12:05:13</time>
      </trkpt>
      <trkpt lat="44.47233" lon="1.53074">
        <ele>184</ele>
        <time>2011-04-02T12:05:15</time>
      </trkpt>
      <trkpt lat="44.47227" lon="1.53071">
        <ele>184</ele>
        <time>2011-04-02T12:05:16</time>
      </trkpt>
      <trkpt lat="44.4722" lon="1.53069">
        <ele>184</ele>
        <time>2011-04-02T12:05:17</time>
      </trkpt>
      <trkpt lat="44.47209" lon="1.53063">
        <ele>184</ele>
        <time>2011-04-02T12:05:19</time>
      </trkpt>
      <trkpt lat="44.47203" lon="1.53059">
        <ele>176</ele>
        <time>2011-04-02T12:05:20</time>
      </trkpt>
      <trkpt lat="44.47191" lon="1.53051">
        <ele>176</ele>
        <time>2011-04-02T12:05:22</time>
      </trkpt>
      <trkpt lat="44.47186" lon="1.53048">
        <ele>176</ele>
        <time>2011-04-02T12:05:23</time>
      </trkpt>
      <trkpt lat="44.47176" lon="1.53039">
        <ele>183</ele>
        <time>2011-04-02T12:05:25</time>
      </trkpt>
      <trkpt lat="44.47171" lon="1.53035">
        <ele>183</ele>
        <time>2011-04-02T12:05:26</time>
      </trkpt>
      <trkpt lat="44.47166" lon="1.5303">
        <ele>183</ele>
        <time>2011-04-02T12:05:27</time>
      </trkpt>
      <trkpt lat="44.47155" lon="1.5302">
        <ele>183</ele>
        <time>2011-04-02T12:05:29</time>
      </trkpt>
      <trkpt lat="44.47149" lon="1.53015">
        <ele>183</ele>
        <time>2011-04-02T12:05:30</time>
      </trkpt>
      <trkpt lat="44.47143" lon="1.5301">
        <ele>183</ele>
        <time>2011-04-02T12:05:31</time>
      </trkpt>
      <trkpt lat="44.47132" lon="1.53002">
        <ele>183</ele>
        <time>2011-04-02T12:05:33</time>
      </trkpt>
      <trkpt lat="44.47126" lon="1.52998">
        <ele>183</ele>
        <time>2011-04-02T12:05:34</time>
      </trkpt>
      <trkpt lat="44.47114" lon="1.52989">
        <ele>170</ele>
        <time>2011-04-02T12:05:36</time>
      </trkpt>
      <trkpt lat="44.47103" lon="1.52982">
        <ele>170</ele>
        <time>2011-04-02T12:05:38</time>
      </trkpt>
      <trkpt lat="44.47091" lon="1.52976">
        <ele>170</ele>
        <time>2011-04-02T12:05:40</time>
      </trkpt>
      <trkpt lat="44.47084" lon="1.52974">
        <ele>170</ele>
        <time>2011-04-02T12:05:41</time>
      </trkpt>
      <trkpt lat="44.47077" lon="1.52972">
        <ele>170</ele>
        <time>2011-04-02T12:05:42</time>
      </trkpt>
      <trkpt lat="44.47066" lon="1.52969">
        <ele>170</ele>
        <time>2011-04-02T12:05:44</time>
      </trkpt>
      <trkpt lat="44.47062" lon="1.52968">
        <ele>170</ele>
        <time>2011-04-02T12:05:45</time>
      </trkpt>
      <trkpt lat="44.47054" lon="1.52964">
        <ele>170</ele>
        <time>2011-04-02T12:05:47</time>
      </trkpt>
      <trkpt lat="44.4705" lon="1.52962">
        <ele>170</ele>
        <time>2011-04-02T12:05:48</time>
      </trkpt>
      <trkpt lat="44.47043" lon="1.52955">
        <ele>186</ele>
        <time>2011-04-02T12:05:50</time>
      </trkpt>
      <trkpt lat="44.4704" lon="1.52951">
        <ele>155</ele>
        <time>2011-04-02T12:05:51</time>
      </trkpt>
      <trkpt lat="44.47034" lon="1.52943">
        <ele>155</ele>
        <time>2011-04-02T12:05:53</time>
      </trkpt>
      <trkpt lat="44.47032" lon="1.52939">
        <ele>155</ele>
        <time>2011-04-02T12:05:54</time>
      </trkpt>
      <trkpt lat="44.4703" lon="1.52934">
        <ele>155</ele>
        <time>2011-04-02T12:05:55</time>
      </trkpt>
      <trkpt lat="44.47026" lon="1.52927">
        <ele>155</ele>
        <time>2011-04-02T12:05:57</time>
      </trkpt>
      <trkpt lat="44.47024" lon="1.52922">
        <ele>155</ele>
        <time>2011-04-02T12:06:08</time>
      </trkpt>
      <trkpt lat="44.47022" lon="1.52918">
        <ele>155</ele>
        <time>2011-04-02T12:06:10</time>
      </trkpt>
      <trkpt lat="44.4702" lon="1.52915">
        <ele>155</ele>
        <time>2011-04-02T12:06:12</time>
      </trkpt>
      <trkpt lat="44.47018" lon="1.5291">
        <ele>155</ele>
        <time>2011-04-02T12:06:14</time>
      </trkpt>
      <trkpt lat="44.47017" lon="1.52907">
        <ele>155</ele>
        <time>2011-04-02T12:06:15</time>
      </trkpt>
      <trkpt lat="44.47014" lon="1.52901">
        <ele>155</ele>
        <time>2011-04-02T12:06:17</time>
      </trkpt>
      <trkpt lat="44.47013" lon="1.52897">
        <ele>155</ele>
        <time>2011-04-02T12:06:18</time>
      </trkpt>
      <trkpt lat="44.4701" lon="1.5289">
        <ele>155</ele>
        <time>2011-04-02T12:06:20</time>
      </trkpt>
      <trkpt lat="44.47006" lon="1.5288">
        <ele>155</ele>
        <time>2011-04-02T12:06:22</time>
      </trkpt>
      <trkpt lat="44.47004" lon="1.52875">
        <ele>175</ele>
        <time>2011-04-02T12:06:23</time>
      </trkpt>
      <trkpt lat="44.47002" lon="1.5287">
        <ele>175</ele>
        <time>2011-04-02T12:06:24</time>
      </trkpt>
      <trkpt lat="44.46999" lon="1.52866">
        <ele>175</ele>
        <time>2011-04-02T12:06:25</time>
      </trkpt>
      <trkpt lat="44.46996" lon="1.52857">
        <ele>175</ele>
        <time>2011-04-02T12:06:27</time>
      </trkpt>
      <trkpt lat="44.46992" lon="1.52849">
        <ele>175</ele>
        <time>2011-04-02T12:06:29</time>
      </trkpt>
      <trkpt lat="44.46986" lon="1.52843">
        <ele>175</ele>
        <time>2011-04-02T12:06:31</time>
      </trkpt>
      <trkpt lat="44.46983" lon="1.5284">
        <ele>175</ele>
        <time>2011-04-02T12:06:32</time>
      </trkpt>
      <trkpt lat="44.46979" lon="1.52836">
        <ele>175</ele>
        <time>2011-04-02T12:06:33</time>
      </trkpt>
      <trkpt lat="44.46971" lon="1.5283">
        <ele>175</ele>
        <time>2011-04-02T12:06:35</time>
      </trkpt>
      <trkpt lat="44.46967" lon="1.52827">
        <ele>175</ele>
        <time>2011-04-02T12:06:36</time>
      </trkpt>
      <trkpt lat="44.46962" lon="1.52825">
        <ele>175</ele>
        <time>2011-04-02T12:06:37</time>
      </trkpt>
      <trkpt lat="44.46953" lon="1.52819">
        <ele>144</ele>
        <time>2011-04-02T12:06:39</time>
      </trkpt>
      <trkpt lat="44.46948" lon="1.52816">
        <ele>144</ele>
        <time>2011-04-02T12:06:40</time>
      </trkpt>
      <trkpt lat="44.46942" lon="1.52809">
        <ele>144</ele>
        <time>2011-04-02T12:06:42</time>
      </trkpt>
      <trkpt lat="44.46939" lon="1.52806">
        <ele>144</ele>
        <time>2011-04-02T12:06:43</time>
      </trkpt>
      <trkpt lat="44.46935" lon="1.52801">
        <ele>144</ele>
        <time>2011-04-02T12:06:45</time>
      </trkpt>
      <trkpt lat="44.46932" lon="1.52797">
        <ele>144</ele>
        <time>2011-04-02T12:06:48</time>
      </trkpt>
      <trkpt lat="44.46931" lon="1.52794">
        <ele>144</ele>
        <time>2011-04-02T12:06:55</time>
      </trkpt>
      <trkpt lat="44.46927" lon="1.52787">
        <ele>160</ele>
        <time>2011-04-02T12:07:04</time>
      </trkpt>
      <trkpt lat="44.46925" lon="1.52786">
        <ele>160</ele>
        <time>2011-04-02T12:07:06</time>
      </trkpt>
      <trkpt lat="44.46921" lon="1.52784">
        <ele>160</ele>
        <time>2011-04-02T12:07:08</time>
      </trkpt>
      <trkpt lat="44.46918" lon="1.52784">
        <ele>160</ele>
        <time>2011-04-02T12:07:09</time>
      </trkpt>
      <trkpt lat="44.46915" lon="1.52783">
        <ele>160</ele>
        <time>2011-04-02T12:07:10</time>
      </trkpt>
      <trkpt lat="44.46908" lon="1.52782">
        <ele>160</ele>
        <time>2011-04-02T12:07:12</time>
      </trkpt>
      <trkpt lat="44.46901" lon="1.52778">
        <ele>160</ele>
        <time>2011-04-02T12:07:14</time>
      </trkpt>
      <trkpt lat="44.46897" lon="1.52773">
        <ele>160</ele>
        <time>2011-04-02T12:07:15</time>
      </trkpt>
      <trkpt lat="44.4689" lon="1.52763">
        <ele>160</ele>
        <time>2011-04-02T12:07:17</time>
      </trkpt>
      <trkpt lat="44.46883" lon="1.52753">
        <ele>160</ele>
        <time>2011-04-02T12:07:19</time>
      </trkpt>
      <trkpt lat="44.46879" lon="1.52749">
        <ele>160</ele>
        <time>2011-04-02T12:07:20</time>
      </trkpt>
      <trkpt lat="44.46868" lon="1.52746">
        <ele>140</ele>
        <time>2011-04-02T12:07:22</time>
      </trkpt>
      <trkpt lat="44.46864" lon="1.52746">
        <ele>140</ele>
        <time>2011-04-02T12:07:23</time>
      </trkpt>
      <trkpt lat="44.46857" lon="1.52742">
        <ele>140</ele>
        <time>2011-04-02T12:07:25</time>
      </trkpt>
      <trkpt lat="44.46854" lon="1.52735">
        <ele>140</ele>
        <time>2011-04-02T12:07:28</time>
      </trkpt>
      <trkpt lat="44.46854" lon="1.52731">
        <ele>140</ele>
        <time>2011-04-02T12:07:30</time>
      </trkpt>
      <trkpt lat="44.46855" lon="1.52728">
        <ele>140</ele>
        <time>2011-04-02T12:07:32</time>
      </trkpt>
      <trkpt lat="44.46856" lon="1.52725">
        <ele>140</ele>
        <time>2011-04-02T12:07:34</time>
      </trkpt>
      <trkpt lat="44.46855" lon="1.52721">
        <ele>140</ele>
        <time>2011-04-02T12:07:43</time>
      </trkpt>
      <trkpt lat="44.46852" lon="1.52717">
        <ele>140</ele>
        <time>2011-04-02T12:07:45</time>
      </trkpt>
      <trkpt lat="44.46846" lon="1.52715">
        <ele>140</ele>
        <time>2011-04-02T12:07:47</time>
      </trkpt>
      <trkpt lat="44.46844" lon="1.52715">
        <ele>140</ele>
        <time>2011-04-02T12:07:48</time>
      </trkpt>
      <trkpt lat="44.46841" lon="1.52715">
        <ele>140</ele>
        <time>2011-04-02T12:07:49</time>
      </trkpt>
      <trkpt lat="44.46835" lon="1.52715">
        <ele>140</ele>
        <time>2011-04-02T12:07:51</time>
      </trkpt>
      <trkpt lat="44.46832" lon="1.52715">
        <ele>140</ele>
        <time>2011-04-02T12:07:52</time>
      </trkpt>
      <trkpt lat="44.4683" lon="1.52714">
        <ele>140</ele>
        <time>2011-04-02T12:07:53</time>
      </trkpt>
      <trkpt lat="44.46828" lon="1.52707">
        <ele>140</ele>
        <time>2011-04-02T12:07:56</time>
      </trkpt>
      <trkpt lat="44.46829" lon="1.52705">
        <ele>140</ele>
        <time>2011-04-02T12:07:57</time>
      </trkpt>
      <trkpt lat="44.4683" lon="1.52701">
        <ele>140</ele>
        <time>2011-04-02T12:08:13</time>
      </trkpt>
      <trkpt lat="44.46833" lon="1.52696">
        <ele>140</ele>
        <time>2011-04-02T12:08:15</time>
      </trkpt>
      <trkpt lat="44.46837" lon="1.52689">
        <ele>140</ele>
        <time>2011-04-02T12:08:17</time>
      </trkpt>
      <trkpt lat="44.46838" lon="1.52685">
        <ele>140</ele>
        <time>2011-04-02T12:08:18</time>
      </trkpt>
      <trkpt lat="44.46844" lon="1.52677">
        <ele>140</ele>
        <time>2011-04-02T12:08:20</time>
      </trkpt>
      <trkpt lat="44.46847" lon="1.52673">
        <ele>140</ele>
        <time>2011-04-02T12:08:21</time>
      </trkpt>
      <trkpt lat="44.46853" lon="1.52665">
        <ele>140</ele>
        <time>2011-04-02T12:08:23</time>
      </trkpt>
      <trkpt lat="44.46857" lon="1.52661">
        <ele>140</ele>
        <time>2011-04-02T12:08:24</time>
      </trkpt>
      <trkpt lat="44.46863" lon="1.52652">
        <ele>140</ele>
        <time>2011-04-02T12:08:26</time>
      </trkpt>
      <trkpt lat="44.4687" lon="1.52643">
        <ele>140</ele>
        <time>2011-04-02T12:08:28</time>
      </trkpt>
      <trkpt lat="44.46875" lon="1.52637">
        <ele>140</ele>
        <time>2011-04-02T12:08:30</time>
      </trkpt>
      <trkpt lat="44.46877" lon="1.52634">
        <ele>150</ele>
        <time>2011-04-02T12:08:31</time>
      </trkpt>
      <trkpt lat="44.46881" lon="1.52629">
        <ele>150</ele>
        <time>2011-04-02T12:08:33</time>
      </trkpt>
      <trkpt lat="44.46882" lon="1.52626">
        <ele>150</ele>
        <time>2011-04-02T12:08:34</time>
      </trkpt>
      <trkpt lat="44.46885" lon="1.5262">
        <ele>132</ele>
        <time>2011-04-02T12:08:36</time>
      </trkpt>
      <trkpt lat="44.46887" lon="1.52617">
        <ele>132</ele>
        <time>2011-04-02T12:08:37</time>
      </trkpt>
      <trkpt lat="44.46886" lon="1.52611">
        <ele>132</ele>
        <time>2011-04-02T12:08:39</time>
      </trkpt>
      <trkpt lat="44.46882" lon="1.52607">
        <ele>132</ele>
        <time>2011-04-02T12:08:40</time>
      </trkpt>
      <trkpt lat="44.46878" lon="1.52603">
        <ele>132</ele>
        <time>2011-04-02T12:08:41</time>
      </trkpt>
      <trkpt lat="44.4687" lon="1.52599">
        <ele>131</ele>
        <time>2011-04-02T12:08:43</time>
      </trkpt>
      <trkpt lat="44.46867" lon="1.52598">
        <ele>131</ele>
        <time>2011-04-02T12:08:44</time>
      </trkpt>
      <trkpt lat="44.46865" lon="1.52597">
        <ele>131</ele>
        <time>2011-04-02T12:08:45</time>
      </trkpt>
      <trkpt lat="44.4686" lon="1.52595">
        <ele>131</ele>
        <time>2011-04-02T12:08:47</time>
      </trkpt>
      <trkpt lat="44.46858" lon="1.52594">
        <ele>131</ele>
        <time>2011-04-02T12:08:48</time>
      </trkpt>
      <trkpt lat="44.46852" lon="1.52592">
        <ele>131</ele>
        <time>2011-04-02T12:08:50</time>
      </trkpt>
      <trkpt lat="44.46849" lon="1.52592">
        <ele>131</ele>
        <time>2011-04-02T12:08:51</time>
      </trkpt>
      <trkpt lat="44.46843" lon="1.52592">
        <ele>131</ele>
        <time>2011-04-02T12:08:53</time>
      </trkpt>
      <trkpt lat="44.46837" lon="1.52594">
        <ele>131</ele>
        <time>2011-04-02T12:08:55</time>
      </trkpt>
      <trkpt lat="44.46833" lon="1.52595">
        <ele>131</ele>
        <time>2011-04-02T12:08:56</time>
      </trkpt>
      <trkpt lat="44.46826" lon="1.52597">
        <ele>131</ele>
        <time>2011-04-02T12:08:58</time>
      </trkpt>
      <trkpt lat="44.46822" lon="1.52599">
        <ele>131</ele>
        <time>2011-04-02T12:08:59</time>
      </trkpt>
      <trkpt lat="44.46814" lon="1.52604">
        <ele>131</ele>
        <time>2011-04-02T12:09:01</time>
      </trkpt>
      <trkpt lat="44.46806" lon="1.52605">
        <ele>131</ele>
        <time>2011-04-02T12:09:03</time>
      </trkpt>
      <trkpt lat="44.46801" lon="1.526">
        <ele>131</ele>
        <time>2011-04-02T12:09:05</time>
      </trkpt>
      <trkpt lat="44.468" lon="1.52597">
        <ele>131</ele>
        <time>2011-04-02T12:09:06</time>
      </trkpt>
      <trkpt lat="44.46799" lon="1.52593">
        <ele>131</ele>
        <time>2011-04-02T12:09:08</time>
      </trkpt>
      <trkpt lat="44.46798" lon="1.5259">
        <ele>131</ele>
        <time>2011-04-02T12:09:10</time>
      </trkpt>
      <trkpt lat="44.46796" lon="1.52587">
        <ele>131</ele>
        <time>2011-04-02T12:09:12</time>
      </trkpt>
      <trkpt lat="44.46798" lon="1.52583">
        <ele>131</ele>
        <time>2011-04-02T12:09:16</time>
      </trkpt>
      <trkpt lat="44.46803" lon="1.5258">
        <ele>131</ele>
        <time>2011-04-02T12:09:18</time>
      </trkpt>
      <trkpt lat="44.46805" lon="1.52579">
        <ele>131</ele>
        <time>2011-04-02T12:09:19</time>
      </trkpt>
      <trkpt lat="44.46807" lon="1.52578">
        <ele>131</ele>
        <time>2011-04-02T12:09:20</time>
      </trkpt>
      <trkpt lat="44.4681" lon="1.52578">
        <ele>131</ele>
        <time>2011-04-02T12:09:21</time>
      </trkpt>
      <trkpt lat="44.46815" lon="1.52577">
        <ele>131</ele>
        <time>2011-04-02T12:09:23</time>
      </trkpt>
      <trkpt lat="44.46817" lon="1.52577">
        <ele>131</ele>
        <time>2011-04-02T12:09:24</time>
      </trkpt>
      <trkpt lat="44.46823" lon="1.52577">
        <ele>131</ele>
        <time>2011-04-02T12:09:26</time>
      </trkpt>
      <trkpt lat="44.46825" lon="1.52577">
        <ele>131</ele>
        <time>2011-04-02T12:09:27</time>
      </trkpt>
      <trkpt lat="44.46831" lon="1.52578">
        <ele>131</ele>
        <time>2011-04-02T12:09:29</time>
      </trkpt>
      <trkpt lat="44.46836" lon="1.52578">
        <ele>131</ele>
        <time>2011-04-02T12:09:31</time>
      </trkpt>
      <trkpt lat="44.46839" lon="1.52578">
        <ele>131</ele>
        <time>2011-04-02T12:09:32</time>
      </trkpt>
      <trkpt lat="44.46848" lon="1.52576">
        <ele>131</ele>
        <time>2011-04-02T12:09:34</time>
      </trkpt>
      <trkpt lat="44.46853" lon="1.52575">
        <ele>131</ele>
        <time>2011-04-02T12:09:35</time>
      </trkpt>
      <trkpt lat="44.46862" lon="1.52575">
        <ele>131</ele>
        <time>2011-04-02T12:09:37</time>
      </trkpt>
      <trkpt lat="44.46868" lon="1.52577">
        <ele>131</ele>
        <time>2011-04-02T12:09:39</time>
      </trkpt>
      <trkpt lat="44.46872" lon="1.52578">
        <ele>131</ele>
        <time>2011-04-02T12:09:40</time>
      </trkpt>
      <trkpt lat="44.46877" lon="1.5258">
        <ele>132</ele>
        <time>2011-04-02T12:09:42</time>
      </trkpt>
      <trkpt lat="44.46879" lon="1.5258">
        <ele>132</ele>
        <time>2011-04-02T12:09:43</time>
      </trkpt>
      <trkpt lat="44.46885" lon="1.52582">
        <ele>132</ele>
        <time>2011-04-02T12:09:45</time>
      </trkpt>
      <trkpt lat="44.46889" lon="1.52582">
        <ele>132</ele>
        <time>2011-04-02T12:09:46</time>
      </trkpt>
      <trkpt lat="44.46894" lon="1.52582">
        <ele>132</ele>
        <time>2011-04-02T12:09:47</time>
      </trkpt>
      <trkpt lat="44.46906" lon="1.52584">
        <ele>132</ele>
        <time>2011-04-02T12:09:49</time>
      </trkpt>
      <trkpt lat="44.46911" lon="1.52584">
        <ele>132</ele>
        <time>2011-04-02T12:09:50</time>
      </trkpt>
      <trkpt lat="44.46919" lon="1.52582">
        <ele>132</ele>
        <time>2011-04-02T12:09:52</time>
      </trkpt>
      <trkpt lat="44.46926" lon="1.52582">
        <ele>132</ele>
        <time>2011-04-02T12:09:54</time>
      </trkpt>
      <trkpt lat="44.4693" lon="1.52581">
        <ele>132</ele>
        <time>2011-04-02T12:09:55</time>
      </trkpt>
      <trkpt lat="44.46934" lon="1.52579">
        <ele>132</ele>
        <time>2011-04-02T12:09:56</time>
      </trkpt>
      <trkpt lat="44.46937" lon="1.52578">
        <ele>132</ele>
        <time>2011-04-02T12:09:57</time>
      </trkpt>
      <trkpt lat="44.46941" lon="1.52575">
        <ele>132</ele>
        <time>2011-04-02T12:10:00</time>
      </trkpt>
      <trkpt lat="44.46945" lon="1.52572">
        <ele>132</ele>
        <time>2011-04-02T12:10:02</time>
      </trkpt>
      <trkpt lat="44.46949" lon="1.5257">
        <ele>132</ele>
        <time>2011-04-02T12:10:04</time>
      </trkpt>
      <trkpt lat="44.46955" lon="1.52567">
        <ele>132</ele>
        <time>2011-04-02T12:10:06</time>
      </trkpt>
      <trkpt lat="44.46958" lon="1.52566">
        <ele>132</ele>
        <time>2011-04-02T12:10:07</time>
      </trkpt>
      <trkpt lat="44.46967" lon="1.52562">
        <ele>139</ele>
        <time>2011-04-02T12:10:09</time>
      </trkpt>
      <trkpt lat="44.46971" lon="1.5256">
        <ele>139</ele>
        <time>2011-04-02T12:10:10</time>
      </trkpt>
      <trkpt lat="44.4698" lon="1.52556">
        <ele>139</ele>
        <time>2011-04-02T12:10:12</time>
      </trkpt>
      <trkpt lat="44.46984" lon="1.52553">
        <ele>139</ele>
        <time>2011-04-02T12:10:13</time>
      </trkpt>
      <trkpt lat="44.46993" lon="1.52551">
        <ele>139</ele>
        <time>2011-04-02T12:10:15</time>
      </trkpt>
      <trkpt lat="44.46998" lon="1.5255">
        <ele>139</ele>
        <time>2011-04-02T12:10:16</time>
      </trkpt>
      <trkpt lat="44.47007" lon="1.52551">
        <ele>139</ele>
        <time>2011-04-02T12:10:18</time>
      </trkpt>
      <trkpt lat="44.47017" lon="1.52548">
        <ele>139</ele>
        <time>2011-04-02T12:10:20</time>
      </trkpt>
      <trkpt lat="44.47026" lon="1.52544">
        <ele>139</ele>
        <time>2011-04-02T12:10:22</time>
      </trkpt>
      <trkpt lat="44.47034" lon="1.52539">
        <ele>130</ele>
        <time>2011-04-02T12:10:24</time>
      </trkpt>
      <trkpt lat="44.47037" lon="1.52536">
        <ele>130</ele>
        <time>2011-04-02T12:10:25</time>
      </trkpt>
      <trkpt lat="44.47042" lon="1.5253">
        <ele>130</ele>
        <time>2011-04-02T12:10:27</time>
      </trkpt>
      <trkpt lat="44.47047" lon="1.52527">
        <ele>130</ele>
        <time>2011-04-02T12:10:29</time>
      </trkpt>
      <trkpt lat="44.4705" lon="1.52525">
        <ele>130</ele>
        <time>2011-04-02T12:10:30</time>
      </trkpt>
      <trkpt lat="44.47055" lon="1.52521">
        <ele>130</ele>
        <time>2011-04-02T12:10:32</time>
      </trkpt>
      <trkpt lat="44.47058" lon="1.52519">
        <ele>130</ele>
        <time>2011-04-02T12:10:33</time>
      </trkpt>
      <trkpt lat="44.47061" lon="1.52518">
        <ele>130</ele>
        <time>2011-04-02T12:10:34</time>
      </trkpt>
      <trkpt lat="44.47066" lon="1.52512">
        <ele>130</ele>
        <time>2011-04-02T12:10:36</time>
      </trkpt>
      <trkpt lat="44.47069" lon="1.5251">
        <ele>130</ele>
        <time>2011-04-02T12:10:37</time>
      </trkpt>
      <trkpt lat="44.47075" lon="1.52505">
        <ele>130</ele>
        <time>2011-04-02T12:10:39</time>
      </trkpt>
      <trkpt lat="44.47079" lon="1.52503">
        <ele>130</ele>
        <time>2011-04-02T12:10:41</time>
      </trkpt>
      <trkpt lat="44.47081" lon="1.52501">
        <ele>130</ele>
        <time>2011-04-02T12:10:42</time>
      </trkpt>
      <trkpt lat="44.47087" lon="1.52497">
        <ele>130</ele>
        <time>2011-04-02T12:10:44</time>
      </trkpt>
      <trkpt lat="44.4709" lon="1.52495">
        <ele>130</ele>
        <time>2011-04-02T12:10:45</time>
      </trkpt>
      <trkpt lat="44.47097" lon="1.52491">
        <ele>130</ele>
        <time>2011-04-02T12:10:47</time>
      </trkpt>
      <trkpt lat="44.47103" lon="1.52488">
        <ele>130</ele>
        <time>2011-04-02T12:10:49</time>
      </trkpt>
      <trkpt lat="44.4711" lon="1.52483">
        <ele>130</ele>
        <time>2011-04-02T12:10:51</time>
      </trkpt>
      <trkpt lat="44.47114" lon="1.52481">
        <ele>130</ele>
        <time>2011-04-02T12:10:52</time>
      </trkpt>
      <trkpt lat="44.47118" lon="1.52479">
        <ele>130</ele>
        <time>2011-04-02T12:10:53</time>
      </trkpt>
      <trkpt lat="44.47125" lon="1.52476">
        <ele>130</ele>
        <time>2011-04-02T12:10:55</time>
      </trkpt>
      <trkpt lat="44.47132" lon="1.52472">
        <ele>145</ele>
        <time>2011-04-02T12:10:57</time>
      </trkpt>
      <trkpt lat="44.47139" lon="1.52467">
        <ele>145</ele>
        <time>2011-04-02T12:10:59</time>
      </trkpt>
      <trkpt lat="44.47142" lon="1.52465">
        <ele>145</ele>
        <time>2011-04-02T12:11:00</time>
      </trkpt>
      <trkpt lat="44.47149" lon="1.5246">
        <ele>145</ele>
        <time>2011-04-02T12:11:02</time>
      </trkpt>
      <trkpt lat="44.47152" lon="1.52457">
        <ele>129</ele>
        <time>2011-04-02T12:11:03</time>
      </trkpt>
      <trkpt lat="44.47156" lon="1.52454">
        <ele>129</ele>
        <time>2011-04-02T12:11:04</time>
      </trkpt>
      <trkpt lat="44.47159" lon="1.52451">
        <ele>129</ele>
        <time>2011-04-02T12:11:05</time>
      </trkpt>
      <trkpt lat="44.47166" lon="1.52445">
        <ele>129</ele>
        <time>2011-04-02T12:11:07</time>
      </trkpt>
      <trkpt lat="44.47173" lon="1.52438">
        <ele>129</ele>
        <time>2011-04-02T12:11:09</time>
      </trkpt>
      <trkpt lat="44.47179" lon="1.52433">
        <ele>129</ele>
        <time>2011-04-02T12:11:11</time>
      </trkpt>
      <trkpt lat="44.47186" lon="1.52427">
        <ele>129</ele>
        <time>2011-04-02T12:11:13</time>
      </trkpt>
      <trkpt lat="44.4719" lon="1.52424">
        <ele>129</ele>
        <time>2011-04-02T12:11:14</time>
      </trkpt>
      <trkpt lat="44.47196" lon="1.52419">
        <ele>129</ele>
        <time>2011-04-02T12:11:16</time>
      </trkpt>
      <trkpt lat="44.47203" lon="1.52415">
        <ele>129</ele>
        <time>2011-04-02T12:11:18</time>
      </trkpt>
      <trkpt lat="44.47209" lon="1.52411">
        <ele>143</ele>
        <time>2011-04-02T12:11:20</time>
      </trkpt>
      <trkpt lat="44.47212" lon="1.52409">
        <ele>143</ele>
        <time>2011-04-02T12:11:21</time>
      </trkpt>
      <trkpt lat="44.47219" lon="1.52403">
        <ele>143</ele>
        <time>2011-04-02T12:11:23</time>
      </trkpt>
      <trkpt lat="44.47225" lon="1.52397">
        <ele>143</ele>
        <time>2011-04-02T12:11:25</time>
      </trkpt>
      <trkpt lat="44.47231" lon="1.5239">
        <ele>143</ele>
        <time>2011-04-02T12:11:27</time>
      </trkpt>
      <trkpt lat="44.47234" lon="1.52387">
        <ele>143</ele>
        <time>2011-04-02T12:11:28</time>
      </trkpt>
      <trkpt lat="44.4724" lon="1.5238">
        <ele>143</ele>
        <time>2011-04-02T12:11:30</time>
      </trkpt>
      <trkpt lat="44.47246" lon="1.52373">
        <ele>130</ele>
        <time>2011-04-02T12:11:32</time>
      </trkpt>
      <trkpt lat="44.47253" lon="1.52366">
        <ele>130</ele>
        <time>2011-04-02T12:11:34</time>
      </trkpt>
      <trkpt lat="44.47256" lon="1.52363">
        <ele>130</ele>
        <time>2011-04-02T12:11:35</time>
      </trkpt>
      <trkpt lat="44.47262" lon="1.52358">
        <ele>130</ele>
        <time>2011-04-02T12:11:37</time>
      </trkpt>
      <trkpt lat="44.47266" lon="1.52355">
        <ele>130</ele>
        <time>2011-04-02T12:11:38</time>
      </trkpt>
      <trkpt lat="44.47269" lon="1.52353">
        <ele>130</ele>
        <time>2011-04-02T12:11:39</time>
      </trkpt>
      <trkpt lat="44.47276" lon="1.52348">
        <ele>130</ele>
        <time>2011-04-02T12:11:41</time>
      </trkpt>
      <trkpt lat="44.4728" lon="1.52345">
        <ele>130</ele>
        <time>2011-04-02T12:11:42</time>
      </trkpt>
      <trkpt lat="44.47287" lon="1.5234">
        <ele>130</ele>
        <time>2011-04-02T12:11:44</time>
      </trkpt>
      <trkpt lat="44.47294" lon="1.52335">
        <ele>140</ele>
        <time>2011-04-02T12:11:46</time>
      </trkpt>
      <trkpt lat="44.47298" lon="1.52332">
        <ele>140</ele>
        <time>2011-04-02T12:11:47</time>
      </trkpt>
      <trkpt lat="44.47301" lon="1.5233">
        <ele>140</ele>
        <time>2011-04-02T12:11:48</time>
      </trkpt>
      <trkpt lat="44.47309" lon="1.52325">
        <ele>140</ele>
        <time>2011-04-02T12:11:50</time>
      </trkpt>
      <trkpt lat="44.47316" lon="1.5232">
        <ele>140</ele>
        <time>2011-04-02T12:11:52</time>
      </trkpt>
      <trkpt lat="44.47323" lon="1.52316">
        <ele>140</ele>
        <time>2011-04-02T12:11:54</time>
      </trkpt>
      <trkpt lat="44.47327" lon="1.52313">
        <ele>140</ele>
        <time>2011-04-02T12:11:55</time>
      </trkpt>
      <trkpt lat="44.47333" lon="1.52308">
        <ele>140</ele>
        <time>2011-04-02T12:11:57</time>
      </trkpt>
      <trkpt lat="44.47337" lon="1.52305">
        <ele>140</ele>
        <time>2011-04-02T12:11:58</time>
      </trkpt>
      <trkpt lat="44.47343" lon="1.523">
        <ele>140</ele>
        <time>2011-04-02T12:12:00</time>
      </trkpt>
      <trkpt lat="44.4735" lon="1.52296">
        <ele>140</ele>
        <time>2011-04-02T12:12:02</time>
      </trkpt>
      <trkpt lat="44.47353" lon="1.52293">
        <ele>140</ele>
        <time>2011-04-02T12:12:03</time>
      </trkpt>
      <trkpt lat="44.4736" lon="1.52289">
        <ele>130</ele>
        <time>2011-04-02T12:12:05</time>
      </trkpt>
      <trkpt lat="44.47363" lon="1.52286">
        <ele>130</ele>
        <time>2011-04-02T12:12:06</time>
      </trkpt>
      <trkpt lat="44.47366" lon="1.52284">
        <ele>130</ele>
        <time>2011-04-02T12:12:07</time>
      </trkpt>
      <trkpt lat="44.47369" lon="1.52281">
        <ele>130</ele>
        <time>2011-04-02T12:12:08</time>
      </trkpt>
      <trkpt lat="44.47372" lon="1.52279">
        <ele>130</ele>
        <time>2011-04-02T12:12:09</time>
      </trkpt>
      <trkpt lat="44.47379" lon="1.52273">
        <ele>137</ele>
        <time>2011-04-02T12:12:11</time>
      </trkpt>
      <trkpt lat="44.47386" lon="1.52268">
        <ele>137</ele>
        <time>2011-04-02T12:12:13</time>
      </trkpt>
      <trkpt lat="44.4739" lon="1.52265">
        <ele>137</ele>
        <time>2011-04-02T12:12:14</time>
      </trkpt>
      <trkpt lat="44.47393" lon="1.52263">
        <ele>137</ele>
        <time>2011-04-02T12:12:15</time>
      </trkpt>
      <trkpt lat="44.474" lon="1.5226">
        <ele>137</ele>
        <time>2011-04-02T12:12:17</time>
      </trkpt>
      <trkpt lat="44.47407" lon="1.52258">
        <ele>137</ele>
        <time>2011-04-02T12:12:19</time>
      </trkpt>
      <trkpt lat="44.47414" lon="1.52256">
        <ele>137</ele>
        <time>2011-04-02T12:12:21</time>
      </trkpt>
      <trkpt lat="44.47421" lon="1.52254">
        <ele>137</ele>
        <time>2011-04-02T12:12:23</time>
      </trkpt>
      <trkpt lat="44.47428" lon="1.52251">
        <ele>137</ele>
        <time>2011-04-02T12:12:25</time>
      </trkpt>
      <trkpt lat="44.47431" lon="1.5225">
        <ele>137</ele>
        <time>2011-04-02T12:12:26</time>
      </trkpt>
      <trkpt lat="44.47438" lon="1.52246">
        <ele>137</ele>
        <time>2011-04-02T12:12:28</time>
      </trkpt>
      <trkpt lat="44.47445" lon="1.52242">
        <ele>137</ele>
        <time>2011-04-02T12:12:30</time>
      </trkpt>
      <trkpt lat="44.47453" lon="1.52239">
        <ele>137</ele>
        <time>2011-04-02T12:12:32</time>
      </trkpt>
      <trkpt lat="44.47456" lon="1.52238">
        <ele>137</ele>
        <time>2011-04-02T12:12:33</time>
      </trkpt>
      <trkpt lat="44.47463" lon="1.52235">
        <ele>145</ele>
        <time>2011-04-02T12:12:35</time>
      </trkpt>
      <trkpt lat="44.47467" lon="1.52234">
        <ele>145</ele>
        <time>2011-04-02T12:12:36</time>
      </trkpt>
      <trkpt lat="44.47474" lon="1.5223">
        <ele>145</ele>
        <time>2011-04-02T12:12:38</time>
      </trkpt>
      <trkpt lat="44.47481" lon="1.52226">
        <ele>145</ele>
        <time>2011-04-02T12:12:40</time>
      </trkpt>
      <trkpt lat="44.47485" lon="1.52224">
        <ele>145</ele>
        <time>2011-04-02T12:12:41</time>
      </trkpt>
      <trkpt lat="44.47489" lon="1.52221">
        <ele>145</ele>
        <time>2011-04-02T12:12:42</time>
      </trkpt>
      <trkpt lat="44.47493" lon="1.52219">
        <ele>145</ele>
        <time>2011-04-02T12:12:43</time>
      </trkpt>
      <trkpt lat="44.47501" lon="1.52214">
        <ele>145</ele>
        <time>2011-04-02T12:12:45</time>
      </trkpt>
      <trkpt lat="44.47505" lon="1.52211">
        <ele>145</ele>
        <time>2011-04-02T12:12:46</time>
      </trkpt>
      <trkpt lat="44.47513" lon="1.52205">
        <ele>135</ele>
        <time>2011-04-02T12:12:48</time>
      </trkpt>
      <trkpt lat="44.47517" lon="1.52202">
        <ele>135</ele>
        <time>2011-04-02T12:12:49</time>
      </trkpt>
      <trkpt lat="44.47521" lon="1.52199">
        <ele>135</ele>
        <time>2011-04-02T12:12:50</time>
      </trkpt>
      <trkpt lat="44.47529" lon="1.52193">
        <ele>135</ele>
        <time>2011-04-02T12:12:52</time>
      </trkpt>
      <trkpt lat="44.47532" lon="1.5219">
        <ele>135</ele>
        <time>2011-04-02T12:12:53</time>
      </trkpt>
      <trkpt lat="44.4754" lon="1.52186">
        <ele>135</ele>
        <time>2011-04-02T12:12:55</time>
      </trkpt>
      <trkpt lat="44.47547" lon="1.52182">
        <ele>139</ele>
        <time>2011-04-02T12:12:57</time>
      </trkpt>
      <trkpt lat="44.4755" lon="1.52179">
        <ele>139</ele>
        <time>2011-04-02T12:12:58</time>
      </trkpt>
      <trkpt lat="44.47557" lon="1.52175">
        <ele>139</ele>
        <time>2011-04-02T12:13:00</time>
      </trkpt>
      <trkpt lat="44.47569" lon="1.52169">
        <ele>139</ele>
        <time>2011-04-02T12:13:02</time>
      </trkpt>
      <trkpt lat="44.47572" lon="1.52166">
        <ele>139</ele>
        <time>2011-04-02T12:13:03</time>
      </trkpt>
      <trkpt lat="44.47575" lon="1.52164">
        <ele>139</ele>
        <time>2011-04-02T12:13:04</time>
      </trkpt>
      <trkpt lat="44.47581" lon="1.52159">
        <ele>139</ele>
        <time>2011-04-02T12:13:06</time>
      </trkpt>
      <trkpt lat="44.47584" lon="1.52157">
        <ele>139</ele>
        <time>2011-04-02T12:13:07</time>
      </trkpt>
      <trkpt lat="44.4759" lon="1.52153">
        <ele>139</ele>
        <time>2011-04-02T12:13:09</time>
      </trkpt>
      <trkpt lat="44.47593" lon="1.52152">
        <ele>139</ele>
        <time>2011-04-02T12:13:10</time>
      </trkpt>
      <trkpt lat="44.47599" lon="1.52149">
        <ele>139</ele>
        <time>2011-04-02T12:13:12</time>
      </trkpt>
      <trkpt lat="44.47602" lon="1.52147">
        <ele>139</ele>
        <time>2011-04-02T12:13:13</time>
      </trkpt>
      <trkpt lat="44.4761" lon="1.52143">
        <ele>139</ele>
        <time>2011-04-02T12:13:15</time>
      </trkpt>
      <trkpt lat="44.47617" lon="1.52142">
        <ele>139</ele>
        <time>2011-04-02T12:13:17</time>
      </trkpt>
      <trkpt lat="44.47621" lon="1.52141">
        <ele>139</ele>
        <time>2011-04-02T12:13:18</time>
      </trkpt>
      <trkpt lat="44.47625" lon="1.5214">
        <ele>139</ele>
        <time>2011-04-02T12:13:19</time>
      </trkpt>
      <trkpt lat="44.47633" lon="1.52137">
        <ele>146</ele>
        <time>2011-04-02T12:13:21</time>
      </trkpt>
      <trkpt lat="44.47637" lon="1.52136">
        <ele>146</ele>
        <time>2011-04-02T12:13:22</time>
      </trkpt>
      <trkpt lat="44.47641" lon="1.52134">
        <ele>146</ele>
        <time>2011-04-02T12:13:23</time>
      </trkpt>
      <trkpt lat="44.4765" lon="1.52129">
        <ele>146</ele>
        <time>2011-04-02T12:13:25</time>
      </trkpt>
      <trkpt lat="44.47654" lon="1.52127">
        <ele>146</ele>
        <time>2011-04-02T12:13:26</time>
      </trkpt>
      <trkpt lat="44.47658" lon="1.52125">
        <ele>136</ele>
        <time>2011-04-02T12:13:27</time>
      </trkpt>
      <trkpt lat="44.47666" lon="1.52121">
        <ele>136</ele>
        <time>2011-04-02T12:13:29</time>
      </trkpt>
      <trkpt lat="44.47669" lon="1.52119">
        <ele>136</ele>
        <time>2011-04-02T12:13:30</time>
      </trkpt>
      <trkpt lat="44.47677" lon="1.52117">
        <ele>136</ele>
        <time>2011-04-02T12:13:32</time>
      </trkpt>
      <trkpt lat="44.47681" lon="1.52117">
        <ele>136</ele>
        <time>2011-04-02T12:13:33</time>
      </trkpt>
      <trkpt lat="44.47689" lon="1.52118">
        <ele>136</ele>
        <time>2011-04-02T12:13:35</time>
      </trkpt>
      <trkpt lat="44.47697" lon="1.52119">
        <ele>136</ele>
        <time>2011-04-02T12:13:37</time>
      </trkpt>
      <trkpt lat="44.47701" lon="1.52119">
        <ele>136</ele>
        <time>2011-04-02T12:13:38</time>
      </trkpt>
      <trkpt lat="44.47706" lon="1.5212">
        <ele>136</ele>
        <time>2011-04-02T12:13:39</time>
      </trkpt>
      <trkpt lat="44.47714" lon="1.5212">
        <ele>141</ele>
        <time>2011-04-02T12:13:41</time>
      </trkpt>
      <trkpt lat="44.47722" lon="1.52121">
        <ele>141</ele>
        <time>2011-04-02T12:13:43</time>
      </trkpt>
      <trkpt lat="44.47726" lon="1.52122">
        <ele>141</ele>
        <time>2011-04-02T12:13:44</time>
      </trkpt>
      <trkpt lat="44.4773" lon="1.52123">
        <ele>141</ele>
        <time>2011-04-02T12:13:45</time>
      </trkpt>
      <trkpt lat="44.47733" lon="1.52125">
        <ele>141</ele>
        <time>2011-04-02T12:13:46</time>
      </trkpt>
      <trkpt lat="44.47737" lon="1.52127">
        <ele>144</ele>
        <time>2011-04-02T12:13:47</time>
      </trkpt>
      <trkpt lat="44.4774" lon="1.5213">
        <ele>144</ele>
        <time>2011-04-02T12:13:48</time>
      </trkpt>
      <trkpt lat="44.47743" lon="1.52133">
        <ele>144</ele>
        <time>2011-04-02T12:13:49</time>
      </trkpt>
      <trkpt lat="44.47748" lon="1.5214">
        <ele>144</ele>
        <time>2011-04-02T12:13:51</time>
      </trkpt>
      <trkpt lat="44.47752" lon="1.52148">
        <ele>144</ele>
        <time>2011-04-02T12:13:53</time>
      </trkpt>
      <trkpt lat="44.47757" lon="1.52155">
        <ele>144</ele>
        <time>2011-04-02T12:13:55</time>
      </trkpt>
      <trkpt lat="44.4776" lon="1.52158">
        <ele>144</ele>
        <time>2011-04-02T12:13:56</time>
      </trkpt>
      <trkpt lat="44.47765" lon="1.52165">
        <ele>144</ele>
        <time>2011-04-02T12:13:58</time>
      </trkpt>
      <trkpt lat="44.47767" lon="1.52169">
        <ele>144</ele>
        <time>2011-04-02T12:13:59</time>
      </trkpt>
      <trkpt lat="44.47772" lon="1.52175">
        <ele>144</ele>
        <time>2011-04-02T12:14:01</time>
      </trkpt>
      <trkpt lat="44.47774" lon="1.52179">
        <ele>144</ele>
        <time>2011-04-02T12:14:02</time>
      </trkpt>
      <trkpt lat="44.47776" lon="1.52182">
        <ele>144</ele>
        <time>2011-04-02T12:14:03</time>
      </trkpt>
      <trkpt lat="44.47779" lon="1.52186">
        <ele>144</ele>
        <time>2011-04-02T12:14:04</time>
      </trkpt>
      <trkpt lat="44.47783" lon="1.52192">
        <ele>144</ele>
        <time>2011-04-02T12:14:06</time>
      </trkpt>
      <trkpt lat="44.47786" lon="1.52195">
        <ele>144</ele>
        <time>2011-04-02T12:14:07</time>
      </trkpt>
      <trkpt lat="44.47791" lon="1.522">
        <ele>144</ele>
        <time>2011-04-02T12:14:09</time>
      </trkpt>
      <trkpt lat="44.47792" lon="1.52203">
        <ele>142</ele>
        <time>2011-04-02T12:14:10</time>
      </trkpt>
      <trkpt lat="44.47794" lon="1.52206">
        <ele>142</ele>
        <time>2011-04-02T12:14:11</time>
      </trkpt>
      <trkpt lat="44.47799" lon="1.52209">
        <ele>156</ele>
        <time>2011-04-02T12:14:13</time>
      </trkpt>
      <trkpt lat="44.47803" lon="1.52213">
        <ele>156</ele>
        <time>2011-04-02T12:14:15</time>
      </trkpt>
      <trkpt lat="44.47806" lon="1.52215">
        <ele>156</ele>
        <time>2011-04-02T12:14:16</time>
      </trkpt>
      <trkpt lat="44.47812" lon="1.52218">
        <ele>156</ele>
        <time>2011-04-02T12:14:18</time>
      </trkpt>
      <trkpt lat="44.47816" lon="1.52219">
        <ele>156</ele>
        <time>2011-04-02T12:14:19</time>
      </trkpt>
      <trkpt lat="44.47823" lon="1.52221">
        <ele>156</ele>
        <time>2011-04-02T12:14:21</time>
      </trkpt>
      <trkpt lat="44.47826" lon="1.52221">
        <ele>156</ele>
        <time>2011-04-02T12:14:22</time>
      </trkpt>
      <trkpt lat="44.47835" lon="1.52222">
        <ele>156</ele>
        <time>2011-04-02T12:14:24</time>
      </trkpt>
      <trkpt lat="44.47844" lon="1.52223">
        <ele>156</ele>
        <time>2011-04-02T12:14:26</time>
      </trkpt>
      <trkpt lat="44.47848" lon="1.52223">
        <ele>156</ele>
        <time>2011-04-02T12:14:27</time>
      </trkpt>
      <trkpt lat="44.47857" lon="1.52223">
        <ele>156</ele>
        <time>2011-04-02T12:14:29</time>
      </trkpt>
      <trkpt lat="44.47864" lon="1.52221">
        <ele>156</ele>
        <time>2011-04-02T12:14:31</time>
      </trkpt>
      <trkpt lat="44.47868" lon="1.5222">
        <ele>156</ele>
        <time>2011-04-02T12:14:32</time>
      </trkpt>
      <trkpt lat="44.47871" lon="1.52219">
        <ele>156</ele>
        <time>2011-04-02T12:14:33</time>
      </trkpt>
      <trkpt lat="44.47878" lon="1.52217">
        <ele>155</ele>
        <time>2011-04-02T12:14:35</time>
      </trkpt>
      <trkpt lat="44.47881" lon="1.52215">
        <ele>155</ele>
        <time>2011-04-02T12:14:36</time>
      </trkpt>
      <trkpt lat="44.47888" lon="1.52212">
        <ele>155</ele>
        <time>2011-04-02T12:14:38</time>
      </trkpt>
      <trkpt lat="44.47892" lon="1.5221">
        <ele>155</ele>
        <time>2011-04-02T12:14:39</time>
      </trkpt>
      <trkpt lat="44.479" lon="1.52206">
        <ele>140</ele>
        <time>2011-04-02T12:14:41</time>
      </trkpt>
      <trkpt lat="44.47904" lon="1.52204">
        <ele>140</ele>
        <time>2011-04-02T12:14:42</time>
      </trkpt>
      <trkpt lat="44.47912" lon="1.52198">
        <ele>140</ele>
        <time>2011-04-02T12:14:44</time>
      </trkpt>
      <trkpt lat="44.47916" lon="1.52196">
        <ele>140</ele>
        <time>2011-04-02T12:14:45</time>
      </trkpt>
      <trkpt lat="44.47923" lon="1.5219">
        <ele>140</ele>
        <time>2011-04-02T12:14:47</time>
      </trkpt>
      <trkpt lat="44.47927" lon="1.52189">
        <ele>140</ele>
        <time>2011-04-02T12:14:48</time>
      </trkpt>
      <trkpt lat="44.47935" lon="1.52186">
        <ele>140</ele>
        <time>2011-04-02T12:14:50</time>
      </trkpt>
      <trkpt lat="44.47938" lon="1.52183">
        <ele>140</ele>
        <time>2011-04-02T12:14:51</time>
      </trkpt>
      <trkpt lat="44.47946" lon="1.52179">
        <ele>140</ele>
        <time>2011-04-02T12:14:53</time>
      </trkpt>
      <trkpt lat="44.4795" lon="1.52177">
        <ele>140</ele>
        <time>2011-04-02T12:14:54</time>
      </trkpt>
      <trkpt lat="44.47954" lon="1.52175">
        <ele>140</ele>
        <time>2011-04-02T12:14:55</time>
      </trkpt>
      <trkpt lat="44.47961" lon="1.5217">
        <ele>142</ele>
        <time>2011-04-02T12:14:57</time>
      </trkpt>
      <trkpt lat="44.47964" lon="1.52168">
        <ele>142</ele>
        <time>2011-04-02T12:14:58</time>
      </trkpt>
      <trkpt lat="44.47971" lon="1.52166">
        <ele>142</ele>
        <time>2011-04-02T12:15:00</time>
      </trkpt>
      <trkpt lat="44.47975" lon="1.52165">
        <ele>142</ele>
        <time>2011-04-02T12:15:01</time>
      </trkpt>
      <trkpt lat="44.47982" lon="1.52168">
        <ele>142</ele>
        <time>2011-04-02T12:15:03</time>
      </trkpt>
      <trkpt lat="44.47987" lon="1.52173">
        <ele>142</ele>
        <time>2011-04-02T12:15:05</time>
      </trkpt>
      <trkpt lat="44.47991" lon="1.52177">
        <ele>142</ele>
        <time>2011-04-02T12:15:07</time>
      </trkpt>
      <trkpt lat="44.47995" lon="1.52182">
        <ele>142</ele>
        <time>2011-04-02T12:15:09</time>
      </trkpt>
      <trkpt lat="44.48" lon="1.52185">
        <ele>142</ele>
        <time>2011-04-02T12:15:11</time>
      </trkpt>
      <trkpt lat="44.48002" lon="1.52187">
        <ele>142</ele>
        <time>2011-04-02T12:15:12</time>
      </trkpt>
      <trkpt lat="44.48007" lon="1.52189">
        <ele>142</ele>
        <time>2011-04-02T12:15:14</time>
      </trkpt>
      <trkpt lat="44.48011" lon="1.52191">
        <ele>142</ele>
        <time>2011-04-02T12:15:16</time>
      </trkpt>
      <trkpt lat="44.48014" lon="1.52193">
        <ele>142</ele>
        <time>2011-04-02T12:15:17</time>
      </trkpt>
      <trkpt lat="44.48018" lon="1.52194">
        <ele>142</ele>
        <time>2011-04-02T12:15:19</time>
      </trkpt>
      <trkpt lat="44.48022" lon="1.52195">
        <ele>142</ele>
        <time>2011-04-02T12:15:21</time>
      </trkpt>
      <trkpt lat="44.48025" lon="1.52196">
        <ele>142</ele>
        <time>2011-04-02T12:15:22</time>
      </trkpt>
      <trkpt lat="44.48029" lon="1.52197">
        <ele>142</ele>
        <time>2011-04-02T12:15:24</time>
      </trkpt>
      <trkpt lat="44.48035" lon="1.52197">
        <ele>142</ele>
        <time>2011-04-02T12:15:26</time>
      </trkpt>
      <trkpt lat="44.48038" lon="1.52198">
        <ele>142</ele>
        <time>2011-04-02T12:15:27</time>
      </trkpt>
      <trkpt lat="44.48041" lon="1.52198">
        <ele>142</ele>
        <time>2011-04-02T12:15:28</time>
      </trkpt>
      <trkpt lat="44.48044" lon="1.52199">
        <ele>144</ele>
        <time>2011-04-02T12:15:29</time>
      </trkpt>
      <trkpt lat="44.4805" lon="1.522">
        <ele>144</ele>
        <time>2011-04-02T12:15:31</time>
      </trkpt>
      <trkpt lat="44.48053" lon="1.52199">
        <ele>144</ele>
        <time>2011-04-02T12:15:32</time>
      </trkpt>
      <trkpt lat="44.48057" lon="1.52199">
        <ele>144</ele>
        <time>2011-04-02T12:15:34</time>
      </trkpt>
      <trkpt lat="44.48062" lon="1.52199">
        <ele>144</ele>
        <time>2011-04-02T12:15:36</time>
      </trkpt>
      <trkpt lat="44.48065" lon="1.52198">
        <ele>144</ele>
        <time>2011-04-02T12:15:37</time>
      </trkpt>
      <trkpt lat="44.48072" lon="1.52197">
        <ele>144</ele>
        <time>2011-04-02T12:15:39</time>
      </trkpt>
      <trkpt lat="44.48075" lon="1.52197">
        <ele>144</ele>
        <time>2011-04-02T12:15:40</time>
      </trkpt>
      <trkpt lat="44.48078" lon="1.52197">
        <ele>144</ele>
        <time>2011-04-02T12:15:41</time>
      </trkpt>
      <trkpt lat="44.48086" lon="1.52197">
        <ele>144</ele>
        <time>2011-04-02T12:15:43</time>
      </trkpt>
      <trkpt lat="44.48091" lon="1.52197">
        <ele>144</ele>
        <time>2011-04-02T12:15:44</time>
      </trkpt>
      <trkpt lat="44.481" lon="1.52196">
        <ele>144</ele>
        <time>2011-04-02T12:15:46</time>
      </trkpt>
      <trkpt lat="44.48106" lon="1.52191">
        <ele>144</ele>
        <time>2011-04-02T12:15:48</time>
      </trkpt>
      <trkpt lat="44.48108" lon="1.52187">
        <ele>144</ele>
        <time>2011-04-02T12:15:49</time>
      </trkpt>
      <trkpt lat="44.48111" lon="1.5218">
        <ele>144</ele>
        <time>2011-04-02T12:15:51</time>
      </trkpt>
      <trkpt lat="44.48109" lon="1.52178">
        <ele>144</ele>
        <time>2011-04-02T12:15:52</time>
      </trkpt>
      <trkpt lat="44.48109" lon="1.52175">
        <ele>144</ele>
        <time>2011-04-02T12:15:53</time>
      </trkpt>
      <trkpt lat="44.48109" lon="1.52168">
        <ele>144</ele>
        <time>2011-04-02T12:15:55</time>
      </trkpt>
      <trkpt lat="44.48109" lon="1.5216">
        <ele>144</ele>
        <time>2011-04-02T12:15:57</time>
      </trkpt>
      <trkpt lat="44.48109" lon="1.52156">
        <ele>144</ele>
        <time>2011-04-02T12:15:58</time>
      </trkpt>
      <trkpt lat="44.48109" lon="1.52146">
        <ele>144</ele>
        <time>2011-04-02T12:16:00</time>
      </trkpt>
      <trkpt lat="44.48109" lon="1.52141">
        <ele>144</ele>
        <time>2011-04-02T12:16:01</time>
      </trkpt>
      <trkpt lat="44.48111" lon="1.52131">
        <ele>144</ele>
        <time>2011-04-02T12:16:03</time>
      </trkpt>
      <trkpt lat="44.48112" lon="1.52126">
        <ele>144</ele>
        <time>2011-04-02T12:16:04</time>
      </trkpt>
      <trkpt lat="44.48114" lon="1.52115">
        <ele>143</ele>
        <time>2011-04-02T12:16:06</time>
      </trkpt>
      <trkpt lat="44.48116" lon="1.52109">
        <ele>143</ele>
        <time>2011-04-02T12:16:07</time>
      </trkpt>
      <trkpt lat="44.48119" lon="1.52098">
        <ele>143</ele>
        <time>2011-04-02T12:16:09</time>
      </trkpt>
      <trkpt lat="44.48122" lon="1.52086">
        <ele>143</ele>
        <time>2011-04-02T12:16:11</time>
      </trkpt>
      <trkpt lat="44.48126" lon="1.52075">
        <ele>163</ele>
        <time>2011-04-02T12:16:13</time>
      </trkpt>
      <trkpt lat="44.4813" lon="1.52064">
        <ele>163</ele>
        <time>2011-04-02T12:16:15</time>
      </trkpt>
      <trkpt lat="44.48132" lon="1.52058">
        <ele>163</ele>
        <time>2011-04-02T12:16:16</time>
      </trkpt>
      <trkpt lat="44.48136" lon="1.52046">
        <ele>163</ele>
        <time>2011-04-02T12:16:18</time>
      </trkpt>
      <trkpt lat="44.48139" lon="1.52041">
        <ele>152</ele>
        <time>2011-04-02T12:16:19</time>
      </trkpt>
      <trkpt lat="44.48141" lon="1.52035">
        <ele>152</ele>
        <time>2011-04-02T12:16:20</time>
      </trkpt>
      <trkpt lat="44.48144" lon="1.52025">
        <ele>152</ele>
        <time>2011-04-02T12:16:22</time>
      </trkpt>
      <trkpt lat="44.48146" lon="1.5202">
        <ele>152</ele>
        <time>2011-04-02T12:16:23</time>
      </trkpt>
      <trkpt lat="44.48149" lon="1.52011">
        <ele>152</ele>
        <time>2011-04-02T12:16:25</time>
      </trkpt>
      <trkpt lat="44.48152" lon="1.52002">
        <ele>152</ele>
        <time>2011-04-02T12:16:27</time>
      </trkpt>
      <trkpt lat="44.48154" lon="1.51998">
        <ele>152</ele>
        <time>2011-04-02T12:16:28</time>
      </trkpt>
      <trkpt lat="44.48157" lon="1.51989">
        <ele>152</ele>
        <time>2011-04-02T12:16:30</time>
      </trkpt>
      <trkpt lat="44.4816" lon="1.51981">
        <ele>152</ele>
        <time>2011-04-02T12:16:32</time>
      </trkpt>
      <trkpt lat="44.48165" lon="1.51974">
        <ele>152</ele>
        <time>2011-04-02T12:16:34</time>
      </trkpt>
      <trkpt lat="44.48167" lon="1.51971">
        <ele>152</ele>
        <time>2011-04-02T12:16:35</time>
      </trkpt>
      <trkpt lat="44.48173" lon="1.51967">
        <ele>152</ele>
        <time>2011-04-02T12:16:37</time>
      </trkpt>
      <trkpt lat="44.48178" lon="1.51965">
        <ele>152</ele>
        <time>2011-04-02T12:16:39</time>
      </trkpt>
      <trkpt lat="44.48181" lon="1.51965">
        <ele>152</ele>
        <time>2011-04-02T12:16:40</time>
      </trkpt>
      <trkpt lat="44.48186" lon="1.51964">
        <ele>152</ele>
        <time>2011-04-02T12:16:42</time>
      </trkpt>
      <trkpt lat="44.48189" lon="1.51963">
        <ele>152</ele>
        <time>2011-04-02T12:16:43</time>
      </trkpt>
      <trkpt lat="44.48195" lon="1.51962">
        <ele>152</ele>
        <time>2011-04-02T12:16:45</time>
      </trkpt>
      <trkpt lat="44.48201" lon="1.51959">
        <ele>152</ele>
        <time>2011-04-02T12:16:47</time>
      </trkpt>
      <trkpt lat="44.48207" lon="1.51957">
        <ele>152</ele>
        <time>2011-04-02T12:16:49</time>
      </trkpt>
      <trkpt lat="44.48213" lon="1.51955">
        <ele>148</ele>
        <time>2011-04-02T12:16:51</time>
      </trkpt>
      <trkpt lat="44.48218" lon="1.51952">
        <ele>148</ele>
        <time>2011-04-02T12:16:53</time>
      </trkpt>
      <trkpt lat="44.48221" lon="1.5195">
        <ele>148</ele>
        <time>2011-04-02T12:16:54</time>
      </trkpt>
      <trkpt lat="44.48225" lon="1.51946">
        <ele>148</ele>
        <time>2011-04-02T12:16:56</time>
      </trkpt>
      <trkpt lat="44.4823" lon="1.51943">
        <ele>148</ele>
        <time>2011-04-02T12:16:58</time>
      </trkpt>
      <trkpt lat="44.48232" lon="1.51941">
        <ele>148</ele>
        <time>2011-04-02T12:16:59</time>
      </trkpt>
      <trkpt lat="44.48237" lon="1.51938">
        <ele>148</ele>
        <time>2011-04-02T12:17:01</time>
      </trkpt>
      <trkpt lat="44.48242" lon="1.51934">
        <ele>148</ele>
        <time>2011-04-02T12:17:03</time>
      </trkpt>
      <trkpt lat="44.48248" lon="1.51932">
        <ele>148</ele>
        <time>2011-04-02T12:17:05</time>
      </trkpt>
      <trkpt lat="44.48251" lon="1.51931">
        <ele>148</ele>
        <time>2011-04-02T12:17:06</time>
      </trkpt>
      <trkpt lat="44.48258" lon="1.51926">
        <ele>148</ele>
        <time>2011-04-02T12:17:08</time>
      </trkpt>
      <trkpt lat="44.48262" lon="1.51923">
        <ele>148</ele>
        <time>2011-04-02T12:17:09</time>
      </trkpt>
      <trkpt lat="44.4827" lon="1.51918">
        <ele>148</ele>
        <time>2011-04-02T12:17:11</time>
      </trkpt>
      <trkpt lat="44.48274" lon="1.51916">
        <ele>148</ele>
        <time>2011-04-02T12:17:12</time>
      </trkpt>
      <trkpt lat="44.48282" lon="1.5191">
        <ele>148</ele>
        <time>2011-04-02T12:17:14</time>
      </trkpt>
      <trkpt lat="44.48286" lon="1.51906">
        <ele>148</ele>
        <time>2011-04-02T12:17:15</time>
      </trkpt>
      <trkpt lat="44.48292" lon="1.51901">
        <ele>167</ele>
        <time>2011-04-02T12:17:17</time>
      </trkpt>
      <trkpt lat="44.48295" lon="1.51897">
        <ele>167</ele>
        <time>2011-04-02T12:17:18</time>
      </trkpt>
      <trkpt lat="44.48301" lon="1.5189">
        <ele>167</ele>
        <time>2011-04-02T12:17:20</time>
      </trkpt>
      <trkpt lat="44.48304" lon="1.51886">
        <ele>167</ele>
        <time>2011-04-02T12:17:21</time>
      </trkpt>
      <trkpt lat="44.4831" lon="1.51878">
        <ele>167</ele>
        <time>2011-04-02T12:17:23</time>
      </trkpt>
      <trkpt lat="44.48315" lon="1.51872">
        <ele>152</ele>
        <time>2011-04-02T12:17:25</time>
      </trkpt>
      <trkpt lat="44.4832" lon="1.51865">
        <ele>152</ele>
        <time>2011-04-02T12:17:27</time>
      </trkpt>
      <trkpt lat="44.48325" lon="1.51858">
        <ele>152</ele>
        <time>2011-04-02T12:17:29</time>
      </trkpt>
      <trkpt lat="44.48327" lon="1.51854">
        <ele>152</ele>
        <time>2011-04-02T12:17:30</time>
      </trkpt>
      <trkpt lat="44.48329" lon="1.5185">
        <ele>152</ele>
        <time>2011-04-02T12:17:31</time>
      </trkpt>
      <trkpt lat="44.48334" lon="1.51842">
        <ele>152</ele>
        <time>2011-04-02T12:17:33</time>
      </trkpt>
      <trkpt lat="44.48336" lon="1.51838">
        <ele>152</ele>
        <time>2011-04-02T12:17:34</time>
      </trkpt>
      <trkpt lat="44.4834" lon="1.5183">
        <ele>152</ele>
        <time>2011-04-02T12:17:36</time>
      </trkpt>
      <trkpt lat="44.48345" lon="1.51821">
        <ele>152</ele>
        <time>2011-04-02T12:17:38</time>
      </trkpt>
      <trkpt lat="44.48348" lon="1.51816">
        <ele>152</ele>
        <time>2011-04-02T12:17:39</time>
      </trkpt>
      <trkpt lat="44.48354" lon="1.51807">
        <ele>152</ele>
        <time>2011-04-02T12:17:41</time>
      </trkpt>
      <trkpt lat="44.48359" lon="1.51799">
        <ele>152</ele>
        <time>2011-04-02T12:17:43</time>
      </trkpt>
      <trkpt lat="44.48363" lon="1.51789">
        <ele>144</ele>
        <time>2011-04-02T12:17:45</time>
      </trkpt>
      <trkpt lat="44.48366" lon="1.51784">
        <ele>144</ele>
        <time>2011-04-02T12:17:46</time>
      </trkpt>
      <trkpt lat="44.4837" lon="1.51775">
        <ele>144</ele>
        <time>2011-04-02T12:17:48</time>
      </trkpt>
      <trkpt lat="44.48372" lon="1.51771">
        <ele>144</ele>
        <time>2011-04-02T12:17:49</time>
      </trkpt>
      <trkpt lat="44.48373" lon="1.51766">
        <ele>144</ele>
        <time>2011-04-02T12:17:50</time>
      </trkpt>
      <trkpt lat="44.48375" lon="1.51762">
        <ele>144</ele>
        <time>2011-04-02T12:17:51</time>
      </trkpt>
      <trkpt lat="44.48379" lon="1.51753">
        <ele>171</ele>
        <time>2011-04-02T12:17:53</time>
      </trkpt>
      <trkpt lat="44.48381" lon="1.51749">
        <ele>171</ele>
        <time>2011-04-02T12:17:54</time>
      </trkpt>
      <trkpt lat="44.48384" lon="1.51739">
        <ele>171</ele>
        <time>2011-04-02T12:17:56</time>
      </trkpt>
      <trkpt lat="44.48386" lon="1.51734">
        <ele>171</ele>
        <time>2011-04-02T12:17:57</time>
      </trkpt>
      <trkpt lat="44.48389" lon="1.51723">
        <ele>171</ele>
        <time>2011-04-02T12:17:59</time>
      </trkpt>
      <trkpt lat="44.48393" lon="1.51714">
        <ele>171</ele>
        <time>2011-04-02T12:18:01</time>
      </trkpt>
      <trkpt lat="44.48395" lon="1.51709">
        <ele>171</ele>
        <time>2011-04-02T12:18:02</time>
      </trkpt>
      <trkpt lat="44.48397" lon="1.51704">
        <ele>157</ele>
        <time>2011-04-02T12:18:03</time>
      </trkpt>
      <trkpt lat="44.48401" lon="1.51694">
        <ele>157</ele>
        <time>2011-04-02T12:18:05</time>
      </trkpt>
      <trkpt lat="44.48404" lon="1.51685">
        <ele>157</ele>
        <time>2011-04-02T12:18:07</time>
      </trkpt>
      <trkpt lat="44.48405" lon="1.51681">
        <ele>157</ele>
        <time>2011-04-02T12:18:08</time>
      </trkpt>
      <trkpt lat="44.48406" lon="1.51676">
        <ele>157</ele>
        <time>2011-04-02T12:18:09</time>
      </trkpt>
      <trkpt lat="44.48408" lon="1.51672">
        <ele>157</ele>
        <time>2011-04-02T12:18:10</time>
      </trkpt>
      <trkpt lat="44.48411" lon="1.51662">
        <ele>157</ele>
        <time>2011-04-02T12:18:12</time>
      </trkpt>
      <trkpt lat="44.48413" lon="1.51658">
        <ele>157</ele>
        <time>2011-04-02T12:18:13</time>
      </trkpt>
      <trkpt lat="44.48416" lon="1.51648">
        <ele>157</ele>
        <time>2011-04-02T12:18:15</time>
      </trkpt>
      <trkpt lat="44.48417" lon="1.51642">
        <ele>157</ele>
        <time>2011-04-02T12:18:16</time>
      </trkpt>
      <trkpt lat="44.48418" lon="1.51633">
        <ele>157</ele>
        <time>2011-04-02T12:18:18</time>
      </trkpt>
      <trkpt lat="44.48418" lon="1.51628">
        <ele>157</ele>
        <time>2011-04-02T12:18:19</time>
      </trkpt>
      <trkpt lat="44.48417" lon="1.51624">
        <ele>152</ele>
        <time>2011-04-02T12:18:20</time>
      </trkpt>
      <trkpt lat="44.48415" lon="1.5162">
        <ele>152</ele>
        <time>2011-04-02T12:18:21</time>
      </trkpt>
      <trkpt lat="44.48411" lon="1.51614">
        <ele>152</ele>
        <time>2011-04-02T12:18:23</time>
      </trkpt>
      <trkpt lat="44.48408" lon="1.51611">
        <ele>152</ele>
        <time>2011-04-02T12:18:24</time>
      </trkpt>
      <trkpt lat="44.48405" lon="1.51608">
        <ele>152</ele>
        <time>2011-04-02T12:18:25</time>
      </trkpt>
      <trkpt lat="44.48402" lon="1.51604">
        <ele>152</ele>
        <time>2011-04-02T12:18:26</time>
      </trkpt>
      <trkpt lat="44.484" lon="1.516">
        <ele>152</ele>
        <time>2011-04-02T12:18:27</time>
      </trkpt>
      <trkpt lat="44.48398" lon="1.51591">
        <ele>152</ele>
        <time>2011-04-02T12:18:29</time>
      </trkpt>
      <trkpt lat="44.48399" lon="1.51582">
        <ele>152</ele>
        <time>2011-04-02T12:18:31</time>
      </trkpt>
      <trkpt lat="44.484" lon="1.51577">
        <ele>152</ele>
        <time>2011-04-02T12:18:32</time>
      </trkpt>
      <trkpt lat="44.48404" lon="1.51568">
        <ele>152</ele>
        <time>2011-04-02T12:18:34</time>
      </trkpt>
      <trkpt lat="44.48409" lon="1.51566">
        <ele>152</ele>
        <time>2011-04-02T12:18:36</time>
      </trkpt>
      <trkpt lat="44.48412" lon="1.51565">
        <ele>152</ele>
        <time>2011-04-02T12:18:37</time>
      </trkpt>
      <trkpt lat="44.48417" lon="1.51565">
        <ele>152</ele>
        <time>2011-04-02T12:18:39</time>
      </trkpt>
      <trkpt lat="44.4842" lon="1.51565">
        <ele>152</ele>
        <time>2011-04-02T12:18:40</time>
      </trkpt>
      <trkpt lat="44.48423" lon="1.51565">
        <ele>152</ele>
        <time>2011-04-02T12:18:41</time>
      </trkpt>
      <trkpt lat="44.48429" lon="1.51563">
        <ele>152</ele>
        <time>2011-04-02T12:18:43</time>
      </trkpt>
      <trkpt lat="44.48432" lon="1.51562">
        <ele>152</ele>
        <time>2011-04-02T12:18:44</time>
      </trkpt>
      <trkpt lat="44.48439" lon="1.51559">
        <ele>152</ele>
        <time>2011-04-02T12:18:46</time>
      </trkpt>
      <trkpt lat="44.48445" lon="1.51556">
        <ele>152</ele>
        <time>2011-04-02T12:18:48</time>
      </trkpt>
      <trkpt lat="44.48448" lon="1.51553">
        <ele>152</ele>
        <time>2011-04-02T12:18:49</time>
      </trkpt>
      <trkpt lat="44.4845" lon="1.51551">
        <ele>152</ele>
        <time>2011-04-02T12:18:50</time>
      </trkpt>
      <trkpt lat="44.48455" lon="1.51545">
        <ele>152</ele>
        <time>2011-04-02T12:18:52</time>
      </trkpt>
      <trkpt lat="44.4846" lon="1.5154">
        <ele>154</ele>
        <time>2011-04-02T12:18:54</time>
      </trkpt>
      <trkpt lat="44.48465" lon="1.51536">
        <ele>154</ele>
        <time>2011-04-02T12:18:56</time>
      </trkpt>
      <trkpt lat="44.48468" lon="1.51533">
        <ele>154</ele>
        <time>2011-04-02T12:18:57</time>
      </trkpt>
      <trkpt lat="44.48475" lon="1.51529">
        <ele>154</ele>
        <time>2011-04-02T12:18:59</time>
      </trkpt>
      <trkpt lat="44.48478" lon="1.51527">
        <ele>154</ele>
        <time>2011-04-02T12:19:00</time>
      </trkpt>
      <trkpt lat="44.48484" lon="1.51525">
        <ele>154</ele>
        <time>2011-04-02T12:19:02</time>
      </trkpt>
      <trkpt lat="44.48487" lon="1.51523">
        <ele>154</ele>
        <time>2011-04-02T12:19:03</time>
      </trkpt>
      <trkpt lat="44.48489" lon="1.51522">
        <ele>154</ele>
        <time>2011-04-02T12:19:04</time>
      </trkpt>
      <trkpt lat="44.48495" lon="1.5152">
        <ele>154</ele>
        <time>2011-04-02T12:19:06</time>
      </trkpt>
      <trkpt lat="44.48501" lon="1.51517">
        <ele>154</ele>
        <time>2011-04-02T12:19:08</time>
      </trkpt>
      <trkpt lat="44.48506" lon="1.51516">
        <ele>154</ele>
        <time>2011-04-02T12:19:10</time>
      </trkpt>
      <trkpt lat="44.48512" lon="1.51513">
        <ele>154</ele>
        <time>2011-04-02T12:19:12</time>
      </trkpt>
      <trkpt lat="44.48516" lon="1.51511">
        <ele>154</ele>
        <time>2011-04-02T12:19:13</time>
      </trkpt>
      <trkpt lat="44.48523" lon="1.51507">
        <ele>154</ele>
        <time>2011-04-02T12:19:15</time>
      </trkpt>
      <trkpt lat="44.48529" lon="1.51503">
        <ele>154</ele>
        <time>2011-04-02T12:19:17</time>
      </trkpt>
      <trkpt lat="44.48533" lon="1.51502">
        <ele>154</ele>
        <time>2011-04-02T12:19:18</time>
      </trkpt>
      <trkpt lat="44.48539" lon="1.51498">
        <ele>154</ele>
        <time>2011-04-02T12:19:20</time>
      </trkpt>
      <trkpt lat="44.48542" lon="1.51496">
        <ele>165</ele>
        <time>2011-04-02T12:19:21</time>
      </trkpt>
      <trkpt lat="44.48552" lon="1.51491">
        <ele>165</ele>
        <time>2011-04-02T12:19:23</time>
      </trkpt>
      <trkpt lat="44.48555" lon="1.51489">
        <ele>165</ele>
        <time>2011-04-02T12:19:24</time>
      </trkpt>
      <trkpt lat="44.48562" lon="1.51486">
        <ele>165</ele>
        <time>2011-04-02T12:19:26</time>
      </trkpt>
      <trkpt lat="44.48565" lon="1.51484">
        <ele>165</ele>
        <time>2011-04-02T12:19:27</time>
      </trkpt>
      <trkpt lat="44.48572" lon="1.5148">
        <ele>165</ele>
        <time>2011-04-02T12:19:29</time>
      </trkpt>
      <trkpt lat="44.48579" lon="1.51475">
        <ele>165</ele>
        <time>2011-04-02T12:19:31</time>
      </trkpt>
      <trkpt lat="44.48585" lon="1.5147">
        <ele>165</ele>
        <time>2011-04-02T12:19:33</time>
      </trkpt>
      <trkpt lat="44.48589" lon="1.51468">
        <ele>165</ele>
        <time>2011-04-02T12:19:34</time>
      </trkpt>
      <trkpt lat="44.48591" lon="1.51465">
        <ele>165</ele>
        <time>2011-04-02T12:19:35</time>
      </trkpt>
      <trkpt lat="44.48597" lon="1.51459">
        <ele>165</ele>
        <time>2011-04-02T12:19:37</time>
      </trkpt>
      <trkpt lat="44.48603" lon="1.51452">
        <ele>155</ele>
        <time>2011-04-02T12:19:39</time>
      </trkpt>
      <trkpt lat="44.4861" lon="1.51445">
        <ele>155</ele>
        <time>2011-04-02T12:19:41</time>
      </trkpt>
      <trkpt lat="44.48613" lon="1.51442">
        <ele>155</ele>
        <time>2011-04-02T12:19:42</time>
      </trkpt>
      <trkpt lat="44.48615" lon="1.51439">
        <ele>155</ele>
        <time>2011-04-02T12:19:43</time>
      </trkpt>
      <trkpt lat="44.48621" lon="1.51433">
        <ele>155</ele>
        <time>2011-04-02T12:19:45</time>
      </trkpt>
      <trkpt lat="44.48626" lon="1.51426">
        <ele>162</ele>
        <time>2011-04-02T12:19:47</time>
      </trkpt>
      <trkpt lat="44.48629" lon="1.51423">
        <ele>162</ele>
        <time>2011-04-02T12:19:48</time>
      </trkpt>
      <trkpt lat="44.48635" lon="1.51416">
        <ele>162</ele>
        <time>2011-04-02T12:19:50</time>
      </trkpt>
      <trkpt lat="44.48638" lon="1.51413">
        <ele>162</ele>
        <time>2011-04-02T12:19:51</time>
      </trkpt>
      <trkpt lat="44.48644" lon="1.51406">
        <ele>162</ele>
        <time>2011-04-02T12:19:53</time>
      </trkpt>
      <trkpt lat="44.48648" lon="1.51401">
        <ele>162</ele>
        <time>2011-04-02T12:19:54</time>
      </trkpt>
      <trkpt lat="44.48654" lon="1.51393">
        <ele>162</ele>
        <time>2011-04-02T12:19:56</time>
      </trkpt>
      <trkpt lat="44.48658" lon="1.51388">
        <ele>162</ele>
        <time>2011-04-02T12:19:57</time>
      </trkpt>
      <trkpt lat="44.48661" lon="1.51383">
        <ele>162</ele>
        <time>2011-04-02T12:19:58</time>
      </trkpt>
      <trkpt lat="44.48668" lon="1.51374">
        <ele>159</ele>
        <time>2011-04-02T12:20:00</time>
      </trkpt>
      <trkpt lat="44.48671" lon="1.5137">
        <ele>159</ele>
        <time>2011-04-02T12:20:01</time>
      </trkpt>
      <trkpt lat="44.48678" lon="1.51363">
        <ele>159</ele>
        <time>2011-04-02T12:20:03</time>
      </trkpt>
      <trkpt lat="44.48685" lon="1.51359">
        <ele>159</ele>
        <time>2011-04-02T12:20:05</time>
      </trkpt>
      <trkpt lat="44.48694" lon="1.51356">
        <ele>159</ele>
        <time>2011-04-02T12:20:07</time>
      </trkpt>
      <trkpt lat="44.48701" lon="1.51354">
        <ele>159</ele>
        <time>2011-04-02T12:20:09</time>
      </trkpt>
      <trkpt lat="44.48708" lon="1.51353">
        <ele>159</ele>
        <time>2011-04-02T12:20:11</time>
      </trkpt>
      <trkpt lat="44.48715" lon="1.5135">
        <ele>160</ele>
        <time>2011-04-02T12:20:13</time>
      </trkpt>
      <trkpt lat="44.48718" lon="1.5135">
        <ele>160</ele>
        <time>2011-04-02T12:20:14</time>
      </trkpt>
      <trkpt lat="44.48722" lon="1.51349">
        <ele>160</ele>
        <time>2011-04-02T12:20:15</time>
      </trkpt>
      <trkpt lat="44.48729" lon="1.51346">
        <ele>160</ele>
        <time>2011-04-02T12:20:17</time>
      </trkpt>
      <trkpt lat="44.48732" lon="1.51344">
        <ele>160</ele>
        <time>2011-04-02T12:20:18</time>
      </trkpt>
      <trkpt lat="44.48739" lon="1.51341">
        <ele>160</ele>
        <time>2011-04-02T12:20:20</time>
      </trkpt>
      <trkpt lat="44.48742" lon="1.51339">
        <ele>160</ele>
        <time>2011-04-02T12:20:21</time>
      </trkpt>
      <trkpt lat="44.48746" lon="1.51338">
        <ele>160</ele>
        <time>2011-04-02T12:20:22</time>
      </trkpt>
      <trkpt lat="44.48753" lon="1.51335">
        <ele>160</ele>
        <time>2011-04-02T12:20:24</time>
      </trkpt>
      <trkpt lat="44.4876" lon="1.51332">
        <ele>160</ele>
        <time>2011-04-02T12:20:26</time>
      </trkpt>
      <trkpt lat="44.48767" lon="1.5133">
        <ele>160</ele>
        <time>2011-04-02T12:20:28</time>
      </trkpt>
      <trkpt lat="44.48775" lon="1.51329">
        <ele>160</ele>
        <time>2011-04-02T12:20:30</time>
      </trkpt>
      <trkpt lat="44.48778" lon="1.51328">
        <ele>160</ele>
        <time>2011-04-02T12:20:31</time>
      </trkpt>
      <trkpt lat="44.48785" lon="1.51328">
        <ele>160</ele>
        <time>2011-04-02T12:20:33</time>
      </trkpt>
      <trkpt lat="44.48788" lon="1.51328">
        <ele>160</ele>
        <time>2011-04-02T12:20:34</time>
      </trkpt>
      <trkpt lat="44.48796" lon="1.51327">
        <ele>167</ele>
        <time>2011-04-02T12:20:37</time>
      </trkpt>
      <trkpt lat="44.48801" lon="1.51326">
        <ele>167</ele>
        <time>2011-04-02T12:20:39</time>
      </trkpt>
      <trkpt lat="44.48805" lon="1.51326">
        <ele>167</ele>
        <time>2011-04-02T12:20:40</time>
      </trkpt>
      <trkpt lat="44.48812" lon="1.51325">
        <ele>167</ele>
        <time>2011-04-02T12:20:42</time>
      </trkpt>
      <trkpt lat="44.48815" lon="1.51324">
        <ele>167</ele>
        <time>2011-04-02T12:20:43</time>
      </trkpt>
      <trkpt lat="44.48823" lon="1.51323">
        <ele>167</ele>
        <time>2011-04-02T12:20:45</time>
      </trkpt>
      <trkpt lat="44.4883" lon="1.51322">
        <ele>167</ele>
        <time>2011-04-02T12:20:47</time>
      </trkpt>
      <trkpt lat="44.48833" lon="1.51322">
        <ele>167</ele>
        <time>2011-04-02T12:20:48</time>
      </trkpt>
      <trkpt lat="44.48837" lon="1.51321">
        <ele>167</ele>
        <time>2011-04-02T12:20:49</time>
      </trkpt>
      <trkpt lat="44.48845" lon="1.51321">
        <ele>167</ele>
        <time>2011-04-02T12:20:51</time>
      </trkpt>
      <trkpt lat="44.48852" lon="1.51319">
        <ele>167</ele>
        <time>2011-04-02T12:20:53</time>
      </trkpt>
      <trkpt lat="44.48856" lon="1.51319">
        <ele>167</ele>
        <time>2011-04-02T12:20:54</time>
      </trkpt>
      <trkpt lat="44.4886" lon="1.51318">
        <ele>167</ele>
        <time>2011-04-02T12:20:55</time>
      </trkpt>
      <trkpt lat="44.48867" lon="1.51316">
        <ele>167</ele>
        <time>2011-04-02T12:20:57</time>
      </trkpt>
      <trkpt lat="44.48875" lon="1.51314">
        <ele>167</ele>
        <time>2011-04-02T12:20:59</time>
      </trkpt>
      <trkpt lat="44.48879" lon="1.51313">
        <ele>170</ele>
        <time>2011-04-02T12:21:00</time>
      </trkpt>
      <trkpt lat="44.48886" lon="1.51311">
        <ele>170</ele>
        <time>2011-04-02T12:21:02</time>
      </trkpt>
      <trkpt lat="44.48894" lon="1.5131">
        <ele>170</ele>
        <time>2011-04-02T12:21:03</time>
      </trkpt>
      <trkpt lat="44.48897" lon="1.51309">
        <ele>170</ele>
        <time>2011-04-02T12:21:04</time>
      </trkpt>
      <trkpt lat="44.48901" lon="1.51308">
        <ele>170</ele>
        <time>2011-04-02T12:21:05</time>
      </trkpt>
      <trkpt lat="44.48904" lon="1.51306">
        <ele>170</ele>
        <time>2011-04-02T12:21:06</time>
      </trkpt>
      <trkpt lat="44.48911" lon="1.51304">
        <ele>170</ele>
        <time>2011-04-02T12:21:08</time>
      </trkpt>
      <trkpt lat="44.48914" lon="1.51304">
        <ele>170</ele>
        <time>2011-04-02T12:21:09</time>
      </trkpt>
      <trkpt lat="44.48917" lon="1.51303">
        <ele>170</ele>
        <time>2011-04-02T12:21:10</time>
      </trkpt>
      <trkpt lat="44.48923" lon="1.51301">
        <ele>170</ele>
        <time>2011-04-02T12:21:12</time>
      </trkpt>
      <trkpt lat="44.4893" lon="1.513">
        <ele>170</ele>
        <time>2011-04-02T12:21:14</time>
      </trkpt>
      <trkpt lat="44.48933" lon="1.513">
        <ele>170</ele>
        <time>2011-04-02T12:21:15</time>
      </trkpt>
      <trkpt lat="44.48939" lon="1.513">
        <ele>170</ele>
        <time>2011-04-02T12:21:17</time>
      </trkpt>
      <trkpt lat="44.48946" lon="1.51301">
        <ele>170</ele>
        <time>2011-04-02T12:21:19</time>
      </trkpt>
      <trkpt lat="44.48949" lon="1.51301">
        <ele>170</ele>
        <time>2011-04-02T12:21:20</time>
      </trkpt>
      <trkpt lat="44.48956" lon="1.51303">
        <ele>170</ele>
        <time>2011-04-02T12:21:22</time>
      </trkpt>
      <trkpt lat="44.4896" lon="1.51305">
        <ele>167</ele>
        <time>2011-04-02T12:21:23</time>
      </trkpt>
      <trkpt lat="44.48964" lon="1.51306">
        <ele>167</ele>
        <time>2011-04-02T12:21:25</time>
      </trkpt>
      <trkpt lat="44.48967" lon="1.51307">
        <ele>167</ele>
        <time>2011-04-02T12:21:26</time>
      </trkpt>
      <trkpt lat="44.4897" lon="1.51309">
        <ele>167</ele>
        <time>2011-04-02T12:21:27</time>
      </trkpt>
      <trkpt lat="44.48973" lon="1.5131">
        <ele>167</ele>
        <time>2011-04-02T12:21:28</time>
      </trkpt>
      <trkpt lat="44.4898" lon="1.51314">
        <ele>167</ele>
        <time>2011-04-02T12:21:30</time>
      </trkpt>
      <trkpt lat="44.48985" lon="1.51318">
        <ele>167</ele>
        <time>2011-04-02T12:21:32</time>
      </trkpt>
      <trkpt lat="44.4899" lon="1.51322">
        <ele>167</ele>
        <time>2011-04-02T12:21:34</time>
      </trkpt>
      <trkpt lat="44.48992" lon="1.51324">
        <ele>167</ele>
        <time>2011-04-02T12:21:35</time>
      </trkpt>
      <trkpt lat="44.48996" lon="1.5133">
        <ele>167</ele>
        <time>2011-04-02T12:21:37</time>
      </trkpt>
      <trkpt lat="44.48999" lon="1.51333">
        <ele>167</ele>
        <time>2011-04-02T12:21:38</time>
      </trkpt>
      <trkpt lat="44.49001" lon="1.51337">
        <ele>167</ele>
        <time>2011-04-02T12:21:39</time>
      </trkpt>
      <trkpt lat="44.49006" lon="1.51344">
        <ele>167</ele>
        <time>2011-04-02T12:21:41</time>
      </trkpt>
      <trkpt lat="44.49011" lon="1.51352">
        <ele>167</ele>
        <time>2011-04-02T12:21:43</time>
      </trkpt>
      <trkpt lat="44.49014" lon="1.51355">
        <ele>167</ele>
        <time>2011-04-02T12:21:44</time>
      </trkpt>
      <trkpt lat="44.49016" lon="1.51358">
        <ele>167</ele>
        <time>2011-04-02T12:21:45</time>
      </trkpt>
      <trkpt lat="44.49021" lon="1.51365">
        <ele>167</ele>
        <time>2011-04-02T12:21:47</time>
      </trkpt>
      <trkpt lat="44.49023" lon="1.51368">
        <ele>167</ele>
        <time>2011-04-02T12:21:48</time>
      </trkpt>
      <trkpt lat="44.49028" lon="1.51374">
        <ele>167</ele>
        <time>2011-04-02T12:21:50</time>
      </trkpt>
      <trkpt lat="44.49033" lon="1.51379">
        <ele>189</ele>
        <time>2011-04-02T12:21:52</time>
      </trkpt>
      <trkpt lat="44.49036" lon="1.51382">
        <ele>189</ele>
        <time>2011-04-02T12:21:53</time>
      </trkpt>
      <trkpt lat="44.49041" lon="1.51386">
        <ele>189</ele>
        <time>2011-04-02T12:21:55</time>
      </trkpt>
      <trkpt lat="44.49044" lon="1.51388">
        <ele>177</ele>
        <time>2011-04-02T12:21:56</time>
      </trkpt>
      <trkpt lat="44.49046" lon="1.5139">
        <ele>177</ele>
        <time>2011-04-02T12:21:57</time>
      </trkpt>
      <trkpt lat="44.49049" lon="1.51392">
        <ele>177</ele>
        <time>2011-04-02T12:21:58</time>
      </trkpt>
      <trkpt lat="44.49055" lon="1.51395">
        <ele>177</ele>
        <time>2011-04-02T12:22:00</time>
      </trkpt>
      <trkpt lat="44.49061" lon="1.51398">
        <ele>177</ele>
        <time>2011-04-02T12:22:02</time>
      </trkpt>
      <trkpt lat="44.49064" lon="1.51399">
        <ele>177</ele>
        <time>2011-04-02T12:22:03</time>
      </trkpt>
      <trkpt lat="44.4907" lon="1.51402">
        <ele>177</ele>
        <time>2011-04-02T12:22:05</time>
      </trkpt>
      <trkpt lat="44.49073" lon="1.51403">
        <ele>177</ele>
        <time>2011-04-02T12:22:06</time>
      </trkpt>
      <trkpt lat="44.49076" lon="1.51404">
        <ele>177</ele>
        <time>2011-04-02T12:22:07</time>
      </trkpt>
      <trkpt lat="44.49082" lon="1.51406">
        <ele>177</ele>
        <time>2011-04-02T12:22:09</time>
      </trkpt>
      <trkpt lat="44.49089" lon="1.51408">
        <ele>177</ele>
        <time>2011-04-02T12:22:11</time>
      </trkpt>
      <trkpt lat="44.49095" lon="1.51408">
        <ele>177</ele>
        <time>2011-04-02T12:22:13</time>
      </trkpt>
      <trkpt lat="44.49098" lon="1.51408">
        <ele>177</ele>
        <time>2011-04-02T12:22:14</time>
      </trkpt>
      <trkpt lat="44.49104" lon="1.51407">
        <ele>177</ele>
        <time>2011-04-02T12:22:16</time>
      </trkpt>
      <trkpt lat="44.49107" lon="1.51407">
        <ele>177</ele>
        <time>2011-04-02T12:22:17</time>
      </trkpt>
      <trkpt lat="44.49113" lon="1.51408">
        <ele>177</ele>
        <time>2011-04-02T12:22:19</time>
      </trkpt>
      <trkpt lat="44.49116" lon="1.51408">
        <ele>177</ele>
        <time>2011-04-02T12:22:20</time>
      </trkpt>
      <trkpt lat="44.49123" lon="1.51409">
        <ele>177</ele>
        <time>2011-04-02T12:22:22</time>
      </trkpt>
      <trkpt lat="44.49126" lon="1.51409">
        <ele>178</ele>
        <time>2011-04-02T12:22:23</time>
      </trkpt>
      <trkpt lat="44.49129" lon="1.51409">
        <ele>178</ele>
        <time>2011-04-02T12:22:24</time>
      </trkpt>
      <trkpt lat="44.49135" lon="1.5141">
        <ele>178</ele>
        <time>2011-04-02T12:22:25</time>
      </trkpt>
      <trkpt lat="44.49138" lon="1.5141">
        <ele>178</ele>
        <time>2011-04-02T12:22:26</time>
      </trkpt>
      <trkpt lat="44.49142" lon="1.5141">
        <ele>178</ele>
        <time>2011-04-02T12:22:27</time>
      </trkpt>
      <trkpt lat="44.49145" lon="1.51411">
        <ele>178</ele>
        <time>2011-04-02T12:22:28</time>
      </trkpt>
      <trkpt lat="44.49151" lon="1.51412">
        <ele>178</ele>
        <time>2011-04-02T12:22:30</time>
      </trkpt>
      <trkpt lat="44.49158" lon="1.51412">
        <ele>178</ele>
        <time>2011-04-02T12:22:32</time>
      </trkpt>
      <trkpt lat="44.49162" lon="1.51412">
        <ele>178</ele>
        <time>2011-04-02T12:22:33</time>
      </trkpt>
      <trkpt lat="44.49171" lon="1.51412">
        <ele>178</ele>
        <time>2011-04-02T12:22:35</time>
      </trkpt>
      <trkpt lat="44.49176" lon="1.51411">
        <ele>178</ele>
        <time>2011-04-02T12:22:36</time>
      </trkpt>
      <trkpt lat="44.49184" lon="1.5141">
        <ele>178</ele>
        <time>2011-04-02T12:22:38</time>
      </trkpt>
      <trkpt lat="44.49188" lon="1.51409">
        <ele>178</ele>
        <time>2011-04-02T12:22:39</time>
      </trkpt>
      <trkpt lat="44.49192" lon="1.51408">
        <ele>178</ele>
        <time>2011-04-02T12:22:40</time>
      </trkpt>
      <trkpt lat="44.49196" lon="1.51407">
        <ele>178</ele>
        <time>2011-04-02T12:22:41</time>
      </trkpt>
      <trkpt lat="44.49199" lon="1.51406">
        <ele>178</ele>
        <time>2011-04-02T12:22:42</time>
      </trkpt>
      <trkpt lat="44.49206" lon="1.51404">
        <ele>178</ele>
        <time>2011-04-02T12:22:44</time>
      </trkpt>
      <trkpt lat="44.49212" lon="1.51402">
        <ele>178</ele>
        <time>2011-04-02T12:22:46</time>
      </trkpt>
      <trkpt lat="44.49216" lon="1.51401">
        <ele>178</ele>
        <time>2011-04-02T12:22:47</time>
      </trkpt>
      <trkpt lat="44.49223" lon="1.514">
        <ele>178</ele>
        <time>2011-04-02T12:22:49</time>
      </trkpt>
      <trkpt lat="44.4923" lon="1.51399">
        <ele>178</ele>
        <time>2011-04-02T12:22:51</time>
      </trkpt>
      <trkpt lat="44.49234" lon="1.51398">
        <ele>178</ele>
        <time>2011-04-02T12:22:52</time>
      </trkpt>
      <trkpt lat="44.49238" lon="1.51398">
        <ele>178</ele>
        <time>2011-04-02T12:22:53</time>
      </trkpt>
      <trkpt lat="44.49241" lon="1.51397">
        <ele>178</ele>
        <time>2011-04-02T12:22:54</time>
      </trkpt>
      <trkpt lat="44.49249" lon="1.51396">
        <ele>178</ele>
        <time>2011-04-02T12:22:56</time>
      </trkpt>
      <trkpt lat="44.49258" lon="1.51398">
        <ele>178</ele>
        <time>2011-04-02T12:22:58</time>
      </trkpt>
      <trkpt lat="44.49261" lon="1.51401">
        <ele>178</ele>
        <time>2011-04-02T12:22:59</time>
      </trkpt>
      <trkpt lat="44.49267" lon="1.51406">
        <ele>178</ele>
        <time>2011-04-02T12:23:01</time>
      </trkpt>
      <trkpt lat="44.49272" lon="1.5141">
        <ele>178</ele>
        <time>2011-04-02T12:23:03</time>
      </trkpt>
      <trkpt lat="44.49277" lon="1.51415">
        <ele>178</ele>
        <time>2011-04-02T12:23:05</time>
      </trkpt>
      <trkpt lat="44.49282" lon="1.51422">
        <ele>178</ele>
        <time>2011-04-02T12:23:07</time>
      </trkpt>
      <trkpt lat="44.49288" lon="1.51427">
        <ele>178</ele>
        <time>2011-04-02T12:23:09</time>
      </trkpt>
      <trkpt lat="44.49291" lon="1.5143">
        <ele>178</ele>
        <time>2011-04-02T12:23:11</time>
      </trkpt>
      <trkpt lat="44.49294" lon="1.51432">
        <ele>174</ele>
        <time>2011-04-02T12:23:12</time>
      </trkpt>
      <trkpt lat="44.49299" lon="1.51436">
        <ele>174</ele>
        <time>2011-04-02T12:23:14</time>
      </trkpt>
      <trkpt lat="44.49304" lon="1.5144">
        <ele>174</ele>
        <time>2011-04-02T12:23:16</time>
      </trkpt>
      <trkpt lat="44.4931" lon="1.51444">
        <ele>174</ele>
        <time>2011-04-02T12:23:18</time>
      </trkpt>
      <trkpt lat="44.49313" lon="1.51446">
        <ele>174</ele>
        <time>2011-04-02T12:23:19</time>
      </trkpt>
      <trkpt lat="44.49316" lon="1.51448">
        <ele>174</ele>
        <time>2011-04-02T12:23:20</time>
      </trkpt>
      <trkpt lat="44.49319" lon="1.51451">
        <ele>174</ele>
        <time>2011-04-02T12:23:21</time>
      </trkpt>
      <trkpt lat="44.49325" lon="1.51455">
        <ele>174</ele>
        <time>2011-04-02T12:23:23</time>
      </trkpt>
      <trkpt lat="44.49328" lon="1.51457">
        <ele>174</ele>
        <time>2011-04-02T12:23:24</time>
      </trkpt>
      <trkpt lat="44.49333" lon="1.51461">
        <ele>189</ele>
        <time>2011-04-02T12:23:26</time>
      </trkpt>
      <trkpt lat="44.49336" lon="1.51464">
        <ele>189</ele>
        <time>2011-04-02T12:23:27</time>
      </trkpt>
      <trkpt lat="44.49342" lon="1.51468">
        <ele>189</ele>
        <time>2011-04-02T12:23:29</time>
      </trkpt>
      <trkpt lat="44.49345" lon="1.51471">
        <ele>189</ele>
        <time>2011-04-02T12:23:30</time>
      </trkpt>
      <trkpt lat="44.4935" lon="1.51475">
        <ele>189</ele>
        <time>2011-04-02T12:23:32</time>
      </trkpt>
      <trkpt lat="44.49357" lon="1.51478">
        <ele>189</ele>
        <time>2011-04-02T12:23:33</time>
      </trkpt>
      <trkpt lat="44.4936" lon="1.5148">
        <ele>189</ele>
        <time>2011-04-02T12:23:34</time>
      </trkpt>
      <trkpt lat="44.49367" lon="1.51481">
        <ele>189</ele>
        <time>2011-04-02T12:23:36</time>
      </trkpt>
      <trkpt lat="44.4937" lon="1.51482">
        <ele>189</ele>
        <time>2011-04-02T12:23:37</time>
      </trkpt>
      <trkpt lat="44.49376" lon="1.51485">
        <ele>179</ele>
        <time>2011-04-02T12:23:39</time>
      </trkpt>
      <trkpt lat="44.4938" lon="1.51486">
        <ele>179</ele>
        <time>2011-04-02T12:23:40</time>
      </trkpt>
      <trkpt lat="44.49383" lon="1.51487">
        <ele>179</ele>
        <time>2011-04-02T12:23:41</time>
      </trkpt>
      <trkpt lat="44.49389" lon="1.5149">
        <ele>179</ele>
        <time>2011-04-02T12:23:43</time>
      </trkpt>
      <trkpt lat="44.49392" lon="1.5149">
        <ele>179</ele>
        <time>2011-04-02T12:23:44</time>
      </trkpt>
      <trkpt lat="44.49395" lon="1.51491">
        <ele>179</ele>
        <time>2011-04-02T12:23:45</time>
      </trkpt>
      <trkpt lat="44.49398" lon="1.51491">
        <ele>179</ele>
        <time>2011-04-02T12:23:46</time>
      </trkpt>
      <trkpt lat="44.49405" lon="1.51492">
        <ele>179</ele>
        <time>2011-04-02T12:23:48</time>
      </trkpt>
      <trkpt lat="44.49409" lon="1.51492">
        <ele>179</ele>
        <time>2011-04-02T12:23:49</time>
      </trkpt>
      <trkpt lat="44.49412" lon="1.51491">
        <ele>179</ele>
        <time>2011-04-02T12:23:50</time>
      </trkpt>
      <trkpt lat="44.49416" lon="1.51491">
        <ele>179</ele>
        <time>2011-04-02T12:23:51</time>
      </trkpt>
      <trkpt lat="44.49423" lon="1.5149">
        <ele>179</ele>
        <time>2011-04-02T12:23:53</time>
      </trkpt>
      <trkpt lat="44.49426" lon="1.51489">
        <ele>179</ele>
        <time>2011-04-02T12:23:54</time>
      </trkpt>
      <trkpt lat="44.49432" lon="1.51487">
        <ele>179</ele>
        <time>2011-04-02T12:23:56</time>
      </trkpt>
      <trkpt lat="44.49435" lon="1.51486">
        <ele>179</ele>
        <time>2011-04-02T12:23:57</time>
      </trkpt>
      <trkpt lat="44.49441" lon="1.51486">
        <ele>179</ele>
        <time>2011-04-02T12:23:59</time>
      </trkpt>
      <trkpt lat="44.49446" lon="1.51487">
        <ele>179</ele>
        <time>2011-04-02T12:24:01</time>
      </trkpt>
      <trkpt lat="44.49449" lon="1.51488">
        <ele>179</ele>
        <time>2011-04-02T12:24:02</time>
      </trkpt>
      <trkpt lat="44.49454" lon="1.51488">
        <ele>179</ele>
        <time>2011-04-02T12:24:04</time>
      </trkpt>
      <trkpt lat="44.49457" lon="1.51487">
        <ele>179</ele>
        <time>2011-04-02T12:24:05</time>
      </trkpt>
      <trkpt lat="44.49461" lon="1.51486">
        <ele>183</ele>
        <time>2011-04-02T12:24:06</time>
      </trkpt>
      <trkpt lat="44.49465" lon="1.51485">
        <ele>183</ele>
        <time>2011-04-02T12:24:07</time>
      </trkpt>
      <trkpt lat="44.49471" lon="1.51486">
        <ele>183</ele>
        <time>2011-04-02T12:24:09</time>
      </trkpt>
      <trkpt lat="44.49473" lon="1.51487">
        <ele>183</ele>
        <time>2011-04-02T12:24:10</time>
      </trkpt>
      <trkpt lat="44.49478" lon="1.5149">
        <ele>183</ele>
        <time>2011-04-02T12:24:12</time>
      </trkpt>
      <trkpt lat="44.4948" lon="1.51491">
        <ele>183</ele>
        <time>2011-04-02T12:24:13</time>
      </trkpt>
      <trkpt lat="44.49485" lon="1.51493">
        <ele>183</ele>
        <time>2011-04-02T12:24:15</time>
      </trkpt>
      <trkpt lat="44.4949" lon="1.51492">
        <ele>183</ele>
        <time>2011-04-02T12:24:17</time>
      </trkpt>
      <trkpt lat="44.49493" lon="1.51491">
        <ele>183</ele>
        <time>2011-04-02T12:24:18</time>
      </trkpt>
      <trkpt lat="44.49498" lon="1.51486">
        <ele>183</ele>
        <time>2011-04-02T12:24:20</time>
      </trkpt>
      <trkpt lat="44.49504" lon="1.5148">
        <ele>183</ele>
        <time>2011-04-02T12:24:22</time>
      </trkpt>
      <trkpt lat="44.49508" lon="1.51477">
        <ele>183</ele>
        <time>2011-04-02T12:24:23</time>
      </trkpt>
      <trkpt lat="44.49513" lon="1.51475">
        <ele>183</ele>
        <time>2011-04-02T12:24:24</time>
      </trkpt>
      <trkpt lat="44.49522" lon="1.5147">
        <ele>183</ele>
        <time>2011-04-02T12:24:26</time>
      </trkpt>
      <trkpt lat="44.49527" lon="1.51468">
        <ele>183</ele>
        <time>2011-04-02T12:24:27</time>
      </trkpt>
      <trkpt lat="44.49536" lon="1.51465">
        <ele>183</ele>
        <time>2011-04-02T12:24:29</time>
      </trkpt>
      <trkpt lat="44.49541" lon="1.51463">
        <ele>183</ele>
        <time>2011-04-02T12:24:30</time>
      </trkpt>
      <trkpt lat="44.49547" lon="1.51461">
        <ele>192</ele>
        <time>2011-04-02T12:24:32</time>
      </trkpt>
      <trkpt lat="44.49552" lon="1.51461">
        <ele>192</ele>
        <time>2011-04-02T12:24:34</time>
      </trkpt>
      <trkpt lat="44.49558" lon="1.51462">
        <ele>192</ele>
        <time>2011-04-02T12:24:36</time>
      </trkpt>
      <trkpt lat="44.49561" lon="1.51462">
        <ele>192</ele>
        <time>2011-04-02T12:24:37</time>
      </trkpt>
      <trkpt lat="44.49568" lon="1.5146">
        <ele>192</ele>
        <time>2011-04-02T12:24:39</time>
      </trkpt>
      <trkpt lat="44.49572" lon="1.51459">
        <ele>192</ele>
        <time>2011-04-02T12:24:40</time>
      </trkpt>
      <trkpt lat="44.49579" lon="1.51456">
        <ele>175</ele>
        <time>2011-04-02T12:24:42</time>
      </trkpt>
      <trkpt lat="44.49586" lon="1.51454">
        <ele>175</ele>
        <time>2011-04-02T12:24:44</time>
      </trkpt>
      <trkpt lat="44.49588" lon="1.51452">
        <ele>175</ele>
        <time>2011-04-02T12:24:45</time>
      </trkpt>
      <trkpt lat="44.49594" lon="1.51449">
        <ele>175</ele>
        <time>2011-04-02T12:24:47</time>
      </trkpt>
      <trkpt lat="44.49597" lon="1.51447">
        <ele>175</ele>
        <time>2011-04-02T12:24:48</time>
      </trkpt>
      <trkpt lat="44.49602" lon="1.51444">
        <ele>175</ele>
        <time>2011-04-02T12:24:50</time>
      </trkpt>
      <trkpt lat="44.49605" lon="1.51441">
        <ele>175</ele>
        <time>2011-04-02T12:24:51</time>
      </trkpt>
      <trkpt lat="44.49607" lon="1.51439">
        <ele>175</ele>
        <time>2011-04-02T12:24:52</time>
      </trkpt>
      <trkpt lat="44.49613" lon="1.51434">
        <ele>175</ele>
        <time>2011-04-02T12:24:54</time>
      </trkpt>
      <trkpt lat="44.4962" lon="1.51429">
        <ele>175</ele>
        <time>2011-04-02T12:24:56</time>
      </trkpt>
      <trkpt lat="44.49622" lon="1.51426">
        <ele>175</ele>
        <time>2011-04-02T12:24:57</time>
      </trkpt>
      <trkpt lat="44.49625" lon="1.51423">
        <ele>180</ele>
        <time>2011-04-02T12:24:58</time>
      </trkpt>
      <trkpt lat="44.4963" lon="1.51419">
        <ele>180</ele>
        <time>2011-04-02T12:25:00</time>
      </trkpt>
      <trkpt lat="44.49635" lon="1.51414">
        <ele>180</ele>
        <time>2011-04-02T12:25:02</time>
      </trkpt>
      <trkpt lat="44.49641" lon="1.5141">
        <ele>180</ele>
        <time>2011-04-02T12:25:04</time>
      </trkpt>
      <trkpt lat="44.49644" lon="1.51409">
        <ele>180</ele>
        <time>2011-04-02T12:25:05</time>
      </trkpt>
      <trkpt lat="44.4965" lon="1.51405">
        <ele>180</ele>
        <time>2011-04-02T12:25:07</time>
      </trkpt>
      <trkpt lat="44.49657" lon="1.51401">
        <ele>180</ele>
        <time>2011-04-02T12:25:09</time>
      </trkpt>
      <trkpt lat="44.4966" lon="1.514">
        <ele>180</ele>
        <time>2011-04-02T12:25:10</time>
      </trkpt>
      <trkpt lat="44.49664" lon="1.51399">
        <ele>180</ele>
        <time>2011-04-02T12:25:11</time>
      </trkpt>
      <trkpt lat="44.49671" lon="1.51397">
        <ele>180</ele>
        <time>2011-04-02T12:25:13</time>
      </trkpt>
      <trkpt lat="44.49674" lon="1.51396">
        <ele>180</ele>
        <time>2011-04-02T12:25:14</time>
      </trkpt>
      <trkpt lat="44.49678" lon="1.51396">
        <ele>180</ele>
        <time>2011-04-02T12:25:15</time>
      </trkpt>
      <trkpt lat="44.49686" lon="1.51396">
        <ele>180</ele>
        <time>2011-04-02T12:25:17</time>
      </trkpt>
      <trkpt lat="44.4969" lon="1.51396">
        <ele>180</ele>
        <time>2011-04-02T12:25:18</time>
      </trkpt>
      <trkpt lat="44.49697" lon="1.51397">
        <ele>180</ele>
        <time>2011-04-02T12:25:20</time>
      </trkpt>
      <trkpt lat="44.497" lon="1.51398">
        <ele>180</ele>
        <time>2011-04-02T12:25:21</time>
      </trkpt>
      <trkpt lat="44.49707" lon="1.51399">
        <ele>180</ele>
        <time>2011-04-02T12:25:23</time>
      </trkpt>
      <trkpt lat="44.4971" lon="1.514">
        <ele>186</ele>
        <time>2011-04-02T12:25:24</time>
      </trkpt>
      <trkpt lat="44.49717" lon="1.51402">
        <ele>186</ele>
        <time>2011-04-02T12:25:26</time>
      </trkpt>
      <trkpt lat="44.49721" lon="1.51403">
        <ele>186</ele>
        <time>2011-04-02T12:25:27</time>
      </trkpt>
      <trkpt lat="44.49729" lon="1.51405">
        <ele>186</ele>
        <time>2011-04-02T12:25:29</time>
      </trkpt>
      <trkpt lat="44.49733" lon="1.51406">
        <ele>186</ele>
        <time>2011-04-02T12:25:30</time>
      </trkpt>
      <trkpt lat="44.4974" lon="1.51406">
        <ele>186</ele>
        <time>2011-04-02T12:25:32</time>
      </trkpt>
      <trkpt lat="44.49744" lon="1.51406">
        <ele>186</ele>
        <time>2011-04-02T12:25:33</time>
      </trkpt>
      <trkpt lat="44.4975" lon="1.51407">
        <ele>186</ele>
        <time>2011-04-02T12:25:35</time>
      </trkpt>
      <trkpt lat="44.49755" lon="1.51407">
        <ele>186</ele>
        <time>2011-04-02T12:25:37</time>
      </trkpt>
      <trkpt lat="44.49761" lon="1.51407">
        <ele>186</ele>
        <time>2011-04-02T12:25:39</time>
      </trkpt>
      <trkpt lat="44.49765" lon="1.51406">
        <ele>186</ele>
        <time>2011-04-02T12:25:40</time>
      </trkpt>
      <trkpt lat="44.49771" lon="1.51404">
        <ele>186</ele>
        <time>2011-04-02T12:25:42</time>
      </trkpt>
      <trkpt lat="44.49774" lon="1.51403">
        <ele>186</ele>
        <time>2011-04-02T12:25:43</time>
      </trkpt>
      <trkpt lat="44.49779" lon="1.51401">
        <ele>186</ele>
        <time>2011-04-02T12:25:45</time>
      </trkpt>
      <trkpt lat="44.49784" lon="1.51398">
        <ele>186</ele>
        <time>2011-04-02T12:25:47</time>
      </trkpt>
      <trkpt lat="44.4979" lon="1.51395">
        <ele>186</ele>
        <time>2011-04-02T12:25:49</time>
      </trkpt>
      <trkpt lat="44.49793" lon="1.51394">
        <ele>195</ele>
        <time>2011-04-02T12:25:50</time>
      </trkpt>
      <trkpt lat="44.49799" lon="1.51392">
        <ele>195</ele>
        <time>2011-04-02T12:25:52</time>
      </trkpt>
      <trkpt lat="44.49802" lon="1.51391">
        <ele>195</ele>
        <time>2011-04-02T12:25:53</time>
      </trkpt>
      <trkpt lat="44.49804" lon="1.51391">
        <ele>195</ele>
        <time>2011-04-02T12:25:54</time>
      </trkpt>
      <trkpt lat="44.49809" lon="1.5139">
        <ele>195</ele>
        <time>2011-04-02T12:25:56</time>
      </trkpt>
      <trkpt lat="44.49812" lon="1.51389">
        <ele>195</ele>
        <time>2011-04-02T12:25:57</time>
      </trkpt>
      <trkpt lat="44.49816" lon="1.51387">
        <ele>195</ele>
        <time>2011-04-02T12:25:59</time>
      </trkpt>
      <trkpt lat="44.49821" lon="1.51385">
        <ele>195</ele>
        <time>2011-04-02T12:26:01</time>
      </trkpt>
      <trkpt lat="44.49825" lon="1.51383">
        <ele>195</ele>
        <time>2011-04-02T12:26:03</time>
      </trkpt>
      <trkpt lat="44.49829" lon="1.5138">
        <ele>195</ele>
        <time>2011-04-02T12:26:05</time>
      </trkpt>
      <trkpt lat="44.49831" lon="1.51378">
        <ele>195</ele>
        <time>2011-04-02T12:26:06</time>
      </trkpt>
      <trkpt lat="44.49833" lon="1.51377">
        <ele>195</ele>
        <time>2011-04-02T12:26:07</time>
      </trkpt>
      <trkpt lat="44.49837" lon="1.51372">
        <ele>183</ele>
        <time>2011-04-02T12:26:09</time>
      </trkpt>
      <trkpt lat="44.4984" lon="1.51371">
        <ele>183</ele>
        <time>2011-04-02T12:26:10</time>
      </trkpt>
      <trkpt lat="44.49842" lon="1.51369">
        <ele>183</ele>
        <time>2011-04-02T12:26:11</time>
      </trkpt>
      <trkpt lat="44.49847" lon="1.51365">
        <ele>183</ele>
        <time>2011-04-02T12:26:13</time>
      </trkpt>
      <trkpt lat="44.49849" lon="1.51363">
        <ele>183</ele>
        <time>2011-04-02T12:26:14</time>
      </trkpt>
      <trkpt lat="44.49855" lon="1.51358">
        <ele>183</ele>
        <time>2011-04-02T12:26:16</time>
      </trkpt>
      <trkpt lat="44.49858" lon="1.51356">
        <ele>183</ele>
        <time>2011-04-02T12:26:17</time>
      </trkpt>
      <trkpt lat="44.49861" lon="1.51354">
        <ele>183</ele>
        <time>2011-04-02T12:26:18</time>
      </trkpt>
      <trkpt lat="44.49866" lon="1.51349">
        <ele>183</ele>
        <time>2011-04-02T12:26:20</time>
      </trkpt>
      <trkpt lat="44.49872" lon="1.51346">
        <ele>183</ele>
        <time>2011-04-02T12:26:22</time>
      </trkpt>
      <trkpt lat="44.49875" lon="1.51345">
        <ele>183</ele>
        <time>2011-04-02T12:26:23</time>
      </trkpt>
      <trkpt lat="44.4988" lon="1.51345">
        <ele>183</ele>
        <time>2011-04-02T12:26:25</time>
      </trkpt>
      <trkpt lat="44.49884" lon="1.51345">
        <ele>183</ele>
        <time>2011-04-02T12:26:26</time>
      </trkpt>
      <trkpt lat="44.49891" lon="1.51348">
        <ele>183</ele>
        <time>2011-04-02T12:26:28</time>
      </trkpt>
      <trkpt lat="44.49898" lon="1.51351">
        <ele>183</ele>
        <time>2011-04-02T12:26:30</time>
      </trkpt>
      <trkpt lat="44.49901" lon="1.51352">
        <ele>183</ele>
        <time>2011-04-02T12:26:31</time>
      </trkpt>
      <trkpt lat="44.49906" lon="1.51352">
        <ele>183</ele>
        <time>2011-04-02T12:26:33</time>
      </trkpt>
      <trkpt lat="44.49909" lon="1.51351">
        <ele>183</ele>
        <time>2011-04-02T12:26:34</time>
      </trkpt>
      <trkpt lat="44.49914" lon="1.51349">
        <ele>183</ele>
        <time>2011-04-02T12:26:36</time>
      </trkpt>
      <trkpt lat="44.49921" lon="1.51347">
        <ele>183</ele>
        <time>2011-04-02T12:26:38</time>
      </trkpt>
      <trkpt lat="44.49927" lon="1.51345">
        <ele>183</ele>
        <time>2011-04-02T12:26:40</time>
      </trkpt>
      <trkpt lat="44.49932" lon="1.51343">
        <ele>183</ele>
        <time>2011-04-02T12:26:42</time>
      </trkpt>
      <trkpt lat="44.49935" lon="1.51342">
        <ele>183</ele>
        <time>2011-04-02T12:26:43</time>
      </trkpt>
      <trkpt lat="44.4994" lon="1.5134">
        <ele>183</ele>
        <time>2011-04-02T12:26:45</time>
      </trkpt>
      <trkpt lat="44.49942" lon="1.51339">
        <ele>183</ele>
        <time>2011-04-02T12:26:46</time>
      </trkpt>
      <trkpt lat="44.49945" lon="1.51339">
        <ele>183</ele>
        <time>2011-04-02T12:26:47</time>
      </trkpt>
      <trkpt lat="44.4995" lon="1.51337">
        <ele>183</ele>
        <time>2011-04-02T12:26:49</time>
      </trkpt>
      <trkpt lat="44.49953" lon="1.51336">
        <ele>183</ele>
        <time>2011-04-02T12:26:50</time>
      </trkpt>
      <trkpt lat="44.49959" lon="1.51332">
        <ele>191</ele>
        <time>2011-04-02T12:26:52</time>
      </trkpt>
      <trkpt lat="44.49966" lon="1.51326">
        <ele>191</ele>
        <time>2011-04-02T12:26:54</time>
      </trkpt>
      <trkpt lat="44.49974" lon="1.51321">
        <ele>191</ele>
        <time>2011-04-02T12:26:56</time>
      </trkpt>
      <trkpt lat="44.49977" lon="1.51319">
        <ele>191</ele>
        <time>2011-04-02T12:26:57</time>
      </trkpt>
      <trkpt lat="44.4998" lon="1.51316">
        <ele>191</ele>
        <time>2011-04-02T12:26:58</time>
      </trkpt>
      <trkpt lat="44.49986" lon="1.51311">
        <ele>191</ele>
        <time>2011-04-02T12:27:00</time>
      </trkpt>
      <trkpt lat="44.49989" lon="1.51308">
        <ele>191</ele>
        <time>2011-04-02T12:27:01</time>
      </trkpt>
      <trkpt lat="44.49991" lon="1.51305">
        <ele>191</ele>
        <time>2011-04-02T12:27:02</time>
      </trkpt>
      <trkpt lat="44.49994" lon="1.51303">
        <ele>191</ele>
        <time>2011-04-02T12:27:03</time>
      </trkpt>
      <trkpt lat="44.50001" lon="1.51299">
        <ele>191</ele>
        <time>2011-04-02T12:27:05</time>
      </trkpt>
      <trkpt lat="44.50004" lon="1.51297">
        <ele>191</ele>
        <time>2011-04-02T12:27:06</time>
      </trkpt>
      <trkpt lat="44.50007" lon="1.51295">
        <ele>191</ele>
        <time>2011-04-02T12:27:07</time>
      </trkpt>
      <trkpt lat="44.5001" lon="1.51294">
        <ele>191</ele>
        <time>2011-04-02T12:27:08</time>
      </trkpt>
      <trkpt lat="44.50016" lon="1.5129">
        <ele>186</ele>
        <time>2011-04-02T12:27:10</time>
      </trkpt>
      <trkpt lat="44.50019" lon="1.51288">
        <ele>186</ele>
        <time>2011-04-02T12:27:11</time>
      </trkpt>
      <trkpt lat="44.50024" lon="1.51284">
        <ele>186</ele>
        <time>2011-04-02T12:27:13</time>
      </trkpt>
      <trkpt lat="44.5003" lon="1.5128">
        <ele>186</ele>
        <time>2011-04-02T12:27:15</time>
      </trkpt>
      <trkpt lat="44.50035" lon="1.51276">
        <ele>186</ele>
        <time>2011-04-02T12:27:17</time>
      </trkpt>
      <trkpt lat="44.50037" lon="1.51273">
        <ele>186</ele>
        <time>2011-04-02T12:27:18</time>
      </trkpt>
      <trkpt lat="44.5004" lon="1.51271">
        <ele>186</ele>
        <time>2011-04-02T12:27:19</time>
      </trkpt>
      <trkpt lat="44.50047" lon="1.51266">
        <ele>191</ele>
        <time>2011-04-02T12:27:21</time>
      </trkpt>
      <trkpt lat="44.50052" lon="1.51259">
        <ele>191</ele>
        <time>2011-04-02T12:27:23</time>
      </trkpt>
      <trkpt lat="44.50057" lon="1.51255">
        <ele>191</ele>
        <time>2011-04-02T12:27:25</time>
      </trkpt>
      <trkpt lat="44.50062" lon="1.51252">
        <ele>191</ele>
        <time>2011-04-02T12:27:27</time>
      </trkpt>
      <trkpt lat="44.50064" lon="1.5125">
        <ele>191</ele>
        <time>2011-04-02T12:27:28</time>
      </trkpt>
      <trkpt lat="44.50067" lon="1.51248">
        <ele>191</ele>
        <time>2011-04-02T12:27:29</time>
      </trkpt>
      <trkpt lat="44.50072" lon="1.51244">
        <ele>191</ele>
        <time>2011-04-02T12:27:31</time>
      </trkpt>
      <trkpt lat="44.50077" lon="1.51239">
        <ele>191</ele>
        <time>2011-04-02T12:27:33</time>
      </trkpt>
      <trkpt lat="44.5008" lon="1.51236">
        <ele>191</ele>
        <time>2011-04-02T12:27:34</time>
      </trkpt>
      <trkpt lat="44.50085" lon="1.51231">
        <ele>191</ele>
        <time>2011-04-02T12:27:36</time>
      </trkpt>
      <trkpt lat="44.50088" lon="1.51229">
        <ele>191</ele>
        <time>2011-04-02T12:27:37</time>
      </trkpt>
      <trkpt lat="44.50093" lon="1.51225">
        <ele>191</ele>
        <time>2011-04-02T12:27:39</time>
      </trkpt>
      <trkpt lat="44.50096" lon="1.51222">
        <ele>191</ele>
        <time>2011-04-02T12:27:40</time>
      </trkpt>
      <trkpt lat="44.50103" lon="1.51218">
        <ele>191</ele>
        <time>2011-04-02T12:27:42</time>
      </trkpt>
      <trkpt lat="44.50106" lon="1.51215">
        <ele>191</ele>
        <time>2011-04-02T12:27:43</time>
      </trkpt>
      <trkpt lat="44.50109" lon="1.51212">
        <ele>191</ele>
        <time>2011-04-02T12:27:44</time>
      </trkpt>
      <trkpt lat="44.50112" lon="1.51209">
        <ele>191</ele>
        <time>2011-04-02T12:27:45</time>
      </trkpt>
      <trkpt lat="44.50114" lon="1.51207">
        <ele>189</ele>
        <time>2011-04-02T12:27:46</time>
      </trkpt>
      <trkpt lat="44.5012" lon="1.51202">
        <ele>189</ele>
        <time>2011-04-02T12:27:48</time>
      </trkpt>
      <trkpt lat="44.50123" lon="1.51199">
        <ele>189</ele>
        <time>2011-04-02T12:27:49</time>
      </trkpt>
      <trkpt lat="44.50129" lon="1.51196">
        <ele>181</ele>
        <time>2011-04-02T12:27:51</time>
      </trkpt>
      <trkpt lat="44.50131" lon="1.51195">
        <ele>181</ele>
        <time>2011-04-02T12:27:52</time>
      </trkpt>
      <trkpt lat="44.50137" lon="1.51192">
        <ele>181</ele>
        <time>2011-04-02T12:27:54</time>
      </trkpt>
      <trkpt lat="44.50142" lon="1.51189">
        <ele>181</ele>
        <time>2011-04-02T12:27:56</time>
      </trkpt>
      <trkpt lat="44.50145" lon="1.51188">
        <ele>181</ele>
        <time>2011-04-02T12:27:57</time>
      </trkpt>
      <trkpt lat="44.50148" lon="1.51187">
        <ele>181</ele>
        <time>2011-04-02T12:27:58</time>
      </trkpt>
      <trkpt lat="44.50155" lon="1.51185">
        <ele>181</ele>
        <time>2011-04-02T12:28:00</time>
      </trkpt>
      <trkpt lat="44.50161" lon="1.51186">
        <ele>181</ele>
        <time>2011-04-02T12:28:02</time>
      </trkpt>
      <trkpt lat="44.50164" lon="1.51187">
        <ele>181</ele>
        <time>2011-04-02T12:28:03</time>
      </trkpt>
      <trkpt lat="44.50171" lon="1.5119">
        <ele>181</ele>
        <time>2011-04-02T12:28:05</time>
      </trkpt>
      <trkpt lat="44.50174" lon="1.51191">
        <ele>181</ele>
        <time>2011-04-02T12:28:06</time>
      </trkpt>
      <trkpt lat="44.50181" lon="1.51195">
        <ele>181</ele>
        <time>2011-04-02T12:28:08</time>
      </trkpt>
      <trkpt lat="44.50186" lon="1.512">
        <ele>181</ele>
        <time>2011-04-02T12:28:10</time>
      </trkpt>
      <trkpt lat="44.5019" lon="1.51206">
        <ele>181</ele>
        <time>2011-04-02T12:28:13</time>
      </trkpt>
      <trkpt lat="44.50194" lon="1.51208">
        <ele>197</ele>
        <time>2011-04-02T12:28:15</time>
      </trkpt>
      <trkpt lat="44.50199" lon="1.5121">
        <ele>197</ele>
        <time>2011-04-02T12:28:17</time>
      </trkpt>
      <trkpt lat="44.50202" lon="1.51211">
        <ele>197</ele>
        <time>2011-04-02T12:28:18</time>
      </trkpt>
      <trkpt lat="44.50207" lon="1.51211">
        <ele>197</ele>
        <time>2011-04-02T12:28:20</time>
      </trkpt>
      <trkpt lat="44.50214" lon="1.51211">
        <ele>203</ele>
        <time>2011-04-02T12:28:22</time>
      </trkpt>
      <trkpt lat="44.50217" lon="1.51211">
        <ele>203</ele>
        <time>2011-04-02T12:28:23</time>
      </trkpt>
      <trkpt lat="44.50224" lon="1.5121">
        <ele>203</ele>
        <time>2011-04-02T12:28:25</time>
      </trkpt>
      <trkpt lat="44.50227" lon="1.51209">
        <ele>203</ele>
        <time>2011-04-02T12:28:26</time>
      </trkpt>
      <trkpt lat="44.5023" lon="1.51208">
        <ele>186</ele>
        <time>2011-04-02T12:28:27</time>
      </trkpt>
      <trkpt lat="44.50234" lon="1.51206">
        <ele>186</ele>
        <time>2011-04-02T12:28:28</time>
      </trkpt>
      <trkpt lat="44.50237" lon="1.51205">
        <ele>186</ele>
        <time>2011-04-02T12:28:29</time>
      </trkpt>
      <trkpt lat="44.50243" lon="1.51205">
        <ele>186</ele>
        <time>2011-04-02T12:28:31</time>
      </trkpt>
      <trkpt lat="44.50247" lon="1.51205">
        <ele>186</ele>
        <time>2011-04-02T12:28:32</time>
      </trkpt>
      <trkpt lat="44.5025" lon="1.51204">
        <ele>186</ele>
        <time>2011-04-02T12:28:33</time>
      </trkpt>
      <trkpt lat="44.50254" lon="1.51204">
        <ele>186</ele>
        <time>2011-04-02T12:28:34</time>
      </trkpt>
      <trkpt lat="44.50262" lon="1.51203">
        <ele>186</ele>
        <time>2011-04-02T12:28:36</time>
      </trkpt>
      <trkpt lat="44.50266" lon="1.51202">
        <ele>186</ele>
        <time>2011-04-02T12:28:37</time>
      </trkpt>
      <trkpt lat="44.50273" lon="1.51202">
        <ele>186</ele>
        <time>2011-04-02T12:28:39</time>
      </trkpt>
      <trkpt lat="44.50277" lon="1.51202">
        <ele>186</ele>
        <time>2011-04-02T12:28:40</time>
      </trkpt>
      <trkpt lat="44.50284" lon="1.512">
        <ele>186</ele>
        <time>2011-04-02T12:28:42</time>
      </trkpt>
      <trkpt lat="44.50291" lon="1.51199">
        <ele>186</ele>
        <time>2011-04-02T12:28:44</time>
      </trkpt>
      <trkpt lat="44.50294" lon="1.51198">
        <ele>187</ele>
        <time>2011-04-02T12:28:45</time>
      </trkpt>
      <trkpt lat="44.50301" lon="1.51198">
        <ele>187</ele>
        <time>2011-04-02T12:28:47</time>
      </trkpt>
      <trkpt lat="44.50304" lon="1.51198">
        <ele>187</ele>
        <time>2011-04-02T12:28:48</time>
      </trkpt>
      <trkpt lat="44.50311" lon="1.51196">
        <ele>187</ele>
        <time>2011-04-02T12:28:50</time>
      </trkpt>
      <trkpt lat="44.50314" lon="1.51196">
        <ele>187</ele>
        <time>2011-04-02T12:28:51</time>
      </trkpt>
      <trkpt lat="44.5032" lon="1.51195">
        <ele>187</ele>
        <time>2011-04-02T12:28:53</time>
      </trkpt>
      <trkpt lat="44.50324" lon="1.51195">
        <ele>187</ele>
        <time>2011-04-02T12:28:54</time>
      </trkpt>
      <trkpt lat="44.50332" lon="1.51193">
        <ele>187</ele>
        <time>2011-04-02T12:28:56</time>
      </trkpt>
      <trkpt lat="44.50335" lon="1.51192">
        <ele>187</ele>
        <time>2011-04-02T12:28:57</time>
      </trkpt>
      <trkpt lat="44.50342" lon="1.51189">
        <ele>187</ele>
        <time>2011-04-02T12:28:59</time>
      </trkpt>
      <trkpt lat="44.50346" lon="1.51187">
        <ele>187</ele>
        <time>2011-04-02T12:29:00</time>
      </trkpt>
      <trkpt lat="44.50353" lon="1.51184">
        <ele>187</ele>
        <time>2011-04-02T12:29:02</time>
      </trkpt>
      <trkpt lat="44.50361" lon="1.51183">
        <ele>187</ele>
        <time>2011-04-02T12:29:04</time>
      </trkpt>
      <trkpt lat="44.50368" lon="1.51185">
        <ele>187</ele>
        <time>2011-04-02T12:29:06</time>
      </trkpt>
      <trkpt lat="44.50371" lon="1.51187">
        <ele>187</ele>
        <time>2011-04-02T12:29:07</time>
      </trkpt>
      <trkpt lat="44.50374" lon="1.5119">
        <ele>187</ele>
        <time>2011-04-02T12:29:08</time>
      </trkpt>
      <trkpt lat="44.5038" lon="1.51194">
        <ele>190</ele>
        <time>2011-04-02T12:29:10</time>
      </trkpt>
      <trkpt lat="44.50383" lon="1.51195">
        <ele>190</ele>
        <time>2011-04-02T12:29:11</time>
      </trkpt>
      <trkpt lat="44.5039" lon="1.512">
        <ele>190</ele>
        <time>2011-04-02T12:29:13</time>
      </trkpt>
      <trkpt lat="44.50394" lon="1.51203">
        <ele>190</ele>
        <time>2011-04-02T12:29:14</time>
      </trkpt>
      <trkpt lat="44.50402" lon="1.51209">
        <ele>197</ele>
        <time>2011-04-02T12:29:16</time>
      </trkpt>
      <trkpt lat="44.50408" lon="1.51216">
        <ele>197</ele>
        <time>2011-04-02T12:29:18</time>
      </trkpt>
      <trkpt lat="44.50414" lon="1.51223">
        <ele>197</ele>
        <time>2011-04-02T12:29:20</time>
      </trkpt>
      <trkpt lat="44.50416" lon="1.51226">
        <ele>197</ele>
        <time>2011-04-02T12:29:21</time>
      </trkpt>
      <trkpt lat="44.50421" lon="1.51231">
        <ele>197</ele>
        <time>2011-04-02T12:29:23</time>
      </trkpt>
      <trkpt lat="44.50423" lon="1.51235">
        <ele>197</ele>
        <time>2011-04-02T12:29:25</time>
      </trkpt>
      <trkpt lat="44.50425" lon="1.51237">
        <ele>197</ele>
        <time>2011-04-02T12:29:26</time>
      </trkpt>
      <trkpt lat="44.50427" lon="1.5124">
        <ele>197</ele>
        <time>2011-04-02T12:29:27</time>
      </trkpt>
      <trkpt lat="44.50428" lon="1.51243">
        <ele>197</ele>
        <time>2011-04-02T12:29:28</time>
      </trkpt>
      <trkpt lat="44.5043" lon="1.51246">
        <ele>197</ele>
        <time>2011-04-02T12:29:29</time>
      </trkpt>
      <trkpt lat="44.50434" lon="1.51253">
        <ele>197</ele>
        <time>2011-04-02T12:29:31</time>
      </trkpt>
      <trkpt lat="44.50436" lon="1.51256">
        <ele>197</ele>
        <time>2011-04-02T12:29:32</time>
      </trkpt>
      <trkpt lat="44.5044" lon="1.51263">
        <ele>197</ele>
        <time>2011-04-02T12:29:34</time>
      </trkpt>
      <trkpt lat="44.50442" lon="1.51266">
        <ele>197</ele>
        <time>2011-04-02T12:29:35</time>
      </trkpt>
      <trkpt lat="44.50444" lon="1.5127">
        <ele>197</ele>
        <time>2011-04-02T12:29:36</time>
      </trkpt>
      <trkpt lat="44.50449" lon="1.51276">
        <ele>197</ele>
        <time>2011-04-02T12:29:38</time>
      </trkpt>
      <trkpt lat="44.50453" lon="1.51283">
        <ele>197</ele>
        <time>2011-04-02T12:29:40</time>
      </trkpt>
      <trkpt lat="44.50455" lon="1.51286">
        <ele>197</ele>
        <time>2011-04-02T12:29:41</time>
      </trkpt>
      <trkpt lat="44.5046" lon="1.51292">
        <ele>188</ele>
        <time>2011-04-02T12:29:43</time>
      </trkpt>
      <trkpt lat="44.50464" lon="1.51296">
        <ele>201</ele>
        <time>2011-04-02T12:29:45</time>
      </trkpt>
      <trkpt lat="44.50466" lon="1.51298">
        <ele>201</ele>
        <time>2011-04-02T12:29:46</time>
      </trkpt>
      <trkpt lat="44.50469" lon="1.513">
        <ele>201</ele>
        <time>2011-04-02T12:29:47</time>
      </trkpt>
      <trkpt lat="44.50474" lon="1.51303">
        <ele>201</ele>
        <time>2011-04-02T12:29:49</time>
      </trkpt>
      <trkpt lat="44.50481" lon="1.51305">
        <ele>201</ele>
        <time>2011-04-02T12:29:51</time>
      </trkpt>
      <trkpt lat="44.50487" lon="1.51307">
        <ele>201</ele>
        <time>2011-04-02T12:29:53</time>
      </trkpt>
      <trkpt lat="44.5049" lon="1.51307">
        <ele>201</ele>
        <time>2011-04-02T12:29:54</time>
      </trkpt>
      <trkpt lat="44.50494" lon="1.51308">
        <ele>201</ele>
        <time>2011-04-02T12:29:55</time>
      </trkpt>
      <trkpt lat="44.50497" lon="1.51308">
        <ele>201</ele>
        <time>2011-04-02T12:29:56</time>
      </trkpt>
      <trkpt lat="44.50501" lon="1.51309">
        <ele>201</ele>
        <time>2011-04-02T12:29:57</time>
      </trkpt>
      <trkpt lat="44.50504" lon="1.51309">
        <ele>201</ele>
        <time>2011-04-02T12:29:58</time>
      </trkpt>
      <trkpt lat="44.50511" lon="1.51311">
        <ele>201</ele>
        <time>2011-04-02T12:30:00</time>
      </trkpt>
      <trkpt lat="44.50518" lon="1.51312">
        <ele>201</ele>
        <time>2011-04-02T12:30:02</time>
      </trkpt>
      <trkpt lat="44.50521" lon="1.51313">
        <ele>201</ele>
        <time>2011-04-02T12:30:03</time>
      </trkpt>
      <trkpt lat="44.50529" lon="1.51317">
        <ele>201</ele>
        <time>2011-04-02T12:30:05</time>
      </trkpt>
      <trkpt lat="44.50536" lon="1.51323">
        <ele>201</ele>
        <time>2011-04-02T12:30:07</time>
      </trkpt>
      <trkpt lat="44.50541" lon="1.5133">
        <ele>201</ele>
        <time>2011-04-02T12:30:09</time>
      </trkpt>
      <trkpt lat="44.50546" lon="1.51337">
        <ele>192</ele>
        <time>2011-04-02T12:30:11</time>
      </trkpt>
      <trkpt lat="44.50551" lon="1.51345">
        <ele>192</ele>
        <time>2011-04-02T12:30:13</time>
      </trkpt>
      <trkpt lat="44.50554" lon="1.51349">
        <ele>192</ele>
        <time>2011-04-02T12:30:14</time>
      </trkpt>
      <trkpt lat="44.50558" lon="1.51357">
        <ele>192</ele>
        <time>2011-04-02T12:30:16</time>
      </trkpt>
      <trkpt lat="44.50562" lon="1.51365">
        <ele>192</ele>
        <time>2011-04-02T12:30:18</time>
      </trkpt>
      <trkpt lat="44.50566" lon="1.51373">
        <ele>192</ele>
        <time>2011-04-02T12:30:20</time>
      </trkpt>
      <trkpt lat="44.5057" lon="1.5138">
        <ele>199</ele>
        <time>2011-04-02T12:30:22</time>
      </trkpt>
      <trkpt lat="44.50572" lon="1.51384">
        <ele>199</ele>
        <time>2011-04-02T12:30:23</time>
      </trkpt>
      <trkpt lat="44.50576" lon="1.51391">
        <ele>199</ele>
        <time>2011-04-02T12:30:25</time>
      </trkpt>
      <trkpt lat="44.50578" lon="1.51395">
        <ele>199</ele>
        <time>2011-04-02T12:30:26</time>
      </trkpt>
      <trkpt lat="44.5058" lon="1.51399">
        <ele>199</ele>
        <time>2011-04-02T12:30:27</time>
      </trkpt>
      <trkpt lat="44.50584" lon="1.51407">
        <ele>199</ele>
        <time>2011-04-02T12:30:29</time>
      </trkpt>
      <trkpt lat="44.50587" lon="1.51411">
        <ele>199</ele>
        <time>2011-04-02T12:30:30</time>
      </trkpt>
      <trkpt lat="44.50592" lon="1.51418">
        <ele>199</ele>
        <time>2011-04-02T12:30:32</time>
      </trkpt>
      <trkpt lat="44.50596" lon="1.51425">
        <ele>199</ele>
        <time>2011-04-02T12:30:34</time>
      </trkpt>
      <trkpt lat="44.50599" lon="1.51428">
        <ele>199</ele>
        <time>2011-04-02T12:30:35</time>
      </trkpt>
      <trkpt lat="44.50601" lon="1.51432">
        <ele>199</ele>
        <time>2011-04-02T12:30:36</time>
      </trkpt>
      <trkpt lat="44.50606" lon="1.51439">
        <ele>199</ele>
        <time>2011-04-02T12:30:38</time>
      </trkpt>
      <trkpt lat="44.50607" lon="1.51443">
        <ele>199</ele>
        <time>2011-04-02T12:30:39</time>
      </trkpt>
      <trkpt lat="44.50609" lon="1.51447">
        <ele>199</ele>
        <time>2011-04-02T12:30:40</time>
      </trkpt>
      <trkpt lat="44.50611" lon="1.51456">
        <ele>199</ele>
        <time>2011-04-02T12:30:42</time>
      </trkpt>
      <trkpt lat="44.50613" lon="1.51464">
        <ele>214</ele>
        <time>2011-04-02T12:30:44</time>
      </trkpt>
      <trkpt lat="44.50615" lon="1.51472">
        <ele>214</ele>
        <time>2011-04-02T12:30:46</time>
      </trkpt>
      <trkpt lat="44.50616" lon="1.51476">
        <ele>214</ele>
        <time>2011-04-02T12:30:47</time>
      </trkpt>
      <trkpt lat="44.50617" lon="1.51484">
        <ele>214</ele>
        <time>2011-04-02T12:30:49</time>
      </trkpt>
      <trkpt lat="44.50618" lon="1.51487">
        <ele>214</ele>
        <time>2011-04-02T12:30:50</time>
      </trkpt>
      <trkpt lat="44.50619" lon="1.51494">
        <ele>214</ele>
        <time>2011-04-02T12:30:52</time>
      </trkpt>
      <trkpt lat="44.50621" lon="1.51501">
        <ele>214</ele>
        <time>2011-04-02T12:30:54</time>
      </trkpt>
      <trkpt lat="44.50622" lon="1.51508">
        <ele>214</ele>
        <time>2011-04-02T12:30:56</time>
      </trkpt>
      <trkpt lat="44.50623" lon="1.51512">
        <ele>214</ele>
        <time>2011-04-02T12:30:57</time>
      </trkpt>
      <trkpt lat="44.50626" lon="1.51519">
        <ele>199</ele>
        <time>2011-04-02T12:30:59</time>
      </trkpt>
      <trkpt lat="44.50627" lon="1.51522">
        <ele>199</ele>
        <time>2011-04-02T12:31:00</time>
      </trkpt>
      <trkpt lat="44.50631" lon="1.51528">
        <ele>199</ele>
        <time>2011-04-02T12:31:02</time>
      </trkpt>
      <trkpt lat="44.50632" lon="1.51531">
        <ele>199</ele>
        <time>2011-04-02T12:31:03</time>
      </trkpt>
      <trkpt lat="44.50636" lon="1.51536">
        <ele>199</ele>
        <time>2011-04-02T12:31:05</time>
      </trkpt>
      <trkpt lat="44.5064" lon="1.51541">
        <ele>199</ele>
        <time>2011-04-02T12:31:07</time>
      </trkpt>
      <trkpt lat="44.50644" lon="1.51546">
        <ele>206</ele>
        <time>2011-04-02T12:31:09</time>
      </trkpt>
      <trkpt lat="44.50646" lon="1.51548">
        <ele>206</ele>
        <time>2011-04-02T12:31:10</time>
      </trkpt>
      <trkpt lat="44.50651" lon="1.51552">
        <ele>206</ele>
        <time>2011-04-02T12:31:12</time>
      </trkpt>
      <trkpt lat="44.50653" lon="1.51554">
        <ele>206</ele>
        <time>2011-04-02T12:31:13</time>
      </trkpt>
      <trkpt lat="44.50656" lon="1.51556">
        <ele>206</ele>
        <time>2011-04-02T12:31:14</time>
      </trkpt>
      <trkpt lat="44.50658" lon="1.51558">
        <ele>206</ele>
        <time>2011-04-02T12:31:15</time>
      </trkpt>
      <trkpt lat="44.50661" lon="1.5156">
        <ele>206</ele>
        <time>2011-04-02T12:31:16</time>
      </trkpt>
      <trkpt lat="44.50664" lon="1.51563">
        <ele>206</ele>
        <time>2011-04-02T12:31:17</time>
      </trkpt>
      <trkpt lat="44.50671" lon="1.51568">
        <ele>206</ele>
        <time>2011-04-02T12:31:19</time>
      </trkpt>
      <trkpt lat="44.50674" lon="1.51571">
        <ele>206</ele>
        <time>2011-04-02T12:31:20</time>
      </trkpt>
      <trkpt lat="44.50682" lon="1.51576">
        <ele>206</ele>
        <time>2011-04-02T12:31:22</time>
      </trkpt>
      <trkpt lat="44.50685" lon="1.51578">
        <ele>206</ele>
        <time>2011-04-02T12:31:23</time>
      </trkpt>
      <trkpt lat="44.50691" lon="1.51583">
        <ele>206</ele>
        <time>2011-04-02T12:31:25</time>
      </trkpt>
      <trkpt lat="44.50696" lon="1.51587">
        <ele>206</ele>
        <time>2011-04-02T12:31:27</time>
      </trkpt>
      <trkpt lat="44.50701" lon="1.51591">
        <ele>206</ele>
        <time>2011-04-02T12:31:29</time>
      </trkpt>
      <trkpt lat="44.50704" lon="1.51593">
        <ele>206</ele>
        <time>2011-04-02T12:31:30</time>
      </trkpt>
      <trkpt lat="44.5071" lon="1.51596">
        <ele>202</ele>
        <time>2011-04-02T12:31:32</time>
      </trkpt>
      <trkpt lat="44.50715" lon="1.51598">
        <ele>202</ele>
        <time>2011-04-02T12:31:34</time>
      </trkpt>
      <trkpt lat="44.50723" lon="1.51603">
        <ele>202</ele>
        <time>2011-04-02T12:31:44</time>
      </trkpt>
      <trkpt lat="44.50725" lon="1.51605">
        <ele>202</ele>
        <time>2011-04-02T12:31:46</time>
      </trkpt>
      <trkpt lat="44.50731" lon="1.51606">
        <ele>202</ele>
        <time>2011-04-02T12:31:56</time>
      </trkpt>
      <trkpt lat="44.50731" lon="1.51606">
        <ele>202</ele>
        <time>2011-04-02T12:32:06</time>
      </trkpt>
      <trkpt lat="44.50731" lon="1.516">
        <ele>202</ele>
        <time>2011-04-02T12:32:33</time>
      </trkpt>
      <trkpt lat="44.50731" lon="1.51606">
        <ele>202</ele>
        <time>2011-04-02T12:32:48</time>
      </trkpt>
      <trkpt lat="44.50732" lon="1.51602">
        <ele>202</ele>
        <time>2011-04-02T12:33:28</time>
      </trkpt>
      <trkpt lat="44.50734" lon="1.51603">
        <ele>202</ele>
        <time>2011-04-02T12:33:31</time>
      </trkpt>
      <trkpt lat="44.50734" lon="1.51603">
        <ele>202</ele>
        <time>2011-04-02T12:33:32</time>
      </trkpt>
      <trkpt lat="44.50734" lon="1.51603">
        <ele>202</ele>
        <time>2011-04-02T12:33:49</time>
      </trkpt>
      <trkpt lat="44.50731" lon="1.51606">
        <ele>202</ele>
        <time>2011-04-02T12:33:56</time>
      </trkpt>
      <trkpt lat="44.50736" lon="1.51605">
        <ele>202</ele>
        <time>2011-04-02T12:34:11</time>
      </trkpt>
      <trkpt lat="44.50737" lon="1.51608">
        <ele>202</ele>
        <time>2011-04-02T12:34:17</time>
      </trkpt>
      <trkpt lat="44.50737" lon="1.51608">
        <ele>202</ele>
        <time>2011-04-02T12:34:18</time>
      </trkpt>
      <trkpt lat="44.50739" lon="1.5161">
        <ele>202</ele>
        <time>2011-04-02T12:34:19</time>
      </trkpt>
      <trkpt lat="44.50741" lon="1.51613">
        <ele>202</ele>
        <time>2011-04-02T12:34:21</time>
      </trkpt>
      <trkpt lat="44.50744" lon="1.51615">
        <ele>202</ele>
        <time>2011-04-02T12:34:23</time>
      </trkpt>
      <trkpt lat="44.50746" lon="1.51618">
        <ele>202</ele>
        <time>2011-04-02T12:34:25</time>
      </trkpt>
      <trkpt lat="44.50749" lon="1.5162">
        <ele>202</ele>
        <time>2011-04-02T12:34:27</time>
      </trkpt>
      <trkpt lat="44.50753" lon="1.51624">
        <ele>202</ele>
        <time>2011-04-02T12:34:29</time>
      </trkpt>
      <trkpt lat="44.50756" lon="1.51626">
        <ele>209</ele>
        <time>2011-04-02T12:34:30</time>
      </trkpt>
      <trkpt lat="44.50758" lon="1.51629">
        <ele>209</ele>
        <time>2011-04-02T12:34:31</time>
      </trkpt>
      <trkpt lat="44.50764" lon="1.51634">
        <ele>209</ele>
        <time>2011-04-02T12:34:33</time>
      </trkpt>
      <trkpt lat="44.50766" lon="1.51636">
        <ele>209</ele>
        <time>2011-04-02T12:34:34</time>
      </trkpt>
      <trkpt lat="44.50773" lon="1.51641">
        <ele>209</ele>
        <time>2011-04-02T12:34:36</time>
      </trkpt>
      <trkpt lat="44.50779" lon="1.51646">
        <ele>209</ele>
        <time>2011-04-02T12:34:38</time>
      </trkpt>
      <trkpt lat="44.50782" lon="1.51648">
        <ele>209</ele>
        <time>2011-04-02T12:34:39</time>
      </trkpt>
      <trkpt lat="44.50788" lon="1.51653">
        <ele>209</ele>
        <time>2011-04-02T12:34:41</time>
      </trkpt>
      <trkpt lat="44.50791" lon="1.51656">
        <ele>209</ele>
        <time>2011-04-02T12:34:42</time>
      </trkpt>
      <trkpt lat="44.50797" lon="1.51662">
        <ele>198</ele>
        <time>2011-04-02T12:34:44</time>
      </trkpt>
      <trkpt lat="44.50799" lon="1.51665">
        <ele>198</ele>
        <time>2011-04-02T12:34:45</time>
      </trkpt>
      <trkpt lat="44.50802" lon="1.51668">
        <ele>198</ele>
        <time>2011-04-02T12:34:46</time>
      </trkpt>
      <trkpt lat="44.50805" lon="1.51672">
        <ele>198</ele>
        <time>2011-04-02T12:34:47</time>
      </trkpt>
      <trkpt lat="44.5081" lon="1.51679">
        <ele>198</ele>
        <time>2011-04-02T12:34:49</time>
      </trkpt>
      <trkpt lat="44.50815" lon="1.51686">
        <ele>198</ele>
        <time>2011-04-02T12:34:51</time>
      </trkpt>
      <trkpt lat="44.50821" lon="1.51693">
        <ele>198</ele>
        <time>2011-04-02T12:34:53</time>
      </trkpt>
      <trkpt lat="44.50824" lon="1.51697">
        <ele>198</ele>
        <time>2011-04-02T12:34:54</time>
      </trkpt>
      <trkpt lat="44.5083" lon="1.51703">
        <ele>198</ele>
        <time>2011-04-02T12:34:56</time>
      </trkpt>
      <trkpt lat="44.50832" lon="1.51705">
        <ele>198</ele>
        <time>2011-04-02T12:34:57</time>
      </trkpt>
      <trkpt lat="44.50839" lon="1.5171">
        <ele>202</ele>
        <time>2011-04-02T12:34:59</time>
      </trkpt>
      <trkpt lat="44.50845" lon="1.51716">
        <ele>202</ele>
        <time>2011-04-02T12:35:01</time>
      </trkpt>
      <trkpt lat="44.50851" lon="1.51721">
        <ele>202</ele>
        <time>2011-04-02T12:35:03</time>
      </trkpt>
      <trkpt lat="44.50857" lon="1.51727">
        <ele>202</ele>
        <time>2011-04-02T12:35:05</time>
      </trkpt>
      <trkpt lat="44.5086" lon="1.51729">
        <ele>202</ele>
        <time>2011-04-02T12:35:06</time>
      </trkpt>
      <trkpt lat="44.50865" lon="1.51735">
        <ele>202</ele>
        <time>2011-04-02T12:35:08</time>
      </trkpt>
      <trkpt lat="44.5087" lon="1.51741">
        <ele>202</ele>
        <time>2011-04-02T12:35:10</time>
      </trkpt>
      <trkpt lat="44.50875" lon="1.51747">
        <ele>202</ele>
        <time>2011-04-02T12:35:12</time>
      </trkpt>
      <trkpt lat="44.5088" lon="1.51753">
        <ele>205</ele>
        <time>2011-04-02T12:35:14</time>
      </trkpt>
      <trkpt lat="44.50886" lon="1.51759">
        <ele>205</ele>
        <time>2011-04-02T12:35:16</time>
      </trkpt>
      <trkpt lat="44.50891" lon="1.51764">
        <ele>205</ele>
        <time>2011-04-02T12:35:18</time>
      </trkpt>
      <trkpt lat="44.50894" lon="1.51767">
        <ele>205</ele>
        <time>2011-04-02T12:35:19</time>
      </trkpt>
      <trkpt lat="44.509" lon="1.51773">
        <ele>205</ele>
        <time>2011-04-02T12:35:21</time>
      </trkpt>
      <trkpt lat="44.50903" lon="1.51776">
        <ele>205</ele>
        <time>2011-04-02T12:35:22</time>
      </trkpt>
      <trkpt lat="44.50906" lon="1.51779">
        <ele>205</ele>
        <time>2011-04-02T12:35:23</time>
      </trkpt>
      <trkpt lat="44.50912" lon="1.51785">
        <ele>205</ele>
        <time>2011-04-02T12:35:25</time>
      </trkpt>
      <trkpt lat="44.50915" lon="1.51788">
        <ele>205</ele>
        <time>2011-04-02T12:35:26</time>
      </trkpt>
      <trkpt lat="44.50921" lon="1.51794">
        <ele>214</ele>
        <time>2011-04-02T12:35:28</time>
      </trkpt>
      <trkpt lat="44.50927" lon="1.51799">
        <ele>214</ele>
        <time>2011-04-02T12:35:30</time>
      </trkpt>
      <trkpt lat="44.50932" lon="1.51805">
        <ele>214</ele>
        <time>2011-04-02T12:35:32</time>
      </trkpt>
      <trkpt lat="44.50935" lon="1.51808">
        <ele>214</ele>
        <time>2011-04-02T12:35:33</time>
      </trkpt>
      <trkpt lat="44.5094" lon="1.51813">
        <ele>214</ele>
        <time>2011-04-02T12:35:35</time>
      </trkpt>
      <trkpt lat="44.50942" lon="1.51816">
        <ele>214</ele>
        <time>2011-04-02T12:35:36</time>
      </trkpt>
      <trkpt lat="44.50947" lon="1.51822">
        <ele>214</ele>
        <time>2011-04-02T12:35:38</time>
      </trkpt>
      <trkpt lat="44.5095" lon="1.51824">
        <ele>214</ele>
        <time>2011-04-02T12:35:39</time>
      </trkpt>
      <trkpt lat="44.50954" lon="1.5183">
        <ele>214</ele>
        <time>2011-04-02T12:35:41</time>
      </trkpt>
      <trkpt lat="44.50957" lon="1.51833">
        <ele>214</ele>
        <time>2011-04-02T12:35:42</time>
      </trkpt>
      <trkpt lat="44.50962" lon="1.51839">
        <ele>208</ele>
        <time>2011-04-02T12:35:44</time>
      </trkpt>
      <trkpt lat="44.50968" lon="1.51844">
        <ele>208</ele>
        <time>2011-04-02T12:35:46</time>
      </trkpt>
      <trkpt lat="44.50975" lon="1.51849">
        <ele>208</ele>
        <time>2011-04-02T12:35:48</time>
      </trkpt>
      <trkpt lat="44.50978" lon="1.51852">
        <ele>208</ele>
        <time>2011-04-02T12:35:49</time>
      </trkpt>
      <trkpt lat="44.50985" lon="1.51857">
        <ele>208</ele>
        <time>2011-04-02T12:35:51</time>
      </trkpt>
      <trkpt lat="44.50991" lon="1.51863">
        <ele>208</ele>
        <time>2011-04-02T12:35:53</time>
      </trkpt>
      <trkpt lat="44.50994" lon="1.51866">
        <ele>208</ele>
        <time>2011-04-02T12:35:54</time>
      </trkpt>
      <trkpt lat="44.51" lon="1.51871">
        <ele>208</ele>
        <time>2011-04-02T12:35:56</time>
      </trkpt>
      <trkpt lat="44.51003" lon="1.51874">
        <ele>208</ele>
        <time>2011-04-02T12:35:57</time>
      </trkpt>
      <trkpt lat="44.51006" lon="1.51877">
        <ele>220</ele>
        <time>2011-04-02T12:35:58</time>
      </trkpt>
      <trkpt lat="44.51009" lon="1.5188">
        <ele>220</ele>
        <time>2011-04-02T12:35:59</time>
      </trkpt>
      <trkpt lat="44.51011" lon="1.51882">
        <ele>220</ele>
        <time>2011-04-02T12:36:00</time>
      </trkpt>
      <trkpt lat="44.51014" lon="1.51885">
        <ele>220</ele>
        <time>2011-04-02T12:36:01</time>
      </trkpt>
      <trkpt lat="44.51019" lon="1.51891">
        <ele>220</ele>
        <time>2011-04-02T12:36:03</time>
      </trkpt>
      <trkpt lat="44.51023" lon="1.51896">
        <ele>220</ele>
        <time>2011-04-02T12:36:05</time>
      </trkpt>
      <trkpt lat="44.51028" lon="1.51901">
        <ele>220</ele>
        <time>2011-04-02T12:36:07</time>
      </trkpt>
      <trkpt lat="44.51033" lon="1.51906">
        <ele>220</ele>
        <time>2011-04-02T12:36:09</time>
      </trkpt>
      <trkpt lat="44.51038" lon="1.51911">
        <ele>220</ele>
        <time>2011-04-02T12:36:11</time>
      </trkpt>
      <trkpt lat="44.51043" lon="1.51917">
        <ele>212</ele>
        <time>2011-04-02T12:36:13</time>
      </trkpt>
      <trkpt lat="44.51045" lon="1.51919">
        <ele>212</ele>
        <time>2011-04-02T12:36:14</time>
      </trkpt>
      <trkpt lat="44.51048" lon="1.51922">
        <ele>212</ele>
        <time>2011-04-02T12:36:15</time>
      </trkpt>
      <trkpt lat="44.51051" lon="1.51924">
        <ele>212</ele>
        <time>2011-04-02T12:36:16</time>
      </trkpt>
      <trkpt lat="44.5106" lon="1.5193">
        <ele>212</ele>
        <time>2011-04-02T12:36:18</time>
      </trkpt>
      <trkpt lat="44.51063" lon="1.51931">
        <ele>212</ele>
        <time>2011-04-02T12:36:19</time>
      </trkpt>
      <trkpt lat="44.5107" lon="1.51933">
        <ele>212</ele>
        <time>2011-04-02T12:36:21</time>
      </trkpt>
      <trkpt lat="44.51075" lon="1.51935">
        <ele>212</ele>
        <time>2011-04-02T12:36:23</time>
      </trkpt>
      <trkpt lat="44.51081" lon="1.51937">
        <ele>212</ele>
        <time>2011-04-02T12:36:25</time>
      </trkpt>
      <trkpt lat="44.51084" lon="1.51938">
        <ele>212</ele>
        <time>2011-04-02T12:36:26</time>
      </trkpt>
      <trkpt lat="44.51091" lon="1.5194">
        <ele>212</ele>
        <time>2011-04-02T12:36:28</time>
      </trkpt>
      <trkpt lat="44.51098" lon="1.51943">
        <ele>212</ele>
        <time>2011-04-02T12:36:30</time>
      </trkpt>
      <trkpt lat="44.51105" lon="1.51946">
        <ele>212</ele>
        <time>2011-04-02T12:36:32</time>
      </trkpt>
      <trkpt lat="44.51108" lon="1.51947">
        <ele>212</ele>
        <time>2011-04-02T12:36:33</time>
      </trkpt>
      <trkpt lat="44.51114" lon="1.51951">
        <ele>212</ele>
        <time>2011-04-02T12:36:35</time>
      </trkpt>
      <trkpt lat="44.51118" lon="1.51952">
        <ele>212</ele>
        <time>2011-04-02T12:36:36</time>
      </trkpt>
      <trkpt lat="44.51124" lon="1.51955">
        <ele>212</ele>
        <time>2011-04-02T12:36:38</time>
      </trkpt>
      <trkpt lat="44.5113" lon="1.51959">
        <ele>214</ele>
        <time>2011-04-02T12:36:40</time>
      </trkpt>
      <trkpt lat="44.51135" lon="1.51964">
        <ele>214</ele>
        <time>2011-04-02T12:36:42</time>
      </trkpt>
      <trkpt lat="44.51141" lon="1.51969">
        <ele>214</ele>
        <time>2011-04-02T12:36:44</time>
      </trkpt>
      <trkpt lat="44.51146" lon="1.51975">
        <ele>214</ele>
        <time>2011-04-02T12:36:46</time>
      </trkpt>
      <trkpt lat="44.51149" lon="1.51978">
        <ele>214</ele>
        <time>2011-04-02T12:36:47</time>
      </trkpt>
      <trkpt lat="44.51156" lon="1.51983">
        <ele>214</ele>
        <time>2011-04-02T12:36:49</time>
      </trkpt>
      <trkpt lat="44.51162" lon="1.51988">
        <ele>214</ele>
        <time>2011-04-02T12:36:51</time>
      </trkpt>
      <trkpt lat="44.51165" lon="1.5199">
        <ele>214</ele>
        <time>2011-04-02T12:36:52</time>
      </trkpt>
      <trkpt lat="44.51168" lon="1.51993">
        <ele>214</ele>
        <time>2011-04-02T12:36:53</time>
      </trkpt>
      <trkpt lat="44.51173" lon="1.51997">
        <ele>214</ele>
        <time>2011-04-02T12:36:55</time>
      </trkpt>
      <trkpt lat="44.51178" lon="1.52001">
        <ele>214</ele>
        <time>2011-04-02T12:36:57</time>
      </trkpt>
      <trkpt lat="44.51181" lon="1.52003">
        <ele>214</ele>
        <time>2011-04-02T12:36:58</time>
      </trkpt>
      <trkpt lat="44.51184" lon="1.52005">
        <ele>214</ele>
        <time>2011-04-02T12:36:59</time>
      </trkpt>
      <trkpt lat="44.5119" lon="1.52008">
        <ele>214</ele>
        <time>2011-04-02T12:37:01</time>
      </trkpt>
      <trkpt lat="44.51193" lon="1.5201">
        <ele>214</ele>
        <time>2011-04-02T12:37:02</time>
      </trkpt>
      <trkpt lat="44.51199" lon="1.52013">
        <ele>214</ele>
        <time>2011-04-02T12:37:04</time>
      </trkpt>
      <trkpt lat="44.51206" lon="1.52016">
        <ele>214</ele>
        <time>2011-04-02T12:37:06</time>
      </trkpt>
      <trkpt lat="44.51209" lon="1.52017">
        <ele>212</ele>
        <time>2011-04-02T12:37:07</time>
      </trkpt>
      <trkpt lat="44.51216" lon="1.52019">
        <ele>212</ele>
        <time>2011-04-02T12:37:09</time>
      </trkpt>
      <trkpt lat="44.51223" lon="1.52019">
        <ele>212</ele>
        <time>2011-04-02T12:37:11</time>
      </trkpt>
      <trkpt lat="44.51227" lon="1.52019">
        <ele>212</ele>
        <time>2011-04-02T12:37:12</time>
      </trkpt>
      <trkpt lat="44.51234" lon="1.52019">
        <ele>212</ele>
        <time>2011-04-02T12:37:14</time>
      </trkpt>
      <trkpt lat="44.51237" lon="1.52019">
        <ele>212</ele>
        <time>2011-04-02T12:37:15</time>
      </trkpt>
      <trkpt lat="44.51243" lon="1.52018">
        <ele>212</ele>
        <time>2011-04-02T12:37:17</time>
      </trkpt>
      <trkpt lat="44.51251" lon="1.52019">
        <ele>212</ele>
        <time>2011-04-02T12:37:19</time>
      </trkpt>
      <trkpt lat="44.51254" lon="1.52019">
        <ele>212</ele>
        <time>2011-04-02T12:37:20</time>
      </trkpt>
      <trkpt lat="44.51262" lon="1.52017">
        <ele>212</ele>
        <time>2011-04-02T12:37:22</time>
      </trkpt>
      <trkpt lat="44.51268" lon="1.52014">
        <ele>212</ele>
        <time>2011-04-02T12:37:24</time>
      </trkpt>
      <trkpt lat="44.51271" lon="1.52012">
        <ele>212</ele>
        <time>2011-04-02T12:37:25</time>
      </trkpt>
      <trkpt lat="44.51277" lon="1.52008">
        <ele>212</ele>
        <time>2011-04-02T12:37:27</time>
      </trkpt>
      <trkpt lat="44.51279" lon="1.52006">
        <ele>212</ele>
        <time>2011-04-02T12:37:28</time>
      </trkpt>
      <trkpt lat="44.51282" lon="1.52003">
        <ele>212</ele>
        <time>2011-04-02T12:37:29</time>
      </trkpt>
      <trkpt lat="44.51288" lon="1.51999">
        <ele>212</ele>
        <time>2011-04-02T12:37:31</time>
      </trkpt>
      <trkpt lat="44.5129" lon="1.51998">
        <ele>212</ele>
        <time>2011-04-02T12:37:32</time>
      </trkpt>
      <trkpt lat="44.51296" lon="1.51994">
        <ele>214</ele>
        <time>2011-04-02T12:37:34</time>
      </trkpt>
      <trkpt lat="44.513" lon="1.51993">
        <ele>214</ele>
        <time>2011-04-02T12:37:35</time>
      </trkpt>
      <trkpt lat="44.51303" lon="1.51991">
        <ele>214</ele>
        <time>2011-04-02T12:37:36</time>
      </trkpt>
      <trkpt lat="44.5131" lon="1.51989">
        <ele>214</ele>
        <time>2011-04-02T12:37:38</time>
      </trkpt>
      <trkpt lat="44.51317" lon="1.5199">
        <ele>214</ele>
        <time>2011-04-02T12:37:40</time>
      </trkpt>
      <trkpt lat="44.51323" lon="1.51991">
        <ele>214</ele>
        <time>2011-04-02T12:37:42</time>
      </trkpt>
      <trkpt lat="44.51331" lon="1.51992">
        <ele>214</ele>
        <time>2011-04-02T12:37:44</time>
      </trkpt>
      <trkpt lat="44.51338" lon="1.51994">
        <ele>214</ele>
        <time>2011-04-02T12:37:46</time>
      </trkpt>
      <trkpt lat="44.51341" lon="1.51995">
        <ele>214</ele>
        <time>2011-04-02T12:37:47</time>
      </trkpt>
      <trkpt lat="44.51347" lon="1.51998">
        <ele>214</ele>
        <time>2011-04-02T12:37:49</time>
      </trkpt>
      <trkpt lat="44.51353" lon="1.52002">
        <ele>214</ele>
        <time>2011-04-02T12:37:51</time>
      </trkpt>
      <trkpt lat="44.51359" lon="1.52005">
        <ele>214</ele>
        <time>2011-04-02T12:37:53</time>
      </trkpt>
      <trkpt lat="44.51366" lon="1.52008">
        <ele>214</ele>
        <time>2011-04-02T12:37:55</time>
      </trkpt>
      <trkpt lat="44.51373" lon="1.52011">
        <ele>214</ele>
        <time>2011-04-02T12:37:57</time>
      </trkpt>
      <trkpt lat="44.5138" lon="1.52014">
        <ele>219</ele>
        <time>2011-04-02T12:37:59</time>
      </trkpt>
      <trkpt lat="44.51383" lon="1.52015">
        <ele>219</ele>
        <time>2011-04-02T12:38:00</time>
      </trkpt>
      <trkpt lat="44.5139" lon="1.52017">
        <ele>219</ele>
        <time>2011-04-02T12:38:02</time>
      </trkpt>
      <trkpt lat="44.51393" lon="1.52017">
        <ele>219</ele>
        <time>2011-04-02T12:38:03</time>
      </trkpt>
      <trkpt lat="44.51398" lon="1.52018">
        <ele>219</ele>
        <time>2011-04-02T12:38:05</time>
      </trkpt>
      <trkpt lat="44.51401" lon="1.52019">
        <ele>219</ele>
        <time>2011-04-02T12:38:06</time>
      </trkpt>
      <trkpt lat="44.51405" lon="1.52019">
        <ele>219</ele>
        <time>2011-04-02T12:38:07</time>
      </trkpt>
      <trkpt lat="44.51408" lon="1.52019">
        <ele>219</ele>
        <time>2011-04-02T12:38:08</time>
      </trkpt>
      <trkpt lat="44.51411" lon="1.5202">
        <ele>219</ele>
        <time>2011-04-02T12:38:09</time>
      </trkpt>
      <trkpt lat="44.51417" lon="1.52021">
        <ele>219</ele>
        <time>2011-04-02T12:38:11</time>
      </trkpt>
      <trkpt lat="44.5142" lon="1.52021">
        <ele>219</ele>
        <time>2011-04-02T12:38:12</time>
      </trkpt>
      <trkpt lat="44.51423" lon="1.52022">
        <ele>219</ele>
        <time>2011-04-02T12:38:13</time>
      </trkpt>
      <trkpt lat="44.51429" lon="1.52022">
        <ele>219</ele>
        <time>2011-04-02T12:38:15</time>
      </trkpt>
      <trkpt lat="44.51435" lon="1.52021">
        <ele>219</ele>
        <time>2011-04-02T12:38:17</time>
      </trkpt>
      <trkpt lat="44.51441" lon="1.52021">
        <ele>219</ele>
        <time>2011-04-02T12:38:19</time>
      </trkpt>
      <trkpt lat="44.51447" lon="1.5202">
        <ele>219</ele>
        <time>2011-04-02T12:38:21</time>
      </trkpt>
      <trkpt lat="44.51451" lon="1.52019">
        <ele>219</ele>
        <time>2011-04-02T12:38:22</time>
      </trkpt>
      <trkpt lat="44.51458" lon="1.52019">
        <ele>219</ele>
        <time>2011-04-02T12:38:24</time>
      </trkpt>
      <trkpt lat="44.51462" lon="1.52019">
        <ele>220</ele>
        <time>2011-04-02T12:38:25</time>
      </trkpt>
      <trkpt lat="44.51469" lon="1.52018">
        <ele>220</ele>
        <time>2011-04-02T12:38:27</time>
      </trkpt>
      <trkpt lat="44.51472" lon="1.52017">
        <ele>220</ele>
        <time>2011-04-02T12:38:28</time>
      </trkpt>
      <trkpt lat="44.51479" lon="1.52018">
        <ele>220</ele>
        <time>2011-04-02T12:38:30</time>
      </trkpt>
      <trkpt lat="44.51482" lon="1.52018">
        <ele>220</ele>
        <time>2011-04-02T12:38:31</time>
      </trkpt>
      <trkpt lat="44.51485" lon="1.52019">
        <ele>220</ele>
        <time>2011-04-02T12:38:32</time>
      </trkpt>
      <trkpt lat="44.51493" lon="1.52019">
        <ele>220</ele>
        <time>2011-04-02T12:38:34</time>
      </trkpt>
      <trkpt lat="44.51497" lon="1.52019">
        <ele>220</ele>
        <time>2011-04-02T12:38:35</time>
      </trkpt>
      <trkpt lat="44.51505" lon="1.52019">
        <ele>220</ele>
        <time>2011-04-02T12:38:37</time>
      </trkpt>
      <trkpt lat="44.51512" lon="1.5202">
        <ele>220</ele>
        <time>2011-04-02T12:38:39</time>
      </trkpt>
      <trkpt lat="44.51519" lon="1.5202">
        <ele>220</ele>
        <time>2011-04-02T12:38:41</time>
      </trkpt>
      <trkpt lat="44.51525" lon="1.52022">
        <ele>220</ele>
        <time>2011-04-02T12:38:43</time>
      </trkpt>
      <trkpt lat="44.51533" lon="1.52022">
        <ele>220</ele>
        <time>2011-04-02T12:38:45</time>
      </trkpt>
      <trkpt lat="44.51537" lon="1.52022">
        <ele>220</ele>
        <time>2011-04-02T12:38:46</time>
      </trkpt>
      <trkpt lat="44.51544" lon="1.52023">
        <ele>221</ele>
        <time>2011-04-02T12:38:48</time>
      </trkpt>
      <trkpt lat="44.51552" lon="1.52023">
        <ele>221</ele>
        <time>2011-04-02T12:38:50</time>
      </trkpt>
      <trkpt lat="44.51558" lon="1.52024">
        <ele>221</ele>
        <time>2011-04-02T12:38:52</time>
      </trkpt>
      <trkpt lat="44.51564" lon="1.52026">
        <ele>221</ele>
        <time>2011-04-02T12:38:54</time>
      </trkpt>
      <trkpt lat="44.51567" lon="1.52025">
        <ele>221</ele>
        <time>2011-04-02T12:38:55</time>
      </trkpt>
      <trkpt lat="44.51573" lon="1.52024">
        <ele>221</ele>
        <time>2011-04-02T12:38:57</time>
      </trkpt>
      <trkpt lat="44.51578" lon="1.52025">
        <ele>221</ele>
        <time>2011-04-02T12:38:59</time>
      </trkpt>
      <trkpt lat="44.51585" lon="1.52025">
        <ele>221</ele>
        <time>2011-04-02T12:39:01</time>
      </trkpt>
      <trkpt lat="44.51592" lon="1.52024">
        <ele>221</ele>
        <time>2011-04-02T12:39:03</time>
      </trkpt>
      <trkpt lat="44.51599" lon="1.52023">
        <ele>221</ele>
        <time>2011-04-02T12:39:05</time>
      </trkpt>
      <trkpt lat="44.51602" lon="1.52023">
        <ele>221</ele>
        <time>2011-04-02T12:39:06</time>
      </trkpt>
      <trkpt lat="44.51608" lon="1.52021">
        <ele>221</ele>
        <time>2011-04-02T12:39:08</time>
      </trkpt>
      <trkpt lat="44.51611" lon="1.52021">
        <ele>221</ele>
        <time>2011-04-02T12:39:09</time>
      </trkpt>
      <trkpt lat="44.51614" lon="1.5202">
        <ele>221</ele>
        <time>2011-04-02T12:39:10</time>
      </trkpt>
      <trkpt lat="44.51621" lon="1.52017">
        <ele>221</ele>
        <time>2011-04-02T12:39:12</time>
      </trkpt>
      <trkpt lat="44.51625" lon="1.52016">
        <ele>221</ele>
        <time>2011-04-02T12:39:13</time>
      </trkpt>
      <trkpt lat="44.51632" lon="1.52016">
        <ele>218</ele>
        <time>2011-04-02T12:39:15</time>
      </trkpt>
      <trkpt lat="44.51638" lon="1.52018">
        <ele>218</ele>
        <time>2011-04-02T12:39:17</time>
      </trkpt>
      <trkpt lat="44.51641" lon="1.52019">
        <ele>218</ele>
        <time>2011-04-02T12:39:18</time>
      </trkpt>
      <trkpt lat="44.51645" lon="1.5202">
        <ele>218</ele>
        <time>2011-04-02T12:39:19</time>
      </trkpt>
      <trkpt lat="44.51651" lon="1.52023">
        <ele>218</ele>
        <time>2011-04-02T12:39:21</time>
      </trkpt>
      <trkpt lat="44.51654" lon="1.52025">
        <ele>218</ele>
        <time>2011-04-02T12:39:22</time>
      </trkpt>
      <trkpt lat="44.51658" lon="1.52027">
        <ele>218</ele>
        <time>2011-04-02T12:39:23</time>
      </trkpt>
      <trkpt lat="44.51666" lon="1.52029">
        <ele>218</ele>
        <time>2011-04-02T12:39:25</time>
      </trkpt>
      <trkpt lat="44.5167" lon="1.52029">
        <ele>218</ele>
        <time>2011-04-02T12:39:26</time>
      </trkpt>
      <trkpt lat="44.51673" lon="1.5203">
        <ele>218</ele>
        <time>2011-04-02T12:39:27</time>
      </trkpt>
      <trkpt lat="44.5168" lon="1.52032">
        <ele>218</ele>
        <time>2011-04-02T12:39:29</time>
      </trkpt>
      <trkpt lat="44.51682" lon="1.52033">
        <ele>218</ele>
        <time>2011-04-02T12:39:30</time>
      </trkpt>
      <trkpt lat="44.51688" lon="1.52035">
        <ele>218</ele>
        <time>2011-04-02T12:39:32</time>
      </trkpt>
      <trkpt lat="44.5169" lon="1.52036">
        <ele>218</ele>
        <time>2011-04-02T12:39:33</time>
      </trkpt>
      <trkpt lat="44.51693" lon="1.52038">
        <ele>218</ele>
        <time>2011-04-02T12:39:34</time>
      </trkpt>
      <trkpt lat="44.51698" lon="1.52041">
        <ele>218</ele>
        <time>2011-04-02T12:39:36</time>
      </trkpt>
      <trkpt lat="44.51701" lon="1.52042">
        <ele>229</ele>
        <time>2011-04-02T12:39:37</time>
      </trkpt>
      <trkpt lat="44.51706" lon="1.52044">
        <ele>229</ele>
        <time>2011-04-02T12:39:39</time>
      </trkpt>
      <trkpt lat="44.51709" lon="1.52046">
        <ele>230</ele>
        <time>2011-04-02T12:39:40</time>
      </trkpt>
      <trkpt lat="44.51714" lon="1.52048">
        <ele>230</ele>
        <time>2011-04-02T12:39:42</time>
      </trkpt>
      <trkpt lat="44.51719" lon="1.5205">
        <ele>230</ele>
        <time>2011-04-02T12:39:44</time>
      </trkpt>
      <trkpt lat="44.51722" lon="1.52051">
        <ele>230</ele>
        <time>2011-04-02T12:39:45</time>
      </trkpt>
      <trkpt lat="44.51724" lon="1.52053">
        <ele>230</ele>
        <time>2011-04-02T12:39:46</time>
      </trkpt>
      <trkpt lat="44.51729" lon="1.52055">
        <ele>230</ele>
        <time>2011-04-02T12:39:48</time>
      </trkpt>
      <trkpt lat="44.51733" lon="1.52058">
        <ele>230</ele>
        <time>2011-04-02T12:39:50</time>
      </trkpt>
      <trkpt lat="44.51738" lon="1.5206">
        <ele>230</ele>
        <time>2011-04-02T12:39:52</time>
      </trkpt>
      <trkpt lat="44.51743" lon="1.52063">
        <ele>230</ele>
        <time>2011-04-02T12:39:54</time>
      </trkpt>
      <trkpt lat="44.51746" lon="1.52064">
        <ele>230</ele>
        <time>2011-04-02T12:39:55</time>
      </trkpt>
      <trkpt lat="44.51752" lon="1.52066">
        <ele>230</ele>
        <time>2011-04-02T12:39:57</time>
      </trkpt>
      <trkpt lat="44.51759" lon="1.52068">
        <ele>230</ele>
        <time>2011-04-02T12:39:59</time>
      </trkpt>
      <trkpt lat="44.51763" lon="1.5207">
        <ele>230</ele>
        <time>2011-04-02T12:40:00</time>
      </trkpt>
      <trkpt lat="44.5177" lon="1.52071">
        <ele>230</ele>
        <time>2011-04-02T12:40:02</time>
      </trkpt>
      <trkpt lat="44.51773" lon="1.52072">
        <ele>230</ele>
        <time>2011-04-02T12:40:03</time>
      </trkpt>
      <trkpt lat="44.51776" lon="1.52073">
        <ele>230</ele>
        <time>2011-04-02T12:40:04</time>
      </trkpt>
      <trkpt lat="44.51783" lon="1.52074">
        <ele>230</ele>
        <time>2011-04-02T12:40:06</time>
      </trkpt>
      <trkpt lat="44.51786" lon="1.52075">
        <ele>230</ele>
        <time>2011-04-02T12:40:07</time>
      </trkpt>
      <trkpt lat="44.51789" lon="1.52076">
        <ele>230</ele>
        <time>2011-04-02T12:40:08</time>
      </trkpt>
      <trkpt lat="44.51794" lon="1.52077">
        <ele>229</ele>
        <time>2011-04-02T12:40:10</time>
      </trkpt>
      <trkpt lat="44.51797" lon="1.52079">
        <ele>229</ele>
        <time>2011-04-02T12:40:11</time>
      </trkpt>
      <trkpt lat="44.51799" lon="1.5208">
        <ele>229</ele>
        <time>2011-04-02T12:40:12</time>
      </trkpt>
      <trkpt lat="44.51805" lon="1.52083">
        <ele>229</ele>
        <time>2011-04-02T12:40:14</time>
      </trkpt>
      <trkpt lat="44.51809" lon="1.52087">
        <ele>229</ele>
        <time>2011-04-02T12:40:16</time>
      </trkpt>
      <trkpt lat="44.51812" lon="1.52089">
        <ele>229</ele>
        <time>2011-04-02T12:40:17</time>
      </trkpt>
      <trkpt lat="44.51817" lon="1.52093">
        <ele>229</ele>
        <time>2011-04-02T12:40:19</time>
      </trkpt>
      <trkpt lat="44.5182" lon="1.52096">
        <ele>229</ele>
        <time>2011-04-02T12:40:20</time>
      </trkpt>
      <trkpt lat="44.51822" lon="1.52098">
        <ele>229</ele>
        <time>2011-04-02T12:40:21</time>
      </trkpt>
      <trkpt lat="44.51825" lon="1.521">
        <ele>229</ele>
        <time>2011-04-02T12:40:22</time>
      </trkpt>
      <trkpt lat="44.5183" lon="1.52105">
        <ele>229</ele>
        <time>2011-04-02T12:40:24</time>
      </trkpt>
      <trkpt lat="44.51833" lon="1.52107">
        <ele>229</ele>
        <time>2011-04-02T12:40:25</time>
      </trkpt>
      <trkpt lat="44.51838" lon="1.52111">
        <ele>229</ele>
        <time>2011-04-02T12:40:27</time>
      </trkpt>
      <trkpt lat="44.5184" lon="1.52114">
        <ele>229</ele>
        <time>2011-04-02T12:40:28</time>
      </trkpt>
      <trkpt lat="44.51846" lon="1.52118">
        <ele>229</ele>
        <time>2011-04-02T12:40:30</time>
      </trkpt>
      <trkpt lat="44.51848" lon="1.5212">
        <ele>229</ele>
        <time>2011-04-02T12:40:31</time>
      </trkpt>
      <trkpt lat="44.51853" lon="1.52126">
        <ele>239</ele>
        <time>2011-04-02T12:40:33</time>
      </trkpt>
      <trkpt lat="44.51855" lon="1.52129">
        <ele>239</ele>
        <time>2011-04-02T12:40:34</time>
      </trkpt>
      <trkpt lat="44.51857" lon="1.52132">
        <ele>239</ele>
        <time>2011-04-02T12:40:35</time>
      </trkpt>
      <trkpt lat="44.5186" lon="1.52139">
        <ele>239</ele>
        <time>2011-04-02T12:40:37</time>
      </trkpt>
      <trkpt lat="44.51861" lon="1.52146">
        <ele>239</ele>
        <time>2011-04-02T12:40:39</time>
      </trkpt>
      <trkpt lat="44.51863" lon="1.52154">
        <ele>239</ele>
        <time>2011-04-02T12:40:41</time>
      </trkpt>
      <trkpt lat="44.51864" lon="1.52157">
        <ele>239</ele>
        <time>2011-04-02T12:40:42</time>
      </trkpt>
      <trkpt lat="44.51865" lon="1.52165">
        <ele>239</ele>
        <time>2011-04-02T12:40:44</time>
      </trkpt>
      <trkpt lat="44.51865" lon="1.52169">
        <ele>239</ele>
        <time>2011-04-02T12:40:45</time>
      </trkpt>
      <trkpt lat="44.51865" lon="1.52176">
        <ele>239</ele>
        <time>2011-04-02T12:40:47</time>
      </trkpt>
      <trkpt lat="44.51866" lon="1.5218">
        <ele>239</ele>
        <time>2011-04-02T12:40:48</time>
      </trkpt>
      <trkpt lat="44.51866" lon="1.52187">
        <ele>239</ele>
        <time>2011-04-02T12:40:50</time>
      </trkpt>
      <trkpt lat="44.51866" lon="1.52191">
        <ele>239</ele>
        <time>2011-04-02T12:40:51</time>
      </trkpt>
      <trkpt lat="44.51867" lon="1.52195">
        <ele>239</ele>
        <time>2011-04-02T12:40:52</time>
      </trkpt>
      <trkpt lat="44.51868" lon="1.52203">
        <ele>239</ele>
        <time>2011-04-02T12:40:54</time>
      </trkpt>
      <trkpt lat="44.51869" lon="1.52207">
        <ele>239</ele>
        <time>2011-04-02T12:40:55</time>
      </trkpt>
      <trkpt lat="44.5187" lon="1.52211">
        <ele>253</ele>
        <time>2011-04-02T12:40:56</time>
      </trkpt>
      <trkpt lat="44.51871" lon="1.52215">
        <ele>253</ele>
        <time>2011-04-02T12:40:57</time>
      </trkpt>
      <trkpt lat="44.51874" lon="1.52222">
        <ele>253</ele>
        <time>2011-04-02T12:40:59</time>
      </trkpt>
      <trkpt lat="44.51875" lon="1.52226">
        <ele>253</ele>
        <time>2011-04-02T12:41:00</time>
      </trkpt>
      <trkpt lat="44.51878" lon="1.52232">
        <ele>236</ele>
        <time>2011-04-02T12:41:02</time>
      </trkpt>
      <trkpt lat="44.5188" lon="1.52239">
        <ele>236</ele>
        <time>2011-04-02T12:41:04</time>
      </trkpt>
      <trkpt lat="44.51882" lon="1.52245">
        <ele>236</ele>
        <time>2011-04-02T12:41:06</time>
      </trkpt>
      <trkpt lat="44.51885" lon="1.52253">
        <ele>236</ele>
        <time>2011-04-02T12:41:09</time>
      </trkpt>
      <trkpt lat="44.51888" lon="1.52259">
        <ele>236</ele>
        <time>2011-04-02T12:41:11</time>
      </trkpt>
      <trkpt lat="44.51891" lon="1.52265">
        <ele>236</ele>
        <time>2011-04-02T12:41:13</time>
      </trkpt>
      <trkpt lat="44.51893" lon="1.52268">
        <ele>236</ele>
        <time>2011-04-02T12:41:14</time>
      </trkpt>
      <trkpt lat="44.51896" lon="1.52275">
        <ele>236</ele>
        <time>2011-04-02T12:41:16</time>
      </trkpt>
      <trkpt lat="44.519" lon="1.52281">
        <ele>236</ele>
        <time>2011-04-02T12:41:18</time>
      </trkpt>
      <trkpt lat="44.51902" lon="1.52284">
        <ele>236</ele>
        <time>2011-04-02T12:41:19</time>
      </trkpt>
      <trkpt lat="44.51904" lon="1.52287">
        <ele>236</ele>
        <time>2011-04-02T12:41:20</time>
      </trkpt>
      <trkpt lat="44.51908" lon="1.52293">
        <ele>244</ele>
        <time>2011-04-02T12:41:22</time>
      </trkpt>
      <trkpt lat="44.51913" lon="1.523">
        <ele>244</ele>
        <time>2011-04-02T12:41:24</time>
      </trkpt>
      <trkpt lat="44.51915" lon="1.52303">
        <ele>244</ele>
        <time>2011-04-02T12:41:25</time>
      </trkpt>
      <trkpt lat="44.51917" lon="1.52306">
        <ele>244</ele>
        <time>2011-04-02T12:41:26</time>
      </trkpt>
      <trkpt lat="44.51922" lon="1.52312">
        <ele>244</ele>
        <time>2011-04-02T12:41:28</time>
      </trkpt>
      <trkpt lat="44.51926" lon="1.52318">
        <ele>244</ele>
        <time>2011-04-02T12:41:30</time>
      </trkpt>
      <trkpt lat="44.51931" lon="1.52324">
        <ele>244</ele>
        <time>2011-04-02T12:41:32</time>
      </trkpt>
      <trkpt lat="44.51936" lon="1.52329">
        <ele>244</ele>
        <time>2011-04-02T12:41:34</time>
      </trkpt>
      <trkpt lat="44.51941" lon="1.52335">
        <ele>244</ele>
        <time>2011-04-02T12:41:36</time>
      </trkpt>
      <trkpt lat="44.51945" lon="1.52341">
        <ele>244</ele>
        <time>2011-04-02T12:41:38</time>
      </trkpt>
      <trkpt lat="44.5195" lon="1.52348">
        <ele>244</ele>
        <time>2011-04-02T12:41:40</time>
      </trkpt>
      <trkpt lat="44.51953" lon="1.52354">
        <ele>244</ele>
        <time>2011-04-02T12:41:42</time>
      </trkpt>
      <trkpt lat="44.51955" lon="1.52357">
        <ele>244</ele>
        <time>2011-04-02T12:41:43</time>
      </trkpt>
      <trkpt lat="44.51957" lon="1.5236">
        <ele>244</ele>
        <time>2011-04-02T12:41:44</time>
      </trkpt>
      <trkpt lat="44.51961" lon="1.52367">
        <ele>240</ele>
        <time>2011-04-02T12:41:46</time>
      </trkpt>
      <trkpt lat="44.51962" lon="1.52371">
        <ele>240</ele>
        <time>2011-04-02T12:41:47</time>
      </trkpt>
      <trkpt lat="44.51966" lon="1.52378">
        <ele>244</ele>
        <time>2011-04-02T12:41:49</time>
      </trkpt>
      <trkpt lat="44.5197" lon="1.52385">
        <ele>244</ele>
        <time>2011-04-02T12:41:51</time>
      </trkpt>
      <trkpt lat="44.51975" lon="1.52393">
        <ele>244</ele>
        <time>2011-04-02T12:41:53</time>
      </trkpt>
      <trkpt lat="44.51979" lon="1.52401">
        <ele>244</ele>
        <time>2011-04-02T12:41:55</time>
      </trkpt>
      <trkpt lat="44.51982" lon="1.52408">
        <ele>244</ele>
        <time>2011-04-02T12:41:57</time>
      </trkpt>
      <trkpt lat="44.51986" lon="1.52416">
        <ele>244</ele>
        <time>2011-04-02T12:41:59</time>
      </trkpt>
      <trkpt lat="44.51989" lon="1.52424">
        <ele>244</ele>
        <time>2011-04-02T12:42:01</time>
      </trkpt>
      <trkpt lat="44.51992" lon="1.52432">
        <ele>244</ele>
        <time>2011-04-02T12:42:03</time>
      </trkpt>
      <trkpt lat="44.51993" lon="1.52437">
        <ele>244</ele>
        <time>2011-04-02T12:42:04</time>
      </trkpt>
      <trkpt lat="44.51994" lon="1.52441">
        <ele>244</ele>
        <time>2011-04-02T12:42:05</time>
      </trkpt>
      <trkpt lat="44.51997" lon="1.5245">
        <ele>244</ele>
        <time>2011-04-02T12:42:07</time>
      </trkpt>
      <trkpt lat="44.51998" lon="1.52459">
        <ele>246</ele>
        <time>2011-04-02T12:42:09</time>
      </trkpt>
      <trkpt lat="44.51999" lon="1.52469">
        <ele>246</ele>
        <time>2011-04-02T12:42:11</time>
      </trkpt>
      <trkpt lat="44.52" lon="1.52474">
        <ele>246</ele>
        <time>2011-04-02T12:42:12</time>
      </trkpt>
      <trkpt lat="44.51999" lon="1.52478">
        <ele>246</ele>
        <time>2011-04-02T12:42:13</time>
      </trkpt>
      <trkpt lat="44.51999" lon="1.52482">
        <ele>246</ele>
        <time>2011-04-02T12:42:14</time>
      </trkpt>
      <trkpt lat="44.51997" lon="1.52489">
        <ele>246</ele>
        <time>2011-04-02T12:42:16</time>
      </trkpt>
      <trkpt lat="44.51997" lon="1.52497">
        <ele>246</ele>
        <time>2011-04-02T12:42:18</time>
      </trkpt>
      <trkpt lat="44.51996" lon="1.52506">
        <ele>246</ele>
        <time>2011-04-02T12:42:20</time>
      </trkpt>
      <trkpt lat="44.51996" lon="1.52515">
        <ele>246</ele>
        <time>2011-04-02T12:42:22</time>
      </trkpt>
      <trkpt lat="44.51996" lon="1.52519">
        <ele>246</ele>
        <time>2011-04-02T12:42:23</time>
      </trkpt>
      <trkpt lat="44.51996" lon="1.52528">
        <ele>246</ele>
        <time>2011-04-02T12:42:25</time>
      </trkpt>
      <trkpt lat="44.51997" lon="1.52532">
        <ele>246</ele>
        <time>2011-04-02T12:42:26</time>
      </trkpt>
      <trkpt lat="44.51999" lon="1.52541">
        <ele>246</ele>
        <time>2011-04-02T12:42:28</time>
      </trkpt>
      <trkpt lat="44.52002" lon="1.52549">
        <ele>249</ele>
        <time>2011-04-02T12:42:30</time>
      </trkpt>
      <trkpt lat="44.52005" lon="1.52556">
        <ele>249</ele>
        <time>2011-04-02T12:42:32</time>
      </trkpt>
      <trkpt lat="44.52007" lon="1.52559">
        <ele>249</ele>
        <time>2011-04-02T12:42:33</time>
      </trkpt>
      <trkpt lat="44.52012" lon="1.52565">
        <ele>249</ele>
        <time>2011-04-02T12:42:35</time>
      </trkpt>
      <trkpt lat="44.52017" lon="1.52571">
        <ele>249</ele>
        <time>2011-04-02T12:42:37</time>
      </trkpt>
      <trkpt lat="44.5202" lon="1.52574">
        <ele>249</ele>
        <time>2011-04-02T12:42:38</time>
      </trkpt>
      <trkpt lat="44.52027" lon="1.52579">
        <ele>249</ele>
        <time>2011-04-02T12:42:40</time>
      </trkpt>
      <trkpt lat="44.52033" lon="1.52583">
        <ele>249</ele>
        <time>2011-04-02T12:42:42</time>
      </trkpt>
      <trkpt lat="44.52039" lon="1.52588">
        <ele>249</ele>
        <time>2011-04-02T12:42:44</time>
      </trkpt>
      <trkpt lat="44.52045" lon="1.52592">
        <ele>246</ele>
        <time>2011-04-02T12:42:46</time>
      </trkpt>
      <trkpt lat="44.52051" lon="1.52597">
        <ele>246</ele>
        <time>2011-04-02T12:42:48</time>
      </trkpt>
      <trkpt lat="44.52053" lon="1.52599">
        <ele>246</ele>
        <time>2011-04-02T12:42:49</time>
      </trkpt>
      <trkpt lat="44.52059" lon="1.52603">
        <ele>246</ele>
        <time>2011-04-02T12:42:51</time>
      </trkpt>
      <trkpt lat="44.52062" lon="1.52605">
        <ele>246</ele>
        <time>2011-04-02T12:42:52</time>
      </trkpt>
      <trkpt lat="44.52065" lon="1.52607">
        <ele>246</ele>
        <time>2011-04-02T12:42:53</time>
      </trkpt>
      <trkpt lat="44.5207" lon="1.52612">
        <ele>246</ele>
        <time>2011-04-02T12:42:55</time>
      </trkpt>
      <trkpt lat="44.52072" lon="1.52614">
        <ele>246</ele>
        <time>2011-04-02T12:42:56</time>
      </trkpt>
      <trkpt lat="44.52077" lon="1.52618">
        <ele>246</ele>
        <time>2011-04-02T12:42:58</time>
      </trkpt>
      <trkpt lat="44.52079" lon="1.5262">
        <ele>246</ele>
        <time>2011-04-02T12:42:59</time>
      </trkpt>
      <trkpt lat="44.52084" lon="1.52624">
        <ele>246</ele>
        <time>2011-04-02T12:43:01</time>
      </trkpt>
      <trkpt lat="44.52087" lon="1.52626">
        <ele>251</ele>
        <time>2011-04-02T12:43:02</time>
      </trkpt>
      <trkpt lat="44.52089" lon="1.52627">
        <ele>251</ele>
        <time>2011-04-02T12:43:03</time>
      </trkpt>
      <trkpt lat="44.52094" lon="1.52632">
        <ele>251</ele>
        <time>2011-04-02T12:43:06</time>
      </trkpt>
      <trkpt lat="44.52097" lon="1.52633">
        <ele>251</ele>
        <time>2011-04-02T12:43:08</time>
      </trkpt>
      <trkpt lat="44.521" lon="1.52634">
        <ele>251</ele>
        <time>2011-04-02T12:43:10</time>
      </trkpt>
      <trkpt lat="44.52105" lon="1.52633">
        <ele>251</ele>
        <time>2011-04-02T12:43:12</time>
      </trkpt>
      <trkpt lat="44.52107" lon="1.52632">
        <ele>251</ele>
        <time>2011-04-02T12:43:13</time>
      </trkpt>
      <trkpt lat="44.5211" lon="1.52631">
        <ele>251</ele>
        <time>2011-04-02T12:43:14</time>
      </trkpt>
      <trkpt lat="44.52112" lon="1.5263">
        <ele>251</ele>
        <time>2011-04-02T12:43:15</time>
      </trkpt>
      <trkpt lat="44.52118" lon="1.52627">
        <ele>251</ele>
        <time>2011-04-02T12:43:17</time>
      </trkpt>
      <trkpt lat="44.52123" lon="1.52622">
        <ele>246</ele>
        <time>2011-04-02T12:43:19</time>
      </trkpt>
      <trkpt lat="44.52131" lon="1.52616">
        <ele>252</ele>
        <time>2011-04-02T12:43:26</time>
      </trkpt>
      <trkpt lat="44.52131" lon="1.52616">
        <ele>252</ele>
        <time>2011-04-02T12:43:37</time>
      </trkpt>
      <trkpt lat="44.52129" lon="1.52623">
        <ele>252</ele>
        <time>2011-04-02T12:43:39</time>
      </trkpt>
      <trkpt lat="44.52129" lon="1.52616">
        <ele>252</ele>
        <time>2011-04-02T12:43:56</time>
      </trkpt>
      <trkpt lat="44.52133" lon="1.52619">
        <ele>252</ele>
        <time>2011-04-02T12:44:17</time>
      </trkpt>
      <trkpt lat="44.52135" lon="1.52617">
        <ele>252</ele>
        <time>2011-04-02T12:44:21</time>
      </trkpt>
      <trkpt lat="44.52135" lon="1.52617">
        <ele>252</ele>
        <time>2011-04-02T12:44:22</time>
      </trkpt>
      <trkpt lat="44.52133" lon="1.5261">
        <ele>252</ele>
        <time>2011-04-02T12:44:23</time>
      </trkpt>
      <trkpt lat="44.52131" lon="1.52605">
        <ele>252</ele>
        <time>2011-04-02T12:44:25</time>
      </trkpt>
      <trkpt lat="44.52128" lon="1.526">
        <ele>252</ele>
        <time>2011-04-02T12:44:27</time>
      </trkpt>
      <trkpt lat="44.52125" lon="1.52596">
        <ele>246</ele>
        <time>2011-04-02T12:44:29</time>
      </trkpt>
      <trkpt lat="44.52123" lon="1.52594">
        <ele>246</ele>
        <time>2011-04-02T12:44:30</time>
      </trkpt>
      <trkpt lat="44.52121" lon="1.52593">
        <ele>246</ele>
        <time>2011-04-02T12:44:31</time>
      </trkpt>
      <trkpt lat="44.52117" lon="1.52589">
        <ele>246</ele>
        <time>2011-04-02T12:44:33</time>
      </trkpt>
      <trkpt lat="44.52111" lon="1.52585">
        <ele>246</ele>
        <time>2011-04-02T12:44:35</time>
      </trkpt>
      <trkpt lat="44.52105" lon="1.52581">
        <ele>246</ele>
        <time>2011-04-02T12:44:37</time>
      </trkpt>
      <trkpt lat="44.52102" lon="1.52579">
        <ele>246</ele>
        <time>2011-04-02T12:44:38</time>
      </trkpt>
      <trkpt lat="44.52098" lon="1.52576">
        <ele>246</ele>
        <time>2011-04-02T12:44:40</time>
      </trkpt>
      <trkpt lat="44.52094" lon="1.52574">
        <ele>246</ele>
        <time>2011-04-02T12:44:41</time>
      </trkpt>
      <trkpt lat="44.52087" lon="1.5257">
        <ele>246</ele>
        <time>2011-04-02T12:44:43</time>
      </trkpt>
      <trkpt lat="44.52083" lon="1.52568">
        <ele>246</ele>
        <time>2011-04-02T12:44:44</time>
      </trkpt>
      <trkpt lat="44.52074" lon="1.52564">
        <ele>246</ele>
        <time>2011-04-02T12:44:46</time>
      </trkpt>
      <trkpt lat="44.5207" lon="1.52563">
        <ele>246</ele>
        <time>2011-04-02T12:44:47</time>
      </trkpt>
      <trkpt lat="44.52065" lon="1.52561">
        <ele>246</ele>
        <time>2011-04-02T12:44:48</time>
      </trkpt>
      <trkpt lat="44.52061" lon="1.52559">
        <ele>246</ele>
        <time>2011-04-02T12:44:49</time>
      </trkpt>
      <trkpt lat="44.52057" lon="1.52557">
        <ele>246</ele>
        <time>2011-04-02T12:44:50</time>
      </trkpt>
      <trkpt lat="44.52051" lon="1.52551">
        <ele>246</ele>
        <time>2011-04-02T12:44:52</time>
      </trkpt>
      <trkpt lat="44.52047" lon="1.52542">
        <ele>246</ele>
        <time>2011-04-02T12:44:54</time>
      </trkpt>
      <trkpt lat="44.52045" lon="1.52537">
        <ele>256</ele>
        <time>2011-04-02T12:44:55</time>
      </trkpt>
      <trkpt lat="44.52043" lon="1.52529">
        <ele>256</ele>
        <time>2011-04-02T12:44:57</time>
      </trkpt>
      <trkpt lat="44.52042" lon="1.52524">
        <ele>256</ele>
        <time>2011-04-02T12:44:58</time>
      </trkpt>
      <trkpt lat="44.52042" lon="1.52519">
        <ele>256</ele>
        <time>2011-04-02T12:44:59</time>
      </trkpt>
      <trkpt lat="44.5204" lon="1.52512">
        <ele>246</ele>
        <time>2011-04-02T12:45:01</time>
      </trkpt>
      <trkpt lat="44.52041" lon="1.52509">
        <ele>246</ele>
        <time>2011-04-02T12:45:02</time>
      </trkpt>
      <trkpt lat="44.5204" lon="1.52504">
        <ele>246</ele>
        <time>2011-04-02T12:45:03</time>
      </trkpt>
      <trkpt lat="44.52041" lon="1.52495">
        <ele>246</ele>
        <time>2011-04-02T12:45:05</time>
      </trkpt>
      <trkpt lat="44.52041" lon="1.52487">
        <ele>246</ele>
        <time>2011-04-02T12:45:07</time>
      </trkpt>
      <trkpt lat="44.52041" lon="1.52482">
        <ele>246</ele>
        <time>2011-04-02T12:45:08</time>
      </trkpt>
      <trkpt lat="44.52041" lon="1.52473">
        <ele>246</ele>
        <time>2011-04-02T12:45:10</time>
      </trkpt>
      <trkpt lat="44.52041" lon="1.52468">
        <ele>246</ele>
        <time>2011-04-02T12:45:11</time>
      </trkpt>
      <trkpt lat="44.52038" lon="1.52458">
        <ele>244</ele>
        <time>2011-04-02T12:45:13</time>
      </trkpt>
      <trkpt lat="44.52035" lon="1.52444">
        <ele>244</ele>
        <time>2011-04-02T12:45:15</time>
      </trkpt>
      <trkpt lat="44.52033" lon="1.52436">
        <ele>244</ele>
        <time>2011-04-02T12:45:16</time>
      </trkpt>
      <trkpt lat="44.52029" lon="1.5242">
        <ele>244</ele>
        <time>2011-04-02T12:45:18</time>
      </trkpt>
      <trkpt lat="44.52026" lon="1.52411">
        <ele>244</ele>
        <time>2011-04-02T12:45:19</time>
      </trkpt>
      <trkpt lat="44.52024" lon="1.52402">
        <ele>244</ele>
        <time>2011-04-02T12:45:20</time>
      </trkpt>
      <trkpt lat="44.52022" lon="1.52393">
        <ele>244</ele>
        <time>2011-04-02T12:45:21</time>
      </trkpt>
      <trkpt lat="44.52019" lon="1.52376">
        <ele>244</ele>
        <time>2011-04-02T12:45:23</time>
      </trkpt>
      <trkpt lat="44.52017" lon="1.52362">
        <ele>240</ele>
        <time>2011-04-02T12:45:25</time>
      </trkpt>
      <trkpt lat="44.52015" lon="1.52357">
        <ele>240</ele>
        <time>2011-04-02T12:45:26</time>
      </trkpt>
      <trkpt lat="44.52012" lon="1.5235">
        <ele>240</ele>
        <time>2011-04-02T12:45:28</time>
      </trkpt>
      <trkpt lat="44.52007" lon="1.52345">
        <ele>240</ele>
        <time>2011-04-02T12:45:30</time>
      </trkpt>
      <trkpt lat="44.52004" lon="1.52342">
        <ele>240</ele>
        <time>2011-04-02T12:45:31</time>
      </trkpt>
      <trkpt lat="44.52001" lon="1.52338">
        <ele>240</ele>
        <time>2011-04-02T12:45:32</time>
      </trkpt>
      <trkpt lat="44.51998" lon="1.52335">
        <ele>240</ele>
        <time>2011-04-02T12:45:33</time>
      </trkpt>
      <trkpt lat="44.51995" lon="1.52331">
        <ele>240</ele>
        <time>2011-04-02T12:45:34</time>
      </trkpt>
      <trkpt lat="44.51988" lon="1.52323">
        <ele>240</ele>
        <time>2011-04-02T12:45:36</time>
      </trkpt>
      <trkpt lat="44.51981" lon="1.52317">
        <ele>240</ele>
        <time>2011-04-02T12:45:38</time>
      </trkpt>
      <trkpt lat="44.51978" lon="1.52313">
        <ele>240</ele>
        <time>2011-04-02T12:45:39</time>
      </trkpt>
      <trkpt lat="44.51972" lon="1.52305">
        <ele>240</ele>
        <time>2011-04-02T12:45:41</time>
      </trkpt>
      <trkpt lat="44.51969" lon="1.52301">
        <ele>240</ele>
        <time>2011-04-02T12:45:42</time>
      </trkpt>
      <trkpt lat="44.51965" lon="1.52294">
        <ele>240</ele>
        <time>2011-04-02T12:45:44</time>
      </trkpt>
      <trkpt lat="44.51962" lon="1.5229">
        <ele>252</ele>
        <time>2011-04-02T12:45:45</time>
      </trkpt>
      <trkpt lat="44.51959" lon="1.52281">
        <ele>252</ele>
        <time>2011-04-02T12:45:47</time>
      </trkpt>
      <trkpt lat="44.51957" lon="1.52277">
        <ele>236</ele>
        <time>2011-04-02T12:45:48</time>
      </trkpt>
      <trkpt lat="44.51954" lon="1.52272">
        <ele>236</ele>
        <time>2011-04-02T12:45:49</time>
      </trkpt>
      <trkpt lat="44.51949" lon="1.52262">
        <ele>236</ele>
        <time>2011-04-02T12:45:51</time>
      </trkpt>
      <trkpt lat="44.51947" lon="1.52257">
        <ele>236</ele>
        <time>2011-04-02T12:45:52</time>
      </trkpt>
      <trkpt lat="44.51944" lon="1.52253">
        <ele>236</ele>
        <time>2011-04-02T12:45:53</time>
      </trkpt>
      <trkpt lat="44.51939" lon="1.52243">
        <ele>236</ele>
        <time>2011-04-02T12:45:55</time>
      </trkpt>
      <trkpt lat="44.51937" lon="1.52237">
        <ele>236</ele>
        <time>2011-04-02T12:45:56</time>
      </trkpt>
      <trkpt lat="44.51935" lon="1.5223">
        <ele>236</ele>
        <time>2011-04-02T12:45:57</time>
      </trkpt>
      <trkpt lat="44.51932" lon="1.52218">
        <ele>236</ele>
        <time>2011-04-02T12:45:59</time>
      </trkpt>
      <trkpt lat="44.51929" lon="1.52207">
        <ele>239</ele>
        <time>2011-04-02T12:46:01</time>
      </trkpt>
      <trkpt lat="44.51927" lon="1.52201">
        <ele>239</ele>
        <time>2011-04-02T12:46:02</time>
      </trkpt>
      <trkpt lat="44.51923" lon="1.5219">
        <ele>239</ele>
        <time>2011-04-02T12:46:04</time>
      </trkpt>
      <trkpt lat="44.5192" lon="1.52183">
        <ele>239</ele>
        <time>2011-04-02T12:46:05</time>
      </trkpt>
      <trkpt lat="44.51918" lon="1.52176">
        <ele>239</ele>
        <time>2011-04-02T12:46:06</time>
      </trkpt>
      <trkpt lat="44.51912" lon="1.52163">
        <ele>239</ele>
        <time>2011-04-02T12:46:08</time>
      </trkpt>
      <trkpt lat="44.51907" lon="1.52149">
        <ele>239</ele>
        <time>2011-04-02T12:46:10</time>
      </trkpt>
      <trkpt lat="44.51903" lon="1.52136">
        <ele>239</ele>
        <time>2011-04-02T12:46:12</time>
      </trkpt>
      <trkpt lat="44.51901" lon="1.52129">
        <ele>239</ele>
        <time>2011-04-02T12:46:13</time>
      </trkpt>
      <trkpt lat="44.51899" lon="1.52123">
        <ele>250</ele>
        <time>2011-04-02T12:46:14</time>
      </trkpt>
      <trkpt lat="44.51896" lon="1.52111">
        <ele>250</ele>
        <time>2011-04-02T12:46:16</time>
      </trkpt>
      <trkpt lat="44.51894" lon="1.52105">
        <ele>250</ele>
        <time>2011-04-02T12:46:17</time>
      </trkpt>
      <trkpt lat="44.5189" lon="1.52093">
        <ele>250</ele>
        <time>2011-04-02T12:46:19</time>
      </trkpt>
      <trkpt lat="44.51888" lon="1.52088">
        <ele>250</ele>
        <time>2011-04-02T12:46:20</time>
      </trkpt>
      <trkpt lat="44.51886" lon="1.52083">
        <ele>250</ele>
        <time>2011-04-02T12:46:21</time>
      </trkpt>
      <trkpt lat="44.5188" lon="1.52074">
        <ele>250</ele>
        <time>2011-04-02T12:46:23</time>
      </trkpt>
      <trkpt lat="44.51876" lon="1.52069">
        <ele>250</ele>
        <time>2011-04-02T12:46:24</time>
      </trkpt>
      <trkpt lat="44.51871" lon="1.52065">
        <ele>229</ele>
        <time>2011-04-02T12:46:25</time>
      </trkpt>
      <trkpt lat="44.5186" lon="1.52057">
        <ele>229</ele>
        <time>2011-04-02T12:46:27</time>
      </trkpt>
      <trkpt lat="44.51854" lon="1.52053">
        <ele>229</ele>
        <time>2011-04-02T12:46:28</time>
      </trkpt>
      <trkpt lat="44.51843" lon="1.52046">
        <ele>229</ele>
        <time>2011-04-02T12:46:30</time>
      </trkpt>
      <trkpt lat="44.51839" lon="1.52043">
        <ele>229</ele>
        <time>2011-04-02T12:46:31</time>
      </trkpt>
      <trkpt lat="44.51835" lon="1.52039">
        <ele>239</ele>
        <time>2011-04-02T12:46:32</time>
      </trkpt>
      <trkpt lat="44.51827" lon="1.52031">
        <ele>239</ele>
        <time>2011-04-02T12:46:34</time>
      </trkpt>
      <trkpt lat="44.5182" lon="1.52023">
        <ele>239</ele>
        <time>2011-04-02T12:46:36</time>
      </trkpt>
      <trkpt lat="44.51814" lon="1.52015">
        <ele>239</ele>
        <time>2011-04-02T12:46:38</time>
      </trkpt>
      <trkpt lat="44.51811" lon="1.52011">
        <ele>239</ele>
        <time>2011-04-02T12:46:39</time>
      </trkpt>
      <trkpt lat="44.51802" lon="1.52007">
        <ele>239</ele>
        <time>2011-04-02T12:46:41</time>
      </trkpt>
      <trkpt lat="44.51798" lon="1.52004">
        <ele>239</ele>
        <time>2011-04-02T12:46:42</time>
      </trkpt>
      <trkpt lat="44.51787" lon="1.51998">
        <ele>223</ele>
        <time>2011-04-02T12:46:44</time>
      </trkpt>
      <trkpt lat="44.51782" lon="1.51995">
        <ele>223</ele>
        <time>2011-04-02T12:46:45</time>
      </trkpt>
      <trkpt lat="44.51769" lon="1.51993">
        <ele>223</ele>
        <time>2011-04-02T12:46:47</time>
      </trkpt>
      <trkpt lat="44.51761" lon="1.51992">
        <ele>223</ele>
        <time>2011-04-02T12:46:48</time>
      </trkpt>
      <trkpt lat="44.51748" lon="1.51988">
        <ele>223</ele>
        <time>2011-04-02T12:46:50</time>
      </trkpt>
      <trkpt lat="44.51741" lon="1.51984">
        <ele>223</ele>
        <time>2011-04-02T12:46:51</time>
      </trkpt>
      <trkpt lat="44.5173" lon="1.51979">
        <ele>223</ele>
        <time>2011-04-02T12:46:53</time>
      </trkpt>
      <trkpt lat="44.51724" lon="1.51976">
        <ele>223</ele>
        <time>2011-04-02T12:46:54</time>
      </trkpt>
      <trkpt lat="44.51715" lon="1.51966">
        <ele>223</ele>
        <time>2011-04-02T12:46:56</time>
      </trkpt>
      <trkpt lat="44.5171" lon="1.51962">
        <ele>223</ele>
        <time>2011-04-02T12:46:57</time>
      </trkpt>
      <trkpt lat="44.51706" lon="1.51957">
        <ele>218</ele>
        <time>2011-04-02T12:46:58</time>
      </trkpt>
      <trkpt lat="44.51699" lon="1.51946">
        <ele>218</ele>
        <time>2011-04-02T12:47:00</time>
      </trkpt>
      <trkpt lat="44.51697" lon="1.51942">
        <ele>218</ele>
        <time>2011-04-02T12:47:01</time>
      </trkpt>
      <trkpt lat="44.51694" lon="1.51933">
        <ele>218</ele>
        <time>2011-04-02T12:47:03</time>
      </trkpt>
      <trkpt lat="44.51693" lon="1.5193">
        <ele>218</ele>
        <time>2011-04-02T12:47:04</time>
      </trkpt>
      <trkpt lat="44.51691" lon="1.51922">
        <ele>218</ele>
        <time>2011-04-02T12:47:07</time>
      </trkpt>
      <trkpt lat="44.51691" lon="1.51918">
        <ele>218</ele>
        <time>2011-04-02T12:47:09</time>
      </trkpt>
      <trkpt lat="44.51692" lon="1.51915">
        <ele>218</ele>
        <time>2011-04-02T12:47:11</time>
      </trkpt>
      <trkpt lat="44.51693" lon="1.51912">
        <ele>218</ele>
        <time>2011-04-02T12:47:17</time>
      </trkpt>
      <trkpt lat="44.51694" lon="1.51909">
        <ele>218</ele>
        <time>2011-04-02T12:47:19</time>
      </trkpt>
      <trkpt lat="44.51696" lon="1.51905">
        <ele>218</ele>
        <time>2011-04-02T12:47:21</time>
      </trkpt>
      <trkpt lat="44.51698" lon="1.51901">
        <ele>218</ele>
        <time>2011-04-02T12:47:23</time>
      </trkpt>
      <trkpt lat="44.51701" lon="1.51896">
        <ele>218</ele>
        <time>2011-04-02T12:47:25</time>
      </trkpt>
      <trkpt lat="44.51706" lon="1.5189">
        <ele>218</ele>
        <time>2011-04-02T12:47:27</time>
      </trkpt>
      <trkpt lat="44.51708" lon="1.51887">
        <ele>218</ele>
        <time>2011-04-02T12:47:28</time>
      </trkpt>
      <trkpt lat="44.5171" lon="1.51885">
        <ele>230</ele>
        <time>2011-04-02T12:47:29</time>
      </trkpt>
      <trkpt lat="44.51715" lon="1.51881">
        <ele>230</ele>
        <time>2011-04-02T12:47:31</time>
      </trkpt>
      <trkpt lat="44.51717" lon="1.51879">
        <ele>230</ele>
        <time>2011-04-02T12:47:32</time>
      </trkpt>
      <trkpt lat="44.51721" lon="1.51875">
        <ele>227</ele>
        <time>2011-04-02T12:47:34</time>
      </trkpt>
      <trkpt lat="44.51723" lon="1.51873">
        <ele>227</ele>
        <time>2011-04-02T12:47:35</time>
      </trkpt>
      <trkpt lat="44.51728" lon="1.5187">
        <ele>227</ele>
        <time>2011-04-02T12:47:37</time>
      </trkpt>
      <trkpt lat="44.51732" lon="1.51867">
        <ele>227</ele>
        <time>2011-04-02T12:47:39</time>
      </trkpt>
      <trkpt lat="44.51734" lon="1.51866">
        <ele>227</ele>
        <time>2011-04-02T12:47:40</time>
      </trkpt>
      <trkpt lat="44.51736" lon="1.51864">
        <ele>227</ele>
        <time>2011-04-02T12:47:41</time>
      </trkpt>
      <trkpt lat="44.51739" lon="1.51862">
        <ele>227</ele>
        <time>2011-04-02T12:47:42</time>
      </trkpt>
      <trkpt lat="44.51743" lon="1.51859">
        <ele>227</ele>
        <time>2011-04-02T12:47:44</time>
      </trkpt>
      <trkpt lat="44.51745" lon="1.51857">
        <ele>227</ele>
        <time>2011-04-02T12:47:45</time>
      </trkpt>
      <trkpt lat="44.51749" lon="1.51855">
        <ele>227</ele>
        <time>2011-04-02T12:47:47</time>
      </trkpt>
      <trkpt lat="44.51752" lon="1.51854">
        <ele>227</ele>
        <time>2011-04-02T12:47:49</time>
      </trkpt>
      <trkpt lat="44.51756" lon="1.51851">
        <ele>227</ele>
        <time>2011-04-02T12:47:51</time>
      </trkpt>
      <trkpt lat="44.5176" lon="1.51848">
        <ele>227</ele>
        <time>2011-04-02T12:47:53</time>
      </trkpt>
      <trkpt lat="44.51762" lon="1.51845">
        <ele>227</ele>
        <time>2011-04-02T12:47:54</time>
      </trkpt>
      <trkpt lat="44.51766" lon="1.5184">
        <ele>227</ele>
        <time>2011-04-02T12:47:56</time>
      </trkpt>
      <trkpt lat="44.51767" lon="1.51838">
        <ele>227</ele>
        <time>2011-04-02T12:47:57</time>
      </trkpt>
      <trkpt lat="44.51772" lon="1.51833">
        <ele>227</ele>
        <time>2011-04-02T12:47:59</time>
      </trkpt>
      <trkpt lat="44.51774" lon="1.51832">
        <ele>227</ele>
        <time>2011-04-02T12:48:00</time>
      </trkpt>
      <trkpt lat="44.51779" lon="1.51831">
        <ele>227</ele>
        <time>2011-04-02T12:48:02</time>
      </trkpt>
      <trkpt lat="44.51782" lon="1.5183">
        <ele>227</ele>
        <time>2011-04-02T12:48:03</time>
      </trkpt>
      <trkpt lat="44.51784" lon="1.5183">
        <ele>227</ele>
        <time>2011-04-02T12:48:04</time>
      </trkpt>
      <trkpt lat="44.51789" lon="1.51829">
        <ele>227</ele>
        <time>2011-04-02T12:48:06</time>
      </trkpt>
      <trkpt lat="44.51794" lon="1.5183">
        <ele>234</ele>
        <time>2011-04-02T12:48:08</time>
      </trkpt>
      <trkpt lat="44.51798" lon="1.5183">
        <ele>234</ele>
        <time>2011-04-02T12:48:09</time>
      </trkpt>
      <trkpt lat="44.51802" lon="1.51829">
        <ele>234</ele>
        <time>2011-04-02T12:48:10</time>
      </trkpt>
      <trkpt lat="44.5181" lon="1.51826">
        <ele>234</ele>
        <time>2011-04-02T12:48:12</time>
      </trkpt>
      <trkpt lat="44.51817" lon="1.51824">
        <ele>234</ele>
        <time>2011-04-02T12:48:14</time>
      </trkpt>
      <trkpt lat="44.51823" lon="1.51822">
        <ele>234</ele>
        <time>2011-04-02T12:48:16</time>
      </trkpt>
      <trkpt lat="44.51829" lon="1.51822">
        <ele>234</ele>
        <time>2011-04-02T12:48:18</time>
      </trkpt>
      <trkpt lat="44.51832" lon="1.51821">
        <ele>234</ele>
        <time>2011-04-02T12:48:19</time>
      </trkpt>
      <trkpt lat="44.51837" lon="1.51821">
        <ele>234</ele>
        <time>2011-04-02T12:48:21</time>
      </trkpt>
      <trkpt lat="44.5184" lon="1.51821">
        <ele>234</ele>
        <time>2011-04-02T12:48:22</time>
      </trkpt>
      <trkpt lat="44.51843" lon="1.5182">
        <ele>234</ele>
        <time>2011-04-02T12:48:23</time>
      </trkpt>
      <trkpt lat="44.51848" lon="1.5182">
        <ele>234</ele>
        <time>2011-04-02T12:48:25</time>
      </trkpt>
      <trkpt lat="44.51851" lon="1.5182">
        <ele>234</ele>
        <time>2011-04-02T12:48:26</time>
      </trkpt>
      <trkpt lat="44.51856" lon="1.51821">
        <ele>234</ele>
        <time>2011-04-02T12:48:28</time>
      </trkpt>
      <trkpt lat="44.51859" lon="1.51821">
        <ele>234</ele>
        <time>2011-04-02T12:48:29</time>
      </trkpt>
      <trkpt lat="44.51866" lon="1.51822">
        <ele>234</ele>
        <time>2011-04-02T12:48:32</time>
      </trkpt>
      <trkpt lat="44.5187" lon="1.51823">
        <ele>234</ele>
        <time>2011-04-02T12:48:34</time>
      </trkpt>
      <trkpt lat="44.51874" lon="1.51825">
        <ele>234</ele>
        <time>2011-04-02T12:48:36</time>
      </trkpt>
      <trkpt lat="44.51876" lon="1.51826">
        <ele>238</ele>
        <time>2011-04-02T12:48:37</time>
      </trkpt>
      <trkpt lat="44.51879" lon="1.51827">
        <ele>238</ele>
        <time>2011-04-02T12:48:38</time>
      </trkpt>
      <trkpt lat="44.51883" lon="1.51828">
        <ele>238</ele>
        <time>2011-04-02T12:48:40</time>
      </trkpt>
      <trkpt lat="44.51887" lon="1.5183">
        <ele>238</ele>
        <time>2011-04-02T12:48:42</time>
      </trkpt>
      <trkpt lat="44.51889" lon="1.5183">
        <ele>238</ele>
        <time>2011-04-02T12:48:43</time>
      </trkpt>
      <trkpt lat="44.51892" lon="1.51831">
        <ele>238</ele>
        <time>2011-04-02T12:48:44</time>
      </trkpt>
      <trkpt lat="44.51894" lon="1.51831">
        <ele>238</ele>
        <time>2011-04-02T12:48:45</time>
      </trkpt>
      <trkpt lat="44.519" lon="1.51833">
        <ele>238</ele>
        <time>2011-04-02T12:48:48</time>
      </trkpt>
      <trkpt lat="44.51906" lon="1.51835">
        <ele>238</ele>
        <time>2011-04-02T12:48:51</time>
      </trkpt>
      <trkpt lat="44.5191" lon="1.51836">
        <ele>238</ele>
        <time>2011-04-02T12:48:53</time>
      </trkpt>
      <trkpt lat="44.51916" lon="1.51836">
        <ele>238</ele>
        <time>2011-04-02T12:48:56</time>
      </trkpt>
      <trkpt lat="44.51918" lon="1.51836">
        <ele>238</ele>
        <time>2011-04-02T12:48:58</time>
      </trkpt>
      <trkpt lat="44.51921" lon="1.51836">
        <ele>238</ele>
        <time>2011-04-02T12:49:00</time>
      </trkpt>
      <trkpt lat="44.51924" lon="1.51835">
        <ele>238</ele>
        <time>2011-04-02T12:49:02</time>
      </trkpt>
      <trkpt lat="44.51928" lon="1.51833">
        <ele>238</ele>
        <time>2011-04-02T12:49:04</time>
      </trkpt>
      <trkpt lat="44.51932" lon="1.51831">
        <ele>238</ele>
        <time>2011-04-02T12:49:06</time>
      </trkpt>
      <trkpt lat="44.51936" lon="1.51829">
        <ele>238</ele>
        <time>2011-04-02T12:49:08</time>
      </trkpt>
      <trkpt lat="44.51938" lon="1.51828">
        <ele>238</ele>
        <time>2011-04-02T12:49:09</time>
      </trkpt>
      <trkpt lat="44.51942" lon="1.51827">
        <ele>238</ele>
        <time>2011-04-02T12:49:11</time>
      </trkpt>
      <trkpt lat="44.51944" lon="1.51826">
        <ele>238</ele>
        <time>2011-04-02T12:49:12</time>
      </trkpt>
      <trkpt lat="44.51946" lon="1.51825">
        <ele>238</ele>
        <time>2011-04-02T12:49:13</time>
      </trkpt>
      <trkpt lat="44.51951" lon="1.51823">
        <ele>238</ele>
        <time>2011-04-02T12:49:15</time>
      </trkpt>
      <trkpt lat="44.51953" lon="1.51822">
        <ele>238</ele>
        <time>2011-04-02T12:49:16</time>
      </trkpt>
      <trkpt lat="44.5196" lon="1.51819">
        <ele>252</ele>
        <time>2011-04-02T12:49:19</time>
      </trkpt>
      <trkpt lat="44.51964" lon="1.51817">
        <ele>252</ele>
        <time>2011-04-02T12:49:21</time>
      </trkpt>
      <trkpt lat="44.51969" lon="1.51815">
        <ele>252</ele>
        <time>2011-04-02T12:49:24</time>
      </trkpt>
      <trkpt lat="44.51972" lon="1.51814">
        <ele>252</ele>
        <time>2011-04-02T12:49:26</time>
      </trkpt>
      <trkpt lat="44.51975" lon="1.51812">
        <ele>252</ele>
        <time>2011-04-02T12:49:28</time>
      </trkpt>
      <trkpt lat="44.51978" lon="1.51811">
        <ele>252</ele>
        <time>2011-04-02T12:49:30</time>
      </trkpt>
      <trkpt lat="44.5198" lon="1.5181">
        <ele>252</ele>
        <time>2011-04-02T12:49:31</time>
      </trkpt>
      <trkpt lat="44.51983" lon="1.51807">
        <ele>252</ele>
        <time>2011-04-02T12:49:33</time>
      </trkpt>
      <trkpt lat="44.51986" lon="1.51805">
        <ele>252</ele>
        <time>2011-04-02T12:49:35</time>
      </trkpt>
      <trkpt lat="44.51988" lon="1.51803">
        <ele>252</ele>
        <time>2011-04-02T12:49:37</time>
      </trkpt>
      <trkpt lat="44.51991" lon="1.518">
        <ele>252</ele>
        <time>2011-04-02T12:49:39</time>
      </trkpt>
      <trkpt lat="44.51994" lon="1.51798">
        <ele>252</ele>
        <time>2011-04-02T12:49:41</time>
      </trkpt>
      <trkpt lat="44.51997" lon="1.51795">
        <ele>252</ele>
        <time>2011-04-02T12:49:43</time>
      </trkpt>
      <trkpt lat="44.52" lon="1.51793">
        <ele>252</ele>
        <time>2011-04-02T12:49:45</time>
      </trkpt>
      <trkpt lat="44.52003" lon="1.51789">
        <ele>242</ele>
        <time>2011-04-02T12:49:47</time>
      </trkpt>
      <trkpt lat="44.52007" lon="1.51786">
        <ele>242</ele>
        <time>2011-04-02T12:49:49</time>
      </trkpt>
      <trkpt lat="44.52009" lon="1.51784">
        <ele>242</ele>
        <time>2011-04-02T12:49:50</time>
      </trkpt>
      <trkpt lat="44.52011" lon="1.51781">
        <ele>242</ele>
        <time>2011-04-02T12:49:52</time>
      </trkpt>
      <trkpt lat="44.52015" lon="1.51779">
        <ele>242</ele>
        <time>2011-04-02T12:49:54</time>
      </trkpt>
      <trkpt lat="44.52018" lon="1.51778">
        <ele>242</ele>
        <time>2011-04-02T12:49:56</time>
      </trkpt>
      <trkpt lat="44.52021" lon="1.51776">
        <ele>242</ele>
        <time>2011-04-02T12:49:58</time>
      </trkpt>
      <trkpt lat="44.52023" lon="1.51775">
        <ele>242</ele>
        <time>2011-04-02T12:49:59</time>
      </trkpt>
      <trkpt lat="44.52025" lon="1.51773">
        <ele>242</ele>
        <time>2011-04-02T12:50:00</time>
      </trkpt>
      <trkpt lat="44.52028" lon="1.51771">
        <ele>242</ele>
        <time>2011-04-02T12:50:01</time>
      </trkpt>
      <trkpt lat="44.52033" lon="1.51767">
        <ele>242</ele>
        <time>2011-04-02T12:50:03</time>
      </trkpt>
      <trkpt lat="44.52036" lon="1.51765">
        <ele>242</ele>
        <time>2011-04-02T12:50:04</time>
      </trkpt>
      <trkpt lat="44.52042" lon="1.51761">
        <ele>242</ele>
        <time>2011-04-02T12:50:06</time>
      </trkpt>
      <trkpt lat="44.52046" lon="1.51757">
        <ele>251</ele>
        <time>2011-04-02T12:50:08</time>
      </trkpt>
      <trkpt lat="44.52048" lon="1.51756">
        <ele>251</ele>
        <time>2011-04-02T12:50:09</time>
      </trkpt>
      <trkpt lat="44.52051" lon="1.51755">
        <ele>251</ele>
        <time>2011-04-02T12:50:10</time>
      </trkpt>
      <trkpt lat="44.52055" lon="1.51753">
        <ele>251</ele>
        <time>2011-04-02T12:50:12</time>
      </trkpt>
      <trkpt lat="44.52058" lon="1.51751">
        <ele>251</ele>
        <time>2011-04-02T12:50:14</time>
      </trkpt>
      <trkpt lat="44.52063" lon="1.5175">
        <ele>251</ele>
        <time>2011-04-02T12:50:16</time>
      </trkpt>
      <trkpt lat="44.52067" lon="1.51748">
        <ele>251</ele>
        <time>2011-04-02T12:50:18</time>
      </trkpt>
      <trkpt lat="44.5207" lon="1.51746">
        <ele>251</ele>
        <time>2011-04-02T12:50:20</time>
      </trkpt>
      <trkpt lat="44.52072" lon="1.51745">
        <ele>251</ele>
        <time>2011-04-02T12:50:21</time>
      </trkpt>
      <trkpt lat="44.52076" lon="1.51743">
        <ele>251</ele>
        <time>2011-04-02T12:50:23</time>
      </trkpt>
      <trkpt lat="44.5208" lon="1.51741">
        <ele>251</ele>
        <time>2011-04-02T12:50:25</time>
      </trkpt>
      <trkpt lat="44.52082" lon="1.5174">
        <ele>251</ele>
        <time>2011-04-02T12:50:26</time>
      </trkpt>
      <trkpt lat="44.52086" lon="1.51738">
        <ele>251</ele>
        <time>2011-04-02T12:50:28</time>
      </trkpt>
      <trkpt lat="44.52088" lon="1.51737">
        <ele>251</ele>
        <time>2011-04-02T12:50:29</time>
      </trkpt>
      <trkpt lat="44.52093" lon="1.51735">
        <ele>251</ele>
        <time>2011-04-02T12:50:31</time>
      </trkpt>
      <trkpt lat="44.521" lon="1.51733">
        <ele>251</ele>
        <time>2011-04-02T12:50:34</time>
      </trkpt>
      <trkpt lat="44.52104" lon="1.51733">
        <ele>251</ele>
        <time>2011-04-02T12:50:36</time>
      </trkpt>
      <trkpt lat="44.52108" lon="1.51732">
        <ele>251</ele>
        <time>2011-04-02T12:50:38</time>
      </trkpt>
      <trkpt lat="44.52112" lon="1.51731">
        <ele>251</ele>
        <time>2011-04-02T12:50:40</time>
      </trkpt>
      <trkpt lat="44.52115" lon="1.5173">
        <ele>251</ele>
        <time>2011-04-02T12:50:42</time>
      </trkpt>
      <trkpt lat="44.52119" lon="1.51729">
        <ele>251</ele>
        <time>2011-04-02T12:50:44</time>
      </trkpt>
      <trkpt lat="44.52123" lon="1.51728">
        <ele>251</ele>
        <time>2011-04-02T12:50:46</time>
      </trkpt>
      <trkpt lat="44.52126" lon="1.51728">
        <ele>262</ele>
        <time>2011-04-02T12:50:47</time>
      </trkpt>
      <trkpt lat="44.52131" lon="1.51728">
        <ele>262</ele>
        <time>2011-04-02T12:50:49</time>
      </trkpt>
      <trkpt lat="44.52136" lon="1.51727">
        <ele>262</ele>
        <time>2011-04-02T12:50:51</time>
      </trkpt>
      <trkpt lat="44.52141" lon="1.51727">
        <ele>262</ele>
        <time>2011-04-02T12:50:53</time>
      </trkpt>
      <trkpt lat="44.52145" lon="1.51728">
        <ele>262</ele>
        <time>2011-04-02T12:50:55</time>
      </trkpt>
      <trkpt lat="44.52148" lon="1.51729">
        <ele>262</ele>
        <time>2011-04-02T12:50:57</time>
      </trkpt>
      <trkpt lat="44.52151" lon="1.51729">
        <ele>262</ele>
        <time>2011-04-02T12:50:59</time>
      </trkpt>
      <trkpt lat="44.52151" lon="1.51729">
        <ele>262</ele>
        <time>2011-04-02T12:51:18</time>
      </trkpt>
      <trkpt lat="44.52156" lon="1.5173">
        <ele>262</ele>
        <time>2011-04-02T12:51:23</time>
      </trkpt>
      <trkpt lat="44.52151" lon="1.51732">
        <ele>262</ele>
        <time>2011-04-02T12:51:50</time>
      </trkpt>
      <trkpt lat="44.52156" lon="1.5173">
        <ele>262</ele>
        <time>2011-04-02T12:52:19</time>
      </trkpt>
      <trkpt lat="44.52159" lon="1.51723">
        <ele>262</ele>
        <time>2011-04-02T12:52:34</time>
      </trkpt>
      <trkpt lat="44.52159" lon="1.51731">
        <ele>262</ele>
        <time>2011-04-02T12:52:45</time>
      </trkpt>
      <trkpt lat="44.52162" lon="1.51733">
        <ele>262</ele>
        <time>2011-04-02T12:52:51</time>
      </trkpt>
      <trkpt lat="44.52162" lon="1.51733">
        <ele>262</ele>
        <time>2011-04-02T12:52:52</time>
      </trkpt>
      <trkpt lat="44.52165" lon="1.51732">
        <ele>262</ele>
        <time>2011-04-02T12:52:53</time>
      </trkpt>
      <trkpt lat="44.52169" lon="1.51729">
        <ele>262</ele>
        <time>2011-04-02T12:52:55</time>
      </trkpt>
      <trkpt lat="44.52171" lon="1.51727">
        <ele>262</ele>
        <time>2011-04-02T12:52:56</time>
      </trkpt>
      <trkpt lat="44.52174" lon="1.51725">
        <ele>262</ele>
        <time>2011-04-02T12:52:57</time>
      </trkpt>
      <trkpt lat="44.52179" lon="1.5172">
        <ele>262</ele>
        <time>2011-04-02T12:52:59</time>
      </trkpt>
      <trkpt lat="44.52182" lon="1.51717">
        <ele>262</ele>
        <time>2011-04-02T12:53:00</time>
      </trkpt>
      <trkpt lat="44.52189" lon="1.51711">
        <ele>262</ele>
        <time>2011-04-02T12:53:02</time>
      </trkpt>
      <trkpt lat="44.52192" lon="1.51709">
        <ele>262</ele>
        <time>2011-04-02T12:53:03</time>
      </trkpt>
      <trkpt lat="44.52198" lon="1.51705">
        <ele>253</ele>
        <time>2011-04-02T12:53:05</time>
      </trkpt>
      <trkpt lat="44.52201" lon="1.51703">
        <ele>253</ele>
        <time>2011-04-02T12:53:06</time>
      </trkpt>
      <trkpt lat="44.52207" lon="1.517">
        <ele>253</ele>
        <time>2011-04-02T12:53:08</time>
      </trkpt>
      <trkpt lat="44.52209" lon="1.51699">
        <ele>256</ele>
        <time>2011-04-02T12:53:09</time>
      </trkpt>
      <trkpt lat="44.52215" lon="1.51697">
        <ele>256</ele>
        <time>2011-04-02T12:53:11</time>
      </trkpt>
      <trkpt lat="44.52221" lon="1.51694">
        <ele>256</ele>
        <time>2011-04-02T12:53:13</time>
      </trkpt>
      <trkpt lat="44.52228" lon="1.51691">
        <ele>256</ele>
        <time>2011-04-02T12:53:15</time>
      </trkpt>
      <trkpt lat="44.52234" lon="1.51689">
        <ele>256</ele>
        <time>2011-04-02T12:53:17</time>
      </trkpt>
      <trkpt lat="44.52237" lon="1.51687">
        <ele>256</ele>
        <time>2011-04-02T12:53:18</time>
      </trkpt>
      <trkpt lat="44.52242" lon="1.51683">
        <ele>256</ele>
        <time>2011-04-02T12:53:20</time>
      </trkpt>
      <trkpt lat="44.52244" lon="1.51682">
        <ele>256</ele>
        <time>2011-04-02T12:53:21</time>
      </trkpt>
      <trkpt lat="44.52248" lon="1.51677">
        <ele>256</ele>
        <time>2011-04-02T12:53:23</time>
      </trkpt>
      <trkpt lat="44.52252" lon="1.51673">
        <ele>256</ele>
        <time>2011-04-02T12:53:25</time>
      </trkpt>
      <trkpt lat="44.52256" lon="1.51669">
        <ele>256</ele>
        <time>2011-04-02T12:53:27</time>
      </trkpt>
      <trkpt lat="44.52258" lon="1.51667">
        <ele>256</ele>
        <time>2011-04-02T12:53:28</time>
      </trkpt>
      <trkpt lat="44.52262" lon="1.51661">
        <ele>256</ele>
        <time>2011-04-02T12:53:30</time>
      </trkpt>
      <trkpt lat="44.52266" lon="1.51655">
        <ele>256</ele>
        <time>2011-04-02T12:53:32</time>
      </trkpt>
      <trkpt lat="44.52268" lon="1.51652">
        <ele>256</ele>
        <time>2011-04-02T12:53:33</time>
      </trkpt>
      <trkpt lat="44.5227" lon="1.51649">
        <ele>256</ele>
        <time>2011-04-02T12:53:34</time>
      </trkpt>
      <trkpt lat="44.52272" lon="1.51647">
        <ele>256</ele>
        <time>2011-04-02T12:53:35</time>
      </trkpt>
      <trkpt lat="44.52277" lon="1.5164">
        <ele>256</ele>
        <time>2011-04-02T12:53:38</time>
      </trkpt>
      <trkpt lat="44.5228" lon="1.51637">
        <ele>256</ele>
        <time>2011-04-02T12:53:40</time>
      </trkpt>
      <trkpt lat="44.52283" lon="1.51633">
        <ele>256</ele>
        <time>2011-04-02T12:53:42</time>
      </trkpt>
      <trkpt lat="44.52287" lon="1.5163">
        <ele>256</ele>
        <time>2011-04-02T12:53:44</time>
      </trkpt>
      <trkpt lat="44.5229" lon="1.51627">
        <ele>256</ele>
        <time>2011-04-02T12:53:46</time>
      </trkpt>
      <trkpt lat="44.52292" lon="1.51624">
        <ele>264</ele>
        <time>2011-04-02T12:53:48</time>
      </trkpt>
      <trkpt lat="44.52295" lon="1.51622">
        <ele>264</ele>
        <time>2011-04-02T12:53:50</time>
      </trkpt>
      <trkpt lat="44.52298" lon="1.51618">
        <ele>264</ele>
        <time>2011-04-02T12:53:52</time>
      </trkpt>
      <trkpt lat="44.52301" lon="1.51615">
        <ele>264</ele>
        <time>2011-04-02T12:53:54</time>
      </trkpt>
      <trkpt lat="44.52305" lon="1.51611">
        <ele>264</ele>
        <time>2011-04-02T12:53:56</time>
      </trkpt>
      <trkpt lat="44.52308" lon="1.51608">
        <ele>264</ele>
        <time>2011-04-02T12:53:58</time>
      </trkpt>
      <trkpt lat="44.52311" lon="1.51605">
        <ele>264</ele>
        <time>2011-04-02T12:54:00</time>
      </trkpt>
      <trkpt lat="44.52314" lon="1.51601">
        <ele>264</ele>
        <time>2011-04-02T12:54:02</time>
      </trkpt>
      <trkpt lat="44.52316" lon="1.51599">
        <ele>264</ele>
        <time>2011-04-02T12:54:03</time>
      </trkpt>
      <trkpt lat="44.52318" lon="1.51597">
        <ele>264</ele>
        <time>2011-04-02T12:54:04</time>
      </trkpt>
      <trkpt lat="44.5232" lon="1.51595">
        <ele>264</ele>
        <time>2011-04-02T12:54:05</time>
      </trkpt>
      <trkpt lat="44.52323" lon="1.51592">
        <ele>264</ele>
        <time>2011-04-02T12:54:07</time>
      </trkpt>
      <trkpt lat="44.52326" lon="1.51589">
        <ele>264</ele>
        <time>2011-04-02T12:54:09</time>
      </trkpt>
      <trkpt lat="44.52329" lon="1.51586">
        <ele>264</ele>
        <time>2011-04-02T12:54:11</time>
      </trkpt>
      <trkpt lat="44.52332" lon="1.51583">
        <ele>264</ele>
        <time>2011-04-02T12:54:13</time>
      </trkpt>
      <trkpt lat="44.52335" lon="1.51581">
        <ele>264</ele>
        <time>2011-04-02T12:54:15</time>
      </trkpt>
      <trkpt lat="44.52338" lon="1.51579">
        <ele>264</ele>
        <time>2011-04-02T12:54:17</time>
      </trkpt>
      <trkpt lat="44.52342" lon="1.51577">
        <ele>264</ele>
        <time>2011-04-02T12:54:19</time>
      </trkpt>
      <trkpt lat="44.52345" lon="1.51575">
        <ele>264</ele>
        <time>2011-04-02T12:54:21</time>
      </trkpt>
      <trkpt lat="44.52349" lon="1.51573">
        <ele>264</ele>
        <time>2011-04-02T12:54:23</time>
      </trkpt>
      <trkpt lat="44.52353" lon="1.51571">
        <ele>264</ele>
        <time>2011-04-02T12:54:25</time>
      </trkpt>
      <trkpt lat="44.52355" lon="1.51569">
        <ele>264</ele>
        <time>2011-04-02T12:54:26</time>
      </trkpt>
      <trkpt lat="44.5236" lon="1.51565">
        <ele>264</ele>
        <time>2011-04-02T12:54:28</time>
      </trkpt>
      <trkpt lat="44.52365" lon="1.51561">
        <ele>264</ele>
        <time>2011-04-02T12:54:30</time>
      </trkpt>
      <trkpt lat="44.52369" lon="1.51557">
        <ele>264</ele>
        <time>2011-04-02T12:54:32</time>
      </trkpt>
      <trkpt lat="44.52371" lon="1.51555">
        <ele>264</ele>
        <time>2011-04-02T12:54:33</time>
      </trkpt>
      <trkpt lat="44.52375" lon="1.51552">
        <ele>270</ele>
        <time>2011-04-02T12:54:35</time>
      </trkpt>
      <trkpt lat="44.52377" lon="1.51551">
        <ele>270</ele>
        <time>2011-04-02T12:54:36</time>
      </trkpt>
      <trkpt lat="44.52382" lon="1.51551">
        <ele>270</ele>
        <time>2011-04-02T12:54:38</time>
      </trkpt>
      <trkpt lat="44.52385" lon="1.51551">
        <ele>270</ele>
        <time>2011-04-02T12:54:40</time>
      </trkpt>
      <trkpt lat="44.52389" lon="1.51555">
        <ele>270</ele>
        <time>2011-04-02T12:54:49</time>
      </trkpt>
      <trkpt lat="44.52389" lon="1.51555">
        <ele>270</ele>
        <time>2011-04-02T12:55:00</time>
      </trkpt>
      <trkpt lat="44.52391" lon="1.51552">
        <ele>270</ele>
        <time>2011-04-02T12:55:25</time>
      </trkpt>
      <trkpt lat="44.52394" lon="1.51552">
        <ele>270</ele>
        <time>2011-04-02T12:55:28</time>
      </trkpt>
      <trkpt lat="44.52394" lon="1.51552">
        <ele>270</ele>
        <time>2011-04-02T12:55:29</time>
      </trkpt>
      <trkpt lat="44.52398" lon="1.51551">
        <ele>270</ele>
        <time>2011-04-02T12:55:31</time>
      </trkpt>
      <trkpt lat="44.52402" lon="1.51552">
        <ele>270</ele>
        <time>2011-04-02T12:55:33</time>
      </trkpt>
      <trkpt lat="44.52406" lon="1.51552">
        <ele>270</ele>
        <time>2011-04-02T12:55:35</time>
      </trkpt>
      <trkpt lat="44.5241" lon="1.51552">
        <ele>270</ele>
        <time>2011-04-02T12:55:37</time>
      </trkpt>
      <trkpt lat="44.52413" lon="1.51552">
        <ele>270</ele>
        <time>2011-04-02T12:55:39</time>
      </trkpt>
      <trkpt lat="44.52415" lon="1.51553">
        <ele>270</ele>
        <time>2011-04-02T12:55:41</time>
      </trkpt>
      <trkpt lat="44.52418" lon="1.51553">
        <ele>270</ele>
        <time>2011-04-02T12:55:43</time>
      </trkpt>
      <trkpt lat="44.52421" lon="1.51554">
        <ele>270</ele>
        <time>2011-04-02T12:55:45</time>
      </trkpt>
      <trkpt lat="44.52423" lon="1.51554">
        <ele>270</ele>
        <time>2011-04-02T12:55:47</time>
      </trkpt>
      <trkpt lat="44.52426" lon="1.51554">
        <ele>270</ele>
        <time>2011-04-02T12:55:49</time>
      </trkpt>
      <trkpt lat="44.52429" lon="1.51554">
        <ele>270</ele>
        <time>2011-04-02T12:55:51</time>
      </trkpt>
      <trkpt lat="44.52432" lon="1.51554">
        <ele>270</ele>
        <time>2011-04-02T12:55:53</time>
      </trkpt>
      <trkpt lat="44.52435" lon="1.51554">
        <ele>270</ele>
        <time>2011-04-02T12:55:55</time>
      </trkpt>
      <trkpt lat="44.52439" lon="1.51555">
        <ele>270</ele>
        <time>2011-04-02T12:55:57</time>
      </trkpt>
      <trkpt lat="44.52443" lon="1.51556">
        <ele>270</ele>
        <time>2011-04-02T12:55:59</time>
      </trkpt>
      <trkpt lat="44.52445" lon="1.51557">
        <ele>270</ele>
        <time>2011-04-02T12:56:00</time>
      </trkpt>
      <trkpt lat="44.52449" lon="1.5156">
        <ele>270</ele>
        <time>2011-04-02T12:56:02</time>
      </trkpt>
      <trkpt lat="44.52452" lon="1.51559">
        <ele>270</ele>
        <time>2011-04-02T12:56:04</time>
      </trkpt>
      <trkpt lat="44.52455" lon="1.51559">
        <ele>270</ele>
        <time>2011-04-02T12:56:06</time>
      </trkpt>
      <trkpt lat="44.52457" lon="1.51558">
        <ele>270</ele>
        <time>2011-04-02T12:56:08</time>
      </trkpt>
      <trkpt lat="44.5246" lon="1.51558">
        <ele>276</ele>
        <time>2011-04-02T12:56:10</time>
      </trkpt>
      <trkpt lat="44.52461" lon="1.51558">
        <ele>276</ele>
        <time>2011-04-02T12:56:11</time>
      </trkpt>
      <trkpt lat="44.52463" lon="1.51559">
        <ele>276</ele>
        <time>2011-04-02T12:56:13</time>
      </trkpt>
      <trkpt lat="44.52466" lon="1.5156">
        <ele>276</ele>
        <time>2011-04-02T12:56:16</time>
      </trkpt>
      <trkpt lat="44.52471" lon="1.5156">
        <ele>276</ele>
        <time>2011-04-02T12:56:19</time>
      </trkpt>
      <trkpt lat="44.52473" lon="1.5156">
        <ele>276</ele>
        <time>2011-04-02T12:56:21</time>
      </trkpt>
      <trkpt lat="44.52476" lon="1.51559">
        <ele>276</ele>
        <time>2011-04-02T12:56:23</time>
      </trkpt>
      <trkpt lat="44.5248" lon="1.5156">
        <ele>276</ele>
        <time>2011-04-02T12:56:25</time>
      </trkpt>
      <trkpt lat="44.52483" lon="1.5156">
        <ele>276</ele>
        <time>2011-04-02T12:56:27</time>
      </trkpt>
      <trkpt lat="44.52485" lon="1.51563">
        <ele>276</ele>
        <time>2011-04-02T12:56:30</time>
      </trkpt>
      <trkpt lat="44.52485" lon="1.51567">
        <ele>276</ele>
        <time>2011-04-02T12:56:32</time>
      </trkpt>
      <trkpt lat="44.52486" lon="1.51572">
        <ele>276</ele>
        <time>2011-04-02T12:56:34</time>
      </trkpt>
      <trkpt lat="44.52486" lon="1.51577">
        <ele>276</ele>
        <time>2011-04-02T12:56:36</time>
      </trkpt>
      <trkpt lat="44.52486" lon="1.51579">
        <ele>276</ele>
        <time>2011-04-02T12:56:37</time>
      </trkpt>
      <trkpt lat="44.52486" lon="1.51584">
        <ele>276</ele>
        <time>2011-04-02T12:56:39</time>
      </trkpt>
      <trkpt lat="44.52487" lon="1.51586">
        <ele>276</ele>
        <time>2011-04-02T12:56:40</time>
      </trkpt>
      <trkpt lat="44.52488" lon="1.51591">
        <ele>276</ele>
        <time>2011-04-02T12:56:42</time>
      </trkpt>
      <trkpt lat="44.52489" lon="1.51594">
        <ele>276</ele>
        <time>2011-04-02T12:56:44</time>
      </trkpt>
      <trkpt lat="44.52489" lon="1.51596">
        <ele>276</ele>
        <time>2011-04-02T12:56:45</time>
      </trkpt>
      <trkpt lat="44.5249" lon="1.51599">
        <ele>276</ele>
        <time>2011-04-02T12:56:47</time>
      </trkpt>
      <trkpt lat="44.52492" lon="1.51603">
        <ele>276</ele>
        <time>2011-04-02T12:56:49</time>
      </trkpt>
      <trkpt lat="44.52494" lon="1.51607">
        <ele>276</ele>
        <time>2011-04-02T12:56:51</time>
      </trkpt>
      <trkpt lat="44.52495" lon="1.51611">
        <ele>276</ele>
        <time>2011-04-02T12:56:53</time>
      </trkpt>
      <trkpt lat="44.52497" lon="1.51615">
        <ele>276</ele>
        <time>2011-04-02T12:56:55</time>
      </trkpt>
      <trkpt lat="44.52498" lon="1.51618">
        <ele>276</ele>
        <time>2011-04-02T12:56:57</time>
      </trkpt>
      <trkpt lat="44.52499" lon="1.51622">
        <ele>276</ele>
        <time>2011-04-02T12:57:00</time>
      </trkpt>
      <trkpt lat="44.52501" lon="1.51626">
        <ele>285</ele>
        <time>2011-04-02T12:57:03</time>
      </trkpt>
      <trkpt lat="44.52502" lon="1.51629">
        <ele>285</ele>
        <time>2011-04-02T12:57:05</time>
      </trkpt>
      <trkpt lat="44.52504" lon="1.51634">
        <ele>285</ele>
        <time>2011-04-02T12:57:07</time>
      </trkpt>
      <trkpt lat="44.52505" lon="1.51638">
        <ele>285</ele>
        <time>2011-04-02T12:57:09</time>
      </trkpt>
      <trkpt lat="44.52506" lon="1.51642">
        <ele>285</ele>
        <time>2011-04-02T12:57:11</time>
      </trkpt>
      <trkpt lat="44.52507" lon="1.51645">
        <ele>285</ele>
        <time>2011-04-02T12:57:13</time>
      </trkpt>
      <trkpt lat="44.52508" lon="1.51649">
        <ele>285</ele>
        <time>2011-04-02T12:57:15</time>
      </trkpt>
      <trkpt lat="44.5251" lon="1.51652">
        <ele>285</ele>
        <time>2011-04-02T12:57:17</time>
      </trkpt>
      <trkpt lat="44.52511" lon="1.51655">
        <ele>285</ele>
        <time>2011-04-02T12:57:19</time>
      </trkpt>
      <trkpt lat="44.52512" lon="1.51658">
        <ele>285</ele>
        <time>2011-04-02T12:57:21</time>
      </trkpt>
      <trkpt lat="44.52513" lon="1.51662">
        <ele>285</ele>
        <time>2011-04-02T12:57:23</time>
      </trkpt>
      <trkpt lat="44.52515" lon="1.51665">
        <ele>285</ele>
        <time>2011-04-02T12:57:25</time>
      </trkpt>
      <trkpt lat="44.52517" lon="1.51669">
        <ele>285</ele>
        <time>2011-04-02T12:57:28</time>
      </trkpt>
      <trkpt lat="44.52519" lon="1.51672">
        <ele>285</ele>
        <time>2011-04-02T12:57:31</time>
      </trkpt>
      <trkpt lat="44.52521" lon="1.51675">
        <ele>285</ele>
        <time>2011-04-02T12:57:34</time>
      </trkpt>
      <trkpt lat="44.52523" lon="1.51678">
        <ele>285</ele>
        <time>2011-04-02T12:57:36</time>
      </trkpt>
      <trkpt lat="44.52524" lon="1.51681">
        <ele>285</ele>
        <time>2011-04-02T12:57:38</time>
      </trkpt>
      <trkpt lat="44.52526" lon="1.51683">
        <ele>285</ele>
        <time>2011-04-02T12:57:40</time>
      </trkpt>
      <trkpt lat="44.52528" lon="1.51686">
        <ele>285</ele>
        <time>2011-04-02T12:57:43</time>
      </trkpt>
      <trkpt lat="44.5253" lon="1.51689">
        <ele>285</ele>
        <time>2011-04-02T12:57:46</time>
      </trkpt>
      <trkpt lat="44.52532" lon="1.51693">
        <ele>285</ele>
        <time>2011-04-02T12:57:49</time>
      </trkpt>
      <trkpt lat="44.52535" lon="1.51697">
        <ele>285</ele>
        <time>2011-04-02T12:57:53</time>
      </trkpt>
      <trkpt lat="44.52537" lon="1.51699">
        <ele>285</ele>
        <time>2011-04-02T12:57:57</time>
      </trkpt>
      <trkpt lat="44.52533" lon="1.51702">
        <ele>285</ele>
        <time>2011-04-02T12:58:12</time>
      </trkpt>
      <trkpt lat="44.52533" lon="1.51702">
        <ele>285</ele>
        <time>2011-04-02T12:58:14</time>
      </trkpt>
      <trkpt lat="44.5253" lon="1.51702">
        <ele>285</ele>
        <time>2011-04-02T12:58:14</time>
      </trkpt>
      <trkpt lat="44.5253" lon="1.51702">
        <ele>285</ele>
        <time>2011-04-02T12:58:15</time>
      </trkpt>
      <trkpt lat="44.52528" lon="1.51702">
        <ele>285</ele>
        <time>2011-04-02T12:58:16</time>
      </trkpt>
      <trkpt lat="44.52526" lon="1.51701">
        <ele>285</ele>
        <time>2011-04-02T12:58:18</time>
      </trkpt>
      <trkpt lat="44.52523" lon="1.51701">
        <ele>285</ele>
        <time>2011-04-02T12:58:21</time>
      </trkpt>
      <trkpt lat="44.52523" lon="1.51699">
        <ele>285</ele>
        <time>2011-04-02T12:58:22</time>
      </trkpt>
      <trkpt lat="44.5252" lon="1.51697">
        <ele>285</ele>
        <time>2011-04-02T12:58:25</time>
      </trkpt>
      <trkpt lat="44.52517" lon="1.51696">
        <ele>285</ele>
        <time>2011-04-02T12:58:27</time>
      </trkpt>
      <trkpt lat="44.52515" lon="1.51695">
        <ele>285</ele>
        <time>2011-04-02T12:58:29</time>
      </trkpt>
      <trkpt lat="44.52512" lon="1.51694">
        <ele>285</ele>
        <time>2011-04-02T12:58:31</time>
      </trkpt>
      <trkpt lat="44.5251" lon="1.51692">
        <ele>285</ele>
        <time>2011-04-02T12:58:33</time>
      </trkpt>
      <trkpt lat="44.52508" lon="1.5169">
        <ele>285</ele>
        <time>2011-04-02T12:58:35</time>
      </trkpt>
      <trkpt lat="44.52505" lon="1.51688">
        <ele>285</ele>
        <time>2011-04-02T12:58:37</time>
      </trkpt>
      <trkpt lat="44.52503" lon="1.51686">
        <ele>285</ele>
        <time>2011-04-02T12:58:39</time>
      </trkpt>
      <trkpt lat="44.52501" lon="1.51684">
        <ele>285</ele>
        <time>2011-04-02T12:58:41</time>
      </trkpt>
      <trkpt lat="44.52498" lon="1.51683">
        <ele>285</ele>
        <time>2011-04-02T12:58:43</time>
      </trkpt>
      <trkpt lat="44.52496" lon="1.51683">
        <ele>285</ele>
        <time>2011-04-02T12:58:45</time>
      </trkpt>
      <trkpt lat="44.52493" lon="1.51682">
        <ele>285</ele>
        <time>2011-04-02T12:58:49</time>
      </trkpt>
      <trkpt lat="44.52491" lon="1.51679">
        <ele>285</ele>
        <time>2011-04-02T12:58:52</time>
      </trkpt>
      <trkpt lat="44.52489" lon="1.51677">
        <ele>285</ele>
        <time>2011-04-02T12:58:54</time>
      </trkpt>
      <trkpt lat="44.52486" lon="1.51676">
        <ele>285</ele>
        <time>2011-04-02T12:58:56</time>
      </trkpt>
      <trkpt lat="44.52484" lon="1.51675">
        <ele>285</ele>
        <time>2011-04-02T12:58:58</time>
      </trkpt>
      <trkpt lat="44.52482" lon="1.51672">
        <ele>285</ele>
        <time>2011-04-02T12:59:00</time>
      </trkpt>
      <trkpt lat="44.52479" lon="1.51672">
        <ele>285</ele>
        <time>2011-04-02T12:59:02</time>
      </trkpt>
      <trkpt lat="44.52477" lon="1.51671">
        <ele>285</ele>
        <time>2011-04-02T12:59:04</time>
      </trkpt>
      <trkpt lat="44.52473" lon="1.51669">
        <ele>285</ele>
        <time>2011-04-02T12:59:07</time>
      </trkpt>
      <trkpt lat="44.52471" lon="1.51669">
        <ele>285</ele>
        <time>2011-04-02T12:59:09</time>
      </trkpt>
      <trkpt lat="44.52468" lon="1.51669">
        <ele>285</ele>
        <time>2011-04-02T12:59:11</time>
      </trkpt>
      <trkpt lat="44.52466" lon="1.5167">
        <ele>285</ele>
        <time>2011-04-02T12:59:13</time>
      </trkpt>
      <trkpt lat="44.52463" lon="1.51671">
        <ele>285</ele>
        <time>2011-04-02T12:59:18</time>
      </trkpt>
      <trkpt lat="44.52461" lon="1.51671">
        <ele>285</ele>
        <time>2011-04-02T12:59:21</time>
      </trkpt>
      <trkpt lat="44.52458" lon="1.51671">
        <ele>285</ele>
        <time>2011-04-02T12:59:24</time>
      </trkpt>
      <trkpt lat="44.52456" lon="1.51671">
        <ele>287</ele>
        <time>2011-04-02T12:59:27</time>
      </trkpt>
      <trkpt lat="44.52454" lon="1.51672">
        <ele>287</ele>
        <time>2011-04-02T12:59:30</time>
      </trkpt>
      <trkpt lat="44.52451" lon="1.51674">
        <ele>287</ele>
        <time>2011-04-02T12:59:33</time>
      </trkpt>
      <trkpt lat="44.52449" lon="1.51676">
        <ele>287</ele>
        <time>2011-04-02T12:59:36</time>
      </trkpt>
      <trkpt lat="44.52447" lon="1.51677">
        <ele>287</ele>
        <time>2011-04-02T12:59:39</time>
      </trkpt>
      <trkpt lat="44.52446" lon="1.51678">
        <ele>287</ele>
        <time>2011-04-02T12:59:41</time>
      </trkpt>
      <trkpt lat="44.52443" lon="1.5168">
        <ele>287</ele>
        <time>2011-04-02T12:59:44</time>
      </trkpt>
      <trkpt lat="44.52443" lon="1.51681">
        <ele>287</ele>
        <time>2011-04-02T12:59:45</time>
      </trkpt>
      <trkpt lat="44.5244" lon="1.51682">
        <ele>287</ele>
        <time>2011-04-02T12:59:48</time>
      </trkpt>
      <trkpt lat="44.52438" lon="1.51684">
        <ele>287</ele>
        <time>2011-04-02T12:59:51</time>
      </trkpt>
      <trkpt lat="44.52436" lon="1.51687">
        <ele>287</ele>
        <time>2011-04-02T12:59:54</time>
      </trkpt>
      <trkpt lat="44.52433" lon="1.5169">
        <ele>287</ele>
        <time>2011-04-02T12:59:57</time>
      </trkpt>
      <trkpt lat="44.5243" lon="1.51692">
        <ele>287</ele>
        <time>2011-04-02T13:00:00</time>
      </trkpt>
      <trkpt lat="44.52428" lon="1.51693">
        <ele>287</ele>
        <time>2011-04-02T13:00:02</time>
      </trkpt>
      <trkpt lat="44.52427" lon="1.51697">
        <ele>287</ele>
        <time>2011-04-02T13:00:05</time>
      </trkpt>
      <trkpt lat="44.52426" lon="1.51698">
        <ele>287</ele>
        <time>2011-04-02T13:00:06</time>
      </trkpt>
      <trkpt lat="44.52423" lon="1.51699">
        <ele>287</ele>
        <time>2011-04-02T13:00:09</time>
      </trkpt>
      <trkpt lat="44.5242" lon="1.517">
        <ele>287</ele>
        <time>2011-04-02T13:00:12</time>
      </trkpt>
      <trkpt lat="44.52418" lon="1.51702">
        <ele>287</ele>
        <time>2011-04-02T13:00:15</time>
      </trkpt>
      <trkpt lat="44.52417" lon="1.51706">
        <ele>287</ele>
        <time>2011-04-02T13:00:18</time>
      </trkpt>
      <trkpt lat="44.52415" lon="1.51709">
        <ele>306</ele>
        <time>2011-04-02T13:00:21</time>
      </trkpt>
      <trkpt lat="44.52413" lon="1.51715">
        <ele>306</ele>
        <time>2011-04-02T13:00:25</time>
      </trkpt>
      <trkpt lat="44.52412" lon="1.51722">
        <ele>306</ele>
        <time>2011-04-02T13:00:29</time>
      </trkpt>
      <trkpt lat="44.5241" lon="1.51727">
        <ele>306</ele>
        <time>2011-04-02T13:00:33</time>
      </trkpt>
      <trkpt lat="44.5241" lon="1.5173">
        <ele>306</ele>
        <time>2011-04-02T13:00:36</time>
      </trkpt>
      <trkpt lat="44.5241" lon="1.51733">
        <ele>306</ele>
        <time>2011-04-02T13:00:39</time>
      </trkpt>
      <trkpt lat="44.52409" lon="1.51736">
        <ele>306</ele>
        <time>2011-04-02T13:00:42</time>
      </trkpt>
      <trkpt lat="44.52409" lon="1.5174">
        <ele>306</ele>
        <time>2011-04-02T13:00:45</time>
      </trkpt>
      <trkpt lat="44.52411" lon="1.51744">
        <ele>306</ele>
        <time>2011-04-02T13:00:49</time>
      </trkpt>
      <trkpt lat="44.52414" lon="1.51744">
        <ele>306</ele>
        <time>2011-04-02T13:00:56</time>
      </trkpt>
      <trkpt lat="44.52416" lon="1.51743">
        <ele>306</ele>
        <time>2011-04-02T13:00:58</time>
      </trkpt>
      <trkpt lat="44.52418" lon="1.51741">
        <ele>306</ele>
        <time>2011-04-02T13:01:01</time>
      </trkpt>
      <trkpt lat="44.52421" lon="1.5174">
        <ele>306</ele>
        <time>2011-04-02T13:01:04</time>
      </trkpt>
      <trkpt lat="44.52424" lon="1.51739">
        <ele>306</ele>
        <time>2011-04-02T13:01:07</time>
      </trkpt>
      <trkpt lat="44.52427" lon="1.51738">
        <ele>306</ele>
        <time>2011-04-02T13:01:10</time>
      </trkpt>
      <trkpt lat="44.5243" lon="1.51739">
        <ele>306</ele>
        <time>2011-04-02T13:01:13</time>
      </trkpt>
      <trkpt lat="44.52431" lon="1.5174">
        <ele>306</ele>
        <time>2011-04-02T13:01:15</time>
      </trkpt>
      <trkpt lat="44.52433" lon="1.51741">
        <ele>306</ele>
        <time>2011-04-02T13:01:18</time>
      </trkpt>
      <trkpt lat="44.52436" lon="1.51742">
        <ele>306</ele>
        <time>2011-04-02T13:01:22</time>
      </trkpt>
      <trkpt lat="44.52438" lon="1.51745">
        <ele>306</ele>
        <time>2011-04-02T13:01:26</time>
      </trkpt>
      <trkpt lat="44.52439" lon="1.51745">
        <ele>306</ele>
        <time>2011-04-02T13:01:27</time>
      </trkpt>
      <trkpt lat="44.52442" lon="1.51748">
        <ele>306</ele>
        <time>2011-04-02T13:01:30</time>
      </trkpt>
      <trkpt lat="44.52444" lon="1.51749">
        <ele>306</ele>
        <time>2011-04-02T13:01:33</time>
      </trkpt>
      <trkpt lat="44.52447" lon="1.51751">
        <ele>306</ele>
        <time>2011-04-02T13:01:36</time>
      </trkpt>
      <trkpt lat="44.52448" lon="1.51753">
        <ele>306</ele>
        <time>2011-04-02T13:01:41</time>
      </trkpt>
      <trkpt lat="44.5245" lon="1.51756">
        <ele>306</ele>
        <time>2011-04-02T13:01:46</time>
      </trkpt>
      <trkpt lat="44.52451" lon="1.51756">
        <ele>306</ele>
        <time>2011-04-02T13:01:47</time>
      </trkpt>
      <trkpt lat="44.52453" lon="1.51759">
        <ele>306</ele>
        <time>2011-04-02T13:01:50</time>
      </trkpt>
      <trkpt lat="44.52455" lon="1.51762">
        <ele>306</ele>
        <time>2011-04-02T13:01:53</time>
      </trkpt>
      <trkpt lat="44.52457" lon="1.51766">
        <ele>306</ele>
        <time>2011-04-02T13:01:56</time>
      </trkpt>
      <trkpt lat="44.5246" lon="1.51768">
        <ele>307</ele>
        <time>2011-04-02T13:01:59</time>
      </trkpt>
      <trkpt lat="44.5246" lon="1.51769">
        <ele>307</ele>
        <time>2011-04-02T13:02:01</time>
      </trkpt>
      <trkpt lat="44.52462" lon="1.51772">
        <ele>307</ele>
        <time>2011-04-02T13:02:05</time>
      </trkpt>
      <trkpt lat="44.52464" lon="1.51774">
        <ele>307</ele>
        <time>2011-04-02T13:02:07</time>
      </trkpt>
      <trkpt lat="44.52466" lon="1.51777">
        <ele>307</ele>
        <time>2011-04-02T13:02:10</time>
      </trkpt>
      <trkpt lat="44.52469" lon="1.51779">
        <ele>307</ele>
        <time>2011-04-02T13:02:13</time>
      </trkpt>
      <trkpt lat="44.52466" lon="1.51783">
        <ele>307</ele>
        <time>2011-04-02T13:02:21</time>
      </trkpt>
      <trkpt lat="44.52468" lon="1.51782">
        <ele>307</ele>
        <time>2011-04-02T13:02:31</time>
      </trkpt>
      <trkpt lat="44.52468" lon="1.51782">
        <ele>307</ele>
        <time>2011-04-02T13:02:32</time>
      </trkpt>
      <trkpt lat="44.52471" lon="1.51784">
        <ele>307</ele>
        <time>2011-04-02T13:02:33</time>
      </trkpt>
      <trkpt lat="44.52471" lon="1.51784">
        <ele>307</ele>
        <time>2011-04-02T13:02:34</time>
      </trkpt>
      <trkpt lat="44.52473" lon="1.51787">
        <ele>307</ele>
        <time>2011-04-02T13:02:35</time>
      </trkpt>
      <trkpt lat="44.52475" lon="1.5179">
        <ele>307</ele>
        <time>2011-04-02T13:02:37</time>
      </trkpt>
      <trkpt lat="44.52476" lon="1.51793">
        <ele>325</ele>
        <time>2011-04-02T13:02:39</time>
      </trkpt>
      <trkpt lat="44.52479" lon="1.51795">
        <ele>325</ele>
        <time>2011-04-02T13:02:41</time>
      </trkpt>
      <trkpt lat="44.52481" lon="1.51797">
        <ele>325</ele>
        <time>2011-04-02T13:02:43</time>
      </trkpt>
      <trkpt lat="44.52484" lon="1.518">
        <ele>325</ele>
        <time>2011-04-02T13:02:45</time>
      </trkpt>
      <trkpt lat="44.52486" lon="1.51803">
        <ele>325</ele>
        <time>2011-04-02T13:02:47</time>
      </trkpt>
      <trkpt lat="44.52489" lon="1.51805">
        <ele>325</ele>
        <time>2011-04-02T13:02:49</time>
      </trkpt>
      <trkpt lat="44.52492" lon="1.51808">
        <ele>325</ele>
        <time>2011-04-02T13:02:51</time>
      </trkpt>
      <trkpt lat="44.52494" lon="1.5181">
        <ele>325</ele>
        <time>2011-04-02T13:02:53</time>
      </trkpt>
      <trkpt lat="44.52497" lon="1.51813">
        <ele>325</ele>
        <time>2011-04-02T13:02:55</time>
      </trkpt>
      <trkpt lat="44.525" lon="1.51815">
        <ele>325</ele>
        <time>2011-04-02T13:02:57</time>
      </trkpt>
      <trkpt lat="44.52502" lon="1.51819">
        <ele>325</ele>
        <time>2011-04-02T13:02:59</time>
      </trkpt>
      <trkpt lat="44.52504" lon="1.51822">
        <ele>325</ele>
        <time>2011-04-02T13:03:01</time>
      </trkpt>
      <trkpt lat="44.52505" lon="1.51825">
        <ele>325</ele>
        <time>2011-04-02T13:03:03</time>
      </trkpt>
      <trkpt lat="44.52507" lon="1.51828">
        <ele>325</ele>
        <time>2011-04-02T13:03:05</time>
      </trkpt>
      <trkpt lat="44.52508" lon="1.51831">
        <ele>325</ele>
        <time>2011-04-02T13:03:07</time>
      </trkpt>
      <trkpt lat="44.5251" lon="1.51834">
        <ele>325</ele>
        <time>2011-04-02T13:03:09</time>
      </trkpt>
      <trkpt lat="44.52511" lon="1.51837">
        <ele>325</ele>
        <time>2011-04-02T13:03:11</time>
      </trkpt>
      <trkpt lat="44.52511" lon="1.5184">
        <ele>325</ele>
        <time>2011-04-02T13:03:13</time>
      </trkpt>
      <trkpt lat="44.52512" lon="1.51844">
        <ele>325</ele>
        <time>2011-04-02T13:03:15</time>
      </trkpt>
      <trkpt lat="44.52512" lon="1.51847">
        <ele>325</ele>
        <time>2011-04-02T13:03:17</time>
      </trkpt>
      <trkpt lat="44.52512" lon="1.51851">
        <ele>325</ele>
        <time>2011-04-02T13:03:24</time>
      </trkpt>
      <trkpt lat="44.52512" lon="1.51855">
        <ele>325</ele>
        <time>2011-04-02T13:03:28</time>
      </trkpt>
      <trkpt lat="44.52512" lon="1.51857">
        <ele>325</ele>
        <time>2011-04-02T13:03:30</time>
      </trkpt>
      <trkpt lat="44.52512" lon="1.5186">
        <ele>325</ele>
        <time>2011-04-02T13:03:33</time>
      </trkpt>
      <trkpt lat="44.52512" lon="1.51861">
        <ele>325</ele>
        <time>2011-04-02T13:03:34</time>
      </trkpt>
      <trkpt lat="44.52512" lon="1.51865">
        <ele>325</ele>
        <time>2011-04-02T13:03:38</time>
      </trkpt>
      <trkpt lat="44.52513" lon="1.51869">
        <ele>325</ele>
        <time>2011-04-02T13:03:41</time>
      </trkpt>
      <trkpt lat="44.52513" lon="1.51873">
        <ele>325</ele>
        <time>2011-04-02T13:03:46</time>
      </trkpt>
      <trkpt lat="44.52513" lon="1.51876">
        <ele>338</ele>
        <time>2011-04-02T13:03:49</time>
      </trkpt>
      <trkpt lat="44.52514" lon="1.5188">
        <ele>338</ele>
        <time>2011-04-02T13:03:52</time>
      </trkpt>
      <trkpt lat="44.52515" lon="1.51885">
        <ele>338</ele>
        <time>2011-04-02T13:03:57</time>
      </trkpt>
      <trkpt lat="44.52515" lon="1.51887">
        <ele>338</ele>
        <time>2011-04-02T13:03:59</time>
      </trkpt>
      <trkpt lat="44.52515" lon="1.51891">
        <ele>338</ele>
        <time>2011-04-02T13:04:02</time>
      </trkpt>
      <trkpt lat="44.52516" lon="1.51895">
        <ele>338</ele>
        <time>2011-04-02T13:04:05</time>
      </trkpt>
      <trkpt lat="44.52516" lon="1.51899">
        <ele>338</ele>
        <time>2011-04-02T13:04:09</time>
      </trkpt>
      <trkpt lat="44.52516" lon="1.519">
        <ele>338</ele>
        <time>2011-04-02T13:04:10</time>
      </trkpt>
      <trkpt lat="44.52516" lon="1.51904">
        <ele>338</ele>
        <time>2011-04-02T13:04:13</time>
      </trkpt>
      <trkpt lat="44.52517" lon="1.51907">
        <ele>338</ele>
        <time>2011-04-02T13:04:15</time>
      </trkpt>
      <trkpt lat="44.52518" lon="1.51911">
        <ele>338</ele>
        <time>2011-04-02T13:04:18</time>
      </trkpt>
      <trkpt lat="44.52518" lon="1.51913">
        <ele>338</ele>
        <time>2011-04-02T13:04:19</time>
      </trkpt>
      <trkpt lat="44.52518" lon="1.51916">
        <ele>338</ele>
        <time>2011-04-02T13:04:21</time>
      </trkpt>
      <trkpt lat="44.52518" lon="1.5192">
        <ele>338</ele>
        <time>2011-04-02T13:04:25</time>
      </trkpt>
      <trkpt lat="44.52519" lon="1.51925">
        <ele>338</ele>
        <time>2011-04-02T13:04:28</time>
      </trkpt>
      <trkpt lat="44.5252" lon="1.51928">
        <ele>338</ele>
        <time>2011-04-02T13:04:30</time>
      </trkpt>
      <trkpt lat="44.5252" lon="1.51932">
        <ele>338</ele>
        <time>2011-04-02T13:04:32</time>
      </trkpt>
      <trkpt lat="44.52521" lon="1.51935">
        <ele>338</ele>
        <time>2011-04-02T13:04:34</time>
      </trkpt>
      <trkpt lat="44.52522" lon="1.51938">
        <ele>338</ele>
        <time>2011-04-02T13:04:36</time>
      </trkpt>
      <trkpt lat="44.52522" lon="1.51942">
        <ele>338</ele>
        <time>2011-04-02T13:04:38</time>
      </trkpt>
      <trkpt lat="44.52523" lon="1.51945">
        <ele>338</ele>
        <time>2011-04-02T13:04:40</time>
      </trkpt>
      <trkpt lat="44.52522" lon="1.5195">
        <ele>338</ele>
        <time>2011-04-02T13:04:52</time>
      </trkpt>
      <trkpt lat="44.52522" lon="1.5195">
        <ele>338</ele>
        <time>2011-04-02T13:05:00</time>
      </trkpt>
      <trkpt lat="44.52523" lon="1.51953">
        <ele>338</ele>
        <time>2011-04-02T13:05:02</time>
      </trkpt>
      <trkpt lat="44.5252" lon="1.51958">
        <ele>338</ele>
        <time>2011-04-02T13:05:09</time>
      </trkpt>
      <trkpt lat="44.5252" lon="1.51958">
        <ele>338</ele>
        <time>2011-04-02T13:05:10</time>
      </trkpt>
      <trkpt lat="44.5252" lon="1.51958">
        <ele>338</ele>
        <time>2011-04-02T13:05:25</time>
      </trkpt>
      <trkpt lat="44.52522" lon="1.5195">
        <ele>338</ele>
        <time>2011-04-02T13:05:35</time>
      </trkpt>
      <trkpt lat="44.5252" lon="1.51957">
        <ele>338</ele>
        <time>2011-04-02T13:07:35</time>
      </trkpt>
      <trkpt lat="44.52524" lon="1.51953">
        <ele>338</ele>
        <time>2011-04-02T13:08:12</time>
      </trkpt>
      <trkpt lat="44.52527" lon="1.51954">
        <ele>338</ele>
        <time>2011-04-02T13:08:23</time>
      </trkpt>
      <trkpt lat="44.52529" lon="1.51955">
        <ele>338</ele>
        <time>2011-04-02T13:08:26</time>
      </trkpt>
      <trkpt lat="44.52529" lon="1.51955">
        <ele>338</ele>
        <time>2011-04-02T13:08:27</time>
      </trkpt>
      <trkpt lat="44.52532" lon="1.51955">
        <ele>338</ele>
        <time>2011-04-02T13:08:29</time>
      </trkpt>
      <trkpt lat="44.52535" lon="1.51955">
        <ele>338</ele>
        <time>2011-04-02T13:08:31</time>
      </trkpt>
      <trkpt lat="44.52537" lon="1.51954">
        <ele>338</ele>
        <time>2011-04-02T13:08:33</time>
      </trkpt>
      <trkpt lat="44.5254" lon="1.51953">
        <ele>338</ele>
        <time>2011-04-02T13:08:35</time>
      </trkpt>
      <trkpt lat="44.52544" lon="1.51953">
        <ele>340</ele>
        <time>2011-04-02T13:08:37</time>
      </trkpt>
      <trkpt lat="44.52548" lon="1.51953">
        <ele>340</ele>
        <time>2011-04-02T13:08:39</time>
      </trkpt>
      <trkpt lat="44.52552" lon="1.51951">
        <ele>340</ele>
        <time>2011-04-02T13:08:41</time>
      </trkpt>
      <trkpt lat="44.52558" lon="1.51947">
        <ele>340</ele>
        <time>2011-04-02T13:08:43</time>
      </trkpt>
      <trkpt lat="44.52561" lon="1.51945">
        <ele>340</ele>
        <time>2011-04-02T13:08:44</time>
      </trkpt>
      <trkpt lat="44.52564" lon="1.51944">
        <ele>340</ele>
        <time>2011-04-02T13:08:45</time>
      </trkpt>
      <trkpt lat="44.52567" lon="1.51942">
        <ele>340</ele>
        <time>2011-04-02T13:08:46</time>
      </trkpt>
      <trkpt lat="44.52572" lon="1.51939">
        <ele>340</ele>
        <time>2011-04-02T13:08:48</time>
      </trkpt>
      <trkpt lat="44.52575" lon="1.51938">
        <ele>340</ele>
        <time>2011-04-02T13:08:49</time>
      </trkpt>
      <trkpt lat="44.52577" lon="1.51935">
        <ele>340</ele>
        <time>2011-04-02T13:08:50</time>
      </trkpt>
      <trkpt lat="44.52581" lon="1.51931">
        <ele>340</ele>
        <time>2011-04-02T13:08:52</time>
      </trkpt>
      <trkpt lat="44.52584" lon="1.51929">
        <ele>340</ele>
        <time>2011-04-02T13:08:53</time>
      </trkpt>
      <trkpt lat="44.52588" lon="1.51926">
        <ele>340</ele>
        <time>2011-04-02T13:08:54</time>
      </trkpt>
      <trkpt lat="44.52591" lon="1.51924">
        <ele>340</ele>
        <time>2011-04-02T13:08:55</time>
      </trkpt>
      <trkpt lat="44.52598" lon="1.51919">
        <ele>340</ele>
        <time>2011-04-02T13:08:57</time>
      </trkpt>
      <trkpt lat="44.52601" lon="1.51918">
        <ele>340</ele>
        <time>2011-04-02T13:08:58</time>
      </trkpt>
      <trkpt lat="44.52603" lon="1.51916">
        <ele>340</ele>
        <time>2011-04-02T13:09:01</time>
      </trkpt>
      <trkpt lat="44.52606" lon="1.51915">
        <ele>340</ele>
        <time>2011-04-02T13:09:03</time>
      </trkpt>
      <trkpt lat="44.52611" lon="1.51912">
        <ele>340</ele>
        <time>2011-04-02T13:09:05</time>
      </trkpt>
      <trkpt lat="44.52613" lon="1.51911">
        <ele>340</ele>
        <time>2011-04-02T13:09:06</time>
      </trkpt>
      <trkpt lat="44.52616" lon="1.5191">
        <ele>340</ele>
        <time>2011-04-02T13:09:07</time>
      </trkpt>
      <trkpt lat="44.52619" lon="1.51909">
        <ele>340</ele>
        <time>2011-04-02T13:09:08</time>
      </trkpt>
      <trkpt lat="44.52625" lon="1.51908">
        <ele>341</ele>
        <time>2011-04-02T13:09:10</time>
      </trkpt>
      <trkpt lat="44.52628" lon="1.51908">
        <ele>341</ele>
        <time>2011-04-02T13:09:11</time>
      </trkpt>
      <trkpt lat="44.52631" lon="1.51907">
        <ele>341</ele>
        <time>2011-04-02T13:09:12</time>
      </trkpt>
      <trkpt lat="44.52637" lon="1.51907">
        <ele>341</ele>
        <time>2011-04-02T13:09:14</time>
      </trkpt>
      <trkpt lat="44.52644" lon="1.51906">
        <ele>341</ele>
        <time>2011-04-02T13:09:16</time>
      </trkpt>
      <trkpt lat="44.52651" lon="1.51904">
        <ele>341</ele>
        <time>2011-04-02T13:09:18</time>
      </trkpt>
      <trkpt lat="44.52654" lon="1.51902">
        <ele>341</ele>
        <time>2011-04-02T13:09:19</time>
      </trkpt>
      <trkpt lat="44.52661" lon="1.51899">
        <ele>341</ele>
        <time>2011-04-02T13:09:21</time>
      </trkpt>
      <trkpt lat="44.52665" lon="1.51897">
        <ele>341</ele>
        <time>2011-04-02T13:09:22</time>
      </trkpt>
      <trkpt lat="44.52671" lon="1.51893">
        <ele>341</ele>
        <time>2011-04-02T13:09:24</time>
      </trkpt>
      <trkpt lat="44.52674" lon="1.51891">
        <ele>341</ele>
        <time>2011-04-02T13:09:25</time>
      </trkpt>
      <trkpt lat="44.52681" lon="1.5189">
        <ele>341</ele>
        <time>2011-04-02T13:09:27</time>
      </trkpt>
      <trkpt lat="44.52684" lon="1.51889">
        <ele>341</ele>
        <time>2011-04-02T13:09:28</time>
      </trkpt>
      <trkpt lat="44.52687" lon="1.51887">
        <ele>341</ele>
        <time>2011-04-02T13:09:29</time>
      </trkpt>
      <trkpt lat="44.52694" lon="1.51884">
        <ele>341</ele>
        <time>2011-04-02T13:09:31</time>
      </trkpt>
      <trkpt lat="44.52701" lon="1.51881">
        <ele>341</ele>
        <time>2011-04-02T13:09:33</time>
      </trkpt>
      <trkpt lat="44.52705" lon="1.5188">
        <ele>341</ele>
        <time>2011-04-02T13:09:34</time>
      </trkpt>
      <trkpt lat="44.52709" lon="1.51878">
        <ele>342</ele>
        <time>2011-04-02T13:09:35</time>
      </trkpt>
      <trkpt lat="44.52713" lon="1.51877">
        <ele>342</ele>
        <time>2011-04-02T13:09:36</time>
      </trkpt>
      <trkpt lat="44.5272" lon="1.51874">
        <ele>339</ele>
        <time>2011-04-02T13:09:38</time>
      </trkpt>
      <trkpt lat="44.52724" lon="1.51873">
        <ele>339</ele>
        <time>2011-04-02T13:09:39</time>
      </trkpt>
      <trkpt lat="44.52728" lon="1.51872">
        <ele>339</ele>
        <time>2011-04-02T13:09:40</time>
      </trkpt>
      <trkpt lat="44.52736" lon="1.51869">
        <ele>339</ele>
        <time>2011-04-02T13:09:42</time>
      </trkpt>
      <trkpt lat="44.5274" lon="1.51867">
        <ele>339</ele>
        <time>2011-04-02T13:09:43</time>
      </trkpt>
      <trkpt lat="44.52748" lon="1.51865">
        <ele>339</ele>
        <time>2011-04-02T13:09:45</time>
      </trkpt>
      <trkpt lat="44.52752" lon="1.51863">
        <ele>339</ele>
        <time>2011-04-02T13:09:46</time>
      </trkpt>
      <trkpt lat="44.52761" lon="1.5186">
        <ele>339</ele>
        <time>2011-04-02T13:09:48</time>
      </trkpt>
      <trkpt lat="44.52765" lon="1.51859">
        <ele>339</ele>
        <time>2011-04-02T13:09:49</time>
      </trkpt>
      <trkpt lat="44.52769" lon="1.51858">
        <ele>339</ele>
        <time>2011-04-02T13:09:50</time>
      </trkpt>
      <trkpt lat="44.52777" lon="1.51855">
        <ele>339</ele>
        <time>2011-04-02T13:09:52</time>
      </trkpt>
      <trkpt lat="44.52781" lon="1.51854">
        <ele>339</ele>
        <time>2011-04-02T13:09:53</time>
      </trkpt>
      <trkpt lat="44.52789" lon="1.5185">
        <ele>339</ele>
        <time>2011-04-02T13:09:55</time>
      </trkpt>
      <trkpt lat="44.52797" lon="1.51844">
        <ele>344</ele>
        <time>2011-04-02T13:09:57</time>
      </trkpt>
      <trkpt lat="44.52801" lon="1.51841">
        <ele>344</ele>
        <time>2011-04-02T13:09:58</time>
      </trkpt>
      <trkpt lat="44.52805" lon="1.51839">
        <ele>344</ele>
        <time>2011-04-02T13:09:59</time>
      </trkpt>
      <trkpt lat="44.52813" lon="1.51833">
        <ele>344</ele>
        <time>2011-04-02T13:10:01</time>
      </trkpt>
      <trkpt lat="44.52821" lon="1.51827">
        <ele>344</ele>
        <time>2011-04-02T13:10:03</time>
      </trkpt>
      <trkpt lat="44.52829" lon="1.51823">
        <ele>344</ele>
        <time>2011-04-02T13:10:05</time>
      </trkpt>
      <trkpt lat="44.52833" lon="1.5182">
        <ele>344</ele>
        <time>2011-04-02T13:10:06</time>
      </trkpt>
      <trkpt lat="44.52837" lon="1.51818">
        <ele>344</ele>
        <time>2011-04-02T13:10:07</time>
      </trkpt>
      <trkpt lat="44.52845" lon="1.51813">
        <ele>344</ele>
        <time>2011-04-02T13:10:09</time>
      </trkpt>
      <trkpt lat="44.52852" lon="1.51809">
        <ele>344</ele>
        <time>2011-04-02T13:10:11</time>
      </trkpt>
      <trkpt lat="44.5286" lon="1.51808">
        <ele>344</ele>
        <time>2011-04-02T13:10:13</time>
      </trkpt>
      <trkpt lat="44.52869" lon="1.51809">
        <ele>344</ele>
        <time>2011-04-02T13:10:15</time>
      </trkpt>
      <trkpt lat="44.52877" lon="1.5181">
        <ele>344</ele>
        <time>2011-04-02T13:10:17</time>
      </trkpt>
      <trkpt lat="44.52886" lon="1.51811">
        <ele>344</ele>
        <time>2011-04-02T13:10:19</time>
      </trkpt>
      <trkpt lat="44.52895" lon="1.51813">
        <ele>344</ele>
        <time>2011-04-02T13:10:21</time>
      </trkpt>
      <trkpt lat="44.52904" lon="1.51814">
        <ele>344</ele>
        <time>2011-04-02T13:10:23</time>
      </trkpt>
      <trkpt lat="44.52913" lon="1.51816">
        <ele>344</ele>
        <time>2011-04-02T13:10:25</time>
      </trkpt>
      <trkpt lat="44.52922" lon="1.51818">
        <ele>344</ele>
        <time>2011-04-02T13:10:27</time>
      </trkpt>
      <trkpt lat="44.52931" lon="1.51818">
        <ele>344</ele>
        <time>2011-04-02T13:10:29</time>
      </trkpt>
      <trkpt lat="44.52935" lon="1.51817">
        <ele>344</ele>
        <time>2011-04-02T13:10:30</time>
      </trkpt>
      <trkpt lat="44.5294" lon="1.51816">
        <ele>344</ele>
        <time>2011-04-02T13:10:31</time>
      </trkpt>
      <trkpt lat="44.52948" lon="1.51815">
        <ele>344</ele>
        <time>2011-04-02T13:10:33</time>
      </trkpt>
      <trkpt lat="44.52957" lon="1.51813">
        <ele>344</ele>
        <time>2011-04-02T13:10:35</time>
      </trkpt>
      <trkpt lat="44.52965" lon="1.5181">
        <ele>343</ele>
        <time>2011-04-02T13:10:37</time>
      </trkpt>
      <trkpt lat="44.52968" lon="1.51809">
        <ele>343</ele>
        <time>2011-04-02T13:10:38</time>
      </trkpt>
      <trkpt lat="44.52974" lon="1.51807">
        <ele>343</ele>
        <time>2011-04-02T13:10:40</time>
      </trkpt>
      <trkpt lat="44.52976" lon="1.51807">
        <ele>343</ele>
        <time>2011-04-02T13:10:41</time>
      </trkpt>
      <trkpt lat="44.52981" lon="1.51806">
        <ele>343</ele>
        <time>2011-04-02T13:10:43</time>
      </trkpt>
      <trkpt lat="44.52985" lon="1.51807">
        <ele>343</ele>
        <time>2011-04-02T13:10:45</time>
      </trkpt>
      <trkpt lat="44.52988" lon="1.51809">
        <ele>343</ele>
        <time>2011-04-02T13:10:47</time>
      </trkpt>
      <trkpt lat="44.5299" lon="1.51808">
        <ele>343</ele>
        <time>2011-04-02T13:10:57</time>
      </trkpt>
      <trkpt lat="44.52992" lon="1.5181">
        <ele>343</ele>
        <time>2011-04-02T13:11:05</time>
      </trkpt>
      <trkpt lat="44.52992" lon="1.5181">
        <ele>343</ele>
        <time>2011-04-02T13:11:06</time>
      </trkpt>
      <trkpt lat="44.52996" lon="1.51815">
        <ele>343</ele>
        <time>2011-04-02T13:11:07</time>
      </trkpt>
      <trkpt lat="44.52996" lon="1.51815">
        <ele>343</ele>
        <time>2011-04-02T13:11:08</time>
      </trkpt>
      <trkpt lat="44.53001" lon="1.5182">
        <ele>343</ele>
        <time>2011-04-02T13:11:09</time>
      </trkpt>
      <trkpt lat="44.53005" lon="1.51824">
        <ele>343</ele>
        <time>2011-04-02T13:11:10</time>
      </trkpt>
      <trkpt lat="44.53008" lon="1.51827">
        <ele>343</ele>
        <time>2011-04-02T13:11:11</time>
      </trkpt>
      <trkpt lat="44.53011" lon="1.51829">
        <ele>343</ele>
        <time>2011-04-02T13:11:12</time>
      </trkpt>
      <trkpt lat="44.53016" lon="1.51835">
        <ele>343</ele>
        <time>2011-04-02T13:11:14</time>
      </trkpt>
      <trkpt lat="44.53018" lon="1.51839">
        <ele>343</ele>
        <time>2011-04-02T13:11:15</time>
      </trkpt>
      <trkpt lat="44.53021" lon="1.51842">
        <ele>343</ele>
        <time>2011-04-02T13:11:16</time>
      </trkpt>
      <trkpt lat="44.53028" lon="1.51849">
        <ele>343</ele>
        <time>2011-04-02T13:11:18</time>
      </trkpt>
      <trkpt lat="44.53031" lon="1.51853">
        <ele>343</ele>
        <time>2011-04-02T13:11:19</time>
      </trkpt>
      <trkpt lat="44.53038" lon="1.5186">
        <ele>343</ele>
        <time>2011-04-02T13:11:21</time>
      </trkpt>
      <trkpt lat="44.53041" lon="1.51864">
        <ele>343</ele>
        <time>2011-04-02T13:11:22</time>
      </trkpt>
      <trkpt lat="44.53049" lon="1.51872">
        <ele>345</ele>
        <time>2011-04-02T13:11:24</time>
      </trkpt>
      <trkpt lat="44.53053" lon="1.51875">
        <ele>341</ele>
        <time>2011-04-02T13:11:25</time>
      </trkpt>
      <trkpt lat="44.53056" lon="1.51879">
        <ele>341</ele>
        <time>2011-04-02T13:11:26</time>
      </trkpt>
      <trkpt lat="44.53062" lon="1.51886">
        <ele>341</ele>
        <time>2011-04-02T13:11:28</time>
      </trkpt>
      <trkpt lat="44.53065" lon="1.51888">
        <ele>341</ele>
        <time>2011-04-02T13:11:29</time>
      </trkpt>
      <trkpt lat="44.53071" lon="1.51892">
        <ele>341</ele>
        <time>2011-04-02T13:11:31</time>
      </trkpt>
      <trkpt lat="44.53075" lon="1.51894">
        <ele>341</ele>
        <time>2011-04-02T13:11:33</time>
      </trkpt>
      <trkpt lat="44.53079" lon="1.51896">
        <ele>341</ele>
        <time>2011-04-02T13:11:35</time>
      </trkpt>
      <trkpt lat="44.53081" lon="1.51896">
        <ele>341</ele>
        <time>2011-04-02T13:11:37</time>
      </trkpt>
      <trkpt lat="44.53083" lon="1.51893">
        <ele>341</ele>
        <time>2011-04-02T13:11:40</time>
      </trkpt>
      <trkpt lat="44.53081" lon="1.51891">
        <ele>341</ele>
        <time>2011-04-02T13:11:43</time>
      </trkpt>
      <trkpt lat="44.53079" lon="1.51888">
        <ele>341</ele>
        <time>2011-04-02T13:11:46</time>
      </trkpt>
      <trkpt lat="44.53077" lon="1.51891">
        <ele>341</ele>
        <time>2011-04-02T13:11:49</time>
      </trkpt>
      <trkpt lat="44.53081" lon="1.51891">
        <ele>341</ele>
        <time>2011-04-02T13:11:51</time>
      </trkpt>
      <trkpt lat="44.53083" lon="1.5189">
        <ele>341</ele>
        <time>2011-04-02T13:11:52</time>
      </trkpt>
      <trkpt lat="44.53086" lon="1.51883">
        <ele>341</ele>
        <time>2011-04-02T13:11:54</time>
      </trkpt>
      <trkpt lat="44.53087" lon="1.51873">
        <ele>345</ele>
        <time>2011-04-02T13:11:56</time>
      </trkpt>
      <trkpt lat="44.53087" lon="1.51868">
        <ele>345</ele>
        <time>2011-04-02T13:11:57</time>
      </trkpt>
      <trkpt lat="44.53088" lon="1.51858">
        <ele>345</ele>
        <time>2011-04-02T13:11:59</time>
      </trkpt>
      <trkpt lat="44.53089" lon="1.51849">
        <ele>345</ele>
        <time>2011-04-02T13:12:01</time>
      </trkpt>
      <trkpt lat="44.5309" lon="1.51845">
        <ele>345</ele>
        <time>2011-04-02T13:12:02</time>
      </trkpt>
      <trkpt lat="44.53092" lon="1.51843">
        <ele>345</ele>
        <time>2011-04-02T13:12:03</time>
      </trkpt>
      <trkpt lat="44.53096" lon="1.51841">
        <ele>345</ele>
        <time>2011-04-02T13:12:05</time>
      </trkpt>
      <trkpt lat="44.53099" lon="1.51842">
        <ele>345</ele>
        <time>2011-04-02T13:12:06</time>
      </trkpt>
      <trkpt lat="44.53105" lon="1.51843">
        <ele>345</ele>
        <time>2011-04-02T13:12:08</time>
      </trkpt>
      <trkpt lat="44.53108" lon="1.51843">
        <ele>345</ele>
        <time>2011-04-02T13:12:09</time>
      </trkpt>
      <trkpt lat="44.53114" lon="1.51843">
        <ele>345</ele>
        <time>2011-04-02T13:12:11</time>
      </trkpt>
      <trkpt lat="44.53117" lon="1.51843">
        <ele>345</ele>
        <time>2011-04-02T13:12:12</time>
      </trkpt>
      <trkpt lat="44.53124" lon="1.51843">
        <ele>345</ele>
        <time>2011-04-02T13:12:14</time>
      </trkpt>
      <trkpt lat="44.53127" lon="1.51843">
        <ele>340</ele>
        <time>2011-04-02T13:12:15</time>
      </trkpt>
      <trkpt lat="44.53135" lon="1.51843">
        <ele>340</ele>
        <time>2011-04-02T13:12:17</time>
      </trkpt>
      <trkpt lat="44.53142" lon="1.51843">
        <ele>340</ele>
        <time>2011-04-02T13:12:19</time>
      </trkpt>
      <trkpt lat="44.53145" lon="1.51841">
        <ele>340</ele>
        <time>2011-04-02T13:12:20</time>
      </trkpt>
      <trkpt lat="44.53149" lon="1.51839">
        <ele>340</ele>
        <time>2011-04-02T13:12:22</time>
      </trkpt>
      <trkpt lat="44.53151" lon="1.51839">
        <ele>340</ele>
        <time>2011-04-02T13:12:23</time>
      </trkpt>
      <trkpt lat="44.53157" lon="1.51838">
        <ele>340</ele>
        <time>2011-04-02T13:12:25</time>
      </trkpt>
      <trkpt lat="44.53162" lon="1.51837">
        <ele>340</ele>
        <time>2011-04-02T13:12:26</time>
      </trkpt>
      <trkpt lat="44.53168" lon="1.51836">
        <ele>340</ele>
        <time>2011-04-02T13:12:27</time>
      </trkpt>
      <trkpt lat="44.53178" lon="1.51832">
        <ele>340</ele>
        <time>2011-04-02T13:12:29</time>
      </trkpt>
      <trkpt lat="44.53189" lon="1.51829">
        <ele>340</ele>
        <time>2011-04-02T13:12:31</time>
      </trkpt>
      <trkpt lat="44.53203" lon="1.51825">
        <ele>340</ele>
        <time>2011-04-02T13:12:33</time>
      </trkpt>
      <trkpt lat="44.53209" lon="1.51823">
        <ele>328</ele>
        <time>2011-04-02T13:12:34</time>
      </trkpt>
      <trkpt lat="44.5322" lon="1.51819">
        <ele>328</ele>
        <time>2011-04-02T13:12:36</time>
      </trkpt>
      <trkpt lat="44.53225" lon="1.51817">
        <ele>328</ele>
        <time>2011-04-02T13:12:37</time>
      </trkpt>
      <trkpt lat="44.53237" lon="1.51813">
        <ele>328</ele>
        <time>2011-04-02T13:12:39</time>
      </trkpt>
      <trkpt lat="44.5325" lon="1.5181">
        <ele>328</ele>
        <time>2011-04-02T13:12:41</time>
      </trkpt>
      <trkpt lat="44.53255" lon="1.51808">
        <ele>328</ele>
        <time>2011-04-02T13:12:42</time>
      </trkpt>
      <trkpt lat="44.53265" lon="1.51807">
        <ele>328</ele>
        <time>2011-04-02T13:12:44</time>
      </trkpt>
      <trkpt lat="44.53272" lon="1.51811">
        <ele>328</ele>
        <time>2011-04-02T13:12:46</time>
      </trkpt>
      <trkpt lat="44.53274" lon="1.51814">
        <ele>328</ele>
        <time>2011-04-02T13:12:47</time>
      </trkpt>
      <trkpt lat="44.53281" lon="1.51819">
        <ele>328</ele>
        <time>2011-04-02T13:12:51</time>
      </trkpt>
      <trkpt lat="44.53283" lon="1.51818">
        <ele>328</ele>
        <time>2011-04-02T13:12:52</time>
      </trkpt>
      <trkpt lat="44.53287" lon="1.51817">
        <ele>328</ele>
        <time>2011-04-02T13:12:53</time>
      </trkpt>
      <trkpt lat="44.5329" lon="1.51816">
        <ele>328</ele>
        <time>2011-04-02T13:12:54</time>
      </trkpt>
      <trkpt lat="44.53295" lon="1.51814">
        <ele>315</ele>
        <time>2011-04-02T13:12:56</time>
      </trkpt>
      <trkpt lat="44.53301" lon="1.51811">
        <ele>315</ele>
        <time>2011-04-02T13:12:58</time>
      </trkpt>
      <trkpt lat="44.53309" lon="1.51808">
        <ele>315</ele>
        <time>2011-04-02T13:13:00</time>
      </trkpt>
      <trkpt lat="44.53317" lon="1.51806">
        <ele>315</ele>
        <time>2011-04-02T13:13:02</time>
      </trkpt>
      <trkpt lat="44.5332" lon="1.51805">
        <ele>315</ele>
        <time>2011-04-02T13:13:03</time>
      </trkpt>
      <trkpt lat="44.53323" lon="1.51804">
        <ele>315</ele>
        <time>2011-04-02T13:13:04</time>
      </trkpt>
      <trkpt lat="44.53329" lon="1.51798">
        <ele>315</ele>
        <time>2011-04-02T13:13:06</time>
      </trkpt>
      <trkpt lat="44.53331" lon="1.51789">
        <ele>315</ele>
        <time>2011-04-02T13:13:08</time>
      </trkpt>
      <trkpt lat="44.53331" lon="1.51784">
        <ele>315</ele>
        <time>2011-04-02T13:13:09</time>
      </trkpt>
      <trkpt lat="44.53332" lon="1.5178">
        <ele>315</ele>
        <time>2011-04-02T13:13:10</time>
      </trkpt>
      <trkpt lat="44.53333" lon="1.51769">
        <ele>315</ele>
        <time>2011-04-02T13:13:12</time>
      </trkpt>
      <trkpt lat="44.53332" lon="1.51763">
        <ele>315</ele>
        <time>2011-04-02T13:13:13</time>
      </trkpt>
      <trkpt lat="44.53332" lon="1.51757">
        <ele>315</ele>
        <time>2011-04-02T13:13:14</time>
      </trkpt>
      <trkpt lat="44.53331" lon="1.51744">
        <ele>315</ele>
        <time>2011-04-02T13:13:16</time>
      </trkpt>
      <trkpt lat="44.53331" lon="1.51737">
        <ele>315</ele>
        <time>2011-04-02T13:13:17</time>
      </trkpt>
      <trkpt lat="44.53329" lon="1.51724">
        <ele>315</ele>
        <time>2011-04-02T13:13:19</time>
      </trkpt>
      <trkpt lat="44.53329" lon="1.51717">
        <ele>315</ele>
        <time>2011-04-02T13:13:20</time>
      </trkpt>
      <trkpt lat="44.53327" lon="1.51701">
        <ele>311</ele>
        <time>2011-04-02T13:13:22</time>
      </trkpt>
      <trkpt lat="44.53325" lon="1.51687">
        <ele>311</ele>
        <time>2011-04-02T13:13:24</time>
      </trkpt>
      <trkpt lat="44.53326" lon="1.51682">
        <ele>311</ele>
        <time>2011-04-02T13:13:25</time>
      </trkpt>
      <trkpt lat="44.53326" lon="1.51676">
        <ele>311</ele>
        <time>2011-04-02T13:13:26</time>
      </trkpt>
      <trkpt lat="44.53326" lon="1.51673">
        <ele>311</ele>
        <time>2011-04-02T13:13:29</time>
      </trkpt>
      <trkpt lat="44.53326" lon="1.51673">
        <ele>311</ele>
        <time>2011-04-02T13:13:48</time>
      </trkpt>
      <trkpt lat="44.53327" lon="1.51665">
        <ele>311</ele>
        <time>2011-04-02T13:13:58</time>
      </trkpt>
      <trkpt lat="44.53332" lon="1.51665">
        <ele>311</ele>
        <time>2011-04-02T13:14:00</time>
      </trkpt>
      <trkpt lat="44.53332" lon="1.51665">
        <ele>311</ele>
        <time>2011-04-02T13:14:01</time>
      </trkpt>
      <trkpt lat="44.53335" lon="1.51666">
        <ele>311</ele>
        <time>2011-04-02T13:14:01</time>
      </trkpt>
      <trkpt lat="44.53338" lon="1.51667">
        <ele>311</ele>
        <time>2011-04-02T13:14:02</time>
      </trkpt>
      <trkpt lat="44.53345" lon="1.51668">
        <ele>311</ele>
        <time>2011-04-02T13:14:04</time>
      </trkpt>
      <trkpt lat="44.53352" lon="1.5167">
        <ele>311</ele>
        <time>2011-04-02T13:14:06</time>
      </trkpt>
      <trkpt lat="44.53359" lon="1.51671">
        <ele>311</ele>
        <time>2011-04-02T13:14:08</time>
      </trkpt>
      <trkpt lat="44.53363" lon="1.51673">
        <ele>311</ele>
        <time>2011-04-02T13:14:09</time>
      </trkpt>
      <trkpt lat="44.53368" lon="1.51676">
        <ele>311</ele>
        <time>2011-04-02T13:14:10</time>
      </trkpt>
      <trkpt lat="44.53379" lon="1.51682">
        <ele>309</ele>
        <time>2011-04-02T13:14:12</time>
      </trkpt>
      <trkpt lat="44.53383" lon="1.51686">
        <ele>309</ele>
        <time>2011-04-02T13:14:13</time>
      </trkpt>
      <trkpt lat="44.53392" lon="1.51691">
        <ele>309</ele>
        <time>2011-04-02T13:14:15</time>
      </trkpt>
      <trkpt lat="44.53397" lon="1.51695">
        <ele>309</ele>
        <time>2011-04-02T13:14:16</time>
      </trkpt>
      <trkpt lat="44.53408" lon="1.51705">
        <ele>309</ele>
        <time>2011-04-02T13:14:18</time>
      </trkpt>
      <trkpt lat="44.53417" lon="1.51714">
        <ele>292</ele>
        <time>2011-04-02T13:14:20</time>
      </trkpt>
      <trkpt lat="44.53421" lon="1.51718">
        <ele>292</ele>
        <time>2011-04-02T13:14:21</time>
      </trkpt>
      <trkpt lat="44.53427" lon="1.51722">
        <ele>292</ele>
        <time>2011-04-02T13:14:23</time>
      </trkpt>
      <trkpt lat="44.5343" lon="1.51723">
        <ele>292</ele>
        <time>2011-04-02T13:14:25</time>
      </trkpt>
      <trkpt lat="44.53435" lon="1.51729">
        <ele>292</ele>
        <time>2011-04-02T13:14:27</time>
      </trkpt>
      <trkpt lat="44.53438" lon="1.51734">
        <ele>292</ele>
        <time>2011-04-02T13:14:28</time>
      </trkpt>
      <trkpt lat="44.53441" lon="1.51739">
        <ele>292</ele>
        <time>2011-04-02T13:14:29</time>
      </trkpt>
      <trkpt lat="44.53445" lon="1.51744">
        <ele>292</ele>
        <time>2011-04-02T13:14:30</time>
      </trkpt>
      <trkpt lat="44.53451" lon="1.51753">
        <ele>292</ele>
        <time>2011-04-02T13:14:32</time>
      </trkpt>
      <trkpt lat="44.53455" lon="1.51759">
        <ele>292</ele>
        <time>2011-04-02T13:14:33</time>
      </trkpt>
      <trkpt lat="44.53463" lon="1.51771">
        <ele>285</ele>
        <time>2011-04-02T13:14:35</time>
      </trkpt>
      <trkpt lat="44.53471" lon="1.51784">
        <ele>285</ele>
        <time>2011-04-02T13:14:37</time>
      </trkpt>
      <trkpt lat="44.53475" lon="1.51792">
        <ele>276</ele>
        <time>2011-04-02T13:14:39</time>
      </trkpt>
      <trkpt lat="44.53476" lon="1.51794">
        <ele>276</ele>
        <time>2011-04-02T13:14:42</time>
      </trkpt>
      <trkpt lat="44.53476" lon="1.51794">
        <ele>276</ele>
        <time>2011-04-02T13:15:00</time>
      </trkpt>
      <trkpt lat="44.53482" lon="1.51805">
        <ele>276</ele>
        <time>2011-04-02T13:15:10</time>
      </trkpt>
      <trkpt lat="44.53486" lon="1.51809">
        <ele>276</ele>
        <time>2011-04-02T13:15:12</time>
      </trkpt>
      <trkpt lat="44.53486" lon="1.51809">
        <ele>276</ele>
        <time>2011-04-02T13:15:13</time>
      </trkpt>
      <trkpt lat="44.53489" lon="1.51814">
        <ele>276</ele>
        <time>2011-04-02T13:15:23</time>
      </trkpt>
      <trkpt lat="44.53493" lon="1.51817">
        <ele>276</ele>
        <time>2011-04-02T13:15:25</time>
      </trkpt>
      <trkpt lat="44.53497" lon="1.51818">
        <ele>276</ele>
        <time>2011-04-02T13:15:27</time>
      </trkpt>
      <trkpt lat="44.53504" lon="1.51817">
        <ele>276</ele>
        <time>2011-04-02T13:15:29</time>
      </trkpt>
      <trkpt lat="44.53514" lon="1.51815">
        <ele>276</ele>
        <time>2011-04-02T13:15:31</time>
      </trkpt>
      <trkpt lat="44.53518" lon="1.51814">
        <ele>276</ele>
        <time>2011-04-02T13:15:32</time>
      </trkpt>
      <trkpt lat="44.53527" lon="1.51811">
        <ele>276</ele>
        <time>2011-04-02T13:15:34</time>
      </trkpt>
      <trkpt lat="44.53531" lon="1.5181">
        <ele>276</ele>
        <time>2011-04-02T13:15:35</time>
      </trkpt>
      <trkpt lat="44.53536" lon="1.51809">
        <ele>276</ele>
        <time>2011-04-02T13:15:36</time>
      </trkpt>
      <trkpt lat="44.53545" lon="1.51803">
        <ele>271</ele>
        <time>2011-04-02T13:15:40</time>
      </trkpt>
      <trkpt lat="44.53546" lon="1.518">
        <ele>271</ele>
        <time>2011-04-02T13:15:41</time>
      </trkpt>
      <trkpt lat="44.53547" lon="1.51796">
        <ele>271</ele>
        <time>2011-04-02T13:15:42</time>
      </trkpt>
      <trkpt lat="44.53548" lon="1.51792">
        <ele>271</ele>
        <time>2011-04-02T13:15:44</time>
      </trkpt>
      <trkpt lat="44.53547" lon="1.51792">
        <ele>271</ele>
        <time>2011-04-02T13:15:51</time>
      </trkpt>
      <trkpt lat="44.53551" lon="1.51795">
        <ele>271</ele>
        <time>2011-04-02T13:15:53</time>
      </trkpt>
      <trkpt lat="44.53555" lon="1.51792">
        <ele>271</ele>
        <time>2011-04-02T13:16:11</time>
      </trkpt>
      <trkpt lat="44.53555" lon="1.51792">
        <ele>271</ele>
        <time>2011-04-02T13:16:13</time>
      </trkpt>
      <trkpt lat="44.53561" lon="1.51788">
        <ele>275</ele>
        <time>2011-04-02T13:16:18</time>
      </trkpt>
      <trkpt lat="44.53566" lon="1.51786">
        <ele>275</ele>
        <time>2011-04-02T13:16:24</time>
      </trkpt>
      <trkpt lat="44.53566" lon="1.51786">
        <ele>275</ele>
        <time>2011-04-02T13:16:25</time>
      </trkpt>
      <trkpt lat="44.53566" lon="1.51786">
        <ele>275</ele>
        <time>2011-04-02T13:16:40</time>
      </trkpt>
      <trkpt lat="44.53564" lon="1.51791">
        <ele>275</ele>
        <time>2011-04-02T13:16:48</time>
      </trkpt>
      <trkpt lat="44.53562" lon="1.51782">
        <ele>275</ele>
        <time>2011-04-02T13:17:53</time>
      </trkpt>
      <trkpt lat="44.53562" lon="1.51779">
        <ele>275</ele>
        <time>2011-04-02T13:17:58</time>
      </trkpt>
      <trkpt lat="44.53562" lon="1.51779">
        <ele>275</ele>
        <time>2011-04-02T13:17:59</time>
      </trkpt>
      <trkpt lat="44.53566" lon="1.51784">
        <ele>275</ele>
        <time>2011-04-02T13:18:08</time>
      </trkpt>
      <trkpt lat="44.53566" lon="1.51784">
        <ele>275</ele>
        <time>2011-04-02T13:18:14</time>
      </trkpt>
      <trkpt lat="44.53565" lon="1.51783">
        <ele>275</ele>
        <time>2011-04-02T13:18:43</time>
      </trkpt>
      <trkpt lat="44.53566" lon="1.51789">
        <ele>275</ele>
        <time>2011-04-02T13:18:49</time>
      </trkpt>
      <trkpt lat="44.53566" lon="1.51789">
        <ele>275</ele>
        <time>2011-04-02T13:18:50</time>
      </trkpt>
      <trkpt lat="44.53567" lon="1.51797">
        <ele>271</ele>
        <time>2011-04-02T13:18:56</time>
      </trkpt>
      <trkpt lat="44.53567" lon="1.51797">
        <ele>271</ele>
        <time>2011-04-02T13:19:05</time>
      </trkpt>
      <trkpt lat="44.53563" lon="1.51801">
        <ele>271</ele>
        <time>2011-04-02T13:19:07</time>
      </trkpt>
      <trkpt lat="44.53558" lon="1.51803">
        <ele>271</ele>
        <time>2011-04-02T13:19:10</time>
      </trkpt>
      <trkpt lat="44.53558" lon="1.51803">
        <ele>271</ele>
        <time>2011-04-02T13:19:11</time>
      </trkpt>
      <trkpt lat="44.53556" lon="1.51797">
        <ele>271</ele>
        <time>2011-04-02T13:19:20</time>
      </trkpt>
      <trkpt lat="44.53555" lon="1.5179">
        <ele>275</ele>
        <time>2011-04-02T13:19:25</time>
      </trkpt>
      <trkpt lat="44.53558" lon="1.51787">
        <ele>275</ele>
        <time>2011-04-02T13:19:30</time>
      </trkpt>
      <trkpt lat="44.5356" lon="1.51785">
        <ele>275</ele>
        <time>2011-04-02T13:19:32</time>
      </trkpt>
      <trkpt lat="44.53564" lon="1.51784">
        <ele>275</ele>
        <time>2011-04-02T13:19:34</time>
      </trkpt>
      <trkpt lat="44.53569" lon="1.51782">
        <ele>275</ele>
        <time>2011-04-02T13:19:36</time>
      </trkpt>
      <trkpt lat="44.53575" lon="1.5178">
        <ele>275</ele>
        <time>2011-04-02T13:19:38</time>
      </trkpt>
      <trkpt lat="44.53578" lon="1.51779">
        <ele>275</ele>
        <time>2011-04-02T13:19:39</time>
      </trkpt>
      <trkpt lat="44.53587" lon="1.51777">
        <ele>275</ele>
        <time>2011-04-02T13:19:41</time>
      </trkpt>
      <trkpt lat="44.53592" lon="1.51776">
        <ele>275</ele>
        <time>2011-04-02T13:19:42</time>
      </trkpt>
      <trkpt lat="44.53598" lon="1.51776">
        <ele>275</ele>
        <time>2011-04-02T13:19:43</time>
      </trkpt>
      <trkpt lat="44.53611" lon="1.51773">
        <ele>275</ele>
        <time>2011-04-02T13:19:45</time>
      </trkpt>
      <trkpt lat="44.53618" lon="1.51771">
        <ele>275</ele>
        <time>2011-04-02T13:19:46</time>
      </trkpt>
      <trkpt lat="44.53631" lon="1.51767">
        <ele>263</ele>
        <time>2011-04-02T13:19:48</time>
      </trkpt>
      <trkpt lat="44.53636" lon="1.51765">
        <ele>263</ele>
        <time>2011-04-02T13:19:49</time>
      </trkpt>
      <trkpt lat="44.5364" lon="1.51763">
        <ele>263</ele>
        <time>2011-04-02T13:19:50</time>
      </trkpt>
      <trkpt lat="44.53647" lon="1.51759">
        <ele>263</ele>
        <time>2011-04-02T13:19:52</time>
      </trkpt>
      <trkpt lat="44.5365" lon="1.51757">
        <ele>263</ele>
        <time>2011-04-02T13:19:53</time>
      </trkpt>
      <trkpt lat="44.53654" lon="1.51754">
        <ele>263</ele>
        <time>2011-04-02T13:19:54</time>
      </trkpt>
      <trkpt lat="44.5366" lon="1.51749">
        <ele>263</ele>
        <time>2011-04-02T13:19:56</time>
      </trkpt>
      <trkpt lat="44.53664" lon="1.51747">
        <ele>263</ele>
        <time>2011-04-02T13:19:57</time>
      </trkpt>
      <trkpt lat="44.53672" lon="1.51742">
        <ele>263</ele>
        <time>2011-04-02T13:19:59</time>
      </trkpt>
      <trkpt lat="44.53681" lon="1.51736">
        <ele>263</ele>
        <time>2011-04-02T13:20:01</time>
      </trkpt>
      <trkpt lat="44.53691" lon="1.51732">
        <ele>263</ele>
        <time>2011-04-02T13:20:03</time>
      </trkpt>
      <trkpt lat="44.53696" lon="1.51729">
        <ele>263</ele>
        <time>2011-04-02T13:20:04</time>
      </trkpt>
      <trkpt lat="44.53706" lon="1.51724">
        <ele>263</ele>
        <time>2011-04-02T13:20:06</time>
      </trkpt>
      <trkpt lat="44.53716" lon="1.51722">
        <ele>258</ele>
        <time>2011-04-02T13:20:08</time>
      </trkpt>
      <trkpt lat="44.53727" lon="1.51721">
        <ele>258</ele>
        <time>2011-04-02T13:20:10</time>
      </trkpt>
      <trkpt lat="44.53735" lon="1.5172">
        <ele>258</ele>
        <time>2011-04-02T13:20:12</time>
      </trkpt>
      <trkpt lat="44.53743" lon="1.51715">
        <ele>258</ele>
        <time>2011-04-02T13:20:14</time>
      </trkpt>
      <trkpt lat="44.53747" lon="1.51712">
        <ele>258</ele>
        <time>2011-04-02T13:20:15</time>
      </trkpt>
      <trkpt lat="44.53754" lon="1.51708">
        <ele>257</ele>
        <time>2011-04-02T13:20:17</time>
      </trkpt>
      <trkpt lat="44.53762" lon="1.51703">
        <ele>257</ele>
        <time>2011-04-02T13:20:19</time>
      </trkpt>
      <trkpt lat="44.53766" lon="1.51701">
        <ele>257</ele>
        <time>2011-04-02T13:20:20</time>
      </trkpt>
      <trkpt lat="44.53776" lon="1.51695">
        <ele>257</ele>
        <time>2011-04-02T13:20:22</time>
      </trkpt>
      <trkpt lat="44.53785" lon="1.5169">
        <ele>257</ele>
        <time>2011-04-02T13:20:24</time>
      </trkpt>
      <trkpt lat="44.5379" lon="1.51687">
        <ele>257</ele>
        <time>2011-04-02T13:20:25</time>
      </trkpt>
      <trkpt lat="44.538" lon="1.51679">
        <ele>243</ele>
        <time>2011-04-02T13:20:27</time>
      </trkpt>
      <trkpt lat="44.53805" lon="1.51675">
        <ele>243</ele>
        <time>2011-04-02T13:20:28</time>
      </trkpt>
      <trkpt lat="44.53809" lon="1.51669">
        <ele>243</ele>
        <time>2011-04-02T13:20:29</time>
      </trkpt>
      <trkpt lat="44.53813" lon="1.51663">
        <ele>243</ele>
        <time>2011-04-02T13:20:30</time>
      </trkpt>
      <trkpt lat="44.53821" lon="1.51652">
        <ele>243</ele>
        <time>2011-04-02T13:20:32</time>
      </trkpt>
      <trkpt lat="44.53829" lon="1.51643">
        <ele>243</ele>
        <time>2011-04-02T13:20:34</time>
      </trkpt>
      <trkpt lat="44.53833" lon="1.5164">
        <ele>243</ele>
        <time>2011-04-02T13:20:35</time>
      </trkpt>
      <trkpt lat="44.53837" lon="1.51636">
        <ele>243</ele>
        <time>2011-04-02T13:20:36</time>
      </trkpt>
      <trkpt lat="44.53846" lon="1.51631">
        <ele>243</ele>
        <time>2011-04-02T13:20:38</time>
      </trkpt>
      <trkpt lat="44.53851" lon="1.51629">
        <ele>243</ele>
        <time>2011-04-02T13:20:39</time>
      </trkpt>
      <trkpt lat="44.53856" lon="1.51627">
        <ele>243</ele>
        <time>2011-04-02T13:20:40</time>
      </trkpt>
      <trkpt lat="44.53861" lon="1.51625">
        <ele>258</ele>
        <time>2011-04-02T13:20:41</time>
      </trkpt>
      <trkpt lat="44.53871" lon="1.51621">
        <ele>258</ele>
        <time>2011-04-02T13:20:43</time>
      </trkpt>
      <trkpt lat="44.53877" lon="1.5162">
        <ele>248</ele>
        <time>2011-04-02T13:20:44</time>
      </trkpt>
      <trkpt lat="44.53884" lon="1.51619">
        <ele>248</ele>
        <time>2011-04-02T13:20:45</time>
      </trkpt>
      <trkpt lat="44.53891" lon="1.51618">
        <ele>248</ele>
        <time>2011-04-02T13:20:46</time>
      </trkpt>
      <trkpt lat="44.53905" lon="1.51614">
        <ele>248</ele>
        <time>2011-04-02T13:20:48</time>
      </trkpt>
      <trkpt lat="44.53911" lon="1.51613">
        <ele>248</ele>
        <time>2011-04-02T13:20:49</time>
      </trkpt>
      <trkpt lat="44.53923" lon="1.51612">
        <ele>248</ele>
        <time>2011-04-02T13:20:51</time>
      </trkpt>
      <trkpt lat="44.53932" lon="1.51614">
        <ele>248</ele>
        <time>2011-04-02T13:20:53</time>
      </trkpt>
      <trkpt lat="44.53936" lon="1.51614">
        <ele>248</ele>
        <time>2011-04-02T13:20:54</time>
      </trkpt>
      <trkpt lat="44.53942" lon="1.51614">
        <ele>248</ele>
        <time>2011-04-02T13:20:56</time>
      </trkpt>
      <trkpt lat="44.53947" lon="1.51614">
        <ele>248</ele>
        <time>2011-04-02T13:20:58</time>
      </trkpt>
      <trkpt lat="44.5395" lon="1.51614">
        <ele>248</ele>
        <time>2011-04-02T13:20:59</time>
      </trkpt>
      <trkpt lat="44.53955" lon="1.51615">
        <ele>248</ele>
        <time>2011-04-02T13:21:01</time>
      </trkpt>
      <trkpt lat="44.53957" lon="1.51616">
        <ele>248</ele>
        <time>2011-04-02T13:21:02</time>
      </trkpt>
      <trkpt lat="44.5396" lon="1.51617">
        <ele>251</ele>
        <time>2011-04-02T13:21:03</time>
      </trkpt>
      <trkpt lat="44.53967" lon="1.51621">
        <ele>251</ele>
        <time>2011-04-02T13:21:05</time>
      </trkpt>
      <trkpt lat="44.53971" lon="1.51623">
        <ele>251</ele>
        <time>2011-04-02T13:21:06</time>
      </trkpt>
      <trkpt lat="44.53978" lon="1.51628">
        <ele>236</ele>
        <time>2011-04-02T13:21:08</time>
      </trkpt>
      <trkpt lat="44.53981" lon="1.51631">
        <ele>236</ele>
        <time>2011-04-02T13:21:09</time>
      </trkpt>
      <trkpt lat="44.53985" lon="1.51634">
        <ele>236</ele>
        <time>2011-04-02T13:21:10</time>
      </trkpt>
      <trkpt lat="44.53994" lon="1.51641">
        <ele>236</ele>
        <time>2011-04-02T13:21:12</time>
      </trkpt>
      <trkpt lat="44.53997" lon="1.51644">
        <ele>236</ele>
        <time>2011-04-02T13:21:13</time>
      </trkpt>
      <trkpt lat="44.54006" lon="1.51652">
        <ele>236</ele>
        <time>2011-04-02T13:21:15</time>
      </trkpt>
      <trkpt lat="44.5401" lon="1.51655">
        <ele>236</ele>
        <time>2011-04-02T13:21:16</time>
      </trkpt>
      <trkpt lat="44.54019" lon="1.51661">
        <ele>236</ele>
        <time>2011-04-02T13:21:18</time>
      </trkpt>
      <trkpt lat="44.54023" lon="1.51664">
        <ele>236</ele>
        <time>2011-04-02T13:21:19</time>
      </trkpt>
      <trkpt lat="44.54031" lon="1.5167">
        <ele>236</ele>
        <time>2011-04-02T13:21:21</time>
      </trkpt>
      <trkpt lat="44.54036" lon="1.51675">
        <ele>236</ele>
        <time>2011-04-02T13:21:23</time>
      </trkpt>
      <trkpt lat="44.54039" lon="1.51677">
        <ele>236</ele>
        <time>2011-04-02T13:21:24</time>
      </trkpt>
      <trkpt lat="44.54044" lon="1.51681">
        <ele>235</ele>
        <time>2011-04-02T13:21:27</time>
      </trkpt>
      <trkpt lat="44.54048" lon="1.51684">
        <ele>235</ele>
        <time>2011-04-02T13:21:29</time>
      </trkpt>
      <trkpt lat="44.54051" lon="1.51687">
        <ele>235</ele>
        <time>2011-04-02T13:21:30</time>
      </trkpt>
      <trkpt lat="44.54056" lon="1.5169">
        <ele>235</ele>
        <time>2011-04-02T13:21:31</time>
      </trkpt>
      <trkpt lat="44.54067" lon="1.51694">
        <ele>235</ele>
        <time>2011-04-02T13:21:33</time>
      </trkpt>
      <trkpt lat="44.54082" lon="1.51698">
        <ele>235</ele>
        <time>2011-04-02T13:21:35</time>
      </trkpt>
      <trkpt lat="44.54091" lon="1.51699">
        <ele>235</ele>
        <time>2011-04-02T13:21:36</time>
      </trkpt>
      <trkpt lat="44.54108" lon="1.517">
        <ele>235</ele>
        <time>2011-04-02T13:21:38</time>
      </trkpt>
      <trkpt lat="44.54116" lon="1.51701">
        <ele>235</ele>
        <time>2011-04-02T13:21:39</time>
      </trkpt>
      <trkpt lat="44.5413" lon="1.51705">
        <ele>244</ele>
        <time>2011-04-02T13:21:41</time>
      </trkpt>
      <trkpt lat="44.54136" lon="1.51708">
        <ele>244</ele>
        <time>2011-04-02T13:21:42</time>
      </trkpt>
      <trkpt lat="44.54149" lon="1.51715">
        <ele>226</ele>
        <time>2011-04-02T13:21:44</time>
      </trkpt>
      <trkpt lat="44.54155" lon="1.51719">
        <ele>226</ele>
        <time>2011-04-02T13:21:45</time>
      </trkpt>
      <trkpt lat="44.54167" lon="1.51727">
        <ele>226</ele>
        <time>2011-04-02T13:21:47</time>
      </trkpt>
      <trkpt lat="44.54177" lon="1.51734">
        <ele>226</ele>
        <time>2011-04-02T13:21:49</time>
      </trkpt>
      <trkpt lat="44.54186" lon="1.51739">
        <ele>226</ele>
        <time>2011-04-02T13:21:51</time>
      </trkpt>
      <trkpt lat="44.54191" lon="1.5174">
        <ele>226</ele>
        <time>2011-04-02T13:21:52</time>
      </trkpt>
      <trkpt lat="44.54195" lon="1.51741">
        <ele>226</ele>
        <time>2011-04-02T13:21:53</time>
      </trkpt>
      <trkpt lat="44.542" lon="1.51742">
        <ele>226</ele>
        <time>2011-04-02T13:21:54</time>
      </trkpt>
      <trkpt lat="44.54209" lon="1.51744">
        <ele>225</ele>
        <time>2011-04-02T13:21:56</time>
      </trkpt>
      <trkpt lat="44.54213" lon="1.51745">
        <ele>225</ele>
        <time>2011-04-02T13:21:57</time>
      </trkpt>
      <trkpt lat="44.54222" lon="1.5175">
        <ele>225</ele>
        <time>2011-04-02T13:21:59</time>
      </trkpt>
      <trkpt lat="44.54227" lon="1.51753">
        <ele>225</ele>
        <time>2011-04-02T13:22:00</time>
      </trkpt>
      <trkpt lat="44.54237" lon="1.51759">
        <ele>225</ele>
        <time>2011-04-02T13:22:02</time>
      </trkpt>
      <trkpt lat="44.54242" lon="1.51762">
        <ele>225</ele>
        <time>2011-04-02T13:22:03</time>
      </trkpt>
      <trkpt lat="44.54253" lon="1.51769">
        <ele>225</ele>
        <time>2011-04-02T13:22:05</time>
      </trkpt>
      <trkpt lat="44.54259" lon="1.51772">
        <ele>225</ele>
        <time>2011-04-02T13:22:06</time>
      </trkpt>
      <trkpt lat="44.54271" lon="1.51778">
        <ele>225</ele>
        <time>2011-04-02T13:22:08</time>
      </trkpt>
      <trkpt lat="44.54276" lon="1.51781">
        <ele>225</ele>
        <time>2011-04-02T13:22:09</time>
      </trkpt>
      <trkpt lat="44.54288" lon="1.51788">
        <ele>225</ele>
        <time>2011-04-02T13:22:11</time>
      </trkpt>
      <trkpt lat="44.54294" lon="1.51791">
        <ele>232</ele>
        <time>2011-04-02T13:22:12</time>
      </trkpt>
      <trkpt lat="44.54306" lon="1.518">
        <ele>217</ele>
        <time>2011-04-02T13:22:14</time>
      </trkpt>
      <trkpt lat="44.54311" lon="1.51805">
        <ele>217</ele>
        <time>2011-04-02T13:22:15</time>
      </trkpt>
      <trkpt lat="44.54319" lon="1.51816">
        <ele>217</ele>
        <time>2011-04-02T13:22:17</time>
      </trkpt>
      <trkpt lat="44.54327" lon="1.51825">
        <ele>217</ele>
        <time>2011-04-02T13:22:19</time>
      </trkpt>
      <trkpt lat="44.54333" lon="1.51831">
        <ele>217</ele>
        <time>2011-04-02T13:22:21</time>
      </trkpt>
      <trkpt lat="44.54335" lon="1.51833">
        <ele>217</ele>
        <time>2011-04-02T13:22:22</time>
      </trkpt>
      <trkpt lat="44.54336" lon="1.51836">
        <ele>217</ele>
        <time>2011-04-02T13:22:23</time>
      </trkpt>
      <trkpt lat="44.54337" lon="1.51839">
        <ele>217</ele>
        <time>2011-04-02T13:22:24</time>
      </trkpt>
      <trkpt lat="44.5434" lon="1.51846">
        <ele>217</ele>
        <time>2011-04-02T13:22:26</time>
      </trkpt>
      <trkpt lat="44.54342" lon="1.5185">
        <ele>217</ele>
        <time>2011-04-02T13:22:27</time>
      </trkpt>
      <trkpt lat="44.54344" lon="1.51854">
        <ele>217</ele>
        <time>2011-04-02T13:22:28</time>
      </trkpt>
      <trkpt lat="44.54346" lon="1.51859">
        <ele>217</ele>
        <time>2011-04-02T13:22:29</time>
      </trkpt>
      <trkpt lat="44.54349" lon="1.51867">
        <ele>217</ele>
        <time>2011-04-02T13:22:31</time>
      </trkpt>
      <trkpt lat="44.54351" lon="1.51875">
        <ele>217</ele>
        <time>2011-04-02T13:22:33</time>
      </trkpt>
      <trkpt lat="44.54355" lon="1.51882">
        <ele>215</ele>
        <time>2011-04-02T13:22:35</time>
      </trkpt>
      <trkpt lat="44.54359" lon="1.5189">
        <ele>215</ele>
        <time>2011-04-02T13:22:45</time>
      </trkpt>
      <trkpt lat="44.54361" lon="1.51895">
        <ele>215</ele>
        <time>2011-04-02T13:22:47</time>
      </trkpt>
      <trkpt lat="44.54364" lon="1.51899">
        <ele>215</ele>
        <time>2011-04-02T13:22:49</time>
      </trkpt>
      <trkpt lat="44.54368" lon="1.51902">
        <ele>215</ele>
        <time>2011-04-02T13:22:51</time>
      </trkpt>
      <trkpt lat="44.54373" lon="1.51907">
        <ele>215</ele>
        <time>2011-04-02T13:22:53</time>
      </trkpt>
      <trkpt lat="44.54379" lon="1.51914">
        <ele>207</ele>
        <time>2011-04-02T13:22:55</time>
      </trkpt>
      <trkpt lat="44.54384" lon="1.51925">
        <ele>207</ele>
        <time>2011-04-02T13:22:57</time>
      </trkpt>
      <trkpt lat="44.54387" lon="1.51931">
        <ele>207</ele>
        <time>2011-04-02T13:22:58</time>
      </trkpt>
      <trkpt lat="44.54389" lon="1.51937">
        <ele>207</ele>
        <time>2011-04-02T13:22:59</time>
      </trkpt>
      <trkpt lat="44.54392" lon="1.51947">
        <ele>207</ele>
        <time>2011-04-02T13:23:01</time>
      </trkpt>
      <trkpt lat="44.54394" lon="1.51955">
        <ele>207</ele>
        <time>2011-04-02T13:23:05</time>
      </trkpt>
      <trkpt lat="44.54399" lon="1.51959">
        <ele>204</ele>
        <time>2011-04-02T13:23:16</time>
      </trkpt>
      <trkpt lat="44.54399" lon="1.51959">
        <ele>204</ele>
        <time>2011-04-02T13:23:23</time>
      </trkpt>
      <trkpt lat="44.544" lon="1.51964">
        <ele>204</ele>
        <time>2011-04-02T13:23:42</time>
      </trkpt>
      <trkpt lat="44.54398" lon="1.51964">
        <ele>204</ele>
        <time>2011-04-02T13:23:43</time>
      </trkpt>
      <trkpt lat="44.54398" lon="1.51964">
        <ele>204</ele>
        <time>2011-04-02T13:23:44</time>
      </trkpt>
      <trkpt lat="44.54396" lon="1.51965">
        <ele>204</ele>
        <time>2011-04-02T13:23:45</time>
      </trkpt>
      <trkpt lat="44.54393" lon="1.51967">
        <ele>204</ele>
        <time>2011-04-02T13:23:48</time>
      </trkpt>
      <trkpt lat="44.54391" lon="1.51968">
        <ele>204</ele>
        <time>2011-04-02T13:23:50</time>
      </trkpt>
      <trkpt lat="44.54387" lon="1.51969">
        <ele>204</ele>
        <time>2011-04-02T13:23:52</time>
      </trkpt>
      <trkpt lat="44.54384" lon="1.51971">
        <ele>204</ele>
        <time>2011-04-02T13:23:53</time>
      </trkpt>
      <trkpt lat="44.54381" lon="1.51973">
        <ele>204</ele>
        <time>2011-04-02T13:23:54</time>
      </trkpt>
      <trkpt lat="44.54375" lon="1.51975">
        <ele>206</ele>
        <time>2011-04-02T13:23:56</time>
      </trkpt>
      <trkpt lat="44.54369" lon="1.51979">
        <ele>206</ele>
        <time>2011-04-02T13:23:58</time>
      </trkpt>
      <trkpt lat="44.54366" lon="1.51982">
        <ele>206</ele>
        <time>2011-04-02T13:23:59</time>
      </trkpt>
      <trkpt lat="44.54363" lon="1.51985">
        <ele>206</ele>
        <time>2011-04-02T13:24:00</time>
      </trkpt>
      <trkpt lat="44.5436" lon="1.51989">
        <ele>206</ele>
        <time>2011-04-02T13:24:01</time>
      </trkpt>
      <trkpt lat="44.54353" lon="1.51996">
        <ele>206</ele>
        <time>2011-04-02T13:24:03</time>
      </trkpt>
      <trkpt lat="44.5435" lon="1.51999">
        <ele>206</ele>
        <time>2011-04-02T13:24:04</time>
      </trkpt>
      <trkpt lat="44.54346" lon="1.52003">
        <ele>206</ele>
        <time>2011-04-02T13:24:05</time>
      </trkpt>
      <trkpt lat="44.54338" lon="1.52011">
        <ele>206</ele>
        <time>2011-04-02T13:24:07</time>
      </trkpt>
      <trkpt lat="44.54335" lon="1.52015">
        <ele>206</ele>
        <time>2011-04-02T13:24:08</time>
      </trkpt>
      <trkpt lat="44.54332" lon="1.52018">
        <ele>206</ele>
        <time>2011-04-02T13:24:09</time>
      </trkpt>
      <trkpt lat="44.54329" lon="1.52022">
        <ele>206</ele>
        <time>2011-04-02T13:24:11</time>
      </trkpt>
      <trkpt lat="44.54327" lon="1.52024">
        <ele>206</ele>
        <time>2011-04-02T13:24:12</time>
      </trkpt>
      <trkpt lat="44.54323" lon="1.52029">
        <ele>206</ele>
        <time>2011-04-02T13:24:15</time>
      </trkpt>
      <trkpt lat="44.5432" lon="1.52033">
        <ele>206</ele>
        <time>2011-04-02T13:24:17</time>
      </trkpt>
      <trkpt lat="44.54317" lon="1.52038">
        <ele>206</ele>
        <time>2011-04-02T13:24:19</time>
      </trkpt>
      <trkpt lat="44.54316" lon="1.52041">
        <ele>206</ele>
        <time>2011-04-02T13:24:20</time>
      </trkpt>
      <trkpt lat="44.54315" lon="1.52044">
        <ele>206</ele>
        <time>2011-04-02T13:24:21</time>
      </trkpt>
      <trkpt lat="44.54312" lon="1.52049">
        <ele>206</ele>
        <time>2011-04-02T13:24:23</time>
      </trkpt>
      <trkpt lat="44.54311" lon="1.52052">
        <ele>206</ele>
        <time>2011-04-02T13:24:24</time>
      </trkpt>
      <trkpt lat="44.5431" lon="1.52055">
        <ele>206</ele>
        <time>2011-04-02T13:24:25</time>
      </trkpt>
      <trkpt lat="44.54308" lon="1.5206">
        <ele>206</ele>
        <time>2011-04-02T13:24:27</time>
      </trkpt>
      <trkpt lat="44.54307" lon="1.52063">
        <ele>206</ele>
        <time>2011-04-02T13:24:28</time>
      </trkpt>
      <trkpt lat="44.54306" lon="1.5207">
        <ele>206</ele>
        <time>2011-04-02T13:24:30</time>
      </trkpt>
      <trkpt lat="44.54307" lon="1.52074">
        <ele>206</ele>
        <time>2011-04-02T13:24:31</time>
      </trkpt>
      <trkpt lat="44.54311" lon="1.52085">
        <ele>206</ele>
        <time>2011-04-02T13:24:33</time>
      </trkpt>
      <trkpt lat="44.54312" lon="1.52089">
        <ele>206</ele>
        <time>2011-04-02T13:24:34</time>
      </trkpt>
      <trkpt lat="44.54311" lon="1.52098">
        <ele>206</ele>
        <time>2011-04-02T13:24:36</time>
      </trkpt>
      <trkpt lat="44.54311" lon="1.52103">
        <ele>206</ele>
        <time>2011-04-02T13:24:37</time>
      </trkpt>
      <trkpt lat="44.5431" lon="1.52108">
        <ele>206</ele>
        <time>2011-04-02T13:24:38</time>
      </trkpt>
      <trkpt lat="44.54309" lon="1.5212">
        <ele>206</ele>
        <time>2011-04-02T13:24:40</time>
      </trkpt>
      <trkpt lat="44.54308" lon="1.52132">
        <ele>207</ele>
        <time>2011-04-02T13:24:42</time>
      </trkpt>
      <trkpt lat="44.54308" lon="1.52138">
        <ele>207</ele>
        <time>2011-04-02T13:24:43</time>
      </trkpt>
      <trkpt lat="44.5431" lon="1.52149">
        <ele>207</ele>
        <time>2011-04-02T13:24:45</time>
      </trkpt>
      <trkpt lat="44.54311" lon="1.52154">
        <ele>207</ele>
        <time>2011-04-02T13:24:46</time>
      </trkpt>
      <trkpt lat="44.54312" lon="1.52158">
        <ele>207</ele>
        <time>2011-04-02T13:24:47</time>
      </trkpt>
      <trkpt lat="44.54315" lon="1.52166">
        <ele>207</ele>
        <time>2011-04-02T13:24:49</time>
      </trkpt>
      <trkpt lat="44.54316" lon="1.52169">
        <ele>207</ele>
        <time>2011-04-02T13:24:50</time>
      </trkpt>
      <trkpt lat="44.5432" lon="1.52173">
        <ele>207</ele>
        <time>2011-04-02T13:24:52</time>
      </trkpt>
      <trkpt lat="44.54325" lon="1.52174">
        <ele>207</ele>
        <time>2011-04-02T13:24:54</time>
      </trkpt>
      <trkpt lat="44.54328" lon="1.52176">
        <ele>207</ele>
        <time>2011-04-02T13:24:55</time>
      </trkpt>
      <trkpt lat="44.54333" lon="1.52178">
        <ele>207</ele>
        <time>2011-04-02T13:24:57</time>
      </trkpt>
      <trkpt lat="44.54338" lon="1.52177">
        <ele>207</ele>
        <time>2011-04-02T13:24:59</time>
      </trkpt>
      <trkpt lat="44.54342" lon="1.52177">
        <ele>207</ele>
        <time>2011-04-02T13:25:01</time>
      </trkpt>
      <trkpt lat="44.54347" lon="1.52176">
        <ele>207</ele>
        <time>2011-04-02T13:25:03</time>
      </trkpt>
      <trkpt lat="44.54351" lon="1.52176">
        <ele>207</ele>
        <time>2011-04-02T13:25:05</time>
      </trkpt>
      <trkpt lat="44.54354" lon="1.52176">
        <ele>207</ele>
        <time>2011-04-02T13:25:06</time>
      </trkpt>
      <trkpt lat="44.54362" lon="1.52177">
        <ele>207</ele>
        <time>2011-04-02T13:25:09</time>
      </trkpt>
      <trkpt lat="44.54365" lon="1.52178">
        <ele>207</ele>
        <time>2011-04-02T13:25:10</time>
      </trkpt>
      <trkpt lat="44.54369" lon="1.52179">
        <ele>207</ele>
        <time>2011-04-02T13:25:11</time>
      </trkpt>
      <trkpt lat="44.54374" lon="1.52179">
        <ele>207</ele>
        <time>2011-04-02T13:25:12</time>
      </trkpt>
      <trkpt lat="44.54383" lon="1.52179">
        <ele>212</ele>
        <time>2011-04-02T13:25:14</time>
      </trkpt>
      <trkpt lat="44.54388" lon="1.52179">
        <ele>212</ele>
        <time>2011-04-02T13:25:15</time>
      </trkpt>
      <trkpt lat="44.54397" lon="1.5218">
        <ele>212</ele>
        <time>2011-04-02T13:25:17</time>
      </trkpt>
      <trkpt lat="44.54401" lon="1.52181">
        <ele>212</ele>
        <time>2011-04-02T13:25:18</time>
      </trkpt>
      <trkpt lat="44.54409" lon="1.52183">
        <ele>212</ele>
        <time>2011-04-02T13:25:20</time>
      </trkpt>
      <trkpt lat="44.54412" lon="1.52186">
        <ele>212</ele>
        <time>2011-04-02T13:25:21</time>
      </trkpt>
      <trkpt lat="44.54419" lon="1.5219">
        <ele>212</ele>
        <time>2011-04-02T13:25:23</time>
      </trkpt>
      <trkpt lat="44.54423" lon="1.52194">
        <ele>212</ele>
        <time>2011-04-02T13:25:24</time>
      </trkpt>
      <trkpt lat="44.54427" lon="1.52198">
        <ele>212</ele>
        <time>2011-04-02T13:25:25</time>
      </trkpt>
      <trkpt lat="44.54437" lon="1.52207">
        <ele>212</ele>
        <time>2011-04-02T13:25:27</time>
      </trkpt>
      <trkpt lat="44.54443" lon="1.52211">
        <ele>199</ele>
        <time>2011-04-02T13:25:28</time>
      </trkpt>
      <trkpt lat="44.54449" lon="1.52215">
        <ele>199</ele>
        <time>2011-04-02T13:25:29</time>
      </trkpt>
      <trkpt lat="44.5446" lon="1.52218">
        <ele>201</ele>
        <time>2011-04-02T13:25:31</time>
      </trkpt>
      <trkpt lat="44.54466" lon="1.52221">
        <ele>201</ele>
        <time>2011-04-02T13:25:32</time>
      </trkpt>
      <trkpt lat="44.54473" lon="1.52223">
        <ele>201</ele>
        <time>2011-04-02T13:25:34</time>
      </trkpt>
      <trkpt lat="44.54479" lon="1.52226">
        <ele>201</ele>
        <time>2011-04-02T13:25:36</time>
      </trkpt>
      <trkpt lat="44.54481" lon="1.52227">
        <ele>201</ele>
        <time>2011-04-02T13:25:37</time>
      </trkpt>
      <trkpt lat="44.54483" lon="1.52229">
        <ele>201</ele>
        <time>2011-04-02T13:25:38</time>
      </trkpt>
      <trkpt lat="44.54485" lon="1.52235">
        <ele>201</ele>
        <time>2011-04-02T13:25:40</time>
      </trkpt>
      <trkpt lat="44.54487" lon="1.52245">
        <ele>201</ele>
        <time>2011-04-02T13:25:42</time>
      </trkpt>
      <trkpt lat="44.54488" lon="1.5225">
        <ele>201</ele>
        <time>2011-04-02T13:25:43</time>
      </trkpt>
      <trkpt lat="44.54488" lon="1.52254">
        <ele>201</ele>
        <time>2011-04-02T13:25:44</time>
      </trkpt>
      <trkpt lat="44.54489" lon="1.5226">
        <ele>201</ele>
        <time>2011-04-02T13:25:46</time>
      </trkpt>
      <trkpt lat="44.5449" lon="1.52268">
        <ele>201</ele>
        <time>2011-04-02T13:25:48</time>
      </trkpt>
      <trkpt lat="44.5449" lon="1.52275">
        <ele>201</ele>
        <time>2011-04-02T13:25:50</time>
      </trkpt>
      <trkpt lat="44.5449" lon="1.52285">
        <ele>201</ele>
        <time>2011-04-02T13:25:53</time>
      </trkpt>
      <trkpt lat="44.54489" lon="1.52291">
        <ele>201</ele>
        <time>2011-04-02T13:25:55</time>
      </trkpt>
      <trkpt lat="44.54489" lon="1.52295">
        <ele>204</ele>
        <time>2011-04-02T13:25:56</time>
      </trkpt>
      <trkpt lat="44.54488" lon="1.52304">
        <ele>204</ele>
        <time>2011-04-02T13:25:58</time>
      </trkpt>
      <trkpt lat="44.54488" lon="1.52314">
        <ele>204</ele>
        <time>2011-04-02T13:26:00</time>
      </trkpt>
      <trkpt lat="44.54488" lon="1.52318">
        <ele>204</ele>
        <time>2011-04-02T13:26:01</time>
      </trkpt>
      <trkpt lat="44.54487" lon="1.52327">
        <ele>204</ele>
        <time>2011-04-02T13:26:03</time>
      </trkpt>
      <trkpt lat="44.54487" lon="1.52337">
        <ele>204</ele>
        <time>2011-04-02T13:26:05</time>
      </trkpt>
      <trkpt lat="44.54487" lon="1.52342">
        <ele>204</ele>
        <time>2011-04-02T13:26:06</time>
      </trkpt>
      <trkpt lat="44.54488" lon="1.52353">
        <ele>204</ele>
        <time>2011-04-02T13:26:08</time>
      </trkpt>
      <trkpt lat="44.54488" lon="1.52364">
        <ele>204</ele>
        <time>2011-04-02T13:26:10</time>
      </trkpt>
      <trkpt lat="44.54489" lon="1.52369">
        <ele>204</ele>
        <time>2011-04-02T13:26:11</time>
      </trkpt>
      <trkpt lat="44.54489" lon="1.52374">
        <ele>204</ele>
        <time>2011-04-02T13:26:12</time>
      </trkpt>
      <trkpt lat="44.54488" lon="1.52379">
        <ele>213</ele>
        <time>2011-04-02T13:26:13</time>
      </trkpt>
      <trkpt lat="44.54487" lon="1.52389">
        <ele>213</ele>
        <time>2011-04-02T13:26:15</time>
      </trkpt>
      <trkpt lat="44.54485" lon="1.52398">
        <ele>213</ele>
        <time>2011-04-02T13:26:17</time>
      </trkpt>
      <trkpt lat="44.54484" lon="1.52403">
        <ele>213</ele>
        <time>2011-04-02T13:26:18</time>
      </trkpt>
      <trkpt lat="44.5448" lon="1.52415">
        <ele>213</ele>
        <time>2011-04-02T13:26:20</time>
      </trkpt>
      <trkpt lat="44.54477" lon="1.52425">
        <ele>213</ele>
        <time>2011-04-02T13:26:22</time>
      </trkpt>
      <trkpt lat="44.54474" lon="1.52437">
        <ele>213</ele>
        <time>2011-04-02T13:26:24</time>
      </trkpt>
      <trkpt lat="44.54472" lon="1.52443">
        <ele>213</ele>
        <time>2011-04-02T13:26:25</time>
      </trkpt>
      <trkpt lat="44.5447" lon="1.52453">
        <ele>213</ele>
        <time>2011-04-02T13:26:27</time>
      </trkpt>
      <trkpt lat="44.54468" lon="1.52458">
        <ele>213</ele>
        <time>2011-04-02T13:26:28</time>
      </trkpt>
      <trkpt lat="44.54465" lon="1.52467">
        <ele>221</ele>
        <time>2011-04-02T13:26:30</time>
      </trkpt>
      <trkpt lat="44.54463" lon="1.52471">
        <ele>221</ele>
        <time>2011-04-02T13:26:31</time>
      </trkpt>
      <trkpt lat="44.54459" lon="1.52479">
        <ele>221</ele>
        <time>2011-04-02T13:26:33</time>
      </trkpt>
      <trkpt lat="44.54458" lon="1.52485">
        <ele>200</ele>
        <time>2011-04-02T13:26:35</time>
      </trkpt>
      <trkpt lat="44.54455" lon="1.52492">
        <ele>200</ele>
        <time>2011-04-02T13:26:37</time>
      </trkpt>
      <trkpt lat="44.54453" lon="1.52496">
        <ele>200</ele>
        <time>2011-04-02T13:26:38</time>
      </trkpt>
      <trkpt lat="44.54451" lon="1.52503">
        <ele>200</ele>
        <time>2011-04-02T13:26:40</time>
      </trkpt>
      <trkpt lat="44.54448" lon="1.52515">
        <ele>200</ele>
        <time>2011-04-02T13:26:42</time>
      </trkpt>
      <trkpt lat="44.54444" lon="1.52527">
        <ele>200</ele>
        <time>2011-04-02T13:26:44</time>
      </trkpt>
      <trkpt lat="44.54442" lon="1.52533">
        <ele>200</ele>
        <time>2011-04-02T13:26:45</time>
      </trkpt>
      <trkpt lat="44.54436" lon="1.52546">
        <ele>205</ele>
        <time>2011-04-02T13:26:47</time>
      </trkpt>
      <trkpt lat="44.54432" lon="1.52558">
        <ele>205</ele>
        <time>2011-04-02T13:26:49</time>
      </trkpt>
      <trkpt lat="44.5443" lon="1.52563">
        <ele>205</ele>
        <time>2011-04-02T13:26:50</time>
      </trkpt>
      <trkpt lat="44.54425" lon="1.52576">
        <ele>205</ele>
        <time>2011-04-02T13:26:52</time>
      </trkpt>
      <trkpt lat="44.54424" lon="1.52583">
        <ele>205</ele>
        <time>2011-04-02T13:26:53</time>
      </trkpt>
      <trkpt lat="44.54422" lon="1.5259">
        <ele>205</ele>
        <time>2011-04-02T13:26:54</time>
      </trkpt>
      <trkpt lat="44.54419" lon="1.52602">
        <ele>205</ele>
        <time>2011-04-02T13:26:56</time>
      </trkpt>
      <trkpt lat="44.54418" lon="1.52608">
        <ele>205</ele>
        <time>2011-04-02T13:26:57</time>
      </trkpt>
      <trkpt lat="44.54415" lon="1.52621">
        <ele>205</ele>
        <time>2011-04-02T13:26:59</time>
      </trkpt>
      <trkpt lat="44.54411" lon="1.52634">
        <ele>210</ele>
        <time>2011-04-02T13:27:01</time>
      </trkpt>
      <trkpt lat="44.5441" lon="1.52641">
        <ele>210</ele>
        <time>2011-04-02T13:27:02</time>
      </trkpt>
      <trkpt lat="44.54407" lon="1.52654">
        <ele>210</ele>
        <time>2011-04-02T13:27:04</time>
      </trkpt>
      <trkpt lat="44.54404" lon="1.52665">
        <ele>210</ele>
        <time>2011-04-02T13:27:06</time>
      </trkpt>
      <trkpt lat="44.54402" lon="1.5267">
        <ele>210</ele>
        <time>2011-04-02T13:27:07</time>
      </trkpt>
      <trkpt lat="44.544" lon="1.52676">
        <ele>210</ele>
        <time>2011-04-02T13:27:08</time>
      </trkpt>
      <trkpt lat="44.54396" lon="1.52688">
        <ele>210</ele>
        <time>2011-04-02T13:27:10</time>
      </trkpt>
      <trkpt lat="44.54394" lon="1.52695">
        <ele>210</ele>
        <time>2011-04-02T13:27:11</time>
      </trkpt>
      <trkpt lat="44.54392" lon="1.52702">
        <ele>210</ele>
        <time>2011-04-02T13:27:12</time>
      </trkpt>
      <trkpt lat="44.54389" lon="1.52718">
        <ele>208</ele>
        <time>2011-04-02T13:27:14</time>
      </trkpt>
      <trkpt lat="44.54388" lon="1.52737">
        <ele>208</ele>
        <time>2011-04-02T13:27:16</time>
      </trkpt>
      <trkpt lat="44.54389" lon="1.52756">
        <ele>208</ele>
        <time>2011-04-02T13:27:18</time>
      </trkpt>
      <trkpt lat="44.54392" lon="1.52772">
        <ele>208</ele>
        <time>2011-04-02T13:27:20</time>
      </trkpt>
      <trkpt lat="44.54393" lon="1.52786">
        <ele>208</ele>
        <time>2011-04-02T13:27:22</time>
      </trkpt>
      <trkpt lat="44.54394" lon="1.52792">
        <ele>204</ele>
        <time>2011-04-02T13:27:23</time>
      </trkpt>
      <trkpt lat="44.54396" lon="1.52804">
        <ele>204</ele>
        <time>2011-04-02T13:27:25</time>
      </trkpt>
      <trkpt lat="44.54397" lon="1.52809">
        <ele>204</ele>
        <time>2011-04-02T13:27:26</time>
      </trkpt>
      <trkpt lat="44.54398" lon="1.5282">
        <ele>204</ele>
        <time>2011-04-02T13:27:28</time>
      </trkpt>
      <trkpt lat="44.54398" lon="1.52831">
        <ele>204</ele>
        <time>2011-04-02T13:27:30</time>
      </trkpt>
      <trkpt lat="44.54398" lon="1.52837">
        <ele>204</ele>
        <time>2011-04-02T13:27:31</time>
      </trkpt>
      <trkpt lat="44.54398" lon="1.52848">
        <ele>204</ele>
        <time>2011-04-02T13:27:33</time>
      </trkpt>
      <trkpt lat="44.54397" lon="1.52854">
        <ele>204</ele>
        <time>2011-04-02T13:27:34</time>
      </trkpt>
      <trkpt lat="44.54395" lon="1.52865">
        <ele>204</ele>
        <time>2011-04-02T13:27:36</time>
      </trkpt>
      <trkpt lat="44.54393" lon="1.52871">
        <ele>204</ele>
        <time>2011-04-02T13:27:37</time>
      </trkpt>
      <trkpt lat="44.5439" lon="1.52877">
        <ele>213</ele>
        <time>2011-04-02T13:27:38</time>
      </trkpt>
      <trkpt lat="44.54384" lon="1.52887">
        <ele>213</ele>
        <time>2011-04-02T13:27:40</time>
      </trkpt>
      <trkpt lat="44.54379" lon="1.52897">
        <ele>213</ele>
        <time>2011-04-02T13:27:42</time>
      </trkpt>
      <trkpt lat="44.54377" lon="1.52902">
        <ele>213</ele>
        <time>2011-04-02T13:27:43</time>
      </trkpt>
      <trkpt lat="44.54374" lon="1.52911">
        <ele>195</ele>
        <time>2011-04-02T13:27:45</time>
      </trkpt>
      <trkpt lat="44.54373" lon="1.5292">
        <ele>195</ele>
        <time>2011-04-02T13:27:47</time>
      </trkpt>
      <trkpt lat="44.54375" lon="1.52928">
        <ele>195</ele>
        <time>2011-04-02T13:27:49</time>
      </trkpt>
      <trkpt lat="44.54378" lon="1.52937">
        <ele>213</ele>
        <time>2011-04-02T13:27:51</time>
      </trkpt>
      <trkpt lat="44.5438" lon="1.52941">
        <ele>213</ele>
        <time>2011-04-02T13:27:52</time>
      </trkpt>
      <trkpt lat="44.54381" lon="1.52946">
        <ele>213</ele>
        <time>2011-04-02T13:27:53</time>
      </trkpt>
      <trkpt lat="44.54385" lon="1.52956">
        <ele>213</ele>
        <time>2011-04-02T13:27:55</time>
      </trkpt>
      <trkpt lat="44.54387" lon="1.52961">
        <ele>213</ele>
        <time>2011-04-02T13:27:56</time>
      </trkpt>
      <trkpt lat="44.54391" lon="1.52971">
        <ele>213</ele>
        <time>2011-04-02T13:27:58</time>
      </trkpt>
      <trkpt lat="44.54393" lon="1.52976">
        <ele>213</ele>
        <time>2011-04-02T13:27:59</time>
      </trkpt>
      <trkpt lat="44.54396" lon="1.52987">
        <ele>213</ele>
        <time>2011-04-02T13:28:01</time>
      </trkpt>
      <trkpt lat="44.54399" lon="1.52998">
        <ele>213</ele>
        <time>2011-04-02T13:28:03</time>
      </trkpt>
      <trkpt lat="44.54401" lon="1.53004">
        <ele>213</ele>
        <time>2011-04-02T13:28:04</time>
      </trkpt>
      <trkpt lat="44.54403" lon="1.5301">
        <ele>213</ele>
        <time>2011-04-02T13:28:05</time>
      </trkpt>
      <trkpt lat="44.54406" lon="1.53022">
        <ele>213</ele>
        <time>2011-04-02T13:28:07</time>
      </trkpt>
      <trkpt lat="44.54407" lon="1.53029">
        <ele>213</ele>
        <time>2011-04-02T13:28:08</time>
      </trkpt>
      <trkpt lat="44.54408" lon="1.53036">
        <ele>213</ele>
        <time>2011-04-02T13:28:09</time>
      </trkpt>
      <trkpt lat="44.54409" lon="1.53051">
        <ele>207</ele>
        <time>2011-04-02T13:28:11</time>
      </trkpt>
      <trkpt lat="44.5441" lon="1.53058">
        <ele>207</ele>
        <time>2011-04-02T13:28:12</time>
      </trkpt>
      <trkpt lat="44.54411" lon="1.5307">
        <ele>207</ele>
        <time>2011-04-02T13:28:14</time>
      </trkpt>
      <trkpt lat="44.54411" lon="1.53083">
        <ele>207</ele>
        <time>2011-04-02T13:28:16</time>
      </trkpt>
      <trkpt lat="44.54415" lon="1.53092">
        <ele>207</ele>
        <time>2011-04-02T13:28:18</time>
      </trkpt>
      <trkpt lat="44.54416" lon="1.53097">
        <ele>207</ele>
        <time>2011-04-02T13:28:19</time>
      </trkpt>
      <trkpt lat="44.54416" lon="1.53106">
        <ele>207</ele>
        <time>2011-04-02T13:28:20</time>
      </trkpt>
      <trkpt lat="44.54416" lon="1.53125">
        <ele>207</ele>
        <time>2011-04-02T13:28:22</time>
      </trkpt>
      <trkpt lat="44.54416" lon="1.53133">
        <ele>207</ele>
        <time>2011-04-02T13:28:23</time>
      </trkpt>
      <trkpt lat="44.54417" lon="1.53148">
        <ele>207</ele>
        <time>2011-04-02T13:28:25</time>
      </trkpt>
      <trkpt lat="44.54418" lon="1.53155">
        <ele>207</ele>
        <time>2011-04-02T13:28:26</time>
      </trkpt>
      <trkpt lat="44.54418" lon="1.53167">
        <ele>207</ele>
        <time>2011-04-02T13:28:28</time>
      </trkpt>
      <trkpt lat="44.54418" lon="1.53172">
        <ele>207</ele>
        <time>2011-04-02T13:28:29</time>
      </trkpt>
      <trkpt lat="44.54418" lon="1.53184">
        <ele>207</ele>
        <time>2011-04-02T13:28:31</time>
      </trkpt>
      <trkpt lat="44.54418" lon="1.53189">
        <ele>207</ele>
        <time>2011-04-02T13:28:32</time>
      </trkpt>
      <trkpt lat="44.54418" lon="1.53194">
        <ele>207</ele>
        <time>2011-04-02T13:28:33</time>
      </trkpt>
      <trkpt lat="44.54416" lon="1.53205">
        <ele>207</ele>
        <time>2011-04-02T13:28:35</time>
      </trkpt>
      <trkpt lat="44.54415" lon="1.53214">
        <ele>209</ele>
        <time>2011-04-02T13:28:37</time>
      </trkpt>
      <trkpt lat="44.54414" lon="1.53218">
        <ele>209</ele>
        <time>2011-04-02T13:28:38</time>
      </trkpt>
      <trkpt lat="44.54411" lon="1.53225">
        <ele>209</ele>
        <time>2011-04-02T13:28:40</time>
      </trkpt>
      <trkpt lat="44.54408" lon="1.53231">
        <ele>209</ele>
        <time>2011-04-02T13:28:42</time>
      </trkpt>
      <trkpt lat="44.54405" lon="1.53238">
        <ele>209</ele>
        <time>2011-04-02T13:28:44</time>
      </trkpt>
      <trkpt lat="44.54401" lon="1.53244">
        <ele>209</ele>
        <time>2011-04-02T13:28:46</time>
      </trkpt>
      <trkpt lat="44.54395" lon="1.53251">
        <ele>209</ele>
        <time>2011-04-02T13:28:48</time>
      </trkpt>
      <trkpt lat="44.54388" lon="1.53259">
        <ele>209</ele>
        <time>2011-04-02T13:28:50</time>
      </trkpt>
      <trkpt lat="44.54385" lon="1.53264">
        <ele>209</ele>
        <time>2011-04-02T13:28:51</time>
      </trkpt>
      <trkpt lat="44.54381" lon="1.53273">
        <ele>209</ele>
        <time>2011-04-02T13:28:53</time>
      </trkpt>
      <trkpt lat="44.54376" lon="1.53282">
        <ele>209</ele>
        <time>2011-04-02T13:28:55</time>
      </trkpt>
      <trkpt lat="44.54373" lon="1.53288">
        <ele>196</ele>
        <time>2011-04-02T13:28:56</time>
      </trkpt>
      <trkpt lat="44.54367" lon="1.533">
        <ele>194</ele>
        <time>2011-04-02T13:28:58</time>
      </trkpt>
      <trkpt lat="44.54361" lon="1.53311">
        <ele>194</ele>
        <time>2011-04-02T13:29:00</time>
      </trkpt>
      <trkpt lat="44.54356" lon="1.53323">
        <ele>194</ele>
        <time>2011-04-02T13:29:02</time>
      </trkpt>
      <trkpt lat="44.54353" lon="1.53333">
        <ele>194</ele>
        <time>2011-04-02T13:29:04</time>
      </trkpt>
      <trkpt lat="44.54353" lon="1.53337">
        <ele>194</ele>
        <time>2011-04-02T13:29:05</time>
      </trkpt>
      <trkpt lat="44.54353" lon="1.53347">
        <ele>194</ele>
        <time>2011-04-02T13:29:07</time>
      </trkpt>
      <trkpt lat="44.54354" lon="1.53352">
        <ele>194</ele>
        <time>2011-04-02T13:29:08</time>
      </trkpt>
      <trkpt lat="44.54358" lon="1.53357">
        <ele>194</ele>
        <time>2011-04-02T13:29:10</time>
      </trkpt>
      <trkpt lat="44.54364" lon="1.5336">
        <ele>194</ele>
        <time>2011-04-02T13:29:12</time>
      </trkpt>
      <trkpt lat="44.5437" lon="1.53361">
        <ele>194</ele>
        <time>2011-04-02T13:29:14</time>
      </trkpt>
      <trkpt lat="44.54374" lon="1.53362">
        <ele>194</ele>
        <time>2011-04-02T13:29:15</time>
      </trkpt>
      <trkpt lat="44.54381" lon="1.53363">
        <ele>203</ele>
        <time>2011-04-02T13:29:17</time>
      </trkpt>
      <trkpt lat="44.54388" lon="1.53364">
        <ele>203</ele>
        <time>2011-04-02T13:29:19</time>
      </trkpt>
      <trkpt lat="44.54396" lon="1.53366">
        <ele>203</ele>
        <time>2011-04-02T13:29:21</time>
      </trkpt>
      <trkpt lat="44.544" lon="1.53368">
        <ele>203</ele>
        <time>2011-04-02T13:29:22</time>
      </trkpt>
      <trkpt lat="44.54406" lon="1.53371">
        <ele>203</ele>
        <time>2011-04-02T13:29:24</time>
      </trkpt>
      <trkpt lat="44.5441" lon="1.53371">
        <ele>203</ele>
        <time>2011-04-02T13:29:26</time>
      </trkpt>
      <trkpt lat="44.5441" lon="1.53376">
        <ele>202</ele>
        <time>2011-04-02T13:29:43</time>
      </trkpt>
      <trkpt lat="44.5441" lon="1.53376">
        <ele>202</ele>
        <time>2011-04-02T13:29:46</time>
      </trkpt>
      <trkpt lat="44.54412" lon="1.53379">
        <ele>202</ele>
        <time>2011-04-02T13:29:46</time>
      </trkpt>
      <trkpt lat="44.54412" lon="1.53379">
        <ele>202</ele>
        <time>2011-04-02T13:29:47</time>
      </trkpt>
      <trkpt lat="44.54414" lon="1.53373">
        <ele>203</ele>
        <time>2011-04-02T13:30:04</time>
      </trkpt>
      <trkpt lat="44.54414" lon="1.53373">
        <ele>203</ele>
        <time>2011-04-02T13:30:05</time>
      </trkpt>
      <trkpt lat="44.54414" lon="1.53367">
        <ele>203</ele>
        <time>2011-04-02T13:30:11</time>
      </trkpt>
      <trkpt lat="44.54414" lon="1.53367">
        <ele>203</ele>
        <time>2011-04-02T13:30:12</time>
      </trkpt>
      <trkpt lat="44.54419" lon="1.53368">
        <ele>203</ele>
        <time>2011-04-02T13:30:25</time>
      </trkpt>
      <trkpt lat="44.54419" lon="1.53368">
        <ele>203</ele>
        <time>2011-04-02T13:30:27</time>
      </trkpt>
      <trkpt lat="44.5442" lon="1.53375">
        <ele>202</ele>
        <time>2011-04-02T13:30:33</time>
      </trkpt>
      <trkpt lat="44.54418" lon="1.53373">
        <ele>203</ele>
        <time>2011-04-02T13:30:45</time>
      </trkpt>
      <trkpt lat="44.54417" lon="1.53379">
        <ele>202</ele>
        <time>2011-04-02T13:31:01</time>
      </trkpt>
      <trkpt lat="44.54416" lon="1.53379">
        <ele>202</ele>
        <time>2011-04-02T13:31:02</time>
      </trkpt>
      <trkpt lat="44.54416" lon="1.53379">
        <ele>202</ele>
        <time>2011-04-02T13:31:03</time>
      </trkpt>
      <trkpt lat="44.54414" lon="1.53381">
        <ele>202</ele>
        <time>2011-04-02T13:31:05</time>
      </trkpt>
      <trkpt lat="44.54415" lon="1.53386">
        <ele>202</ele>
        <time>2011-04-02T13:31:07</time>
      </trkpt>
      <trkpt lat="44.54414" lon="1.5339">
        <ele>202</ele>
        <time>2011-04-02T13:31:08</time>
      </trkpt>
      <trkpt lat="44.54413" lon="1.53393">
        <ele>202</ele>
        <time>2011-04-02T13:31:09</time>
      </trkpt>
      <trkpt lat="44.54411" lon="1.53396">
        <ele>202</ele>
        <time>2011-04-02T13:31:10</time>
      </trkpt>
      <trkpt lat="44.54405" lon="1.534">
        <ele>202</ele>
        <time>2011-04-02T13:31:12</time>
      </trkpt>
      <trkpt lat="44.54398" lon="1.53403">
        <ele>202</ele>
        <time>2011-04-02T13:31:14</time>
      </trkpt>
      <trkpt lat="44.54394" lon="1.53403">
        <ele>202</ele>
        <time>2011-04-02T13:31:15</time>
      </trkpt>
      <trkpt lat="44.5439" lon="1.53404">
        <ele>202</ele>
        <time>2011-04-02T13:31:16</time>
      </trkpt>
      <trkpt lat="44.54382" lon="1.53405">
        <ele>202</ele>
        <time>2011-04-02T13:31:18</time>
      </trkpt>
      <trkpt lat="44.54374" lon="1.53407">
        <ele>196</ele>
        <time>2011-04-02T13:31:20</time>
      </trkpt>
      <trkpt lat="44.54366" lon="1.5341">
        <ele>196</ele>
        <time>2011-04-02T13:31:22</time>
      </trkpt>
      <trkpt lat="44.54362" lon="1.53411">
        <ele>196</ele>
        <time>2011-04-02T13:31:23</time>
      </trkpt>
      <trkpt lat="44.54358" lon="1.53413">
        <ele>196</ele>
        <time>2011-04-02T13:31:24</time>
      </trkpt>
      <trkpt lat="44.54351" lon="1.53414">
        <ele>196</ele>
        <time>2011-04-02T13:31:26</time>
      </trkpt>
      <trkpt lat="44.54347" lon="1.53415">
        <ele>196</ele>
        <time>2011-04-02T13:31:27</time>
      </trkpt>
      <trkpt lat="44.54339" lon="1.53417">
        <ele>196</ele>
        <time>2011-04-02T13:31:29</time>
      </trkpt>
      <trkpt lat="44.54332" lon="1.53419">
        <ele>196</ele>
        <time>2011-04-02T13:31:31</time>
      </trkpt>
      <trkpt lat="44.54329" lon="1.53421">
        <ele>196</ele>
        <time>2011-04-02T13:31:32</time>
      </trkpt>
      <trkpt lat="44.54326" lon="1.53423">
        <ele>196</ele>
        <time>2011-04-02T13:31:33</time>
      </trkpt>
      <trkpt lat="44.5432" lon="1.53428">
        <ele>196</ele>
        <time>2011-04-02T13:31:35</time>
      </trkpt>
      <trkpt lat="44.54314" lon="1.53436">
        <ele>196</ele>
        <time>2011-04-02T13:31:37</time>
      </trkpt>
      <trkpt lat="44.54309" lon="1.53447">
        <ele>196</ele>
        <time>2011-04-02T13:31:39</time>
      </trkpt>
      <trkpt lat="44.54306" lon="1.53451">
        <ele>196</ele>
        <time>2011-04-02T13:31:40</time>
      </trkpt>
      <trkpt lat="44.54303" lon="1.53457">
        <ele>196</ele>
        <time>2011-04-02T13:31:41</time>
      </trkpt>
      <trkpt lat="44.54294" lon="1.53476">
        <ele>211</ele>
        <time>2011-04-02T13:31:43</time>
      </trkpt>
      <trkpt lat="44.54291" lon="1.53482">
        <ele>193</ele>
        <time>2011-04-02T13:31:44</time>
      </trkpt>
      <trkpt lat="44.54285" lon="1.53496">
        <ele>193</ele>
        <time>2011-04-02T13:31:46</time>
      </trkpt>
      <trkpt lat="44.5428" lon="1.53509">
        <ele>193</ele>
        <time>2011-04-02T13:31:48</time>
      </trkpt>
      <trkpt lat="44.54278" lon="1.53515">
        <ele>193</ele>
        <time>2011-04-02T13:31:49</time>
      </trkpt>
      <trkpt lat="44.54273" lon="1.53528">
        <ele>193</ele>
        <time>2011-04-02T13:31:51</time>
      </trkpt>
      <trkpt lat="44.5427" lon="1.53539">
        <ele>193</ele>
        <time>2011-04-02T13:31:53</time>
      </trkpt>
      <trkpt lat="44.54266" lon="1.53551">
        <ele>197</ele>
        <time>2011-04-02T13:31:55</time>
      </trkpt>
      <trkpt lat="44.54264" lon="1.53557">
        <ele>197</ele>
        <time>2011-04-02T13:31:56</time>
      </trkpt>
      <trkpt lat="44.54262" lon="1.53571">
        <ele>197</ele>
        <time>2011-04-02T13:31:58</time>
      </trkpt>
      <trkpt lat="44.54259" lon="1.53583">
        <ele>197</ele>
        <time>2011-04-02T13:32:00</time>
      </trkpt>
      <trkpt lat="44.54257" lon="1.53589">
        <ele>197</ele>
        <time>2011-04-02T13:32:01</time>
      </trkpt>
      <trkpt lat="44.54255" lon="1.53594">
        <ele>197</ele>
        <time>2011-04-02T13:32:02</time>
      </trkpt>
      <trkpt lat="44.54252" lon="1.53606">
        <ele>197</ele>
        <time>2011-04-02T13:32:04</time>
      </trkpt>
      <trkpt lat="44.54251" lon="1.53612">
        <ele>197</ele>
        <time>2011-04-02T13:32:05</time>
      </trkpt>
      <trkpt lat="44.54249" lon="1.53625">
        <ele>197</ele>
        <time>2011-04-02T13:32:07</time>
      </trkpt>
      <trkpt lat="44.54248" lon="1.53637">
        <ele>203</ele>
        <time>2011-04-02T13:32:09</time>
      </trkpt>
      <trkpt lat="44.54247" lon="1.53643">
        <ele>203</ele>
        <time>2011-04-02T13:32:10</time>
      </trkpt>
      <trkpt lat="44.54246" lon="1.53654">
        <ele>203</ele>
        <time>2011-04-02T13:32:12</time>
      </trkpt>
      <trkpt lat="44.54245" lon="1.53665">
        <ele>203</ele>
        <time>2011-04-02T13:32:14</time>
      </trkpt>
      <trkpt lat="44.54244" lon="1.53677">
        <ele>203</ele>
        <time>2011-04-02T13:32:16</time>
      </trkpt>
      <trkpt lat="44.54244" lon="1.53683">
        <ele>203</ele>
        <time>2011-04-02T13:32:17</time>
      </trkpt>
      <trkpt lat="44.54243" lon="1.53693">
        <ele>203</ele>
        <time>2011-04-02T13:32:19</time>
      </trkpt>
      <trkpt lat="44.54242" lon="1.53699">
        <ele>203</ele>
        <time>2011-04-02T13:32:20</time>
      </trkpt>
      <trkpt lat="44.54242" lon="1.53705">
        <ele>203</ele>
        <time>2011-04-02T13:32:21</time>
      </trkpt>
      <trkpt lat="44.54242" lon="1.53719">
        <ele>206</ele>
        <time>2011-04-02T13:32:23</time>
      </trkpt>
      <trkpt lat="44.54242" lon="1.53724">
        <ele>206</ele>
        <time>2011-04-02T13:32:24</time>
      </trkpt>
      <trkpt lat="44.54241" lon="1.53731">
        <ele>206</ele>
        <time>2011-04-02T13:32:25</time>
      </trkpt>
      <trkpt lat="44.5424" lon="1.53743">
        <ele>206</ele>
        <time>2011-04-02T13:32:27</time>
      </trkpt>
      <trkpt lat="44.54239" lon="1.5375">
        <ele>206</ele>
        <time>2011-04-02T13:32:28</time>
      </trkpt>
      <trkpt lat="44.54236" lon="1.53764">
        <ele>206</ele>
        <time>2011-04-02T13:32:30</time>
      </trkpt>
      <trkpt lat="44.54235" lon="1.5377">
        <ele>206</ele>
        <time>2011-04-02T13:32:31</time>
      </trkpt>
      <trkpt lat="44.54231" lon="1.53781">
        <ele>206</ele>
        <time>2011-04-02T13:32:33</time>
      </trkpt>
      <trkpt lat="44.54227" lon="1.53791">
        <ele>206</ele>
        <time>2011-04-02T13:32:35</time>
      </trkpt>
      <trkpt lat="44.54222" lon="1.53801">
        <ele>214</ele>
        <time>2011-04-02T13:32:37</time>
      </trkpt>
      <trkpt lat="44.54219" lon="1.53807">
        <ele>214</ele>
        <time>2011-04-02T13:32:38</time>
      </trkpt>
      <trkpt lat="44.54214" lon="1.53816">
        <ele>214</ele>
        <time>2011-04-02T13:32:40</time>
      </trkpt>
      <trkpt lat="44.54207" lon="1.53823">
        <ele>198</ele>
        <time>2011-04-02T13:32:42</time>
      </trkpt>
      <trkpt lat="44.54202" lon="1.53825">
        <ele>198</ele>
        <time>2011-04-02T13:32:43</time>
      </trkpt>
      <trkpt lat="44.54197" lon="1.53825">
        <ele>198</ele>
        <time>2011-04-02T13:32:44</time>
      </trkpt>
      <trkpt lat="44.54186" lon="1.5382">
        <ele>198</ele>
        <time>2011-04-02T13:32:46</time>
      </trkpt>
      <trkpt lat="44.54173" lon="1.53814">
        <ele>198</ele>
        <time>2011-04-02T13:32:48</time>
      </trkpt>
      <trkpt lat="44.54162" lon="1.53812">
        <ele>198</ele>
        <time>2011-04-02T13:32:50</time>
      </trkpt>
      <trkpt lat="44.54156" lon="1.53813">
        <ele>198</ele>
        <time>2011-04-02T13:32:51</time>
      </trkpt>
      <trkpt lat="44.54147" lon="1.53816">
        <ele>198</ele>
        <time>2011-04-02T13:32:53</time>
      </trkpt>
      <trkpt lat="44.54144" lon="1.53817">
        <ele>198</ele>
        <time>2011-04-02T13:32:54</time>
      </trkpt>
      <trkpt lat="44.54139" lon="1.53821">
        <ele>198</ele>
        <time>2011-04-02T13:32:56</time>
      </trkpt>
      <trkpt lat="44.54137" lon="1.53823">
        <ele>198</ele>
        <time>2011-04-02T13:32:57</time>
      </trkpt>
      <trkpt lat="44.54135" lon="1.53827">
        <ele>198</ele>
        <time>2011-04-02T13:32:58</time>
      </trkpt>
      <trkpt lat="44.5413" lon="1.53834">
        <ele>198</ele>
        <time>2011-04-02T13:33:00</time>
      </trkpt>
      <trkpt lat="44.54123" lon="1.53843">
        <ele>202</ele>
        <time>2011-04-02T13:33:02</time>
      </trkpt>
      <trkpt lat="44.54116" lon="1.53853">
        <ele>202</ele>
        <time>2011-04-02T13:33:04</time>
      </trkpt>
      <trkpt lat="44.54109" lon="1.53862">
        <ele>202</ele>
        <time>2011-04-02T13:33:06</time>
      </trkpt>
      <trkpt lat="44.54103" lon="1.53871">
        <ele>202</ele>
        <time>2011-04-02T13:33:08</time>
      </trkpt>
      <trkpt lat="44.54097" lon="1.53881">
        <ele>199</ele>
        <time>2011-04-02T13:33:10</time>
      </trkpt>
      <trkpt lat="44.54094" lon="1.53886">
        <ele>199</ele>
        <time>2011-04-02T13:33:11</time>
      </trkpt>
      <trkpt lat="44.5409" lon="1.53892">
        <ele>199</ele>
        <time>2011-04-02T13:33:12</time>
      </trkpt>
      <trkpt lat="44.54084" lon="1.53903">
        <ele>199</ele>
        <time>2011-04-02T13:33:14</time>
      </trkpt>
      <trkpt lat="44.54079" lon="1.53914">
        <ele>199</ele>
        <time>2011-04-02T13:33:16</time>
      </trkpt>
      <trkpt lat="44.54074" lon="1.53923">
        <ele>199</ele>
        <time>2011-04-02T13:33:18</time>
      </trkpt>
      <trkpt lat="44.5407" lon="1.53934">
        <ele>199</ele>
        <time>2011-04-02T13:33:20</time>
      </trkpt>
      <trkpt lat="44.54066" lon="1.53945">
        <ele>199</ele>
        <time>2011-04-02T13:33:22</time>
      </trkpt>
      <trkpt lat="44.54062" lon="1.53956">
        <ele>199</ele>
        <time>2011-04-02T13:33:24</time>
      </trkpt>
      <trkpt lat="44.5406" lon="1.53968">
        <ele>201</ele>
        <time>2011-04-02T13:33:26</time>
      </trkpt>
      <trkpt lat="44.54058" lon="1.53973">
        <ele>201</ele>
        <time>2011-04-02T13:33:27</time>
      </trkpt>
      <trkpt lat="44.54055" lon="1.53985">
        <ele>201</ele>
        <time>2011-04-02T13:33:29</time>
      </trkpt>
      <trkpt lat="44.54052" lon="1.53997">
        <ele>201</ele>
        <time>2011-04-02T13:33:31</time>
      </trkpt>
      <trkpt lat="44.54049" lon="1.54011">
        <ele>201</ele>
        <time>2011-04-02T13:33:33</time>
      </trkpt>
      <trkpt lat="44.54047" lon="1.54018">
        <ele>201</ele>
        <time>2011-04-02T13:33:34</time>
      </trkpt>
      <trkpt lat="44.54043" lon="1.5403">
        <ele>201</ele>
        <time>2011-04-02T13:33:36</time>
      </trkpt>
      <trkpt lat="44.54041" lon="1.54037">
        <ele>208</ele>
        <time>2011-04-02T13:33:37</time>
      </trkpt>
      <trkpt lat="44.54036" lon="1.54049">
        <ele>197</ele>
        <time>2011-04-02T13:33:39</time>
      </trkpt>
      <trkpt lat="44.54034" lon="1.54056">
        <ele>197</ele>
        <time>2011-04-02T13:33:40</time>
      </trkpt>
      <trkpt lat="44.5403" lon="1.54067">
        <ele>197</ele>
        <time>2011-04-02T13:33:42</time>
      </trkpt>
      <trkpt lat="44.54028" lon="1.54074">
        <ele>197</ele>
        <time>2011-04-02T13:33:43</time>
      </trkpt>
      <trkpt lat="44.54025" lon="1.54085">
        <ele>197</ele>
        <time>2011-04-02T13:33:45</time>
      </trkpt>
      <trkpt lat="44.54022" lon="1.54097">
        <ele>197</ele>
        <time>2011-04-02T13:33:47</time>
      </trkpt>
      <trkpt lat="44.5402" lon="1.54104">
        <ele>197</ele>
        <time>2011-04-02T13:33:48</time>
      </trkpt>
      <trkpt lat="44.5402" lon="1.54115">
        <ele>197</ele>
        <time>2011-04-02T13:33:50</time>
      </trkpt>
      <trkpt lat="44.5402" lon="1.54121">
        <ele>197</ele>
        <time>2011-04-02T13:33:51</time>
      </trkpt>
      <trkpt lat="44.5402" lon="1.54131">
        <ele>193</ele>
        <time>2011-04-02T13:33:53</time>
      </trkpt>
      <trkpt lat="44.5402" lon="1.54137">
        <ele>193</ele>
        <time>2011-04-02T13:33:54</time>
      </trkpt>
      <trkpt lat="44.54022" lon="1.54148">
        <ele>193</ele>
        <time>2011-04-02T13:33:56</time>
      </trkpt>
      <trkpt lat="44.54025" lon="1.54159">
        <ele>193</ele>
        <time>2011-04-02T13:33:58</time>
      </trkpt>
      <trkpt lat="44.54028" lon="1.54171">
        <ele>193</ele>
        <time>2011-04-02T13:34:00</time>
      </trkpt>
      <trkpt lat="44.54032" lon="1.54184">
        <ele>193</ele>
        <time>2011-04-02T13:34:02</time>
      </trkpt>
      <trkpt lat="44.54034" lon="1.5419">
        <ele>193</ele>
        <time>2011-04-02T13:34:03</time>
      </trkpt>
      <trkpt lat="44.54038" lon="1.54202">
        <ele>193</ele>
        <time>2011-04-02T13:34:05</time>
      </trkpt>
      <trkpt lat="44.54041" lon="1.54207">
        <ele>193</ele>
        <time>2011-04-02T13:34:06</time>
      </trkpt>
      <trkpt lat="44.54046" lon="1.54217">
        <ele>199</ele>
        <time>2011-04-02T13:34:08</time>
      </trkpt>
      <trkpt lat="44.5405" lon="1.54226">
        <ele>199</ele>
        <time>2011-04-02T13:34:10</time>
      </trkpt>
      <trkpt lat="44.54053" lon="1.54231">
        <ele>199</ele>
        <time>2011-04-02T13:34:11</time>
      </trkpt>
      <trkpt lat="44.54057" lon="1.5424">
        <ele>199</ele>
        <time>2011-04-02T13:34:13</time>
      </trkpt>
      <trkpt lat="44.54059" lon="1.54244">
        <ele>199</ele>
        <time>2011-04-02T13:34:14</time>
      </trkpt>
      <trkpt lat="44.54064" lon="1.54252">
        <ele>199</ele>
        <time>2011-04-02T13:34:16</time>
      </trkpt>
      <trkpt lat="44.54068" lon="1.5426">
        <ele>199</ele>
        <time>2011-04-02T13:34:18</time>
      </trkpt>
      <trkpt lat="44.54071" lon="1.54267">
        <ele>199</ele>
        <time>2011-04-02T13:34:20</time>
      </trkpt>
      <trkpt lat="44.54074" lon="1.54273">
        <ele>199</ele>
        <time>2011-04-02T13:34:22</time>
      </trkpt>
      <trkpt lat="44.54075" lon="1.54277">
        <ele>199</ele>
        <time>2011-04-02T13:34:23</time>
      </trkpt>
      <trkpt lat="44.54076" lon="1.5428">
        <ele>199</ele>
        <time>2011-04-02T13:34:24</time>
      </trkpt>
      <trkpt lat="44.54077" lon="1.54284">
        <ele>199</ele>
        <time>2011-04-02T13:34:25</time>
      </trkpt>
      <trkpt lat="44.5408" lon="1.54292">
        <ele>196</ele>
        <time>2011-04-02T13:34:28</time>
      </trkpt>
      <trkpt lat="44.54082" lon="1.54296">
        <ele>196</ele>
        <time>2011-04-02T13:34:30</time>
      </trkpt>
      <trkpt lat="44.54084" lon="1.54302">
        <ele>196</ele>
        <time>2011-04-02T13:34:32</time>
      </trkpt>
      <trkpt lat="44.54085" lon="1.54305">
        <ele>196</ele>
        <time>2011-04-02T13:34:33</time>
      </trkpt>
      <trkpt lat="44.54087" lon="1.54313">
        <ele>196</ele>
        <time>2011-04-02T13:34:35</time>
      </trkpt>
      <trkpt lat="44.54086" lon="1.54316">
        <ele>196</ele>
        <time>2011-04-02T13:34:36</time>
      </trkpt>
      <trkpt lat="44.54086" lon="1.54319">
        <ele>196</ele>
        <time>2011-04-02T13:34:37</time>
      </trkpt>
      <trkpt lat="44.54084" lon="1.54325">
        <ele>196</ele>
        <time>2011-04-02T13:34:39</time>
      </trkpt>
      <trkpt lat="44.54083" lon="1.54329">
        <ele>196</ele>
        <time>2011-04-02T13:34:40</time>
      </trkpt>
      <trkpt lat="44.5408" lon="1.54336">
        <ele>196</ele>
        <time>2011-04-02T13:34:42</time>
      </trkpt>
      <trkpt lat="44.54077" lon="1.54346">
        <ele>196</ele>
        <time>2011-04-02T13:34:44</time>
      </trkpt>
      <trkpt lat="44.54076" lon="1.54355">
        <ele>196</ele>
        <time>2011-04-02T13:34:46</time>
      </trkpt>
      <trkpt lat="44.54076" lon="1.5436">
        <ele>196</ele>
        <time>2011-04-02T13:34:47</time>
      </trkpt>
      <trkpt lat="44.54077" lon="1.54368">
        <ele>196</ele>
        <time>2011-04-02T13:34:49</time>
      </trkpt>
      <trkpt lat="44.54077" lon="1.54372">
        <ele>196</ele>
        <time>2011-04-02T13:34:50</time>
      </trkpt>
      <trkpt lat="44.54076" lon="1.54375">
        <ele>195</ele>
        <time>2011-04-02T13:34:51</time>
      </trkpt>
      <trkpt lat="44.54075" lon="1.54382">
        <ele>195</ele>
        <time>2011-04-02T13:34:53</time>
      </trkpt>
      <trkpt lat="44.54074" lon="1.54386">
        <ele>195</ele>
        <time>2011-04-02T13:34:54</time>
      </trkpt>
      <trkpt lat="44.54074" lon="1.54389">
        <ele>195</ele>
        <time>2011-04-02T13:34:55</time>
      </trkpt>
      <trkpt lat="44.54073" lon="1.54393">
        <ele>195</ele>
        <time>2011-04-02T13:34:56</time>
      </trkpt>
      <trkpt lat="44.54072" lon="1.54396">
        <ele>195</ele>
        <time>2011-04-02T13:34:57</time>
      </trkpt>
      <trkpt lat="44.54071" lon="1.54403">
        <ele>195</ele>
        <time>2011-04-02T13:34:59</time>
      </trkpt>
      <trkpt lat="44.5407" lon="1.54413">
        <ele>195</ele>
        <time>2011-04-02T13:35:02</time>
      </trkpt>
      <trkpt lat="44.5407" lon="1.54415">
        <ele>195</ele>
        <time>2011-04-02T13:35:03</time>
      </trkpt>
      <trkpt lat="44.54069" lon="1.54421">
        <ele>195</ele>
        <time>2011-04-02T13:35:05</time>
      </trkpt>
      <trkpt lat="44.54069" lon="1.5443">
        <ele>195</ele>
        <time>2011-04-02T13:35:07</time>
      </trkpt>
      <trkpt lat="44.54069" lon="1.54441">
        <ele>195</ele>
        <time>2011-04-02T13:35:09</time>
      </trkpt>
      <trkpt lat="44.54069" lon="1.54446">
        <ele>195</ele>
        <time>2011-04-02T13:35:10</time>
      </trkpt>
      <trkpt lat="44.54069" lon="1.54454">
        <ele>195</ele>
        <time>2011-04-02T13:35:12</time>
      </trkpt>
      <trkpt lat="44.54068" lon="1.54459">
        <ele>189</ele>
        <time>2011-04-02T13:35:13</time>
      </trkpt>
      <trkpt lat="44.54062" lon="1.54463">
        <ele>189</ele>
        <time>2011-04-02T13:35:15</time>
      </trkpt>
      <trkpt lat="44.54059" lon="1.54465">
        <ele>189</ele>
        <time>2011-04-02T13:35:16</time>
      </trkpt>
      <trkpt lat="44.54057" lon="1.54467">
        <ele>189</ele>
        <time>2011-04-02T13:35:17</time>
      </trkpt>
      <trkpt lat="44.54055" lon="1.54473">
        <ele>189</ele>
        <time>2011-04-02T13:35:20</time>
      </trkpt>
      <trkpt lat="44.54054" lon="1.54476">
        <ele>189</ele>
        <time>2011-04-02T13:35:38</time>
      </trkpt>
      <trkpt lat="44.54054" lon="1.54476">
        <ele>189</ele>
        <time>2011-04-02T13:35:39</time>
      </trkpt>
      <trkpt lat="44.5405" lon="1.54485">
        <ele>189</ele>
        <time>2011-04-02T13:35:41</time>
      </trkpt>
      <trkpt lat="44.5405" lon="1.54485">
        <ele>189</ele>
        <time>2011-04-02T13:35:42</time>
      </trkpt>
      <trkpt lat="44.54049" lon="1.54488">
        <ele>189</ele>
        <time>2011-04-02T13:35:42</time>
      </trkpt>
      <trkpt lat="44.54047" lon="1.54494">
        <ele>189</ele>
        <time>2011-04-02T13:35:44</time>
      </trkpt>
      <trkpt lat="44.54047" lon="1.54497">
        <ele>189</ele>
        <time>2011-04-02T13:35:45</time>
      </trkpt>
      <trkpt lat="44.54047" lon="1.545">
        <ele>189</ele>
        <time>2011-04-02T13:35:46</time>
      </trkpt>
      <trkpt lat="44.54049" lon="1.54507">
        <ele>189</ele>
        <time>2011-04-02T13:35:48</time>
      </trkpt>
      <trkpt lat="44.54051" lon="1.54511">
        <ele>189</ele>
        <time>2011-04-02T13:35:49</time>
      </trkpt>
      <trkpt lat="44.54054" lon="1.54518">
        <ele>189</ele>
        <time>2011-04-02T13:35:51</time>
      </trkpt>
      <trkpt lat="44.54055" lon="1.54521">
        <ele>189</ele>
        <time>2011-04-02T13:35:52</time>
      </trkpt>
      <trkpt lat="44.54059" lon="1.54531">
        <ele>189</ele>
        <time>2011-04-02T13:35:54</time>
      </trkpt>
      <trkpt lat="44.54062" lon="1.54535">
        <ele>189</ele>
        <time>2011-04-02T13:35:55</time>
      </trkpt>
      <trkpt lat="44.54064" lon="1.5454">
        <ele>189</ele>
        <time>2011-04-02T13:35:56</time>
      </trkpt>
      <trkpt lat="44.54071" lon="1.54548">
        <ele>192</ele>
        <time>2011-04-02T13:35:58</time>
      </trkpt>
      <trkpt lat="44.54076" lon="1.54555">
        <ele>192</ele>
        <time>2011-04-02T13:36:00</time>
      </trkpt>
      <trkpt lat="44.54078" lon="1.54559">
        <ele>192</ele>
        <time>2011-04-02T13:36:01</time>
      </trkpt>
      <trkpt lat="44.5408" lon="1.54562">
        <ele>192</ele>
        <time>2011-04-02T13:36:02</time>
      </trkpt>
      <trkpt lat="44.54083" lon="1.5457">
        <ele>192</ele>
        <time>2011-04-02T13:36:04</time>
      </trkpt>
      <trkpt lat="44.54088" lon="1.54579">
        <ele>192</ele>
        <time>2011-04-02T13:36:06</time>
      </trkpt>
      <trkpt lat="44.54091" lon="1.54583">
        <ele>192</ele>
        <time>2011-04-02T13:36:07</time>
      </trkpt>
      <trkpt lat="44.54098" lon="1.54591">
        <ele>192</ele>
        <time>2011-04-02T13:36:09</time>
      </trkpt>
      <trkpt lat="44.54106" lon="1.54601">
        <ele>192</ele>
        <time>2011-04-02T13:36:11</time>
      </trkpt>
      <trkpt lat="44.5411" lon="1.54605">
        <ele>192</ele>
        <time>2011-04-02T13:36:12</time>
      </trkpt>
      <trkpt lat="44.54114" lon="1.5461">
        <ele>192</ele>
        <time>2011-04-02T13:36:13</time>
      </trkpt>
      <trkpt lat="44.54121" lon="1.5462">
        <ele>192</ele>
        <time>2011-04-02T13:36:15</time>
      </trkpt>
      <trkpt lat="44.54124" lon="1.54625">
        <ele>192</ele>
        <time>2011-04-02T13:36:16</time>
      </trkpt>
      <trkpt lat="44.5413" lon="1.54634">
        <ele>188</ele>
        <time>2011-04-02T13:36:18</time>
      </trkpt>
      <trkpt lat="44.54132" lon="1.54639">
        <ele>188</ele>
        <time>2011-04-02T13:36:19</time>
      </trkpt>
      <trkpt lat="44.54137" lon="1.54647">
        <ele>188</ele>
        <time>2011-04-02T13:36:21</time>
      </trkpt>
      <trkpt lat="44.54143" lon="1.54655">
        <ele>188</ele>
        <time>2011-04-02T13:36:23</time>
      </trkpt>
      <trkpt lat="44.5415" lon="1.54663">
        <ele>188</ele>
        <time>2011-04-02T13:36:25</time>
      </trkpt>
      <trkpt lat="44.54153" lon="1.54666">
        <ele>188</ele>
        <time>2011-04-02T13:36:26</time>
      </trkpt>
      <trkpt lat="44.5416" lon="1.54674">
        <ele>188</ele>
        <time>2011-04-02T13:36:28</time>
      </trkpt>
      <trkpt lat="44.54164" lon="1.54677">
        <ele>188</ele>
        <time>2011-04-02T13:36:29</time>
      </trkpt>
      <trkpt lat="44.54171" lon="1.54683">
        <ele>188</ele>
        <time>2011-04-02T13:36:31</time>
      </trkpt>
      <trkpt lat="44.54178" lon="1.54687">
        <ele>188</ele>
        <time>2011-04-02T13:36:33</time>
      </trkpt>
      <trkpt lat="44.54181" lon="1.54689">
        <ele>188</ele>
        <time>2011-04-02T13:36:34</time>
      </trkpt>
      <trkpt lat="44.54188" lon="1.54693">
        <ele>188</ele>
        <time>2011-04-02T13:36:36</time>
      </trkpt>
      <trkpt lat="44.54195" lon="1.54695">
        <ele>188</ele>
        <time>2011-04-02T13:36:38</time>
      </trkpt>
      <trkpt lat="44.54202" lon="1.54697">
        <ele>188</ele>
        <time>2011-04-02T13:36:40</time>
      </trkpt>
      <trkpt lat="44.54205" lon="1.54698">
        <ele>188</ele>
        <time>2011-04-02T13:36:41</time>
      </trkpt>
      <trkpt lat="44.54211" lon="1.54698">
        <ele>190</ele>
        <time>2011-04-02T13:36:43</time>
      </trkpt>
      <trkpt lat="44.54218" lon="1.54697">
        <ele>190</ele>
        <time>2011-04-02T13:36:45</time>
      </trkpt>
      <trkpt lat="44.54223" lon="1.54693">
        <ele>190</ele>
        <time>2011-04-02T13:36:47</time>
      </trkpt>
      <trkpt lat="44.54228" lon="1.54689">
        <ele>190</ele>
        <time>2011-04-02T13:36:49</time>
      </trkpt>
      <trkpt lat="44.5423" lon="1.54687">
        <ele>190</ele>
        <time>2011-04-02T13:36:50</time>
      </trkpt>
      <trkpt lat="44.54235" lon="1.54683">
        <ele>190</ele>
        <time>2011-04-02T13:36:52</time>
      </trkpt>
      <trkpt lat="44.5424" lon="1.54679">
        <ele>190</ele>
        <time>2011-04-02T13:36:54</time>
      </trkpt>
      <trkpt lat="44.54242" lon="1.54677">
        <ele>190</ele>
        <time>2011-04-02T13:36:55</time>
      </trkpt>
      <trkpt lat="44.54246" lon="1.54673">
        <ele>190</ele>
        <time>2011-04-02T13:36:57</time>
      </trkpt>
      <trkpt lat="44.54248" lon="1.5467">
        <ele>190</ele>
        <time>2011-04-02T13:36:58</time>
      </trkpt>
      <trkpt lat="44.5425" lon="1.54666">
        <ele>190</ele>
        <time>2011-04-02T13:37:00</time>
      </trkpt>
      <trkpt lat="44.54252" lon="1.54662">
        <ele>190</ele>
        <time>2011-04-02T13:37:02</time>
      </trkpt>
      <trkpt lat="44.54253" lon="1.54659">
        <ele>190</ele>
        <time>2011-04-02T13:37:03</time>
      </trkpt>
      <trkpt lat="44.54254" lon="1.5465">
        <ele>190</ele>
        <time>2011-04-02T13:37:06</time>
      </trkpt>
      <trkpt lat="44.54255" lon="1.54644">
        <ele>190</ele>
        <time>2011-04-02T13:37:08</time>
      </trkpt>
      <trkpt lat="44.54258" lon="1.54637">
        <ele>190</ele>
        <time>2011-04-02T13:37:10</time>
      </trkpt>
      <trkpt lat="44.54261" lon="1.54632">
        <ele>190</ele>
        <time>2011-04-02T13:37:12</time>
      </trkpt>
      <trkpt lat="44.54263" lon="1.5463">
        <ele>190</ele>
        <time>2011-04-02T13:37:13</time>
      </trkpt>
      <trkpt lat="44.54265" lon="1.54628">
        <ele>190</ele>
        <time>2011-04-02T13:37:14</time>
      </trkpt>
      <trkpt lat="44.54269" lon="1.54627">
        <ele>190</ele>
        <time>2011-04-02T13:37:16</time>
      </trkpt>
      <trkpt lat="44.54273" lon="1.54628">
        <ele>190</ele>
        <time>2011-04-02T13:37:18</time>
      </trkpt>
      <trkpt lat="44.54277" lon="1.54628">
        <ele>190</ele>
        <time>2011-04-02T13:37:20</time>
      </trkpt>
      <trkpt lat="44.54277" lon="1.54628">
        <ele>190</ele>
        <time>2011-04-02T13:37:39</time>
      </trkpt>
      <trkpt lat="44.54279" lon="1.54629">
        <ele>190</ele>
        <time>2011-04-02T13:37:54</time>
      </trkpt>
      <trkpt lat="44.54282" lon="1.5463">
        <ele>190</ele>
        <time>2011-04-02T13:37:56</time>
      </trkpt>
      <trkpt lat="44.54282" lon="1.5463">
        <ele>190</ele>
        <time>2011-04-02T13:37:57</time>
      </trkpt>
      <trkpt lat="44.54285" lon="1.54632">
        <ele>190</ele>
        <time>2011-04-02T13:37:58</time>
      </trkpt>
      <trkpt lat="44.5429" lon="1.54635">
        <ele>190</ele>
        <time>2011-04-02T13:38:00</time>
      </trkpt>
      <trkpt lat="44.54295" lon="1.54642">
        <ele>186</ele>
        <time>2011-04-02T13:38:02</time>
      </trkpt>
      <trkpt lat="44.543" lon="1.54651">
        <ele>186</ele>
        <time>2011-04-02T13:38:04</time>
      </trkpt>
      <trkpt lat="44.54303" lon="1.54657">
        <ele>186</ele>
        <time>2011-04-02T13:38:05</time>
      </trkpt>
      <trkpt lat="44.54307" lon="1.54667">
        <ele>186</ele>
        <time>2011-04-02T13:38:07</time>
      </trkpt>
      <trkpt lat="44.54311" lon="1.54678">
        <ele>186</ele>
        <time>2011-04-02T13:38:09</time>
      </trkpt>
      <trkpt lat="44.54313" lon="1.54684">
        <ele>186</ele>
        <time>2011-04-02T13:38:10</time>
      </trkpt>
      <trkpt lat="44.54317" lon="1.54699">
        <ele>186</ele>
        <time>2011-04-02T13:38:12</time>
      </trkpt>
      <trkpt lat="44.54318" lon="1.54715">
        <ele>187</ele>
        <time>2011-04-02T13:38:14</time>
      </trkpt>
      <trkpt lat="44.54318" lon="1.54722">
        <ele>187</ele>
        <time>2011-04-02T13:38:15</time>
      </trkpt>
      <trkpt lat="44.54316" lon="1.54737">
        <ele>187</ele>
        <time>2011-04-02T13:38:17</time>
      </trkpt>
      <trkpt lat="44.54315" lon="1.54744">
        <ele>187</ele>
        <time>2011-04-02T13:38:18</time>
      </trkpt>
      <trkpt lat="44.54312" lon="1.54758">
        <ele>187</ele>
        <time>2011-04-02T13:38:20</time>
      </trkpt>
      <trkpt lat="44.5431" lon="1.54765">
        <ele>187</ele>
        <time>2011-04-02T13:38:21</time>
      </trkpt>
      <trkpt lat="44.54308" lon="1.54781">
        <ele>187</ele>
        <time>2011-04-02T13:38:23</time>
      </trkpt>
      <trkpt lat="44.54307" lon="1.54789">
        <ele>187</ele>
        <time>2011-04-02T13:38:24</time>
      </trkpt>
      <trkpt lat="44.54303" lon="1.54807">
        <ele>185</ele>
        <time>2011-04-02T13:38:26</time>
      </trkpt>
      <trkpt lat="44.54301" lon="1.54816">
        <ele>185</ele>
        <time>2011-04-02T13:38:27</time>
      </trkpt>
      <trkpt lat="44.54296" lon="1.54834">
        <ele>185</ele>
        <time>2011-04-02T13:38:29</time>
      </trkpt>
      <trkpt lat="44.54294" lon="1.54844">
        <ele>185</ele>
        <time>2011-04-02T13:38:30</time>
      </trkpt>
      <trkpt lat="44.54291" lon="1.54865">
        <ele>214</ele>
        <time>2011-04-02T13:38:32</time>
      </trkpt>
      <trkpt lat="44.54286" lon="1.54885">
        <ele>206</ele>
        <time>2011-04-02T13:38:34</time>
      </trkpt>
      <trkpt lat="44.5428" lon="1.54905">
        <ele>206</ele>
        <time>2011-04-02T13:38:36</time>
      </trkpt>
      <trkpt lat="44.54277" lon="1.54914">
        <ele>206</ele>
        <time>2011-04-02T13:38:37</time>
      </trkpt>
      <trkpt lat="44.5427" lon="1.5493">
        <ele>206</ele>
        <time>2011-04-02T13:38:39</time>
      </trkpt>
      <trkpt lat="44.54268" lon="1.54937">
        <ele>206</ele>
        <time>2011-04-02T13:38:40</time>
      </trkpt>
      <trkpt lat="44.54265" lon="1.54944">
        <ele>206</ele>
        <time>2011-04-02T13:38:41</time>
      </trkpt>
      <trkpt lat="44.5426" lon="1.54958">
        <ele>206</ele>
        <time>2011-04-02T13:38:43</time>
      </trkpt>
      <trkpt lat="44.54256" lon="1.54974">
        <ele>195</ele>
        <time>2011-04-02T13:38:45</time>
      </trkpt>
      <trkpt lat="44.54253" lon="1.54982">
        <ele>195</ele>
        <time>2011-04-02T13:38:46</time>
      </trkpt>
      <trkpt lat="44.5425" lon="1.54997">
        <ele>195</ele>
        <time>2011-04-02T13:38:48</time>
      </trkpt>
      <trkpt lat="44.54249" lon="1.55005">
        <ele>195</ele>
        <time>2011-04-02T13:38:49</time>
      </trkpt>
      <trkpt lat="44.5425" lon="1.55023">
        <ele>195</ele>
        <time>2011-04-02T13:38:51</time>
      </trkpt>
      <trkpt lat="44.54251" lon="1.55032">
        <ele>195</ele>
        <time>2011-04-02T13:38:52</time>
      </trkpt>
      <trkpt lat="44.54252" lon="1.55042">
        <ele>195</ele>
        <time>2011-04-02T13:38:53</time>
      </trkpt>
      <trkpt lat="44.54258" lon="1.5506">
        <ele>189</ele>
        <time>2011-04-02T13:38:55</time>
      </trkpt>
      <trkpt lat="44.54261" lon="1.55069">
        <ele>189</ele>
        <time>2011-04-02T13:38:56</time>
      </trkpt>
      <trkpt lat="44.54267" lon="1.55084">
        <ele>189</ele>
        <time>2011-04-02T13:38:58</time>
      </trkpt>
      <trkpt lat="44.5427" lon="1.55091">
        <ele>189</ele>
        <time>2011-04-02T13:38:59</time>
      </trkpt>
      <trkpt lat="44.54268" lon="1.55106">
        <ele>189</ele>
        <time>2011-04-02T13:39:01</time>
      </trkpt>
      <trkpt lat="44.54265" lon="1.55118">
        <ele>189</ele>
        <time>2011-04-02T13:39:03</time>
      </trkpt>
      <trkpt lat="44.54265" lon="1.55127">
        <ele>184</ele>
        <time>2011-04-02T13:39:19</time>
      </trkpt>
      <trkpt lat="44.54265" lon="1.55132">
        <ele>184</ele>
        <time>2011-04-02T13:39:21</time>
      </trkpt>
      <trkpt lat="44.54265" lon="1.55136">
        <ele>184</ele>
        <time>2011-04-02T13:39:22</time>
      </trkpt>
      <trkpt lat="44.54263" lon="1.55146">
        <ele>184</ele>
        <time>2011-04-02T13:39:24</time>
      </trkpt>
      <trkpt lat="44.54261" lon="1.5515">
        <ele>184</ele>
        <time>2011-04-02T13:39:25</time>
      </trkpt>
      <trkpt lat="44.54257" lon="1.55159">
        <ele>184</ele>
        <time>2011-04-02T13:39:27</time>
      </trkpt>
      <trkpt lat="44.54253" lon="1.55168">
        <ele>184</ele>
        <time>2011-04-02T13:39:29</time>
      </trkpt>
      <trkpt lat="44.5425" lon="1.55171">
        <ele>184</ele>
        <time>2011-04-02T13:39:30</time>
      </trkpt>
      <trkpt lat="44.54245" lon="1.55178">
        <ele>184</ele>
        <time>2011-04-02T13:39:32</time>
      </trkpt>
      <trkpt lat="44.54238" lon="1.55184">
        <ele>184</ele>
        <time>2011-04-02T13:39:34</time>
      </trkpt>
      <trkpt lat="44.54234" lon="1.55187">
        <ele>184</ele>
        <time>2011-04-02T13:39:35</time>
      </trkpt>
      <trkpt lat="44.54223" lon="1.55194">
        <ele>184</ele>
        <time>2011-04-02T13:39:37</time>
      </trkpt>
      <trkpt lat="44.54216" lon="1.55203">
        <ele>184</ele>
        <time>2011-04-02T13:39:39</time>
      </trkpt>
      <trkpt lat="44.54212" lon="1.55207">
        <ele>184</ele>
        <time>2011-04-02T13:39:40</time>
      </trkpt>
      <trkpt lat="44.54205" lon="1.55217">
        <ele>184</ele>
        <time>2011-04-02T13:39:42</time>
      </trkpt>
      <trkpt lat="44.54198" lon="1.55225">
        <ele>184</ele>
        <time>2011-04-02T13:39:44</time>
      </trkpt>
      <trkpt lat="44.54188" lon="1.55236">
        <ele>184</ele>
        <time>2011-04-02T13:39:46</time>
      </trkpt>
      <trkpt lat="44.54183" lon="1.55241">
        <ele>184</ele>
        <time>2011-04-02T13:39:47</time>
      </trkpt>
      <trkpt lat="44.54174" lon="1.55253">
        <ele>184</ele>
        <time>2011-04-02T13:39:49</time>
      </trkpt>
      <trkpt lat="44.54169" lon="1.5526">
        <ele>184</ele>
        <time>2011-04-02T13:39:50</time>
      </trkpt>
      <trkpt lat="44.54162" lon="1.5527">
        <ele>184</ele>
        <time>2011-04-02T13:39:52</time>
      </trkpt>
      <trkpt lat="44.54155" lon="1.5528">
        <ele>184</ele>
        <time>2011-04-02T13:39:54</time>
      </trkpt>
      <trkpt lat="44.54148" lon="1.55288">
        <ele>184</ele>
        <time>2011-04-02T13:39:56</time>
      </trkpt>
      <trkpt lat="44.54145" lon="1.55293">
        <ele>183</ele>
        <time>2011-04-02T13:39:57</time>
      </trkpt>
      <trkpt lat="44.54141" lon="1.55297">
        <ele>183</ele>
        <time>2011-04-02T13:39:58</time>
      </trkpt>
      <trkpt lat="44.54133" lon="1.55307">
        <ele>183</ele>
        <time>2011-04-02T13:40:00</time>
      </trkpt>
      <trkpt lat="44.54122" lon="1.55316">
        <ele>182</ele>
        <time>2011-04-02T13:40:02</time>
      </trkpt>
      <trkpt lat="44.54117" lon="1.55319">
        <ele>182</ele>
        <time>2011-04-02T13:40:03</time>
      </trkpt>
      <trkpt lat="44.54111" lon="1.55322">
        <ele>182</ele>
        <time>2011-04-02T13:40:04</time>
      </trkpt>
      <trkpt lat="44.54104" lon="1.55323">
        <ele>182</ele>
        <time>2011-04-02T13:40:06</time>
      </trkpt>
      <trkpt lat="44.54097" lon="1.55324">
        <ele>182</ele>
        <time>2011-04-02T13:40:08</time>
      </trkpt>
      <trkpt lat="44.54092" lon="1.55322">
        <ele>182</ele>
        <time>2011-04-02T13:40:09</time>
      </trkpt>
      <trkpt lat="44.54086" lon="1.5532">
        <ele>182</ele>
        <time>2011-04-02T13:40:10</time>
      </trkpt>
      <trkpt lat="44.5408" lon="1.55318">
        <ele>182</ele>
        <time>2011-04-02T13:40:11</time>
      </trkpt>
      <trkpt lat="44.54066" lon="1.55315">
        <ele>182</ele>
        <time>2011-04-02T13:40:13</time>
      </trkpt>
      <trkpt lat="44.54059" lon="1.55313">
        <ele>182</ele>
        <time>2011-04-02T13:40:14</time>
      </trkpt>
      <trkpt lat="44.54045" lon="1.55312">
        <ele>182</ele>
        <time>2011-04-02T13:40:16</time>
      </trkpt>
      <trkpt lat="44.54036" lon="1.55314">
        <ele>187</ele>
        <time>2011-04-02T13:40:18</time>
      </trkpt>
      <trkpt lat="44.54029" lon="1.55318">
        <ele>187</ele>
        <time>2011-04-02T13:40:20</time>
      </trkpt>
      <trkpt lat="44.54027" lon="1.55321">
        <ele>187</ele>
        <time>2011-04-02T13:40:21</time>
      </trkpt>
      <trkpt lat="44.54025" lon="1.55324">
        <ele>187</ele>
        <time>2011-04-02T13:40:22</time>
      </trkpt>
      <trkpt lat="44.54018" lon="1.55333">
        <ele>187</ele>
        <time>2011-04-02T13:40:24</time>
      </trkpt>
      <trkpt lat="44.54014" lon="1.55338">
        <ele>187</ele>
        <time>2011-04-02T13:40:25</time>
      </trkpt>
      <trkpt lat="44.54007" lon="1.55347">
        <ele>187</ele>
        <time>2011-04-02T13:40:27</time>
      </trkpt>
      <trkpt lat="44.54003" lon="1.55353">
        <ele>187</ele>
        <time>2011-04-02T13:40:28</time>
      </trkpt>
      <trkpt lat="44.53997" lon="1.55363">
        <ele>187</ele>
        <time>2011-04-02T13:40:30</time>
      </trkpt>
      <trkpt lat="44.53995" lon="1.55367">
        <ele>187</ele>
        <time>2011-04-02T13:40:31</time>
      </trkpt>
      <trkpt lat="44.5399" lon="1.55376">
        <ele>185</ele>
        <time>2011-04-02T13:40:33</time>
      </trkpt>
      <trkpt lat="44.53987" lon="1.5538">
        <ele>185</ele>
        <time>2011-04-02T13:40:34</time>
      </trkpt>
      <trkpt lat="44.53982" lon="1.55387">
        <ele>185</ele>
        <time>2011-04-02T13:40:36</time>
      </trkpt>
      <trkpt lat="44.53977" lon="1.55392">
        <ele>185</ele>
        <time>2011-04-02T13:40:38</time>
      </trkpt>
      <trkpt lat="44.53975" lon="1.55394">
        <ele>185</ele>
        <time>2011-04-02T13:40:39</time>
      </trkpt>
      <trkpt lat="44.53968" lon="1.55399">
        <ele>185</ele>
        <time>2011-04-02T13:40:41</time>
      </trkpt>
      <trkpt lat="44.53963" lon="1.55404">
        <ele>185</ele>
        <time>2011-04-02T13:40:43</time>
      </trkpt>
      <trkpt lat="44.53961" lon="1.55405">
        <ele>185</ele>
        <time>2011-04-02T13:40:44</time>
      </trkpt>
      <trkpt lat="44.53955" lon="1.5541">
        <ele>192</ele>
        <time>2011-04-02T13:40:47</time>
      </trkpt>
      <trkpt lat="44.53954" lon="1.55412">
        <ele>192</ele>
        <time>2011-04-02T13:40:48</time>
      </trkpt>
      <trkpt lat="44.53951" lon="1.55415">
        <ele>192</ele>
        <time>2011-04-02T13:40:49</time>
      </trkpt>
      <trkpt lat="44.53949" lon="1.55418">
        <ele>192</ele>
        <time>2011-04-02T13:40:50</time>
      </trkpt>
      <trkpt lat="44.53945" lon="1.55423">
        <ele>192</ele>
        <time>2011-04-02T13:40:52</time>
      </trkpt>
      <trkpt lat="44.53943" lon="1.55426">
        <ele>192</ele>
        <time>2011-04-02T13:40:53</time>
      </trkpt>
      <trkpt lat="44.53939" lon="1.55431">
        <ele>192</ele>
        <time>2011-04-02T13:40:55</time>
      </trkpt>
      <trkpt lat="44.53935" lon="1.55436">
        <ele>192</ele>
        <time>2011-04-02T13:40:58</time>
      </trkpt>
      <trkpt lat="44.53933" lon="1.55441">
        <ele>192</ele>
        <time>2011-04-02T13:41:00</time>
      </trkpt>
      <trkpt lat="44.53929" lon="1.55448">
        <ele>192</ele>
        <time>2011-04-02T13:41:02</time>
      </trkpt>
      <trkpt lat="44.53927" lon="1.55451">
        <ele>192</ele>
        <time>2011-04-02T13:41:03</time>
      </trkpt>
      <trkpt lat="44.53925" lon="1.55455">
        <ele>192</ele>
        <time>2011-04-02T13:41:04</time>
      </trkpt>
      <trkpt lat="44.53923" lon="1.55458">
        <ele>192</ele>
        <time>2011-04-02T13:41:05</time>
      </trkpt>
      <trkpt lat="44.5392" lon="1.55461">
        <ele>183</ele>
        <time>2011-04-02T13:41:06</time>
      </trkpt>
      <trkpt lat="44.53918" lon="1.55464">
        <ele>183</ele>
        <time>2011-04-02T13:41:07</time>
      </trkpt>
      <trkpt lat="44.53913" lon="1.55469">
        <ele>183</ele>
        <time>2011-04-02T13:41:09</time>
      </trkpt>
      <trkpt lat="44.53911" lon="1.55472">
        <ele>183</ele>
        <time>2011-04-02T13:41:10</time>
      </trkpt>
      <trkpt lat="44.53909" lon="1.55475">
        <ele>183</ele>
        <time>2011-04-02T13:41:11</time>
      </trkpt>
      <trkpt lat="44.53905" lon="1.55481">
        <ele>183</ele>
        <time>2011-04-02T13:41:13</time>
      </trkpt>
      <trkpt lat="44.53901" lon="1.5549">
        <ele>183</ele>
        <time>2011-04-02T13:41:15</time>
      </trkpt>
      <trkpt lat="44.53898" lon="1.55494">
        <ele>183</ele>
        <time>2011-04-02T13:41:16</time>
      </trkpt>
      <trkpt lat="44.53896" lon="1.55498">
        <ele>183</ele>
        <time>2011-04-02T13:41:17</time>
      </trkpt>
      <trkpt lat="44.53894" lon="1.55501">
        <ele>183</ele>
        <time>2011-04-02T13:41:18</time>
      </trkpt>
      <trkpt lat="44.53889" lon="1.55507">
        <ele>183</ele>
        <time>2011-04-02T13:41:20</time>
      </trkpt>
      <trkpt lat="44.53884" lon="1.5551">
        <ele>183</ele>
        <time>2011-04-02T13:41:22</time>
      </trkpt>
      <trkpt lat="44.53881" lon="1.55511">
        <ele>183</ele>
        <time>2011-04-02T13:41:23</time>
      </trkpt>
      <trkpt lat="44.53875" lon="1.55512">
        <ele>183</ele>
        <time>2011-04-02T13:41:25</time>
      </trkpt>
      <trkpt lat="44.5387" lon="1.55513">
        <ele>200</ele>
        <time>2011-04-02T13:41:27</time>
      </trkpt>
      <trkpt lat="44.53867" lon="1.55513">
        <ele>200</ele>
        <time>2011-04-02T13:41:28</time>
      </trkpt>
      <trkpt lat="44.53862" lon="1.55515">
        <ele>200</ele>
        <time>2011-04-02T13:41:30</time>
      </trkpt>
      <trkpt lat="44.53856" lon="1.55516">
        <ele>200</ele>
        <time>2011-04-02T13:41:32</time>
      </trkpt>
      <trkpt lat="44.53853" lon="1.55517">
        <ele>200</ele>
        <time>2011-04-02T13:41:33</time>
      </trkpt>
      <trkpt lat="44.53844" lon="1.55521">
        <ele>200</ele>
        <time>2011-04-02T13:41:36</time>
      </trkpt>
      <trkpt lat="44.53842" lon="1.55523">
        <ele>200</ele>
        <time>2011-04-02T13:41:37</time>
      </trkpt>
      <trkpt lat="44.53832" lon="1.5553">
        <ele>200</ele>
        <time>2011-04-02T13:41:40</time>
      </trkpt>
      <trkpt lat="44.53825" lon="1.55535">
        <ele>200</ele>
        <time>2011-04-02T13:41:42</time>
      </trkpt>
      <trkpt lat="44.53821" lon="1.55537">
        <ele>200</ele>
        <time>2011-04-02T13:41:43</time>
      </trkpt>
      <trkpt lat="44.53814" lon="1.55542">
        <ele>200</ele>
        <time>2011-04-02T13:41:45</time>
      </trkpt>
      <trkpt lat="44.5381" lon="1.55544">
        <ele>182</ele>
        <time>2011-04-02T13:41:46</time>
      </trkpt>
      <trkpt lat="44.53802" lon="1.5555">
        <ele>182</ele>
        <time>2011-04-02T13:41:48</time>
      </trkpt>
      <trkpt lat="44.53798" lon="1.55554">
        <ele>182</ele>
        <time>2011-04-02T13:41:49</time>
      </trkpt>
      <trkpt lat="44.53789" lon="1.55562">
        <ele>182</ele>
        <time>2011-04-02T13:41:51</time>
      </trkpt>
      <trkpt lat="44.53782" lon="1.55573">
        <ele>182</ele>
        <time>2011-04-02T13:41:53</time>
      </trkpt>
      <trkpt lat="44.53778" lon="1.5558">
        <ele>182</ele>
        <time>2011-04-02T13:41:57</time>
      </trkpt>
      <trkpt lat="44.53773" lon="1.55578">
        <ele>182</ele>
        <time>2011-04-02T13:42:00</time>
      </trkpt>
      <trkpt lat="44.53768" lon="1.55578">
        <ele>182</ele>
        <time>2011-04-02T13:42:05</time>
      </trkpt>
      <trkpt lat="44.53766" lon="1.5558">
        <ele>182</ele>
        <time>2011-04-02T13:42:07</time>
      </trkpt>
      <trkpt lat="44.53765" lon="1.55586">
        <ele>182</ele>
        <time>2011-04-02T13:42:09</time>
      </trkpt>
      <trkpt lat="44.53765" lon="1.55589">
        <ele>182</ele>
        <time>2011-04-02T13:42:10</time>
      </trkpt>
      <trkpt lat="44.53764" lon="1.55596">
        <ele>182</ele>
        <time>2011-04-02T13:42:12</time>
      </trkpt>
      <trkpt lat="44.53762" lon="1.55605">
        <ele>182</ele>
        <time>2011-04-02T13:42:14</time>
      </trkpt>
      <trkpt lat="44.53759" lon="1.55615">
        <ele>182</ele>
        <time>2011-04-02T13:42:16</time>
      </trkpt>
      <trkpt lat="44.53757" lon="1.55628">
        <ele>178</ele>
        <time>2011-04-02T13:42:18</time>
      </trkpt>
      <trkpt lat="44.53755" lon="1.55633">
        <ele>178</ele>
        <time>2011-04-02T13:42:19</time>
      </trkpt>
      <trkpt lat="44.53754" lon="1.55639">
        <ele>178</ele>
        <time>2011-04-02T13:42:20</time>
      </trkpt>
      <trkpt lat="44.53752" lon="1.55649">
        <ele>178</ele>
        <time>2011-04-02T13:42:22</time>
      </trkpt>
      <trkpt lat="44.5375" lon="1.55659">
        <ele>178</ele>
        <time>2011-04-02T13:42:24</time>
      </trkpt>
      <trkpt lat="44.53749" lon="1.55663">
        <ele>178</ele>
        <time>2011-04-02T13:42:25</time>
      </trkpt>
      <trkpt lat="44.53746" lon="1.55667">
        <ele>178</ele>
        <time>2011-04-02T13:42:27</time>
      </trkpt>
      <trkpt lat="44.53743" lon="1.55668">
        <ele>178</ele>
        <time>2011-04-02T13:42:28</time>
      </trkpt>
      <trkpt lat="44.53741" lon="1.55669">
        <ele>178</ele>
        <time>2011-04-02T13:42:29</time>
      </trkpt>
      <trkpt lat="44.53738" lon="1.55672">
        <ele>178</ele>
        <time>2011-04-02T13:42:30</time>
      </trkpt>
      <trkpt lat="44.53733" lon="1.55676">
        <ele>178</ele>
        <time>2011-04-02T13:42:32</time>
      </trkpt>
      <trkpt lat="44.5373" lon="1.55677">
        <ele>178</ele>
        <time>2011-04-02T13:42:33</time>
      </trkpt>
      <trkpt lat="44.53726" lon="1.55679">
        <ele>178</ele>
        <time>2011-04-02T13:42:35</time>
      </trkpt>
      <trkpt lat="44.53722" lon="1.5568">
        <ele>178</ele>
        <time>2011-04-02T13:42:37</time>
      </trkpt>
      <trkpt lat="44.53718" lon="1.55681">
        <ele>178</ele>
        <time>2011-04-02T13:42:39</time>
      </trkpt>
      <trkpt lat="44.53713" lon="1.55683">
        <ele>178</ele>
        <time>2011-04-02T13:42:41</time>
      </trkpt>
      <trkpt lat="44.53708" lon="1.55689">
        <ele>175</ele>
        <time>2011-04-02T13:42:44</time>
      </trkpt>
      <trkpt lat="44.53704" lon="1.55694">
        <ele>175</ele>
        <time>2011-04-02T13:42:46</time>
      </trkpt>
      <trkpt lat="44.53702" lon="1.55698">
        <ele>175</ele>
        <time>2011-04-02T13:42:47</time>
      </trkpt>
      <trkpt lat="44.53698" lon="1.55706">
        <ele>175</ele>
        <time>2011-04-02T13:42:49</time>
      </trkpt>
      <trkpt lat="44.53697" lon="1.55717">
        <ele>175</ele>
        <time>2011-04-02T13:42:51</time>
      </trkpt>
      <trkpt lat="44.53696" lon="1.55728">
        <ele>175</ele>
        <time>2011-04-02T13:42:53</time>
      </trkpt>
      <trkpt lat="44.53696" lon="1.55734">
        <ele>175</ele>
        <time>2011-04-02T13:42:54</time>
      </trkpt>
      <trkpt lat="44.53697" lon="1.55745">
        <ele>175</ele>
        <time>2011-04-02T13:42:56</time>
      </trkpt>
      <trkpt lat="44.53698" lon="1.55757">
        <ele>175</ele>
        <time>2011-04-02T13:42:58</time>
      </trkpt>
      <trkpt lat="44.53698" lon="1.55763">
        <ele>175</ele>
        <time>2011-04-02T13:42:59</time>
      </trkpt>
      <trkpt lat="44.53699" lon="1.55769">
        <ele>175</ele>
        <time>2011-04-02T13:43:00</time>
      </trkpt>
      <trkpt lat="44.53699" lon="1.55779">
        <ele>175</ele>
        <time>2011-04-02T13:43:02</time>
      </trkpt>
      <trkpt lat="44.537" lon="1.55785">
        <ele>175</ele>
        <time>2011-04-02T13:43:03</time>
      </trkpt>
      <trkpt lat="44.53701" lon="1.55797">
        <ele>186</ele>
        <time>2011-04-02T13:43:05</time>
      </trkpt>
      <trkpt lat="44.53702" lon="1.55803">
        <ele>186</ele>
        <time>2011-04-02T13:43:06</time>
      </trkpt>
      <trkpt lat="44.53703" lon="1.5581">
        <ele>186</ele>
        <time>2011-04-02T13:43:07</time>
      </trkpt>
      <trkpt lat="44.53705" lon="1.55822">
        <ele>186</ele>
        <time>2011-04-02T13:43:09</time>
      </trkpt>
      <trkpt lat="44.53706" lon="1.55829">
        <ele>186</ele>
        <time>2011-04-02T13:43:10</time>
      </trkpt>
      <trkpt lat="44.53708" lon="1.55841">
        <ele>186</ele>
        <time>2011-04-02T13:43:12</time>
      </trkpt>
      <trkpt lat="44.5371" lon="1.55853">
        <ele>178</ele>
        <time>2011-04-02T13:43:14</time>
      </trkpt>
      <trkpt lat="44.53711" lon="1.55857">
        <ele>178</ele>
        <time>2011-04-02T13:43:15</time>
      </trkpt>
      <trkpt lat="44.53711" lon="1.55866">
        <ele>178</ele>
        <time>2011-04-02T13:43:17</time>
      </trkpt>
      <trkpt lat="44.53712" lon="1.55869">
        <ele>178</ele>
        <time>2011-04-02T13:43:18</time>
      </trkpt>
      <trkpt lat="44.53713" lon="1.55874">
        <ele>178</ele>
        <time>2011-04-02T13:43:20</time>
      </trkpt>
      <trkpt lat="44.53712" lon="1.55878">
        <ele>181</ele>
        <time>2011-04-02T13:43:22</time>
      </trkpt>
      <trkpt lat="44.53709" lon="1.55879">
        <ele>181</ele>
        <time>2011-04-02T13:43:24</time>
      </trkpt>
      <trkpt lat="44.53707" lon="1.55876">
        <ele>208</ele>
        <time>2011-04-02T13:43:26</time>
      </trkpt>
      <trkpt lat="44.53703" lon="1.55871">
        <ele>186</ele>
        <time>2011-04-02T13:43:28</time>
      </trkpt>
      <trkpt lat="44.53698" lon="1.55865">
        <ele>186</ele>
        <time>2011-04-02T13:43:30</time>
      </trkpt>
      <trkpt lat="44.53694" lon="1.55858">
        <ele>186</ele>
        <time>2011-04-02T13:43:32</time>
      </trkpt>
      <trkpt lat="44.53689" lon="1.5585">
        <ele>186</ele>
        <time>2011-04-02T13:43:34</time>
      </trkpt>
      <trkpt lat="44.53687" lon="1.55845">
        <ele>186</ele>
        <time>2011-04-02T13:43:35</time>
      </trkpt>
      <trkpt lat="44.53684" lon="1.5584">
        <ele>186</ele>
        <time>2011-04-02T13:43:36</time>
      </trkpt>
      <trkpt lat="44.53678" lon="1.5583">
        <ele>186</ele>
        <time>2011-04-02T13:43:38</time>
      </trkpt>
      <trkpt lat="44.53675" lon="1.55825">
        <ele>186</ele>
        <time>2011-04-02T13:43:39</time>
      </trkpt>
      <trkpt lat="44.5367" lon="1.55816">
        <ele>186</ele>
        <time>2011-04-02T13:43:41</time>
      </trkpt>
      <trkpt lat="44.53667" lon="1.55811">
        <ele>186</ele>
        <time>2011-04-02T13:43:42</time>
      </trkpt>
      <trkpt lat="44.53664" lon="1.55807">
        <ele>186</ele>
        <time>2011-04-02T13:43:43</time>
      </trkpt>
      <trkpt lat="44.53658" lon="1.55798">
        <ele>186</ele>
        <time>2011-04-02T13:43:45</time>
      </trkpt>
      <trkpt lat="44.5365" lon="1.55789">
        <ele>175</ele>
        <time>2011-04-02T13:43:47</time>
      </trkpt>
      <trkpt lat="44.53646" lon="1.55785">
        <ele>175</ele>
        <time>2011-04-02T13:43:48</time>
      </trkpt>
      <trkpt lat="44.53637" lon="1.55779">
        <ele>175</ele>
        <time>2011-04-02T13:43:50</time>
      </trkpt>
      <trkpt lat="44.53632" lon="1.55777">
        <ele>175</ele>
        <time>2011-04-02T13:43:51</time>
      </trkpt>
      <trkpt lat="44.53627" lon="1.55773">
        <ele>175</ele>
        <time>2011-04-02T13:43:52</time>
      </trkpt>
      <trkpt lat="44.53617" lon="1.55768">
        <ele>179</ele>
        <time>2011-04-02T13:43:54</time>
      </trkpt>
      <trkpt lat="44.53611" lon="1.55765">
        <ele>179</ele>
        <time>2011-04-02T13:43:55</time>
      </trkpt>
      <trkpt lat="44.53605" lon="1.55762">
        <ele>179</ele>
        <time>2011-04-02T13:43:56</time>
      </trkpt>
      <trkpt lat="44.53594" lon="1.55755">
        <ele>179</ele>
        <time>2011-04-02T13:43:58</time>
      </trkpt>
      <trkpt lat="44.53588" lon="1.55752">
        <ele>179</ele>
        <time>2011-04-02T13:43:59</time>
      </trkpt>
      <trkpt lat="44.53581" lon="1.5575">
        <ele>179</ele>
        <time>2011-04-02T13:44:00</time>
      </trkpt>
      <trkpt lat="44.53569" lon="1.55747">
        <ele>179</ele>
        <time>2011-04-02T13:44:02</time>
      </trkpt>
      <trkpt lat="44.53556" lon="1.55747">
        <ele>179</ele>
        <time>2011-04-02T13:44:04</time>
      </trkpt>
      <trkpt lat="44.53545" lon="1.55746">
        <ele>179</ele>
        <time>2011-04-02T13:44:06</time>
      </trkpt>
      <trkpt lat="44.53533" lon="1.55747">
        <ele>178</ele>
        <time>2011-04-02T13:44:08</time>
      </trkpt>
      <trkpt lat="44.53523" lon="1.55748">
        <ele>178</ele>
        <time>2011-04-02T13:44:10</time>
      </trkpt>
      <trkpt lat="44.53517" lon="1.55748">
        <ele>178</ele>
        <time>2011-04-02T13:44:11</time>
      </trkpt>
      <trkpt lat="44.53506" lon="1.55748">
        <ele>178</ele>
        <time>2011-04-02T13:44:13</time>
      </trkpt>
      <trkpt lat="44.53496" lon="1.55748">
        <ele>178</ele>
        <time>2011-04-02T13:44:15</time>
      </trkpt>
      <trkpt lat="44.53485" lon="1.55749">
        <ele>178</ele>
        <time>2011-04-02T13:44:17</time>
      </trkpt>
      <trkpt lat="44.5348" lon="1.55749">
        <ele>178</ele>
        <time>2011-04-02T13:44:18</time>
      </trkpt>
      <trkpt lat="44.53469" lon="1.55747">
        <ele>178</ele>
        <time>2011-04-02T13:44:20</time>
      </trkpt>
      <trkpt lat="44.53464" lon="1.55746">
        <ele>178</ele>
        <time>2011-04-02T13:44:21</time>
      </trkpt>
      <trkpt lat="44.53453" lon="1.55744">
        <ele>177</ele>
        <time>2011-04-02T13:44:23</time>
      </trkpt>
      <trkpt lat="44.53441" lon="1.55742">
        <ele>177</ele>
        <time>2011-04-02T13:44:25</time>
      </trkpt>
      <trkpt lat="44.53435" lon="1.5574">
        <ele>177</ele>
        <time>2011-04-02T13:44:26</time>
      </trkpt>
      <trkpt lat="44.53424" lon="1.55739">
        <ele>177</ele>
        <time>2011-04-02T13:44:28</time>
      </trkpt>
      <trkpt lat="44.53419" lon="1.55738">
        <ele>177</ele>
        <time>2011-04-02T13:44:29</time>
      </trkpt>
      <trkpt lat="44.53411" lon="1.55737">
        <ele>177</ele>
        <time>2011-04-02T13:44:31</time>
      </trkpt>
      <trkpt lat="44.53407" lon="1.55737">
        <ele>177</ele>
        <time>2011-04-02T13:44:32</time>
      </trkpt>
      <trkpt lat="44.53399" lon="1.55737">
        <ele>177</ele>
        <time>2011-04-02T13:44:34</time>
      </trkpt>
      <trkpt lat="44.53396" lon="1.55737">
        <ele>177</ele>
        <time>2011-04-02T13:44:35</time>
      </trkpt>
      <trkpt lat="44.5339" lon="1.55739">
        <ele>177</ele>
        <time>2011-04-02T13:44:38</time>
      </trkpt>
      <trkpt lat="44.53388" lon="1.55741">
        <ele>177</ele>
        <time>2011-04-02T13:44:40</time>
      </trkpt>
      <trkpt lat="44.53384" lon="1.55743">
        <ele>177</ele>
        <time>2011-04-02T13:44:47</time>
      </trkpt>
      <trkpt lat="44.53382" lon="1.55746">
        <ele>177</ele>
        <time>2011-04-02T13:44:53</time>
      </trkpt>
      <trkpt lat="44.53382" lon="1.5575">
        <ele>177</ele>
        <time>2011-04-02T13:44:59</time>
      </trkpt>
      <trkpt lat="44.53383" lon="1.55755">
        <ele>177</ele>
        <time>2011-04-02T13:45:02</time>
      </trkpt>
      <trkpt lat="44.53381" lon="1.55758">
        <ele>177</ele>
        <time>2011-04-02T13:45:05</time>
      </trkpt>
      <trkpt lat="44.53379" lon="1.55759">
        <ele>177</ele>
        <time>2011-04-02T13:45:10</time>
      </trkpt>
      <trkpt lat="44.53376" lon="1.55759">
        <ele>177</ele>
        <time>2011-04-02T13:45:12</time>
      </trkpt>
      <trkpt lat="44.53373" lon="1.55761">
        <ele>175</ele>
        <time>2011-04-02T13:45:14</time>
      </trkpt>
      <trkpt lat="44.5337" lon="1.55764">
        <ele>175</ele>
        <time>2011-04-02T13:45:16</time>
      </trkpt>
      <trkpt lat="44.53367" lon="1.55767">
        <ele>175</ele>
        <time>2011-04-02T13:45:18</time>
      </trkpt>
      <trkpt lat="44.53364" lon="1.5577">
        <ele>175</ele>
        <time>2011-04-02T13:45:20</time>
      </trkpt>
      <trkpt lat="44.53361" lon="1.55773">
        <ele>175</ele>
        <time>2011-04-02T13:45:22</time>
      </trkpt>
      <trkpt lat="44.53359" lon="1.55775">
        <ele>175</ele>
        <time>2011-04-02T13:45:23</time>
      </trkpt>
      <trkpt lat="44.53355" lon="1.55776">
        <ele>175</ele>
        <time>2011-04-02T13:45:25</time>
      </trkpt>
      <trkpt lat="44.53351" lon="1.55778">
        <ele>175</ele>
        <time>2011-04-02T13:45:27</time>
      </trkpt>
      <trkpt lat="44.53349" lon="1.5578">
        <ele>175</ele>
        <time>2011-04-02T13:45:28</time>
      </trkpt>
      <trkpt lat="44.53344" lon="1.55782">
        <ele>175</ele>
        <time>2011-04-02T13:45:30</time>
      </trkpt>
      <trkpt lat="44.53342" lon="1.55783">
        <ele>175</ele>
        <time>2011-04-02T13:45:31</time>
      </trkpt>
      <trkpt lat="44.53338" lon="1.55787">
        <ele>175</ele>
        <time>2011-04-02T13:45:33</time>
      </trkpt>
      <trkpt lat="44.53336" lon="1.55789">
        <ele>175</ele>
        <time>2011-04-02T13:45:34</time>
      </trkpt>
      <trkpt lat="44.53332" lon="1.55793">
        <ele>204</ele>
        <time>2011-04-02T13:45:36</time>
      </trkpt>
      <trkpt lat="44.5333" lon="1.55795">
        <ele>204</ele>
        <time>2011-04-02T13:45:37</time>
      </trkpt>
      <trkpt lat="44.53325" lon="1.55797">
        <ele>204</ele>
        <time>2011-04-02T13:45:39</time>
      </trkpt>
      <trkpt lat="44.53321" lon="1.55799">
        <ele>204</ele>
        <time>2011-04-02T13:45:41</time>
      </trkpt>
      <trkpt lat="44.53317" lon="1.55801">
        <ele>204</ele>
        <time>2011-04-02T13:45:43</time>
      </trkpt>
      <trkpt lat="44.53313" lon="1.55804">
        <ele>204</ele>
        <time>2011-04-02T13:45:45</time>
      </trkpt>
      <trkpt lat="44.53311" lon="1.55806">
        <ele>204</ele>
        <time>2011-04-02T13:45:46</time>
      </trkpt>
      <trkpt lat="44.53307" lon="1.55808">
        <ele>204</ele>
        <time>2011-04-02T13:45:48</time>
      </trkpt>
      <trkpt lat="44.53303" lon="1.5581">
        <ele>204</ele>
        <time>2011-04-02T13:45:50</time>
      </trkpt>
      <trkpt lat="44.533" lon="1.55812">
        <ele>204</ele>
        <time>2011-04-02T13:45:52</time>
      </trkpt>
      <trkpt lat="44.53296" lon="1.55812">
        <ele>204</ele>
        <time>2011-04-02T13:45:54</time>
      </trkpt>
      <trkpt lat="44.53293" lon="1.55813">
        <ele>204</ele>
        <time>2011-04-02T13:45:56</time>
      </trkpt>
      <trkpt lat="44.53291" lon="1.55815">
        <ele>214</ele>
        <time>2011-04-02T13:45:58</time>
      </trkpt>
      <trkpt lat="44.53288" lon="1.55817">
        <ele>214</ele>
        <time>2011-04-02T13:46:02</time>
      </trkpt>
      <trkpt lat="44.53285" lon="1.55816">
        <ele>214</ele>
        <time>2011-04-02T13:46:05</time>
      </trkpt>
      <trkpt lat="44.53283" lon="1.55815">
        <ele>214</ele>
        <time>2011-04-02T13:46:07</time>
      </trkpt>
      <trkpt lat="44.5328" lon="1.55814">
        <ele>214</ele>
        <time>2011-04-02T13:46:09</time>
      </trkpt>
      <trkpt lat="44.53278" lon="1.55813">
        <ele>214</ele>
        <time>2011-04-02T13:46:11</time>
      </trkpt>
      <trkpt lat="44.53275" lon="1.55812">
        <ele>214</ele>
        <time>2011-04-02T13:46:13</time>
      </trkpt>
      <trkpt lat="44.53273" lon="1.5581">
        <ele>214</ele>
        <time>2011-04-02T13:46:15</time>
      </trkpt>
      <trkpt lat="44.5327" lon="1.55807">
        <ele>214</ele>
        <time>2011-04-02T13:46:17</time>
      </trkpt>
      <trkpt lat="44.53267" lon="1.55805">
        <ele>214</ele>
        <time>2011-04-02T13:46:19</time>
      </trkpt>
      <trkpt lat="44.53263" lon="1.55802">
        <ele>214</ele>
        <time>2011-04-02T13:46:21</time>
      </trkpt>
      <trkpt lat="44.5326" lon="1.558">
        <ele>214</ele>
        <time>2011-04-02T13:46:23</time>
      </trkpt>
      <trkpt lat="44.53257" lon="1.55798">
        <ele>214</ele>
        <time>2011-04-02T13:46:25</time>
      </trkpt>
      <trkpt lat="44.53255" lon="1.55798">
        <ele>214</ele>
        <time>2011-04-02T13:46:27</time>
      </trkpt>
      <trkpt lat="44.53252" lon="1.55797">
        <ele>214</ele>
        <time>2011-04-02T13:46:29</time>
      </trkpt>
      <trkpt lat="44.5325" lon="1.55797">
        <ele>214</ele>
        <time>2011-04-02T13:46:31</time>
      </trkpt>
      <trkpt lat="44.53247" lon="1.55798">
        <ele>214</ele>
        <time>2011-04-02T13:46:34</time>
      </trkpt>
      <trkpt lat="44.53245" lon="1.558">
        <ele>214</ele>
        <time>2011-04-02T13:46:39</time>
      </trkpt>
      <trkpt lat="44.53242" lon="1.55799">
        <ele>214</ele>
        <time>2011-04-02T13:46:42</time>
      </trkpt>
      <trkpt lat="44.53239" lon="1.55799">
        <ele>214</ele>
        <time>2011-04-02T13:46:46</time>
      </trkpt>
      <trkpt lat="44.53237" lon="1.55797">
        <ele>214</ele>
        <time>2011-04-02T13:46:49</time>
      </trkpt>
      <trkpt lat="44.53235" lon="1.55796">
        <ele>214</ele>
        <time>2011-04-02T13:46:53</time>
      </trkpt>
      <trkpt lat="44.53235" lon="1.55796">
        <ele>214</ele>
        <time>2011-04-02T13:47:10</time>
      </trkpt>
      <trkpt lat="44.53233" lon="1.55794">
        <ele>214</ele>
        <time>2011-04-02T13:48:10</time>
      </trkpt>
      <trkpt lat="44.53231" lon="1.55792">
        <ele>214</ele>
        <time>2011-04-02T13:48:13</time>
      </trkpt>
      <trkpt lat="44.53231" lon="1.55792">
        <ele>214</ele>
        <time>2011-04-02T13:48:14</time>
      </trkpt>
      <trkpt lat="44.53229" lon="1.5579">
        <ele>176</ele>
        <time>2011-04-02T13:48:15</time>
      </trkpt>
      <trkpt lat="44.53227" lon="1.55787">
        <ele>176</ele>
        <time>2011-04-02T13:48:17</time>
      </trkpt>
      <trkpt lat="44.53225" lon="1.55784">
        <ele>176</ele>
        <time>2011-04-02T13:48:19</time>
      </trkpt>
      <trkpt lat="44.53223" lon="1.55782">
        <ele>176</ele>
        <time>2011-04-02T13:48:21</time>
      </trkpt>
      <trkpt lat="44.53219" lon="1.5578">
        <ele>176</ele>
        <time>2011-04-02T13:48:23</time>
      </trkpt>
      <trkpt lat="44.53213" lon="1.55775">
        <ele>176</ele>
        <time>2011-04-02T13:48:26</time>
      </trkpt>
      <trkpt lat="44.5321" lon="1.55772">
        <ele>176</ele>
        <time>2011-04-02T13:48:28</time>
      </trkpt>
      <trkpt lat="44.53207" lon="1.55768">
        <ele>218</ele>
        <time>2011-04-02T13:48:30</time>
      </trkpt>
      <trkpt lat="44.53203" lon="1.55766">
        <ele>218</ele>
        <time>2011-04-02T13:48:32</time>
      </trkpt>
      <trkpt lat="44.53198" lon="1.55763">
        <ele>218</ele>
        <time>2011-04-02T13:48:34</time>
      </trkpt>
      <trkpt lat="44.53193" lon="1.5576">
        <ele>218</ele>
        <time>2011-04-02T13:48:36</time>
      </trkpt>
      <trkpt lat="44.53189" lon="1.55757">
        <ele>218</ele>
        <time>2011-04-02T13:48:38</time>
      </trkpt>
      <trkpt lat="44.53186" lon="1.55754">
        <ele>218</ele>
        <time>2011-04-02T13:48:40</time>
      </trkpt>
      <trkpt lat="44.53183" lon="1.55751">
        <ele>218</ele>
        <time>2011-04-02T13:48:42</time>
      </trkpt>
      <trkpt lat="44.5318" lon="1.55748">
        <ele>218</ele>
        <time>2011-04-02T13:48:44</time>
      </trkpt>
      <trkpt lat="44.53177" lon="1.55745">
        <ele>218</ele>
        <time>2011-04-02T13:48:46</time>
      </trkpt>
      <trkpt lat="44.53174" lon="1.55742">
        <ele>218</ele>
        <time>2011-04-02T13:48:48</time>
      </trkpt>
      <trkpt lat="44.53172" lon="1.55738">
        <ele>218</ele>
        <time>2011-04-02T13:48:50</time>
      </trkpt>
      <trkpt lat="44.53171" lon="1.55734">
        <ele>218</ele>
        <time>2011-04-02T13:48:52</time>
      </trkpt>
      <trkpt lat="44.5317" lon="1.55731">
        <ele>218</ele>
        <time>2011-04-02T13:48:54</time>
      </trkpt>
      <trkpt lat="44.53168" lon="1.55728">
        <ele>218</ele>
        <time>2011-04-02T13:48:56</time>
      </trkpt>
      <trkpt lat="44.53167" lon="1.55725">
        <ele>218</ele>
        <time>2011-04-02T13:48:58</time>
      </trkpt>
      <trkpt lat="44.53166" lon="1.55719">
        <ele>218</ele>
        <time>2011-04-02T13:49:00</time>
      </trkpt>
      <trkpt lat="44.53166" lon="1.55715">
        <ele>218</ele>
        <time>2011-04-02T13:49:01</time>
      </trkpt>
      <trkpt lat="44.53164" lon="1.55708">
        <ele>189</ele>
        <time>2011-04-02T13:49:03</time>
      </trkpt>
      <trkpt lat="44.5316" lon="1.557">
        <ele>189</ele>
        <time>2011-04-02T13:49:06</time>
      </trkpt>
      <trkpt lat="44.53158" lon="1.55698">
        <ele>189</ele>
        <time>2011-04-02T13:49:07</time>
      </trkpt>
      <trkpt lat="44.53155" lon="1.55695">
        <ele>189</ele>
        <time>2011-04-02T13:49:08</time>
      </trkpt>
      <trkpt lat="44.53149" lon="1.55687">
        <ele>189</ele>
        <time>2011-04-02T13:49:10</time>
      </trkpt>
      <trkpt lat="44.53145" lon="1.55679">
        <ele>189</ele>
        <time>2011-04-02T13:49:12</time>
      </trkpt>
      <trkpt lat="44.53144" lon="1.55675">
        <ele>189</ele>
        <time>2011-04-02T13:49:13</time>
      </trkpt>
      <trkpt lat="44.53141" lon="1.55666">
        <ele>189</ele>
        <time>2011-04-02T13:49:16</time>
      </trkpt>
      <trkpt lat="44.5314" lon="1.55663">
        <ele>189</ele>
        <time>2011-04-02T13:49:17</time>
      </trkpt>
      <trkpt lat="44.53137" lon="1.55655">
        <ele>189</ele>
        <time>2011-04-02T13:49:19</time>
      </trkpt>
      <trkpt lat="44.53136" lon="1.55651">
        <ele>189</ele>
        <time>2011-04-02T13:49:20</time>
      </trkpt>
      <trkpt lat="44.53134" lon="1.55646">
        <ele>189</ele>
        <time>2011-04-02T13:49:21</time>
      </trkpt>
      <trkpt lat="44.53132" lon="1.55638">
        <ele>189</ele>
        <time>2011-04-02T13:49:23</time>
      </trkpt>
      <trkpt lat="44.53131" lon="1.55634">
        <ele>189</ele>
        <time>2011-04-02T13:49:24</time>
      </trkpt>
      <trkpt lat="44.53128" lon="1.55626">
        <ele>189</ele>
        <time>2011-04-02T13:49:26</time>
      </trkpt>
      <trkpt lat="44.53127" lon="1.55622">
        <ele>171</ele>
        <time>2011-04-02T13:49:27</time>
      </trkpt>
      <trkpt lat="44.53125" lon="1.55618">
        <ele>171</ele>
        <time>2011-04-02T13:49:28</time>
      </trkpt>
      <trkpt lat="44.53122" lon="1.55612">
        <ele>176</ele>
        <time>2011-04-02T13:49:30</time>
      </trkpt>
      <trkpt lat="44.53119" lon="1.55609">
        <ele>176</ele>
        <time>2011-04-02T13:49:31</time>
      </trkpt>
      <trkpt lat="44.53114" lon="1.55605">
        <ele>176</ele>
        <time>2011-04-02T13:49:33</time>
      </trkpt>
      <trkpt lat="44.5311" lon="1.55605">
        <ele>176</ele>
        <time>2011-04-02T13:49:35</time>
      </trkpt>
      <trkpt lat="44.53107" lon="1.55606">
        <ele>176</ele>
        <time>2011-04-02T13:49:36</time>
      </trkpt>
      <trkpt lat="44.53099" lon="1.55607">
        <ele>176</ele>
        <time>2011-04-02T13:49:38</time>
      </trkpt>
      <trkpt lat="44.5309" lon="1.55609">
        <ele>176</ele>
        <time>2011-04-02T13:49:40</time>
      </trkpt>
      <trkpt lat="44.53085" lon="1.55609">
        <ele>176</ele>
        <time>2011-04-02T13:49:41</time>
      </trkpt>
      <trkpt lat="44.53075" lon="1.5561">
        <ele>176</ele>
        <time>2011-04-02T13:49:43</time>
      </trkpt>
      <trkpt lat="44.5307" lon="1.55609">
        <ele>176</ele>
        <time>2011-04-02T13:49:44</time>
      </trkpt>
      <trkpt lat="44.53064" lon="1.55611">
        <ele>176</ele>
        <time>2011-04-02T13:49:46</time>
      </trkpt>
      <trkpt lat="44.5306" lon="1.5561">
        <ele>176</ele>
        <time>2011-04-02T13:49:47</time>
      </trkpt>
      <trkpt lat="44.53057" lon="1.55611">
        <ele>176</ele>
        <time>2011-04-02T13:49:48</time>
      </trkpt>
      <trkpt lat="44.53048" lon="1.5561">
        <ele>176</ele>
        <time>2011-04-02T13:49:50</time>
      </trkpt>
      <trkpt lat="44.53044" lon="1.55609">
        <ele>176</ele>
        <time>2011-04-02T13:49:51</time>
      </trkpt>
      <trkpt lat="44.53039" lon="1.55608">
        <ele>172</ele>
        <time>2011-04-02T13:49:52</time>
      </trkpt>
      <trkpt lat="44.53033" lon="1.55609">
        <ele>172</ele>
        <time>2011-04-02T13:49:54</time>
      </trkpt>
      <trkpt lat="44.53029" lon="1.55607">
        <ele>172</ele>
        <time>2011-04-02T13:49:56</time>
      </trkpt>
      <trkpt lat="44.53025" lon="1.55606">
        <ele>172</ele>
        <time>2011-04-02T13:49:58</time>
      </trkpt>
      <trkpt lat="44.53025" lon="1.55606">
        <ele>172</ele>
        <time>2011-04-02T13:50:18</time>
      </trkpt>
      <trkpt lat="44.53028" lon="1.5561">
        <ele>172</ele>
        <time>2011-04-02T13:50:33</time>
      </trkpt>
      <trkpt lat="44.53023" lon="1.55608">
        <ele>172</ele>
        <time>2011-04-02T13:50:40</time>
      </trkpt>
      <trkpt lat="44.53019" lon="1.55605">
        <ele>172</ele>
        <time>2011-04-02T13:50:43</time>
      </trkpt>
      <trkpt lat="44.53019" lon="1.55605">
        <ele>172</ele>
        <time>2011-04-02T13:50:44</time>
      </trkpt>
      <trkpt lat="44.53022" lon="1.55607">
        <ele>172</ele>
        <time>2011-04-02T13:50:58</time>
      </trkpt>
      <trkpt lat="44.53022" lon="1.55607">
        <ele>172</ele>
        <time>2011-04-02T13:51:01</time>
      </trkpt>
      <trkpt lat="44.5302" lon="1.5561">
        <ele>172</ele>
        <time>2011-04-02T13:51:02</time>
      </trkpt>
      <trkpt lat="44.5302" lon="1.5561">
        <ele>172</ele>
        <time>2011-04-02T13:51:03</time>
      </trkpt>
      <trkpt lat="44.53017" lon="1.55614">
        <ele>172</ele>
        <time>2011-04-02T13:51:05</time>
      </trkpt>
      <trkpt lat="44.53015" lon="1.55615">
        <ele>172</ele>
        <time>2011-04-02T13:51:07</time>
      </trkpt>
      <trkpt lat="44.53011" lon="1.55616">
        <ele>172</ele>
        <time>2011-04-02T13:51:09</time>
      </trkpt>
      <trkpt lat="44.53009" lon="1.55617">
        <ele>172</ele>
        <time>2011-04-02T13:51:10</time>
      </trkpt>
      <trkpt lat="44.53004" lon="1.55618">
        <ele>172</ele>
        <time>2011-04-02T13:51:12</time>
      </trkpt>
      <trkpt lat="44.52999" lon="1.55619">
        <ele>172</ele>
        <time>2011-04-02T13:51:14</time>
      </trkpt>
      <trkpt lat="44.52993" lon="1.55619">
        <ele>172</ele>
        <time>2011-04-02T13:51:16</time>
      </trkpt>
      <trkpt lat="44.5299" lon="1.55619">
        <ele>172</ele>
        <time>2011-04-02T13:51:17</time>
      </trkpt>
      <trkpt lat="44.52984" lon="1.55617">
        <ele>172</ele>
        <time>2011-04-02T13:51:19</time>
      </trkpt>
      <trkpt lat="44.52981" lon="1.55615">
        <ele>172</ele>
        <time>2011-04-02T13:51:20</time>
      </trkpt>
      <trkpt lat="44.52974" lon="1.55609">
        <ele>172</ele>
        <time>2011-04-02T13:51:22</time>
      </trkpt>
      <trkpt lat="44.52968" lon="1.55601">
        <ele>172</ele>
        <time>2011-04-02T13:51:24</time>
      </trkpt>
      <trkpt lat="44.52966" lon="1.55596">
        <ele>172</ele>
        <time>2011-04-02T13:51:25</time>
      </trkpt>
      <trkpt lat="44.52959" lon="1.55584">
        <ele>172</ele>
        <time>2011-04-02T13:51:27</time>
      </trkpt>
      <trkpt lat="44.52955" lon="1.55579">
        <ele>188</ele>
        <time>2011-04-02T13:51:28</time>
      </trkpt>
      <trkpt lat="44.52948" lon="1.55569">
        <ele>188</ele>
        <time>2011-04-02T13:51:30</time>
      </trkpt>
      <trkpt lat="44.52944" lon="1.55565">
        <ele>188</ele>
        <time>2011-04-02T13:51:31</time>
      </trkpt>
      <trkpt lat="44.52935" lon="1.55554">
        <ele>188</ele>
        <time>2011-04-02T13:51:33</time>
      </trkpt>
      <trkpt lat="44.5293" lon="1.55548">
        <ele>188</ele>
        <time>2011-04-02T13:51:34</time>
      </trkpt>
      <trkpt lat="44.52921" lon="1.55539">
        <ele>166</ele>
        <time>2011-04-02T13:51:36</time>
      </trkpt>
      <trkpt lat="44.52911" lon="1.5553">
        <ele>166</ele>
        <time>2011-04-02T13:51:38</time>
      </trkpt>
      <trkpt lat="44.52901" lon="1.55524">
        <ele>166</ele>
        <time>2011-04-02T13:51:40</time>
      </trkpt>
      <trkpt lat="44.52896" lon="1.5552">
        <ele>166</ele>
        <time>2011-04-02T13:51:41</time>
      </trkpt>
      <trkpt lat="44.52887" lon="1.55513">
        <ele>166</ele>
        <time>2011-04-02T13:51:43</time>
      </trkpt>
      <trkpt lat="44.52883" lon="1.5551">
        <ele>166</ele>
        <time>2011-04-02T13:51:44</time>
      </trkpt>
      <trkpt lat="44.5288" lon="1.55507">
        <ele>166</ele>
        <time>2011-04-02T13:51:45</time>
      </trkpt>
      <trkpt lat="44.52875" lon="1.555">
        <ele>173</ele>
        <time>2011-04-02T13:51:47</time>
      </trkpt>
      <trkpt lat="44.52873" lon="1.55496">
        <ele>173</ele>
        <time>2011-04-02T13:51:48</time>
      </trkpt>
      <trkpt lat="44.52872" lon="1.55485">
        <ele>173</ele>
        <time>2011-04-02T13:51:50</time>
      </trkpt>
      <trkpt lat="44.52872" lon="1.5548">
        <ele>173</ele>
        <time>2011-04-02T13:51:51</time>
      </trkpt>
      <trkpt lat="44.52874" lon="1.55475">
        <ele>173</ele>
        <time>2011-04-02T13:51:52</time>
      </trkpt>
      <trkpt lat="44.52876" lon="1.55466">
        <ele>166</ele>
        <time>2011-04-02T13:51:54</time>
      </trkpt>
      <trkpt lat="44.52873" lon="1.55458">
        <ele>166</ele>
        <time>2011-04-02T13:51:56</time>
      </trkpt>
      <trkpt lat="44.52871" lon="1.55456">
        <ele>166</ele>
        <time>2011-04-02T13:51:57</time>
      </trkpt>
      <trkpt lat="44.52868" lon="1.55453">
        <ele>166</ele>
        <time>2011-04-02T13:51:58</time>
      </trkpt>
      <trkpt lat="44.52863" lon="1.55449">
        <ele>166</ele>
        <time>2011-04-02T13:52:00</time>
      </trkpt>
      <trkpt lat="44.52861" lon="1.55447">
        <ele>166</ele>
        <time>2011-04-02T13:52:01</time>
      </trkpt>
      <trkpt lat="44.52854" lon="1.55444">
        <ele>166</ele>
        <time>2011-04-02T13:52:03</time>
      </trkpt>
      <trkpt lat="44.5285" lon="1.55441">
        <ele>166</ele>
        <time>2011-04-02T13:52:04</time>
      </trkpt>
      <trkpt lat="44.52843" lon="1.55438">
        <ele>166</ele>
        <time>2011-04-02T13:52:06</time>
      </trkpt>
      <trkpt lat="44.52836" lon="1.55436">
        <ele>166</ele>
        <time>2011-04-02T13:52:08</time>
      </trkpt>
      <trkpt lat="44.52832" lon="1.55436">
        <ele>166</ele>
        <time>2011-04-02T13:52:09</time>
      </trkpt>
      <trkpt lat="44.52825" lon="1.55437">
        <ele>166</ele>
        <time>2011-04-02T13:52:11</time>
      </trkpt>
      <trkpt lat="44.52817" lon="1.55442">
        <ele>166</ele>
        <time>2011-04-02T13:52:13</time>
      </trkpt>
      <trkpt lat="44.5281" lon="1.55449">
        <ele>166</ele>
        <time>2011-04-02T13:52:15</time>
      </trkpt>
      <trkpt lat="44.52807" lon="1.55453">
        <ele>166</ele>
        <time>2011-04-02T13:52:16</time>
      </trkpt>
      <trkpt lat="44.52802" lon="1.55462">
        <ele>173</ele>
        <time>2011-04-02T13:52:18</time>
      </trkpt>
      <trkpt lat="44.52797" lon="1.55471">
        <ele>173</ele>
        <time>2011-04-02T13:52:20</time>
      </trkpt>
      <trkpt lat="44.52792" lon="1.5548">
        <ele>173</ele>
        <time>2011-04-02T13:52:22</time>
      </trkpt>
      <trkpt lat="44.5279" lon="1.55484">
        <ele>166</ele>
        <time>2011-04-02T13:52:23</time>
      </trkpt>
      <trkpt lat="44.52786" lon="1.55492">
        <ele>166</ele>
        <time>2011-04-02T13:52:25</time>
      </trkpt>
      <trkpt lat="44.52784" lon="1.55502">
        <ele>166</ele>
        <time>2011-04-02T13:52:27</time>
      </trkpt>
      <trkpt lat="44.52782" lon="1.55513">
        <ele>166</ele>
        <time>2011-04-02T13:52:29</time>
      </trkpt>
      <trkpt lat="44.52779" lon="1.55522">
        <ele>166</ele>
        <time>2011-04-02T13:52:31</time>
      </trkpt>
      <trkpt lat="44.52778" lon="1.55527">
        <ele>166</ele>
        <time>2011-04-02T13:52:32</time>
      </trkpt>
      <trkpt lat="44.52773" lon="1.55536">
        <ele>166</ele>
        <time>2011-04-02T13:52:34</time>
      </trkpt>
      <trkpt lat="44.52771" lon="1.55541">
        <ele>166</ele>
        <time>2011-04-02T13:52:35</time>
      </trkpt>
      <trkpt lat="44.52768" lon="1.55547">
        <ele>168</ele>
        <time>2011-04-02T13:52:36</time>
      </trkpt>
      <trkpt lat="44.52764" lon="1.55559">
        <ele>168</ele>
        <time>2011-04-02T13:52:38</time>
      </trkpt>
      <trkpt lat="44.52762" lon="1.55565">
        <ele>168</ele>
        <time>2011-04-02T13:52:39</time>
      </trkpt>
      <trkpt lat="44.52759" lon="1.55576">
        <ele>168</ele>
        <time>2011-04-02T13:52:41</time>
      </trkpt>
      <trkpt lat="44.52758" lon="1.55586">
        <ele>168</ele>
        <time>2011-04-02T13:52:43</time>
      </trkpt>
      <trkpt lat="44.52758" lon="1.55595">
        <ele>168</ele>
        <time>2011-04-02T13:52:45</time>
      </trkpt>
      <trkpt lat="44.52757" lon="1.556">
        <ele>168</ele>
        <time>2011-04-02T13:52:46</time>
      </trkpt>
      <trkpt lat="44.52756" lon="1.5561">
        <ele>168</ele>
        <time>2011-04-02T13:52:48</time>
      </trkpt>
      <trkpt lat="44.52755" lon="1.55617">
        <ele>168</ele>
        <time>2011-04-02T13:52:49</time>
      </trkpt>
      <trkpt lat="44.52754" lon="1.55623">
        <ele>168</ele>
        <time>2011-04-02T13:52:50</time>
      </trkpt>
      <trkpt lat="44.52752" lon="1.55636">
        <ele>171</ele>
        <time>2011-04-02T13:52:52</time>
      </trkpt>
      <trkpt lat="44.52749" lon="1.55646">
        <ele>171</ele>
        <time>2011-04-02T13:52:54</time>
      </trkpt>
      <trkpt lat="44.52745" lon="1.55655">
        <ele>171</ele>
        <time>2011-04-02T13:52:56</time>
      </trkpt>
      <trkpt lat="44.52743" lon="1.55659">
        <ele>171</ele>
        <time>2011-04-02T13:52:57</time>
      </trkpt>
      <trkpt lat="44.52738" lon="1.55666">
        <ele>171</ele>
        <time>2011-04-02T13:52:59</time>
      </trkpt>
      <trkpt lat="44.52733" lon="1.55675">
        <ele>171</ele>
        <time>2011-04-02T13:53:01</time>
      </trkpt>
      <trkpt lat="44.5273" lon="1.55685">
        <ele>171</ele>
        <time>2011-04-02T13:53:03</time>
      </trkpt>
      <trkpt lat="44.52725" lon="1.55694">
        <ele>171</ele>
        <time>2011-04-02T13:53:05</time>
      </trkpt>
      <trkpt lat="44.52721" lon="1.55704">
        <ele>171</ele>
        <time>2011-04-02T13:53:07</time>
      </trkpt>
      <trkpt lat="44.52718" lon="1.55708">
        <ele>171</ele>
        <time>2011-04-02T13:53:08</time>
      </trkpt>
      <trkpt lat="44.52712" lon="1.55716">
        <ele>180</ele>
        <time>2011-04-02T13:53:10</time>
      </trkpt>
      <trkpt lat="44.52709" lon="1.55719">
        <ele>180</ele>
        <time>2011-04-02T13:53:11</time>
      </trkpt>
      <trkpt lat="44.52706" lon="1.55721">
        <ele>174</ele>
        <time>2011-04-02T13:53:12</time>
      </trkpt>
      <trkpt lat="44.52699" lon="1.55725">
        <ele>174</ele>
        <time>2011-04-02T13:53:14</time>
      </trkpt>
      <trkpt lat="44.52696" lon="1.55726">
        <ele>174</ele>
        <time>2011-04-02T13:53:15</time>
      </trkpt>
      <trkpt lat="44.5269" lon="1.55729">
        <ele>174</ele>
        <time>2011-04-02T13:53:17</time>
      </trkpt>
      <trkpt lat="44.52687" lon="1.55729">
        <ele>174</ele>
        <time>2011-04-02T13:53:18</time>
      </trkpt>
      <trkpt lat="44.52683" lon="1.55729">
        <ele>174</ele>
        <time>2011-04-02T13:53:19</time>
      </trkpt>
      <trkpt lat="44.52676" lon="1.55729">
        <ele>174</ele>
        <time>2011-04-02T13:53:21</time>
      </trkpt>
      <trkpt lat="44.52672" lon="1.55729">
        <ele>174</ele>
        <time>2011-04-02T13:53:22</time>
      </trkpt>
      <trkpt lat="44.52663" lon="1.55728">
        <ele>174</ele>
        <time>2011-04-02T13:53:24</time>
      </trkpt>
      <trkpt lat="44.5266" lon="1.55728">
        <ele>174</ele>
        <time>2011-04-02T13:53:25</time>
      </trkpt>
      <trkpt lat="44.52652" lon="1.55728">
        <ele>174</ele>
        <time>2011-04-02T13:53:27</time>
      </trkpt>
      <trkpt lat="44.52643" lon="1.55728">
        <ele>174</ele>
        <time>2011-04-02T13:53:29</time>
      </trkpt>
      <trkpt lat="44.52634" lon="1.55727">
        <ele>174</ele>
        <time>2011-04-02T13:53:31</time>
      </trkpt>
      <trkpt lat="44.52625" lon="1.55726">
        <ele>174</ele>
        <time>2011-04-02T13:53:33</time>
      </trkpt>
      <trkpt lat="44.52615" lon="1.55725">
        <ele>177</ele>
        <time>2011-04-02T13:53:35</time>
      </trkpt>
      <trkpt lat="44.5261" lon="1.55724">
        <ele>177</ele>
        <time>2011-04-02T13:53:36</time>
      </trkpt>
      <trkpt lat="44.52606" lon="1.55725">
        <ele>177</ele>
        <time>2011-04-02T13:53:37</time>
      </trkpt>
      <trkpt lat="44.52597" lon="1.55724">
        <ele>177</ele>
        <time>2011-04-02T13:53:39</time>
      </trkpt>
      <trkpt lat="44.52589" lon="1.55724">
        <ele>177</ele>
        <time>2011-04-02T13:53:41</time>
      </trkpt>
      <trkpt lat="44.52585" lon="1.55725">
        <ele>177</ele>
        <time>2011-04-02T13:53:42</time>
      </trkpt>
      <trkpt lat="44.52578" lon="1.55727">
        <ele>177</ele>
        <time>2011-04-02T13:53:44</time>
      </trkpt>
      <trkpt lat="44.5257" lon="1.55728">
        <ele>177</ele>
        <time>2011-04-02T13:53:46</time>
      </trkpt>
      <trkpt lat="44.52563" lon="1.55727">
        <ele>177</ele>
        <time>2011-04-02T13:53:48</time>
      </trkpt>
      <trkpt lat="44.52553" lon="1.55723">
        <ele>177</ele>
        <time>2011-04-02T13:53:50</time>
      </trkpt>
      <trkpt lat="44.52547" lon="1.5572">
        <ele>177</ele>
        <time>2011-04-02T13:53:51</time>
      </trkpt>
      <trkpt lat="44.52542" lon="1.55717">
        <ele>177</ele>
        <time>2011-04-02T13:53:52</time>
      </trkpt>
      <trkpt lat="44.52531" lon="1.55712">
        <ele>180</ele>
        <time>2011-04-02T13:53:54</time>
      </trkpt>
      <trkpt lat="44.52522" lon="1.5571">
        <ele>180</ele>
        <time>2011-04-02T13:53:56</time>
      </trkpt>
      <trkpt lat="44.52513" lon="1.55709">
        <ele>180</ele>
        <time>2011-04-02T13:53:58</time>
      </trkpt>
      <trkpt lat="44.52508" lon="1.55708">
        <ele>161</ele>
        <time>2011-04-02T13:53:59</time>
      </trkpt>
      <trkpt lat="44.52499" lon="1.55706">
        <ele>161</ele>
        <time>2011-04-02T13:54:01</time>
      </trkpt>
      <trkpt lat="44.52494" lon="1.55705">
        <ele>161</ele>
        <time>2011-04-02T13:54:02</time>
      </trkpt>
      <trkpt lat="44.52486" lon="1.55702">
        <ele>161</ele>
        <time>2011-04-02T13:54:04</time>
      </trkpt>
      <trkpt lat="44.52479" lon="1.55699">
        <ele>161</ele>
        <time>2011-04-02T13:54:06</time>
      </trkpt>
      <trkpt lat="44.5247" lon="1.55695">
        <ele>161</ele>
        <time>2011-04-02T13:54:08</time>
      </trkpt>
      <trkpt lat="44.52465" lon="1.55693">
        <ele>161</ele>
        <time>2011-04-02T13:54:09</time>
      </trkpt>
      <trkpt lat="44.52455" lon="1.55689">
        <ele>164</ele>
        <time>2011-04-02T13:54:11</time>
      </trkpt>
      <trkpt lat="44.5245" lon="1.55688">
        <ele>164</ele>
        <time>2011-04-02T13:54:12</time>
      </trkpt>
      <trkpt lat="44.52446" lon="1.55686">
        <ele>164</ele>
        <time>2011-04-02T13:54:13</time>
      </trkpt>
      <trkpt lat="44.52436" lon="1.55686">
        <ele>164</ele>
        <time>2011-04-02T13:54:15</time>
      </trkpt>
      <trkpt lat="44.5243" lon="1.55685">
        <ele>164</ele>
        <time>2011-04-02T13:54:16</time>
      </trkpt>
      <trkpt lat="44.52423" lon="1.55684">
        <ele>164</ele>
        <time>2011-04-02T13:54:17</time>
      </trkpt>
      <trkpt lat="44.52417" lon="1.55683">
        <ele>164</ele>
        <time>2011-04-02T13:54:18</time>
      </trkpt>
      <trkpt lat="44.52404" lon="1.55681">
        <ele>164</ele>
        <time>2011-04-02T13:54:20</time>
      </trkpt>
      <trkpt lat="44.5239" lon="1.5568">
        <ele>164</ele>
        <time>2011-04-02T13:54:22</time>
      </trkpt>
      <trkpt lat="44.52383" lon="1.5568">
        <ele>164</ele>
        <time>2011-04-02T13:54:23</time>
      </trkpt>
      <trkpt lat="44.52377" lon="1.5568">
        <ele>164</ele>
        <time>2011-04-02T13:54:24</time>
      </trkpt>
      <trkpt lat="44.52365" lon="1.55681">
        <ele>166</ele>
        <time>2011-04-02T13:54:26</time>
      </trkpt>
      <trkpt lat="44.52354" lon="1.55681">
        <ele>166</ele>
        <time>2011-04-02T13:54:28</time>
      </trkpt>
      <trkpt lat="44.52343" lon="1.55682">
        <ele>166</ele>
        <time>2011-04-02T13:54:30</time>
      </trkpt>
      <trkpt lat="44.52336" lon="1.55683">
        <ele>166</ele>
        <time>2011-04-02T13:54:31</time>
      </trkpt>
      <trkpt lat="44.52324" lon="1.55686">
        <ele>166</ele>
        <time>2011-04-02T13:54:33</time>
      </trkpt>
      <trkpt lat="44.52312" lon="1.55689">
        <ele>166</ele>
        <time>2011-04-02T13:54:35</time>
      </trkpt>
      <trkpt lat="44.523" lon="1.55692">
        <ele>166</ele>
        <time>2011-04-02T13:54:37</time>
      </trkpt>
      <trkpt lat="44.52294" lon="1.55694">
        <ele>166</ele>
        <time>2011-04-02T13:54:38</time>
      </trkpt>
      <trkpt lat="44.52288" lon="1.55696">
        <ele>164</ele>
        <time>2011-04-02T13:54:39</time>
      </trkpt>
      <trkpt lat="44.52281" lon="1.55698">
        <ele>164</ele>
        <time>2011-04-02T13:54:40</time>
      </trkpt>
      <trkpt lat="44.52268" lon="1.55701">
        <ele>164</ele>
        <time>2011-04-02T13:54:42</time>
      </trkpt>
      <trkpt lat="44.52255" lon="1.55704">
        <ele>164</ele>
        <time>2011-04-02T13:54:44</time>
      </trkpt>
      <trkpt lat="44.52249" lon="1.55706">
        <ele>164</ele>
        <time>2011-04-02T13:54:45</time>
      </trkpt>
      <trkpt lat="44.52243" lon="1.55708">
        <ele>164</ele>
        <time>2011-04-02T13:54:46</time>
      </trkpt>
      <trkpt lat="44.52236" lon="1.5571">
        <ele>183</ele>
        <time>2011-04-02T13:54:47</time>
      </trkpt>
      <trkpt lat="44.5223" lon="1.55711">
        <ele>183</ele>
        <time>2011-04-02T13:54:48</time>
      </trkpt>
      <trkpt lat="44.52216" lon="1.55712">
        <ele>183</ele>
        <time>2011-04-02T13:54:50</time>
      </trkpt>
      <trkpt lat="44.52203" lon="1.55713">
        <ele>175</ele>
        <time>2011-04-02T13:54:52</time>
      </trkpt>
      <trkpt lat="44.52191" lon="1.55714">
        <ele>175</ele>
        <time>2011-04-02T13:54:54</time>
      </trkpt>
      <trkpt lat="44.5218" lon="1.55713">
        <ele>175</ele>
        <time>2011-04-02T13:54:56</time>
      </trkpt>
      <trkpt lat="44.52175" lon="1.55713">
        <ele>175</ele>
        <time>2011-04-02T13:54:57</time>
      </trkpt>
      <trkpt lat="44.52165" lon="1.55712">
        <ele>175</ele>
        <time>2011-04-02T13:54:59</time>
      </trkpt>
      <trkpt lat="44.5216" lon="1.55712">
        <ele>175</ele>
        <time>2011-04-02T13:55:00</time>
      </trkpt>
      <trkpt lat="44.52155" lon="1.55712">
        <ele>175</ele>
        <time>2011-04-02T13:55:01</time>
      </trkpt>
      <trkpt lat="44.52145" lon="1.55717">
        <ele>175</ele>
        <time>2011-04-02T13:55:03</time>
      </trkpt>
      <trkpt lat="44.52136" lon="1.55724">
        <ele>175</ele>
        <time>2011-04-02T13:55:05</time>
      </trkpt>
      <trkpt lat="44.52132" lon="1.55727">
        <ele>175</ele>
        <time>2011-04-02T13:55:06</time>
      </trkpt>
      <trkpt lat="44.52124" lon="1.55733">
        <ele>162</ele>
        <time>2011-04-02T13:55:08</time>
      </trkpt>
      <trkpt lat="44.52116" lon="1.5574">
        <ele>162</ele>
        <time>2011-04-02T13:55:10</time>
      </trkpt>
      <trkpt lat="44.52111" lon="1.55744">
        <ele>162</ele>
        <time>2011-04-02T13:55:11</time>
      </trkpt>
      <trkpt lat="44.52103" lon="1.55752">
        <ele>162</ele>
        <time>2011-04-02T13:55:13</time>
      </trkpt>
      <trkpt lat="44.52094" lon="1.55762">
        <ele>162</ele>
        <time>2011-04-02T13:55:15</time>
      </trkpt>
      <trkpt lat="44.52085" lon="1.55771">
        <ele>162</ele>
        <time>2011-04-02T13:55:17</time>
      </trkpt>
      <trkpt lat="44.52077" lon="1.55779">
        <ele>162</ele>
        <time>2011-04-02T13:55:19</time>
      </trkpt>
      <trkpt lat="44.5207" lon="1.55785">
        <ele>162</ele>
        <time>2011-04-02T13:55:21</time>
      </trkpt>
      <trkpt lat="44.52062" lon="1.55791">
        <ele>162</ele>
        <time>2011-04-02T13:55:23</time>
      </trkpt>
      <trkpt lat="44.52058" lon="1.55796">
        <ele>184</ele>
        <time>2011-04-02T13:55:24</time>
      </trkpt>
      <trkpt lat="44.5205" lon="1.55804">
        <ele>184</ele>
        <time>2011-04-02T13:55:26</time>
      </trkpt>
      <trkpt lat="44.52046" lon="1.55808">
        <ele>184</ele>
        <time>2011-04-02T13:55:27</time>
      </trkpt>
      <trkpt lat="44.52039" lon="1.55814">
        <ele>167</ele>
        <time>2011-04-02T13:55:29</time>
      </trkpt>
      <trkpt lat="44.52036" lon="1.55816">
        <ele>167</ele>
        <time>2011-04-02T13:55:30</time>
      </trkpt>
      <trkpt lat="44.52032" lon="1.55817">
        <ele>167</ele>
        <time>2011-04-02T13:55:31</time>
      </trkpt>
      <trkpt lat="44.52023" lon="1.55818">
        <ele>167</ele>
        <time>2011-04-02T13:55:33</time>
      </trkpt>
      <trkpt lat="44.52019" lon="1.55818">
        <ele>167</ele>
        <time>2011-04-02T13:55:34</time>
      </trkpt>
      <trkpt lat="44.5201" lon="1.55816">
        <ele>167</ele>
        <time>2011-04-02T13:55:36</time>
      </trkpt>
      <trkpt lat="44.52005" lon="1.55815">
        <ele>167</ele>
        <time>2011-04-02T13:55:37</time>
      </trkpt>
      <trkpt lat="44.51999" lon="1.55813">
        <ele>167</ele>
        <time>2011-04-02T13:55:38</time>
      </trkpt>
      <trkpt lat="44.51985" lon="1.55814">
        <ele>167</ele>
        <time>2011-04-02T13:55:40</time>
      </trkpt>
      <trkpt lat="44.51979" lon="1.55816">
        <ele>167</ele>
        <time>2011-04-02T13:55:41</time>
      </trkpt>
      <trkpt lat="44.51973" lon="1.55818">
        <ele>167</ele>
        <time>2011-04-02T13:55:42</time>
      </trkpt>
      <trkpt lat="44.51963" lon="1.55823">
        <ele>167</ele>
        <time>2011-04-02T13:55:44</time>
      </trkpt>
      <trkpt lat="44.51953" lon="1.55827">
        <ele>160</ele>
        <time>2011-04-02T13:55:46</time>
      </trkpt>
      <trkpt lat="44.51945" lon="1.55831">
        <ele>160</ele>
        <time>2011-04-02T13:55:48</time>
      </trkpt>
      <trkpt lat="44.51938" lon="1.55834">
        <ele>160</ele>
        <time>2011-04-02T13:55:50</time>
      </trkpt>
      <trkpt lat="44.51932" lon="1.55839">
        <ele>160</ele>
        <time>2011-04-02T13:55:52</time>
      </trkpt>
      <trkpt lat="44.51926" lon="1.55845">
        <ele>160</ele>
        <time>2011-04-02T13:55:54</time>
      </trkpt>
      <trkpt lat="44.51922" lon="1.55849">
        <ele>160</ele>
        <time>2011-04-02T13:55:55</time>
      </trkpt>
      <trkpt lat="44.51919" lon="1.55852">
        <ele>160</ele>
        <time>2011-04-02T13:55:56</time>
      </trkpt>
      <trkpt lat="44.51912" lon="1.55854">
        <ele>160</ele>
        <time>2011-04-02T13:55:58</time>
      </trkpt>
      <trkpt lat="44.51908" lon="1.55854">
        <ele>160</ele>
        <time>2011-04-02T13:55:59</time>
      </trkpt>
      <trkpt lat="44.51904" lon="1.55855">
        <ele>160</ele>
        <time>2011-04-02T13:56:00</time>
      </trkpt>
      <trkpt lat="44.51896" lon="1.55859">
        <ele>160</ele>
        <time>2011-04-02T13:56:02</time>
      </trkpt>
      <trkpt lat="44.51892" lon="1.55862">
        <ele>160</ele>
        <time>2011-04-02T13:56:04</time>
      </trkpt>
      <trkpt lat="44.51887" lon="1.55864">
        <ele>160</ele>
        <time>2011-04-02T13:56:06</time>
      </trkpt>
      <trkpt lat="44.51885" lon="1.55865">
        <ele>160</ele>
        <time>2011-04-02T13:56:07</time>
      </trkpt>
      <trkpt lat="44.5188" lon="1.55865">
        <ele>160</ele>
        <time>2011-04-02T13:56:09</time>
      </trkpt>
      <trkpt lat="44.51877" lon="1.55865">
        <ele>160</ele>
        <time>2011-04-02T13:56:10</time>
      </trkpt>
      <trkpt lat="44.51871" lon="1.55865">
        <ele>162</ele>
        <time>2011-04-02T13:56:12</time>
      </trkpt>
      <trkpt lat="44.51867" lon="1.55864">
        <ele>162</ele>
        <time>2011-04-02T13:56:13</time>
      </trkpt>
      <trkpt lat="44.5186" lon="1.55862">
        <ele>162</ele>
        <time>2011-04-02T13:56:15</time>
      </trkpt>
      <trkpt lat="44.51856" lon="1.55861">
        <ele>162</ele>
        <time>2011-04-02T13:56:16</time>
      </trkpt>
      <trkpt lat="44.5185" lon="1.55859">
        <ele>162</ele>
        <time>2011-04-02T13:56:18</time>
      </trkpt>
      <trkpt lat="44.51847" lon="1.55859">
        <ele>162</ele>
        <time>2011-04-02T13:56:19</time>
      </trkpt>
      <trkpt lat="44.51841" lon="1.55857">
        <ele>162</ele>
        <time>2011-04-02T13:56:21</time>
      </trkpt>
      <trkpt lat="44.51833" lon="1.55855">
        <ele>162</ele>
        <time>2011-04-02T13:56:23</time>
      </trkpt>
      <trkpt lat="44.51826" lon="1.55852">
        <ele>162</ele>
        <time>2011-04-02T13:56:25</time>
      </trkpt>
      <trkpt lat="44.5182" lon="1.5585">
        <ele>162</ele>
        <time>2011-04-02T13:56:26</time>
      </trkpt>
      <trkpt lat="44.51815" lon="1.55849">
        <ele>162</ele>
        <time>2011-04-02T13:56:27</time>
      </trkpt>
      <trkpt lat="44.51805" lon="1.55847">
        <ele>162</ele>
        <time>2011-04-02T13:56:29</time>
      </trkpt>
      <trkpt lat="44.51797" lon="1.55844">
        <ele>162</ele>
        <time>2011-04-02T13:56:31</time>
      </trkpt>
      <trkpt lat="44.5179" lon="1.55841">
        <ele>174</ele>
        <time>2011-04-02T13:56:33</time>
      </trkpt>
      <trkpt lat="44.51785" lon="1.55839">
        <ele>174</ele>
        <time>2011-04-02T13:56:35</time>
      </trkpt>
      <trkpt lat="44.51781" lon="1.55839">
        <ele>174</ele>
        <time>2011-04-02T13:56:37</time>
      </trkpt>
      <trkpt lat="44.51777" lon="1.55837">
        <ele>174</ele>
        <time>2011-04-02T13:56:39</time>
      </trkpt>
      <trkpt lat="44.51773" lon="1.55833">
        <ele>174</ele>
        <time>2011-04-02T13:56:41</time>
      </trkpt>
      <trkpt lat="44.51769" lon="1.55827">
        <ele>174</ele>
        <time>2011-04-02T13:56:43</time>
      </trkpt>
      <trkpt lat="44.51763" lon="1.5582">
        <ele>174</ele>
        <time>2011-04-02T13:56:45</time>
      </trkpt>
      <trkpt lat="44.5176" lon="1.55815">
        <ele>174</ele>
        <time>2011-04-02T13:56:46</time>
      </trkpt>
      <trkpt lat="44.51754" lon="1.55807">
        <ele>174</ele>
        <time>2011-04-02T13:56:48</time>
      </trkpt>
      <trkpt lat="44.5175" lon="1.55802">
        <ele>174</ele>
        <time>2011-04-02T13:56:49</time>
      </trkpt>
      <trkpt lat="44.51747" lon="1.55799">
        <ele>174</ele>
        <time>2011-04-02T13:56:50</time>
      </trkpt>
      <trkpt lat="44.5174" lon="1.55791">
        <ele>159</ele>
        <time>2011-04-02T13:56:52</time>
      </trkpt>
      <trkpt lat="44.51737" lon="1.55787">
        <ele>159</ele>
        <time>2011-04-02T13:56:53</time>
      </trkpt>
      <trkpt lat="44.51731" lon="1.5578">
        <ele>159</ele>
        <time>2011-04-02T13:56:55</time>
      </trkpt>
      <trkpt lat="44.51725" lon="1.55772">
        <ele>159</ele>
        <time>2011-04-02T13:56:57</time>
      </trkpt>
      <trkpt lat="44.51722" lon="1.55768">
        <ele>159</ele>
        <time>2011-04-02T13:56:58</time>
      </trkpt>
      <trkpt lat="44.51716" lon="1.55758">
        <ele>159</ele>
        <time>2011-04-02T13:57:00</time>
      </trkpt>
      <trkpt lat="44.51714" lon="1.55753">
        <ele>159</ele>
        <time>2011-04-02T13:57:01</time>
      </trkpt>
      <trkpt lat="44.51708" lon="1.55742">
        <ele>174</ele>
        <time>2011-04-02T13:57:03</time>
      </trkpt>
      <trkpt lat="44.517" lon="1.5573">
        <ele>174</ele>
        <time>2011-04-02T13:57:05</time>
      </trkpt>
      <trkpt lat="44.51696" lon="1.55724">
        <ele>174</ele>
        <time>2011-04-02T13:57:06</time>
      </trkpt>
      <trkpt lat="44.51692" lon="1.5572">
        <ele>174</ele>
        <time>2011-04-02T13:57:07</time>
      </trkpt>
      <trkpt lat="44.51685" lon="1.55714">
        <ele>174</ele>
        <time>2011-04-02T13:57:10</time>
      </trkpt>
      <trkpt lat="44.51682" lon="1.55712">
        <ele>174</ele>
        <time>2011-04-02T13:57:12</time>
      </trkpt>
      <trkpt lat="44.51678" lon="1.55709">
        <ele>174</ele>
        <time>2011-04-02T13:57:14</time>
      </trkpt>
      <trkpt lat="44.51675" lon="1.55706">
        <ele>158</ele>
        <time>2011-04-02T13:57:15</time>
      </trkpt>
      <trkpt lat="44.51672" lon="1.55704">
        <ele>158</ele>
        <time>2011-04-02T13:57:16</time>
      </trkpt>
      <trkpt lat="44.51666" lon="1.55701">
        <ele>158</ele>
        <time>2011-04-02T13:57:18</time>
      </trkpt>
      <trkpt lat="44.5166" lon="1.55698">
        <ele>158</ele>
        <time>2011-04-02T13:57:20</time>
      </trkpt>
      <trkpt lat="44.51654" lon="1.55696">
        <ele>158</ele>
        <time>2011-04-02T13:57:22</time>
      </trkpt>
      <trkpt lat="44.51651" lon="1.55695">
        <ele>158</ele>
        <time>2011-04-02T13:57:23</time>
      </trkpt>
      <trkpt lat="44.51648" lon="1.55694">
        <ele>158</ele>
        <time>2011-04-02T13:57:24</time>
      </trkpt>
      <trkpt lat="44.5164" lon="1.55695">
        <ele>158</ele>
        <time>2011-04-02T13:57:26</time>
      </trkpt>
      <trkpt lat="44.51635" lon="1.55695">
        <ele>158</ele>
        <time>2011-04-02T13:57:27</time>
      </trkpt>
      <trkpt lat="44.51625" lon="1.55696">
        <ele>156</ele>
        <time>2011-04-02T13:57:29</time>
      </trkpt>
      <trkpt lat="44.51621" lon="1.55697">
        <ele>156</ele>
        <time>2011-04-02T13:57:30</time>
      </trkpt>
      <trkpt lat="44.51617" lon="1.55698">
        <ele>156</ele>
        <time>2011-04-02T13:57:31</time>
      </trkpt>
      <trkpt lat="44.5161" lon="1.55699">
        <ele>156</ele>
        <time>2011-04-02T13:57:33</time>
      </trkpt>
      <trkpt lat="44.51604" lon="1.557">
        <ele>156</ele>
        <time>2011-04-02T13:57:35</time>
      </trkpt>
      <trkpt lat="44.51596" lon="1.557">
        <ele>156</ele>
        <time>2011-04-02T13:57:37</time>
      </trkpt>
      <trkpt lat="44.51593" lon="1.557">
        <ele>156</ele>
        <time>2011-04-02T13:57:38</time>
      </trkpt>
      <trkpt lat="44.51584" lon="1.55704">
        <ele>156</ele>
        <time>2011-04-02T13:57:40</time>
      </trkpt>
      <trkpt lat="44.5158" lon="1.55706">
        <ele>156</ele>
        <time>2011-04-02T13:57:41</time>
      </trkpt>
      <trkpt lat="44.51573" lon="1.55708">
        <ele>156</ele>
        <time>2011-04-02T13:57:43</time>
      </trkpt>
      <trkpt lat="44.51566" lon="1.55712">
        <ele>180</ele>
        <time>2011-04-02T13:57:45</time>
      </trkpt>
      <trkpt lat="44.5156" lon="1.55716">
        <ele>180</ele>
        <time>2011-04-02T13:57:47</time>
      </trkpt>
      <trkpt lat="44.51553" lon="1.55722">
        <ele>180</ele>
        <time>2011-04-02T13:57:49</time>
      </trkpt>
      <trkpt lat="44.51545" lon="1.55728">
        <ele>180</ele>
        <time>2011-04-02T13:57:51</time>
      </trkpt>
      <trkpt lat="44.51541" lon="1.55731">
        <ele>161</ele>
        <time>2011-04-02T13:57:52</time>
      </trkpt>
      <trkpt lat="44.51537" lon="1.55734">
        <ele>161</ele>
        <time>2011-04-02T13:57:53</time>
      </trkpt>
      <trkpt lat="44.51533" lon="1.55737">
        <ele>161</ele>
        <time>2011-04-02T13:57:54</time>
      </trkpt>
      <trkpt lat="44.51524" lon="1.55741">
        <ele>161</ele>
        <time>2011-04-02T13:57:56</time>
      </trkpt>
      <trkpt lat="44.5152" lon="1.55744">
        <ele>161</ele>
        <time>2011-04-02T13:57:57</time>
      </trkpt>
      <trkpt lat="44.51512" lon="1.5575">
        <ele>161</ele>
        <time>2011-04-02T13:57:59</time>
      </trkpt>
      <trkpt lat="44.51504" lon="1.55756">
        <ele>161</ele>
        <time>2011-04-02T13:58:01</time>
      </trkpt>
      <trkpt lat="44.515" lon="1.5576">
        <ele>161</ele>
        <time>2011-04-02T13:58:02</time>
      </trkpt>
      <trkpt lat="44.51496" lon="1.55763">
        <ele>161</ele>
        <time>2011-04-02T13:58:03</time>
      </trkpt>
      <trkpt lat="44.51488" lon="1.55771">
        <ele>161</ele>
        <time>2011-04-02T13:58:05</time>
      </trkpt>
      <trkpt lat="44.51483" lon="1.55779">
        <ele>161</ele>
        <time>2011-04-02T13:58:07</time>
      </trkpt>
      <trkpt lat="44.51481" lon="1.55784">
        <ele>161</ele>
        <time>2011-04-02T13:58:08</time>
      </trkpt>
      <trkpt lat="44.51477" lon="1.55794">
        <ele>182</ele>
        <time>2011-04-02T13:58:10</time>
      </trkpt>
      <trkpt lat="44.51475" lon="1.55799">
        <ele>182</ele>
        <time>2011-04-02T13:58:11</time>
      </trkpt>
      <trkpt lat="44.51472" lon="1.55809">
        <ele>182</ele>
        <time>2011-04-02T13:58:13</time>
      </trkpt>
      <trkpt lat="44.51469" lon="1.55815">
        <ele>182</ele>
        <time>2011-04-02T13:58:14</time>
      </trkpt>
      <trkpt lat="44.51467" lon="1.55821">
        <ele>182</ele>
        <time>2011-04-02T13:58:15</time>
      </trkpt>
      <trkpt lat="44.51462" lon="1.55835">
        <ele>182</ele>
        <time>2011-04-02T13:58:17</time>
      </trkpt>
      <trkpt lat="44.5146" lon="1.55842">
        <ele>182</ele>
        <time>2011-04-02T13:58:18</time>
      </trkpt>
      <trkpt lat="44.51456" lon="1.55854">
        <ele>166</ele>
        <time>2011-04-02T13:58:20</time>
      </trkpt>
      <trkpt lat="44.51454" lon="1.5586">
        <ele>166</ele>
        <time>2011-04-02T13:58:21</time>
      </trkpt>
      <trkpt lat="44.5145" lon="1.55871">
        <ele>166</ele>
        <time>2011-04-02T13:58:23</time>
      </trkpt>
      <trkpt lat="44.51448" lon="1.55876">
        <ele>171</ele>
        <time>2011-04-02T13:58:24</time>
      </trkpt>
      <trkpt lat="44.51446" lon="1.5588">
        <ele>171</ele>
        <time>2011-04-02T13:58:25</time>
      </trkpt>
      <trkpt lat="44.51442" lon="1.55886">
        <ele>171</ele>
        <time>2011-04-02T13:58:27</time>
      </trkpt>
      <trkpt lat="44.51438" lon="1.55886">
        <ele>171</ele>
        <time>2011-04-02T13:58:29</time>
      </trkpt>
      <trkpt lat="44.51434" lon="1.55886">
        <ele>171</ele>
        <time>2011-04-02T13:58:31</time>
      </trkpt>
      <trkpt lat="44.51431" lon="1.55885">
        <ele>171</ele>
        <time>2011-04-02T13:58:33</time>
      </trkpt>
      <trkpt lat="44.51428" lon="1.55881">
        <ele>171</ele>
        <time>2011-04-02T13:58:35</time>
      </trkpt>
      <trkpt lat="44.51427" lon="1.55878">
        <ele>171</ele>
        <time>2011-04-02T13:58:36</time>
      </trkpt>
      <trkpt lat="44.51427" lon="1.5587">
        <ele>166</ele>
        <time>2011-04-02T13:58:38</time>
      </trkpt>
      <trkpt lat="44.51426" lon="1.55867">
        <ele>166</ele>
        <time>2011-04-02T13:58:39</time>
      </trkpt>
      <trkpt lat="44.51426" lon="1.55859">
        <ele>166</ele>
        <time>2011-04-02T13:58:41</time>
      </trkpt>
      <trkpt lat="44.51426" lon="1.5585">
        <ele>166</ele>
        <time>2011-04-02T13:58:43</time>
      </trkpt>
      <trkpt lat="44.51427" lon="1.55843">
        <ele>166</ele>
        <time>2011-04-02T13:58:45</time>
      </trkpt>
      <trkpt lat="44.51428" lon="1.55839">
        <ele>166</ele>
        <time>2011-04-02T13:58:46</time>
      </trkpt>
      <trkpt lat="44.51428" lon="1.55834">
        <ele>166</ele>
        <time>2011-04-02T13:58:47</time>
      </trkpt>
      <trkpt lat="44.51429" lon="1.55829">
        <ele>166</ele>
        <time>2011-04-02T13:58:48</time>
      </trkpt>
      <trkpt lat="44.51429" lon="1.55824">
        <ele>166</ele>
        <time>2011-04-02T13:58:49</time>
      </trkpt>
      <trkpt lat="44.51429" lon="1.55818">
        <ele>166</ele>
        <time>2011-04-02T13:58:50</time>
      </trkpt>
      <trkpt lat="44.51429" lon="1.55808">
        <ele>166</ele>
        <time>2011-04-02T13:58:52</time>
      </trkpt>
      <trkpt lat="44.51426" lon="1.55797">
        <ele>166</ele>
        <time>2011-04-02T13:58:54</time>
      </trkpt>
      <trkpt lat="44.51424" lon="1.5579">
        <ele>158</ele>
        <time>2011-04-02T13:58:55</time>
      </trkpt>
      <trkpt lat="44.51421" lon="1.55784">
        <ele>158</ele>
        <time>2011-04-02T13:58:56</time>
      </trkpt>
      <trkpt lat="44.51414" lon="1.55772">
        <ele>158</ele>
        <time>2011-04-02T13:58:58</time>
      </trkpt>
      <trkpt lat="44.51411" lon="1.55768">
        <ele>158</ele>
        <time>2011-04-02T13:58:59</time>
      </trkpt>
      <trkpt lat="44.51402" lon="1.55761">
        <ele>158</ele>
        <time>2011-04-02T13:59:01</time>
      </trkpt>
      <trkpt lat="44.51394" lon="1.55757">
        <ele>158</ele>
        <time>2011-04-02T13:59:03</time>
      </trkpt>
      <trkpt lat="44.51387" lon="1.55754">
        <ele>158</ele>
        <time>2011-04-02T13:59:05</time>
      </trkpt>
      <trkpt lat="44.51383" lon="1.55753">
        <ele>158</ele>
        <time>2011-04-02T13:59:06</time>
      </trkpt>
      <trkpt lat="44.51379" lon="1.55752">
        <ele>158</ele>
        <time>2011-04-02T13:59:07</time>
      </trkpt>
      <trkpt lat="44.51371" lon="1.55749">
        <ele>167</ele>
        <time>2011-04-02T13:59:09</time>
      </trkpt>
      <trkpt lat="44.51364" lon="1.55747">
        <ele>167</ele>
        <time>2011-04-02T13:59:11</time>
      </trkpt>
      <trkpt lat="44.5136" lon="1.55746">
        <ele>167</ele>
        <time>2011-04-02T13:59:12</time>
      </trkpt>
      <trkpt lat="44.51354" lon="1.55745">
        <ele>167</ele>
        <time>2011-04-02T13:59:14</time>
      </trkpt>
      <trkpt lat="44.51347" lon="1.55744">
        <ele>167</ele>
        <time>2011-04-02T13:59:16</time>
      </trkpt>
      <trkpt lat="44.5134" lon="1.55742">
        <ele>167</ele>
        <time>2011-04-02T13:59:18</time>
      </trkpt>
      <trkpt lat="44.51333" lon="1.55741">
        <ele>167</ele>
        <time>2011-04-02T13:59:20</time>
      </trkpt>
      <trkpt lat="44.5133" lon="1.55741">
        <ele>167</ele>
        <time>2011-04-02T13:59:21</time>
      </trkpt>
      <trkpt lat="44.51322" lon="1.5574">
        <ele>167</ele>
        <time>2011-04-02T13:59:23</time>
      </trkpt>
      <trkpt lat="44.51315" lon="1.5574">
        <ele>167</ele>
        <time>2011-04-02T13:59:25</time>
      </trkpt>
      <trkpt lat="44.51309" lon="1.55741">
        <ele>167</ele>
        <time>2011-04-02T13:59:27</time>
      </trkpt>
      <trkpt lat="44.51306" lon="1.55741">
        <ele>167</ele>
        <time>2011-04-02T13:59:28</time>
      </trkpt>
      <trkpt lat="44.51298" lon="1.55741">
        <ele>167</ele>
        <time>2011-04-02T13:59:30</time>
      </trkpt>
      <trkpt lat="44.51293" lon="1.5574">
        <ele>167</ele>
        <time>2011-04-02T13:59:31</time>
      </trkpt>
      <trkpt lat="44.51283" lon="1.55739">
        <ele>167</ele>
        <time>2011-04-02T13:59:33</time>
      </trkpt>
      <trkpt lat="44.51278" lon="1.55739">
        <ele>167</ele>
        <time>2011-04-02T13:59:34</time>
      </trkpt>
      <trkpt lat="44.51269" lon="1.55741">
        <ele>167</ele>
        <time>2011-04-02T13:59:36</time>
      </trkpt>
      <trkpt lat="44.51265" lon="1.55742">
        <ele>167</ele>
        <time>2011-04-02T13:59:37</time>
      </trkpt>
      <trkpt lat="44.51261" lon="1.55743">
        <ele>167</ele>
        <time>2011-04-02T13:59:38</time>
      </trkpt>
      <trkpt lat="44.51255" lon="1.55747">
        <ele>167</ele>
        <time>2011-04-02T13:59:40</time>
      </trkpt>
      <trkpt lat="44.51249" lon="1.55751">
        <ele>167</ele>
        <time>2011-04-02T13:59:42</time>
      </trkpt>
      <trkpt lat="44.51246" lon="1.55752">
        <ele>167</ele>
        <time>2011-04-02T13:59:43</time>
      </trkpt>
      <trkpt lat="44.51241" lon="1.55754">
        <ele>167</ele>
        <time>2011-04-02T13:59:45</time>
      </trkpt>
      <trkpt lat="44.51237" lon="1.55755">
        <ele>167</ele>
        <time>2011-04-02T13:59:47</time>
      </trkpt>
      <trkpt lat="44.5123" lon="1.55757">
        <ele>167</ele>
        <time>2011-04-02T13:59:49</time>
      </trkpt>
      <trkpt lat="44.51224" lon="1.55758">
        <ele>167</ele>
        <time>2011-04-02T13:59:51</time>
      </trkpt>
      <trkpt lat="44.51213" lon="1.55759">
        <ele>167</ele>
        <time>2011-04-02T13:59:53</time>
      </trkpt>
      <trkpt lat="44.51208" lon="1.55759">
        <ele>162</ele>
        <time>2011-04-02T13:59:54</time>
      </trkpt>
      <trkpt lat="44.51204" lon="1.55759">
        <ele>162</ele>
        <time>2011-04-02T13:59:55</time>
      </trkpt>
      <trkpt lat="44.51201" lon="1.55759">
        <ele>162</ele>
        <time>2011-04-02T13:59:56</time>
      </trkpt>
      <trkpt lat="44.51196" lon="1.5576">
        <ele>162</ele>
        <time>2011-04-02T13:59:58</time>
      </trkpt>
      <trkpt lat="44.51193" lon="1.55761">
        <ele>162</ele>
        <time>2011-04-02T13:59:59</time>
      </trkpt>
      <trkpt lat="44.51191" lon="1.55762">
        <ele>162</ele>
        <time>2011-04-02T14:00:00</time>
      </trkpt>
      <trkpt lat="44.51185" lon="1.55763">
        <ele>162</ele>
        <time>2011-04-02T14:00:02</time>
      </trkpt>
      <trkpt lat="44.5118" lon="1.55764">
        <ele>162</ele>
        <time>2011-04-02T14:00:03</time>
      </trkpt>
      <trkpt lat="44.51172" lon="1.55764">
        <ele>162</ele>
        <time>2011-04-02T14:00:05</time>
      </trkpt>
      <trkpt lat="44.51166" lon="1.55765">
        <ele>162</ele>
        <time>2011-04-02T14:00:07</time>
      </trkpt>
      <trkpt lat="44.51162" lon="1.55765">
        <ele>162</ele>
        <time>2011-04-02T14:00:08</time>
      </trkpt>
      <trkpt lat="44.51154" lon="1.55763">
        <ele>162</ele>
        <time>2011-04-02T14:00:10</time>
      </trkpt>
      <trkpt lat="44.51147" lon="1.55763">
        <ele>162</ele>
        <time>2011-04-02T14:00:12</time>
      </trkpt>
      <trkpt lat="44.51139" lon="1.55763">
        <ele>162</ele>
        <time>2011-04-02T14:00:14</time>
      </trkpt>
      <trkpt lat="44.51136" lon="1.55763">
        <ele>162</ele>
        <time>2011-04-02T14:00:15</time>
      </trkpt>
      <trkpt lat="44.5113" lon="1.55764">
        <ele>162</ele>
        <time>2011-04-02T14:00:17</time>
      </trkpt>
      <trkpt lat="44.51124" lon="1.55765">
        <ele>158</ele>
        <time>2011-04-02T14:00:19</time>
      </trkpt>
      <trkpt lat="44.5112" lon="1.55766">
        <ele>158</ele>
        <time>2011-04-02T14:00:20</time>
      </trkpt>
      <trkpt lat="44.51112" lon="1.55768">
        <ele>158</ele>
        <time>2011-04-02T14:00:22</time>
      </trkpt>
      <trkpt lat="44.51104" lon="1.55771">
        <ele>158</ele>
        <time>2011-04-02T14:00:24</time>
      </trkpt>
      <trkpt lat="44.511" lon="1.55772">
        <ele>158</ele>
        <time>2011-04-02T14:00:25</time>
      </trkpt>
      <trkpt lat="44.51094" lon="1.55773">
        <ele>158</ele>
        <time>2011-04-02T14:00:27</time>
      </trkpt>
      <trkpt lat="44.5109" lon="1.55773">
        <ele>158</ele>
        <time>2011-04-02T14:00:28</time>
      </trkpt>
      <trkpt lat="44.51087" lon="1.55773">
        <ele>158</ele>
        <time>2011-04-02T14:00:29</time>
      </trkpt>
      <trkpt lat="44.51079" lon="1.55772">
        <ele>158</ele>
        <time>2011-04-02T14:00:31</time>
      </trkpt>
      <trkpt lat="44.5107" lon="1.55773">
        <ele>158</ele>
        <time>2011-04-02T14:00:33</time>
      </trkpt>
      <trkpt lat="44.51058" lon="1.55773">
        <ele>158</ele>
        <time>2011-04-02T14:00:35</time>
      </trkpt>
      <trkpt lat="44.51047" lon="1.55775">
        <ele>158</ele>
        <time>2011-04-02T14:00:37</time>
      </trkpt>
      <trkpt lat="44.51041" lon="1.55775">
        <ele>155</ele>
        <time>2011-04-02T14:00:38</time>
      </trkpt>
      <trkpt lat="44.51036" lon="1.55776">
        <ele>155</ele>
        <time>2011-04-02T14:00:39</time>
      </trkpt>
      <trkpt lat="44.51027" lon="1.55776">
        <ele>155</ele>
        <time>2011-04-02T14:00:41</time>
      </trkpt>
      <trkpt lat="44.51023" lon="1.55776">
        <ele>155</ele>
        <time>2011-04-02T14:00:42</time>
      </trkpt>
      <trkpt lat="44.51015" lon="1.55776">
        <ele>155</ele>
        <time>2011-04-02T14:00:44</time>
      </trkpt>
      <trkpt lat="44.51011" lon="1.55776">
        <ele>155</ele>
        <time>2011-04-02T14:00:45</time>
      </trkpt>
      <trkpt lat="44.51003" lon="1.55774">
        <ele>155</ele>
        <time>2011-04-02T14:00:47</time>
      </trkpt>
      <trkpt lat="44.50999" lon="1.55773">
        <ele>155</ele>
        <time>2011-04-02T14:00:48</time>
      </trkpt>
      <trkpt lat="44.50996" lon="1.55772">
        <ele>155</ele>
        <time>2011-04-02T14:00:49</time>
      </trkpt>
      <trkpt lat="44.50988" lon="1.5577">
        <ele>155</ele>
        <time>2011-04-02T14:00:51</time>
      </trkpt>
      <trkpt lat="44.50985" lon="1.5577">
        <ele>155</ele>
        <time>2011-04-02T14:00:52</time>
      </trkpt>
      <trkpt lat="44.50978" lon="1.55768">
        <ele>155</ele>
        <time>2011-04-02T14:00:54</time>
      </trkpt>
      <trkpt lat="44.50968" lon="1.55766">
        <ele>155</ele>
        <time>2011-04-02T14:00:56</time>
      </trkpt>
      <trkpt lat="44.50962" lon="1.55764">
        <ele>155</ele>
        <time>2011-04-02T14:00:58</time>
      </trkpt>
      <trkpt lat="44.50959" lon="1.55762">
        <ele>155</ele>
        <time>2011-04-02T14:00:59</time>
      </trkpt>
      <trkpt lat="44.50953" lon="1.5576">
        <ele>160</ele>
        <time>2011-04-02T14:01:01</time>
      </trkpt>
      <trkpt lat="44.5095" lon="1.55759">
        <ele>160</ele>
        <time>2011-04-02T14:01:02</time>
      </trkpt>
      <trkpt lat="44.50943" lon="1.55756">
        <ele>160</ele>
        <time>2011-04-02T14:01:04</time>
      </trkpt>
      <trkpt lat="44.50937" lon="1.55754">
        <ele>160</ele>
        <time>2011-04-02T14:01:06</time>
      </trkpt>
      <trkpt lat="44.5093" lon="1.55753">
        <ele>160</ele>
        <time>2011-04-02T14:01:08</time>
      </trkpt>
      <trkpt lat="44.50926" lon="1.55752">
        <ele>160</ele>
        <time>2011-04-02T14:01:09</time>
      </trkpt>
      <trkpt lat="44.50918" lon="1.55749">
        <ele>160</ele>
        <time>2011-04-02T14:01:11</time>
      </trkpt>
      <trkpt lat="44.50914" lon="1.55747">
        <ele>160</ele>
        <time>2011-04-02T14:01:12</time>
      </trkpt>
      <trkpt lat="44.50905" lon="1.55743">
        <ele>160</ele>
        <time>2011-04-02T14:01:14</time>
      </trkpt>
      <trkpt lat="44.509" lon="1.55741">
        <ele>160</ele>
        <time>2011-04-02T14:01:15</time>
      </trkpt>
      <trkpt lat="44.50893" lon="1.55736">
        <ele>160</ele>
        <time>2011-04-02T14:01:17</time>
      </trkpt>
      <trkpt lat="44.50889" lon="1.55734">
        <ele>160</ele>
        <time>2011-04-02T14:01:18</time>
      </trkpt>
      <trkpt lat="44.50885" lon="1.55732">
        <ele>160</ele>
        <time>2011-04-02T14:01:19</time>
      </trkpt>
      <trkpt lat="44.50876" lon="1.55728">
        <ele>160</ele>
        <time>2011-04-02T14:01:21</time>
      </trkpt>
      <trkpt lat="44.5087" lon="1.55725">
        <ele>170</ele>
        <time>2011-04-02T14:01:22</time>
      </trkpt>
      <trkpt lat="44.50861" lon="1.55721">
        <ele>170</ele>
        <time>2011-04-02T14:01:24</time>
      </trkpt>
      <trkpt lat="44.50857" lon="1.55719">
        <ele>170</ele>
        <time>2011-04-02T14:01:25</time>
      </trkpt>
      <trkpt lat="44.5085" lon="1.55715">
        <ele>170</ele>
        <time>2011-04-02T14:01:27</time>
      </trkpt>
      <trkpt lat="44.50847" lon="1.55713">
        <ele>170</ele>
        <time>2011-04-02T14:01:28</time>
      </trkpt>
      <trkpt lat="44.50841" lon="1.55709">
        <ele>170</ele>
        <time>2011-04-02T14:01:30</time>
      </trkpt>
      <trkpt lat="44.50839" lon="1.55707">
        <ele>154</ele>
        <time>2011-04-02T14:01:31</time>
      </trkpt>
      <trkpt lat="44.50835" lon="1.55703">
        <ele>154</ele>
        <time>2011-04-02T14:01:33</time>
      </trkpt>
      <trkpt lat="44.50832" lon="1.557">
        <ele>154</ele>
        <time>2011-04-02T14:01:35</time>
      </trkpt>
      <trkpt lat="44.50831" lon="1.55697">
        <ele>154</ele>
        <time>2011-04-02T14:01:37</time>
      </trkpt>
      <trkpt lat="44.50827" lon="1.55692">
        <ele>154</ele>
        <time>2011-04-02T14:01:39</time>
      </trkpt>
      <trkpt lat="44.50821" lon="1.55687">
        <ele>154</ele>
        <time>2011-04-02T14:01:41</time>
      </trkpt>
      <trkpt lat="44.50815" lon="1.55682">
        <ele>154</ele>
        <time>2011-04-02T14:01:43</time>
      </trkpt>
      <trkpt lat="44.50808" lon="1.55677">
        <ele>154</ele>
        <time>2011-04-02T14:01:45</time>
      </trkpt>
      <trkpt lat="44.50803" lon="1.55673">
        <ele>154</ele>
        <time>2011-04-02T14:01:47</time>
      </trkpt>
      <trkpt lat="44.50801" lon="1.55671">
        <ele>154</ele>
        <time>2011-04-02T14:01:48</time>
      </trkpt>
      <trkpt lat="44.50797" lon="1.55665">
        <ele>154</ele>
        <time>2011-04-02T14:01:50</time>
      </trkpt>
      <trkpt lat="44.50795" lon="1.55663">
        <ele>154</ele>
        <time>2011-04-02T14:01:51</time>
      </trkpt>
      <trkpt lat="44.5079" lon="1.55659">
        <ele>173</ele>
        <time>2011-04-02T14:01:53</time>
      </trkpt>
      <trkpt lat="44.50788" lon="1.55657">
        <ele>173</ele>
        <time>2011-04-02T14:01:54</time>
      </trkpt>
      <trkpt lat="44.50785" lon="1.55653">
        <ele>173</ele>
        <time>2011-04-02T14:01:56</time>
      </trkpt>
      <trkpt lat="44.50783" lon="1.55649">
        <ele>173</ele>
        <time>2011-04-02T14:01:57</time>
      </trkpt>
      <trkpt lat="44.50779" lon="1.55644">
        <ele>173</ele>
        <time>2011-04-02T14:01:58</time>
      </trkpt>
      <trkpt lat="44.50771" lon="1.55634">
        <ele>173</ele>
        <time>2011-04-02T14:02:00</time>
      </trkpt>
      <trkpt lat="44.50767" lon="1.5563">
        <ele>173</ele>
        <time>2011-04-02T14:02:01</time>
      </trkpt>
      <trkpt lat="44.50762" lon="1.55623">
        <ele>158</ele>
        <time>2011-04-02T14:02:03</time>
      </trkpt>
      <trkpt lat="44.50759" lon="1.5562">
        <ele>158</ele>
        <time>2011-04-02T14:02:04</time>
      </trkpt>
      <trkpt lat="44.50754" lon="1.5561">
        <ele>158</ele>
        <time>2011-04-02T14:02:06</time>
      </trkpt>
      <trkpt lat="44.50751" lon="1.55606">
        <ele>158</ele>
        <time>2011-04-02T14:02:07</time>
      </trkpt>
      <trkpt lat="44.50749" lon="1.55601">
        <ele>158</ele>
        <time>2011-04-02T14:02:08</time>
      </trkpt>
      <trkpt lat="44.50745" lon="1.55589">
        <ele>158</ele>
        <time>2011-04-02T14:02:10</time>
      </trkpt>
      <trkpt lat="44.5074" lon="1.55579">
        <ele>158</ele>
        <time>2011-04-02T14:02:12</time>
      </trkpt>
      <trkpt lat="44.50738" lon="1.55574">
        <ele>158</ele>
        <time>2011-04-02T14:02:13</time>
      </trkpt>
      <trkpt lat="44.50736" lon="1.55569">
        <ele>158</ele>
        <time>2011-04-02T14:02:14</time>
      </trkpt>
      <trkpt lat="44.50731" lon="1.55561">
        <ele>158</ele>
        <time>2011-04-02T14:02:16</time>
      </trkpt>
      <trkpt lat="44.50729" lon="1.55557">
        <ele>158</ele>
        <time>2011-04-02T14:02:17</time>
      </trkpt>
      <trkpt lat="44.50723" lon="1.55549">
        <ele>158</ele>
        <time>2011-04-02T14:02:19</time>
      </trkpt>
      <trkpt lat="44.5072" lon="1.55545">
        <ele>158</ele>
        <time>2011-04-02T14:02:20</time>
      </trkpt>
      <trkpt lat="44.50715" lon="1.55541">
        <ele>155</ele>
        <time>2011-04-02T14:02:21</time>
      </trkpt>
      <trkpt lat="44.50701" lon="1.55533">
        <ele>156</ele>
        <time>2011-04-02T14:02:23</time>
      </trkpt>
      <trkpt lat="44.50694" lon="1.55528">
        <ele>156</ele>
        <time>2011-04-02T14:02:24</time>
      </trkpt>
      <trkpt lat="44.50686" lon="1.55525">
        <ele>156</ele>
        <time>2011-04-02T14:02:25</time>
      </trkpt>
      <trkpt lat="44.50675" lon="1.5552">
        <ele>156</ele>
        <time>2011-04-02T14:02:27</time>
      </trkpt>
      <trkpt lat="44.50666" lon="1.55517">
        <ele>156</ele>
        <time>2011-04-02T14:02:29</time>
      </trkpt>
      <trkpt lat="44.50662" lon="1.55515">
        <ele>156</ele>
        <time>2011-04-02T14:02:30</time>
      </trkpt>
      <trkpt lat="44.50658" lon="1.55513">
        <ele>156</ele>
        <time>2011-04-02T14:02:31</time>
      </trkpt>
      <trkpt lat="44.5065" lon="1.55507">
        <ele>156</ele>
        <time>2011-04-02T14:02:33</time>
      </trkpt>
      <trkpt lat="44.50643" lon="1.55502">
        <ele>156</ele>
        <time>2011-04-02T14:02:35</time>
      </trkpt>
      <trkpt lat="44.50639" lon="1.555">
        <ele>156</ele>
        <time>2011-04-02T14:02:36</time>
      </trkpt>
      <trkpt lat="44.50635" lon="1.55498">
        <ele>156</ele>
        <time>2011-04-02T14:02:37</time>
      </trkpt>
      <trkpt lat="44.50628" lon="1.55495">
        <ele>156</ele>
        <time>2011-04-02T14:02:39</time>
      </trkpt>
      <trkpt lat="44.50622" lon="1.55493">
        <ele>161</ele>
        <time>2011-04-02T14:02:41</time>
      </trkpt>
      <trkpt lat="44.5062" lon="1.55491">
        <ele>161</ele>
        <time>2011-04-02T14:02:42</time>
      </trkpt>
      <trkpt lat="44.50613" lon="1.55488">
        <ele>161</ele>
        <time>2011-04-02T14:02:44</time>
      </trkpt>
      <trkpt lat="44.50607" lon="1.55486">
        <ele>161</ele>
        <time>2011-04-02T14:02:46</time>
      </trkpt>
      <trkpt lat="44.50603" lon="1.55484">
        <ele>161</ele>
        <time>2011-04-02T14:02:47</time>
      </trkpt>
      <trkpt lat="44.506" lon="1.55483">
        <ele>161</ele>
        <time>2011-04-02T14:02:48</time>
      </trkpt>
      <trkpt lat="44.50593" lon="1.5548">
        <ele>161</ele>
        <time>2011-04-02T14:02:50</time>
      </trkpt>
      <trkpt lat="44.50586" lon="1.55481">
        <ele>161</ele>
        <time>2011-04-02T14:02:52</time>
      </trkpt>
      <trkpt lat="44.5058" lon="1.55482">
        <ele>161</ele>
        <time>2011-04-02T14:02:54</time>
      </trkpt>
      <trkpt lat="44.50571" lon="1.55485">
        <ele>161</ele>
        <time>2011-04-02T14:02:56</time>
      </trkpt>
      <trkpt lat="44.50561" lon="1.5549">
        <ele>161</ele>
        <time>2011-04-02T14:02:58</time>
      </trkpt>
      <trkpt lat="44.50555" lon="1.55492">
        <ele>161</ele>
        <time>2011-04-02T14:02:59</time>
      </trkpt>
      <trkpt lat="44.50541" lon="1.55499">
        <ele>152</ele>
        <time>2011-04-02T14:03:01</time>
      </trkpt>
      <trkpt lat="44.50529" lon="1.55512">
        <ele>152</ele>
        <time>2011-04-02T14:03:03</time>
      </trkpt>
      <trkpt lat="44.50518" lon="1.55525">
        <ele>152</ele>
        <time>2011-04-02T14:03:05</time>
      </trkpt>
      <trkpt lat="44.50511" lon="1.55539">
        <ele>152</ele>
        <time>2011-04-02T14:03:07</time>
      </trkpt>
      <trkpt lat="44.50504" lon="1.55552">
        <ele>158</ele>
        <time>2011-04-02T14:03:09</time>
      </trkpt>
      <trkpt lat="44.50496" lon="1.55566">
        <ele>158</ele>
        <time>2011-04-02T14:03:11</time>
      </trkpt>
      <trkpt lat="44.50492" lon="1.55572">
        <ele>158</ele>
        <time>2011-04-02T14:03:12</time>
      </trkpt>
      <trkpt lat="44.50483" lon="1.55584">
        <ele>158</ele>
        <time>2011-04-02T14:03:14</time>
      </trkpt>
      <trkpt lat="44.50476" lon="1.55595">
        <ele>158</ele>
        <time>2011-04-02T14:03:16</time>
      </trkpt>
      <trkpt lat="44.50469" lon="1.55605">
        <ele>158</ele>
        <time>2011-04-02T14:03:18</time>
      </trkpt>
      <trkpt lat="44.50462" lon="1.55613">
        <ele>158</ele>
        <time>2011-04-02T14:03:20</time>
      </trkpt>
      <trkpt lat="44.50459" lon="1.55617">
        <ele>158</ele>
        <time>2011-04-02T14:03:21</time>
      </trkpt>
      <trkpt lat="44.50452" lon="1.55625">
        <ele>161</ele>
        <time>2011-04-02T14:03:23</time>
      </trkpt>
      <trkpt lat="44.50443" lon="1.55633">
        <ele>161</ele>
        <time>2011-04-02T14:03:25</time>
      </trkpt>
      <trkpt lat="44.50435" lon="1.55641">
        <ele>161</ele>
        <time>2011-04-02T14:03:27</time>
      </trkpt>
      <trkpt lat="44.50427" lon="1.55648">
        <ele>161</ele>
        <time>2011-04-02T14:03:29</time>
      </trkpt>
      <trkpt lat="44.50423" lon="1.5565">
        <ele>161</ele>
        <time>2011-04-02T14:03:30</time>
      </trkpt>
      <trkpt lat="44.50412" lon="1.55654">
        <ele>161</ele>
        <time>2011-04-02T14:03:32</time>
      </trkpt>
      <trkpt lat="44.50407" lon="1.55656">
        <ele>161</ele>
        <time>2011-04-02T14:03:33</time>
      </trkpt>
      <trkpt lat="44.50402" lon="1.55658">
        <ele>161</ele>
        <time>2011-04-02T14:03:34</time>
      </trkpt>
      <trkpt lat="44.50398" lon="1.55659">
        <ele>161</ele>
        <time>2011-04-02T14:03:35</time>
      </trkpt>
      <trkpt lat="44.50388" lon="1.55663">
        <ele>161</ele>
        <time>2011-04-02T14:03:37</time>
      </trkpt>
      <trkpt lat="44.50379" lon="1.55668">
        <ele>161</ele>
        <time>2011-04-02T14:03:39</time>
      </trkpt>
      <trkpt lat="44.50371" lon="1.55674">
        <ele>151</ele>
        <time>2011-04-02T14:03:41</time>
      </trkpt>
      <trkpt lat="44.50367" lon="1.55677">
        <ele>151</ele>
        <time>2011-04-02T14:03:42</time>
      </trkpt>
      <trkpt lat="44.50359" lon="1.55683">
        <ele>151</ele>
        <time>2011-04-02T14:03:44</time>
      </trkpt>
      <trkpt lat="44.50354" lon="1.55685">
        <ele>151</ele>
        <time>2011-04-02T14:03:45</time>
      </trkpt>
      <trkpt lat="44.50345" lon="1.55686">
        <ele>151</ele>
        <time>2011-04-02T14:03:47</time>
      </trkpt>
      <trkpt lat="44.5034" lon="1.55687">
        <ele>151</ele>
        <time>2011-04-02T14:03:48</time>
      </trkpt>
      <trkpt lat="44.50331" lon="1.55689">
        <ele>151</ele>
        <time>2011-04-02T14:03:50</time>
      </trkpt>
      <trkpt lat="44.50321" lon="1.5569">
        <ele>151</ele>
        <time>2011-04-02T14:03:52</time>
      </trkpt>
      <trkpt lat="44.50312" lon="1.55691">
        <ele>151</ele>
        <time>2011-04-02T14:03:54</time>
      </trkpt>
      <trkpt lat="44.50308" lon="1.5569">
        <ele>151</ele>
        <time>2011-04-02T14:03:55</time>
      </trkpt>
      <trkpt lat="44.50301" lon="1.5569">
        <ele>151</ele>
        <time>2011-04-02T14:03:57</time>
      </trkpt>
      <trkpt lat="44.50292" lon="1.55689">
        <ele>151</ele>
        <time>2011-04-02T14:03:59</time>
      </trkpt>
      <trkpt lat="44.50282" lon="1.55687">
        <ele>153</ele>
        <time>2011-04-02T14:04:01</time>
      </trkpt>
      <trkpt lat="44.50276" lon="1.55686">
        <ele>153</ele>
        <time>2011-04-02T14:04:02</time>
      </trkpt>
      <trkpt lat="44.50266" lon="1.55684">
        <ele>153</ele>
        <time>2011-04-02T14:04:04</time>
      </trkpt>
      <trkpt lat="44.50261" lon="1.55683">
        <ele>153</ele>
        <time>2011-04-02T14:04:05</time>
      </trkpt>
      <trkpt lat="44.50251" lon="1.55679">
        <ele>153</ele>
        <time>2011-04-02T14:04:07</time>
      </trkpt>
      <trkpt lat="44.50246" lon="1.55676">
        <ele>153</ele>
        <time>2011-04-02T14:04:08</time>
      </trkpt>
      <trkpt lat="44.50237" lon="1.55668">
        <ele>153</ele>
        <time>2011-04-02T14:04:10</time>
      </trkpt>
      <trkpt lat="44.50229" lon="1.55658">
        <ele>153</ele>
        <time>2011-04-02T14:04:12</time>
      </trkpt>
      <trkpt lat="44.50222" lon="1.55648">
        <ele>153</ele>
        <time>2011-04-02T14:04:14</time>
      </trkpt>
      <trkpt lat="44.50215" lon="1.5564">
        <ele>153</ele>
        <time>2011-04-02T14:04:16</time>
      </trkpt>
      <trkpt lat="44.50211" lon="1.55637">
        <ele>153</ele>
        <time>2011-04-02T14:04:17</time>
      </trkpt>
      <trkpt lat="44.50206" lon="1.55634">
        <ele>158</ele>
        <time>2011-04-02T14:04:18</time>
      </trkpt>
      <trkpt lat="44.50201" lon="1.55631">
        <ele>158</ele>
        <time>2011-04-02T14:04:19</time>
      </trkpt>
      <trkpt lat="44.50196" lon="1.55629">
        <ele>158</ele>
        <time>2011-04-02T14:04:20</time>
      </trkpt>
      <trkpt lat="44.5019" lon="1.55628">
        <ele>158</ele>
        <time>2011-04-02T14:04:21</time>
      </trkpt>
      <trkpt lat="44.50183" lon="1.55627">
        <ele>158</ele>
        <time>2011-04-02T14:04:22</time>
      </trkpt>
      <trkpt lat="44.50173" lon="1.55627">
        <ele>158</ele>
        <time>2011-04-02T14:04:24</time>
      </trkpt>
      <trkpt lat="44.50163" lon="1.55629">
        <ele>158</ele>
        <time>2011-04-02T14:04:26</time>
      </trkpt>
      <trkpt lat="44.50153" lon="1.55631">
        <ele>158</ele>
        <time>2011-04-02T14:04:28</time>
      </trkpt>
      <trkpt lat="44.50148" lon="1.55634">
        <ele>158</ele>
        <time>2011-04-02T14:04:29</time>
      </trkpt>
      <trkpt lat="44.50139" lon="1.55641">
        <ele>158</ele>
        <time>2011-04-02T14:04:31</time>
      </trkpt>
      <trkpt lat="44.50131" lon="1.55649">
        <ele>158</ele>
        <time>2011-04-02T14:04:33</time>
      </trkpt>
      <trkpt lat="44.50123" lon="1.55659">
        <ele>148</ele>
        <time>2011-04-02T14:04:35</time>
      </trkpt>
      <trkpt lat="44.50119" lon="1.55664">
        <ele>148</ele>
        <time>2011-04-02T14:04:36</time>
      </trkpt>
      <trkpt lat="44.50111" lon="1.55675">
        <ele>148</ele>
        <time>2011-04-02T14:04:38</time>
      </trkpt>
      <trkpt lat="44.50106" lon="1.55685">
        <ele>148</ele>
        <time>2011-04-02T14:04:40</time>
      </trkpt>
      <trkpt lat="44.501" lon="1.55694">
        <ele>148</ele>
        <time>2011-04-02T14:04:42</time>
      </trkpt>
      <trkpt lat="44.50098" lon="1.55699">
        <ele>148</ele>
        <time>2011-04-02T14:04:43</time>
      </trkpt>
      <trkpt lat="44.50094" lon="1.55707">
        <ele>148</ele>
        <time>2011-04-02T14:04:45</time>
      </trkpt>
      <trkpt lat="44.50092" lon="1.55711">
        <ele>154</ele>
        <time>2011-04-02T14:04:46</time>
      </trkpt>
      <trkpt lat="44.5009" lon="1.55716">
        <ele>154</ele>
        <time>2011-04-02T14:04:47</time>
      </trkpt>
      <trkpt lat="44.50086" lon="1.55726">
        <ele>154</ele>
        <time>2011-04-02T14:04:50</time>
      </trkpt>
      <trkpt lat="44.50085" lon="1.5573">
        <ele>154</ele>
        <time>2011-04-02T14:04:51</time>
      </trkpt>
      <trkpt lat="44.50081" lon="1.55739">
        <ele>154</ele>
        <time>2011-04-02T14:04:53</time>
      </trkpt>
      <trkpt lat="44.50077" lon="1.55748">
        <ele>154</ele>
        <time>2011-04-02T14:04:55</time>
      </trkpt>
      <trkpt lat="44.50075" lon="1.55752">
        <ele>154</ele>
        <time>2011-04-02T14:04:56</time>
      </trkpt>
      <trkpt lat="44.50068" lon="1.55763">
        <ele>154</ele>
        <time>2011-04-02T14:04:58</time>
      </trkpt>
      <trkpt lat="44.50065" lon="1.55769">
        <ele>154</ele>
        <time>2011-04-02T14:04:59</time>
      </trkpt>
      <trkpt lat="44.50058" lon="1.5578">
        <ele>154</ele>
        <time>2011-04-02T14:05:01</time>
      </trkpt>
      <trkpt lat="44.50055" lon="1.55786">
        <ele>154</ele>
        <time>2011-04-02T14:05:02</time>
      </trkpt>
      <trkpt lat="44.50051" lon="1.55791">
        <ele>154</ele>
        <time>2011-04-02T14:05:03</time>
      </trkpt>
      <trkpt lat="44.50044" lon="1.55802">
        <ele>168</ele>
        <time>2011-04-02T14:05:05</time>
      </trkpt>
      <trkpt lat="44.50041" lon="1.55807">
        <ele>149</ele>
        <time>2011-04-02T14:05:06</time>
      </trkpt>
      <trkpt lat="44.50034" lon="1.55816">
        <ele>149</ele>
        <time>2011-04-02T14:05:08</time>
      </trkpt>
      <trkpt lat="44.50027" lon="1.55826">
        <ele>149</ele>
        <time>2011-04-02T14:05:10</time>
      </trkpt>
      <trkpt lat="44.50019" lon="1.55837">
        <ele>149</ele>
        <time>2011-04-02T14:05:12</time>
      </trkpt>
      <trkpt lat="44.50011" lon="1.55846">
        <ele>149</ele>
        <time>2011-04-02T14:05:14</time>
      </trkpt>
      <trkpt lat="44.50003" lon="1.55855">
        <ele>149</ele>
        <time>2011-04-02T14:05:16</time>
      </trkpt>
      <trkpt lat="44.49995" lon="1.55862">
        <ele>149</ele>
        <time>2011-04-02T14:05:18</time>
      </trkpt>
      <trkpt lat="44.49992" lon="1.55865">
        <ele>149</ele>
        <time>2011-04-02T14:05:19</time>
      </trkpt>
      <trkpt lat="44.49988" lon="1.55868">
        <ele>149</ele>
        <time>2011-04-02T14:05:20</time>
      </trkpt>
      <trkpt lat="44.49981" lon="1.55873">
        <ele>149</ele>
        <time>2011-04-02T14:05:22</time>
      </trkpt>
      <trkpt lat="44.49978" lon="1.55875">
        <ele>149</ele>
        <time>2011-04-02T14:05:23</time>
      </trkpt>
      <trkpt lat="44.49975" lon="1.55876">
        <ele>171</ele>
        <time>2011-04-02T14:05:24</time>
      </trkpt>
      <trkpt lat="44.49972" lon="1.55879">
        <ele>171</ele>
        <time>2011-04-02T14:05:25</time>
      </trkpt>
      <trkpt lat="44.49968" lon="1.5588">
        <ele>171</ele>
        <time>2011-04-02T14:05:26</time>
      </trkpt>
      <trkpt lat="44.4996" lon="1.55881">
        <ele>171</ele>
        <time>2011-04-02T14:05:28</time>
      </trkpt>
      <trkpt lat="44.49955" lon="1.55882">
        <ele>157</ele>
        <time>2011-04-02T14:05:29</time>
      </trkpt>
      <trkpt lat="44.49945" lon="1.55885">
        <ele>157</ele>
        <time>2011-04-02T14:05:31</time>
      </trkpt>
      <trkpt lat="44.49937" lon="1.55889">
        <ele>157</ele>
        <time>2011-04-02T14:05:33</time>
      </trkpt>
      <trkpt lat="44.49928" lon="1.55891">
        <ele>157</ele>
        <time>2011-04-02T14:05:35</time>
      </trkpt>
      <trkpt lat="44.49924" lon="1.55892">
        <ele>157</ele>
        <time>2011-04-02T14:05:36</time>
      </trkpt>
      <trkpt lat="44.49917" lon="1.55893">
        <ele>157</ele>
        <time>2011-04-02T14:05:38</time>
      </trkpt>
      <trkpt lat="44.4991" lon="1.55893">
        <ele>157</ele>
        <time>2011-04-02T14:05:40</time>
      </trkpt>
      <trkpt lat="44.49904" lon="1.55895">
        <ele>157</ele>
        <time>2011-04-02T14:05:42</time>
      </trkpt>
      <trkpt lat="44.49901" lon="1.55896">
        <ele>157</ele>
        <time>2011-04-02T14:05:43</time>
      </trkpt>
      <trkpt lat="44.49897" lon="1.55896">
        <ele>157</ele>
        <time>2011-04-02T14:05:45</time>
      </trkpt>
      <trkpt lat="44.49891" lon="1.55894">
        <ele>157</ele>
        <time>2011-04-02T14:05:48</time>
      </trkpt>
      <trkpt lat="44.49888" lon="1.55893">
        <ele>157</ele>
        <time>2011-04-02T14:05:50</time>
      </trkpt>
      <trkpt lat="44.49886" lon="1.55892">
        <ele>157</ele>
        <time>2011-04-02T14:05:52</time>
      </trkpt>
      <trkpt lat="44.49882" lon="1.55891">
        <ele>157</ele>
        <time>2011-04-02T14:05:54</time>
      </trkpt>
      <trkpt lat="44.49877" lon="1.55887">
        <ele>157</ele>
        <time>2011-04-02T14:05:56</time>
      </trkpt>
      <trkpt lat="44.49872" lon="1.55885">
        <ele>157</ele>
        <time>2011-04-02T14:05:57</time>
      </trkpt>
      <trkpt lat="44.49863" lon="1.5588">
        <ele>157</ele>
        <time>2011-04-02T14:05:59</time>
      </trkpt>
      <trkpt lat="44.49854" lon="1.55878">
        <ele>157</ele>
        <time>2011-04-02T14:06:01</time>
      </trkpt>
      <trkpt lat="44.49847" lon="1.55877">
        <ele>157</ele>
        <time>2011-04-02T14:06:03</time>
      </trkpt>
      <trkpt lat="44.49841" lon="1.55876">
        <ele>157</ele>
        <time>2011-04-02T14:06:05</time>
      </trkpt>
      <trkpt lat="44.49835" lon="1.55875">
        <ele>157</ele>
        <time>2011-04-02T14:06:07</time>
      </trkpt>
      <trkpt lat="44.49832" lon="1.55874">
        <ele>146</ele>
        <time>2011-04-02T14:06:08</time>
      </trkpt>
      <trkpt lat="44.49826" lon="1.5587">
        <ele>146</ele>
        <time>2011-04-02T14:06:10</time>
      </trkpt>
      <trkpt lat="44.49818" lon="1.55865">
        <ele>146</ele>
        <time>2011-04-02T14:06:12</time>
      </trkpt>
      <trkpt lat="44.49814" lon="1.55862">
        <ele>146</ele>
        <time>2011-04-02T14:06:13</time>
      </trkpt>
      <trkpt lat="44.49804" lon="1.55858">
        <ele>146</ele>
        <time>2011-04-02T14:06:15</time>
      </trkpt>
      <trkpt lat="44.498" lon="1.55854">
        <ele>146</ele>
        <time>2011-04-02T14:06:16</time>
      </trkpt>
      <trkpt lat="44.49793" lon="1.55848">
        <ele>146</ele>
        <time>2011-04-02T14:06:18</time>
      </trkpt>
      <trkpt lat="44.49785" lon="1.55841">
        <ele>161</ele>
        <time>2011-04-02T14:06:20</time>
      </trkpt>
      <trkpt lat="44.49779" lon="1.55832">
        <ele>161</ele>
        <time>2011-04-02T14:06:22</time>
      </trkpt>
      <trkpt lat="44.49776" lon="1.55827">
        <ele>161</ele>
        <time>2011-04-02T14:06:23</time>
      </trkpt>
      <trkpt lat="44.49771" lon="1.55818">
        <ele>161</ele>
        <time>2011-04-02T14:06:25</time>
      </trkpt>
      <trkpt lat="44.49769" lon="1.55813">
        <ele>161</ele>
        <time>2011-04-02T14:06:26</time>
      </trkpt>
      <trkpt lat="44.49765" lon="1.55805">
        <ele>161</ele>
        <time>2011-04-02T14:06:28</time>
      </trkpt>
      <trkpt lat="44.49762" lon="1.55801">
        <ele>161</ele>
        <time>2011-04-02T14:06:29</time>
      </trkpt>
      <trkpt lat="44.49759" lon="1.55795">
        <ele>161</ele>
        <time>2011-04-02T14:06:30</time>
      </trkpt>
      <trkpt lat="44.49753" lon="1.55785">
        <ele>149</ele>
        <time>2011-04-02T14:06:32</time>
      </trkpt>
      <trkpt lat="44.49751" lon="1.5578">
        <ele>149</ele>
        <time>2011-04-02T14:06:33</time>
      </trkpt>
      <trkpt lat="44.49747" lon="1.55771">
        <ele>149</ele>
        <time>2011-04-02T14:06:35</time>
      </trkpt>
      <trkpt lat="44.49744" lon="1.55766">
        <ele>149</ele>
        <time>2011-04-02T14:06:36</time>
      </trkpt>
      <trkpt lat="44.49739" lon="1.55759">
        <ele>149</ele>
        <time>2011-04-02T14:06:38</time>
      </trkpt>
      <trkpt lat="44.49733" lon="1.55753">
        <ele>149</ele>
        <time>2011-04-02T14:06:40</time>
      </trkpt>
      <trkpt lat="44.49729" lon="1.55744">
        <ele>149</ele>
        <time>2011-04-02T14:06:42</time>
      </trkpt>
      <trkpt lat="44.49727" lon="1.55739">
        <ele>149</ele>
        <time>2011-04-02T14:06:43</time>
      </trkpt>
      <trkpt lat="44.49724" lon="1.55731">
        <ele>149</ele>
        <time>2011-04-02T14:06:45</time>
      </trkpt>
      <trkpt lat="44.49721" lon="1.55723">
        <ele>149</ele>
        <time>2011-04-02T14:06:47</time>
      </trkpt>
      <trkpt lat="44.49719" lon="1.55719">
        <ele>149</ele>
        <time>2011-04-02T14:06:48</time>
      </trkpt>
      <trkpt lat="44.49716" lon="1.5571">
        <ele>149</ele>
        <time>2011-04-02T14:06:50</time>
      </trkpt>
      <trkpt lat="44.49712" lon="1.55703">
        <ele>145</ele>
        <time>2011-04-02T14:06:52</time>
      </trkpt>
      <trkpt lat="44.4971" lon="1.55699">
        <ele>145</ele>
        <time>2011-04-02T14:06:53</time>
      </trkpt>
      <trkpt lat="44.49706" lon="1.55691">
        <ele>174</ele>
        <time>2011-04-02T14:06:55</time>
      </trkpt>
      <trkpt lat="44.49705" lon="1.55687">
        <ele>174</ele>
        <time>2011-04-02T14:06:56</time>
      </trkpt>
      <trkpt lat="44.49705" lon="1.55679">
        <ele>174</ele>
        <time>2011-04-02T14:06:58</time>
      </trkpt>
      <trkpt lat="44.49706" lon="1.55676">
        <ele>174</ele>
        <time>2011-04-02T14:06:59</time>
      </trkpt>
      <trkpt lat="44.49707" lon="1.55672">
        <ele>174</ele>
        <time>2011-04-02T14:07:01</time>
      </trkpt>
      <trkpt lat="44.49707" lon="1.55668">
        <ele>174</ele>
        <time>2011-04-02T14:07:03</time>
      </trkpt>
      <trkpt lat="44.49706" lon="1.55661">
        <ele>174</ele>
        <time>2011-04-02T14:07:05</time>
      </trkpt>
      <trkpt lat="44.49706" lon="1.55658">
        <ele>174</ele>
        <time>2011-04-02T14:07:06</time>
      </trkpt>
      <trkpt lat="44.49706" lon="1.55654">
        <ele>174</ele>
        <time>2011-04-02T14:07:07</time>
      </trkpt>
      <trkpt lat="44.49706" lon="1.55647">
        <ele>174</ele>
        <time>2011-04-02T14:07:09</time>
      </trkpt>
      <trkpt lat="44.49706" lon="1.55643">
        <ele>174</ele>
        <time>2011-04-02T14:07:10</time>
      </trkpt>
      <trkpt lat="44.49707" lon="1.55635">
        <ele>174</ele>
        <time>2011-04-02T14:07:12</time>
      </trkpt>
      <trkpt lat="44.49707" lon="1.5563">
        <ele>174</ele>
        <time>2011-04-02T14:07:13</time>
      </trkpt>
      <trkpt lat="44.49709" lon="1.55622">
        <ele>144</ele>
        <time>2011-04-02T14:07:15</time>
      </trkpt>
      <trkpt lat="44.4971" lon="1.55615">
        <ele>144</ele>
        <time>2011-04-02T14:07:17</time>
      </trkpt>
      <trkpt lat="44.4971" lon="1.55607">
        <ele>144</ele>
        <time>2011-04-02T14:07:19</time>
      </trkpt>
      <trkpt lat="44.49709" lon="1.55603">
        <ele>144</ele>
        <time>2011-04-02T14:07:20</time>
      </trkpt>
      <trkpt lat="44.49708" lon="1.55598">
        <ele>161</ele>
        <time>2011-04-02T14:07:21</time>
      </trkpt>
      <trkpt lat="44.49706" lon="1.5559">
        <ele>161</ele>
        <time>2011-04-02T14:07:23</time>
      </trkpt>
      <trkpt lat="44.49703" lon="1.55582">
        <ele>161</ele>
        <time>2011-04-02T14:07:25</time>
      </trkpt>
      <trkpt lat="44.49702" lon="1.55579">
        <ele>161</ele>
        <time>2011-04-02T14:07:26</time>
      </trkpt>
      <trkpt lat="44.49698" lon="1.55573">
        <ele>161</ele>
        <time>2011-04-02T14:07:28</time>
      </trkpt>
      <trkpt lat="44.49694" lon="1.55568">
        <ele>161</ele>
        <time>2011-04-02T14:07:30</time>
      </trkpt>
      <trkpt lat="44.49692" lon="1.55566">
        <ele>161</ele>
        <time>2011-04-02T14:07:31</time>
      </trkpt>
      <trkpt lat="44.49688" lon="1.55564">
        <ele>161</ele>
        <time>2011-04-02T14:07:33</time>
      </trkpt>
      <trkpt lat="44.49685" lon="1.55562">
        <ele>161</ele>
        <time>2011-04-02T14:07:35</time>
      </trkpt>
      <trkpt lat="44.49682" lon="1.55561">
        <ele>161</ele>
        <time>2011-04-02T14:07:37</time>
      </trkpt>
      <trkpt lat="44.49679" lon="1.55561">
        <ele>161</ele>
        <time>2011-04-02T14:07:39</time>
      </trkpt>
      <trkpt lat="44.49675" lon="1.55558">
        <ele>161</ele>
        <time>2011-04-02T14:07:41</time>
      </trkpt>
      <trkpt lat="44.49673" lon="1.55557">
        <ele>161</ele>
        <time>2011-04-02T14:07:42</time>
      </trkpt>
      <trkpt lat="44.49669" lon="1.5556">
        <ele>161</ele>
        <time>2011-04-02T14:07:56</time>
      </trkpt>
      <trkpt lat="44.49669" lon="1.5556">
        <ele>161</ele>
        <time>2011-04-02T14:08:02</time>
      </trkpt>
      <trkpt lat="44.49673" lon="1.55557">
        <ele>161</ele>
        <time>2011-04-02T14:08:21</time>
      </trkpt>
      <trkpt lat="44.4967" lon="1.55554">
        <ele>161</ele>
        <time>2011-04-02T14:08:42</time>
      </trkpt>
      <trkpt lat="44.49666" lon="1.5555">
        <ele>161</ele>
        <time>2011-04-02T14:08:44</time>
      </trkpt>
      <trkpt lat="44.49666" lon="1.5555">
        <ele>161</ele>
        <time>2011-04-02T14:08:45</time>
      </trkpt>
      <trkpt lat="44.49662" lon="1.55545">
        <ele>161</ele>
        <time>2011-04-02T14:08:46</time>
      </trkpt>
      <trkpt lat="44.4966" lon="1.55544">
        <ele>161</ele>
        <time>2011-04-02T14:08:47</time>
      </trkpt>
      <trkpt lat="44.49657" lon="1.55542">
        <ele>148</ele>
        <time>2011-04-02T14:08:48</time>
      </trkpt>
      <trkpt lat="44.49655" lon="1.55539">
        <ele>148</ele>
        <time>2011-04-02T14:08:49</time>
      </trkpt>
      <trkpt lat="44.49652" lon="1.55537">
        <ele>148</ele>
        <time>2011-04-02T14:08:50</time>
      </trkpt>
      <trkpt lat="44.49647" lon="1.55532">
        <ele>148</ele>
        <time>2011-04-02T14:08:52</time>
      </trkpt>
      <trkpt lat="44.49644" lon="1.5553">
        <ele>148</ele>
        <time>2011-04-02T14:08:53</time>
      </trkpt>
      <trkpt lat="44.49639" lon="1.55524">
        <ele>148</ele>
        <time>2011-04-02T14:08:55</time>
      </trkpt>
      <trkpt lat="44.49636" lon="1.55521">
        <ele>148</ele>
        <time>2011-04-02T14:08:56</time>
      </trkpt>
      <trkpt lat="44.49631" lon="1.55515">
        <ele>148</ele>
        <time>2011-04-02T14:08:58</time>
      </trkpt>
      <trkpt lat="44.49629" lon="1.55512">
        <ele>148</ele>
        <time>2011-04-02T14:08:59</time>
      </trkpt>
      <trkpt lat="44.49626" lon="1.55507">
        <ele>148</ele>
        <time>2011-04-02T14:09:01</time>
      </trkpt>
      <trkpt lat="44.49624" lon="1.55504">
        <ele>162</ele>
        <time>2011-04-02T14:09:02</time>
      </trkpt>
      <trkpt lat="44.49622" lon="1.55501">
        <ele>162</ele>
        <time>2011-04-02T14:09:03</time>
      </trkpt>
      <trkpt lat="44.49619" lon="1.55495">
        <ele>162</ele>
        <time>2011-04-02T14:09:05</time>
      </trkpt>
      <trkpt lat="44.49617" lon="1.55492">
        <ele>162</ele>
        <time>2011-04-02T14:09:06</time>
      </trkpt>
      <trkpt lat="44.49613" lon="1.55484">
        <ele>162</ele>
        <time>2011-04-02T14:09:08</time>
      </trkpt>
      <trkpt lat="44.4961" lon="1.55476">
        <ele>162</ele>
        <time>2011-04-02T14:09:10</time>
      </trkpt>
      <trkpt lat="44.49606" lon="1.55468">
        <ele>162</ele>
        <time>2011-04-02T14:09:12</time>
      </trkpt>
      <trkpt lat="44.49605" lon="1.55464">
        <ele>162</ele>
        <time>2011-04-02T14:09:13</time>
      </trkpt>
      <trkpt lat="44.49602" lon="1.55457">
        <ele>149</ele>
        <time>2011-04-02T14:09:15</time>
      </trkpt>
      <trkpt lat="44.496" lon="1.55452">
        <ele>149</ele>
        <time>2011-04-02T14:09:16</time>
      </trkpt>
      <trkpt lat="44.49596" lon="1.55442">
        <ele>149</ele>
        <time>2011-04-02T14:09:18</time>
      </trkpt>
      <trkpt lat="44.49594" lon="1.55432">
        <ele>149</ele>
        <time>2011-04-02T14:09:20</time>
      </trkpt>
      <trkpt lat="44.49593" lon="1.55426">
        <ele>149</ele>
        <time>2011-04-02T14:09:21</time>
      </trkpt>
      <trkpt lat="44.4959" lon="1.55417">
        <ele>149</ele>
        <time>2011-04-02T14:09:23</time>
      </trkpt>
      <trkpt lat="44.49584" lon="1.55411">
        <ele>149</ele>
        <time>2011-04-02T14:09:25</time>
      </trkpt>
      <trkpt lat="44.4958" lon="1.55408">
        <ele>149</ele>
        <time>2011-04-02T14:09:26</time>
      </trkpt>
      <trkpt lat="44.4957" lon="1.55407">
        <ele>149</ele>
        <time>2011-04-02T14:09:28</time>
      </trkpt>
      <trkpt lat="44.49566" lon="1.55409">
        <ele>149</ele>
        <time>2011-04-02T14:09:29</time>
      </trkpt>
      <trkpt lat="44.49562" lon="1.55415">
        <ele>149</ele>
        <time>2011-04-02T14:09:30</time>
      </trkpt>
      <trkpt lat="44.49558" lon="1.55422">
        <ele>149</ele>
        <time>2011-04-02T14:09:31</time>
      </trkpt>
      <trkpt lat="44.49547" lon="1.55437">
        <ele>149</ele>
        <time>2011-04-02T14:09:33</time>
      </trkpt>
      <trkpt lat="44.49535" lon="1.55454">
        <ele>141</ele>
        <time>2011-04-02T14:09:35</time>
      </trkpt>
      <trkpt lat="44.49529" lon="1.55462">
        <ele>152</ele>
        <time>2011-04-02T14:09:36</time>
      </trkpt>
      <trkpt lat="44.49516" lon="1.55477">
        <ele>152</ele>
        <time>2011-04-02T14:09:38</time>
      </trkpt>
      <trkpt lat="44.4951" lon="1.55484">
        <ele>152</ele>
        <time>2011-04-02T14:09:39</time>
      </trkpt>
      <trkpt lat="44.49496" lon="1.55498">
        <ele>152</ele>
        <time>2011-04-02T14:09:41</time>
      </trkpt>
      <trkpt lat="44.49489" lon="1.55504">
        <ele>152</ele>
        <time>2011-04-02T14:09:42</time>
      </trkpt>
      <trkpt lat="44.49477" lon="1.55515">
        <ele>152</ele>
        <time>2011-04-02T14:09:44</time>
      </trkpt>
      <trkpt lat="44.49468" lon="1.55526">
        <ele>152</ele>
        <time>2011-04-02T14:09:46</time>
      </trkpt>
      <trkpt lat="44.49462" lon="1.55534">
        <ele>152</ele>
        <time>2011-04-02T14:09:48</time>
      </trkpt>
      <trkpt lat="44.49459" lon="1.55539">
        <ele>152</ele>
        <time>2011-04-02T14:09:49</time>
      </trkpt>
      <trkpt lat="44.49454" lon="1.55547">
        <ele>146</ele>
        <time>2011-04-02T14:09:51</time>
      </trkpt>
      <trkpt lat="44.49451" lon="1.55552">
        <ele>146</ele>
        <time>2011-04-02T14:09:52</time>
      </trkpt>
      <trkpt lat="44.49443" lon="1.55562">
        <ele>146</ele>
        <time>2011-04-02T14:09:54</time>
      </trkpt>
      <trkpt lat="44.49439" lon="1.55568">
        <ele>146</ele>
        <time>2011-04-02T14:09:55</time>
      </trkpt>
      <trkpt lat="44.49436" lon="1.55574">
        <ele>146</ele>
        <time>2011-04-02T14:09:56</time>
      </trkpt>
      <trkpt lat="44.4943" lon="1.55586">
        <ele>146</ele>
        <time>2011-04-02T14:09:58</time>
      </trkpt>
      <trkpt lat="44.49426" lon="1.55596">
        <ele>146</ele>
        <time>2011-04-02T14:10:00</time>
      </trkpt>
      <trkpt lat="44.49424" lon="1.55602">
        <ele>146</ele>
        <time>2011-04-02T14:10:01</time>
      </trkpt>
      <trkpt lat="44.49421" lon="1.55611">
        <ele>146</ele>
        <time>2011-04-02T14:10:03</time>
      </trkpt>
      <trkpt lat="44.49419" lon="1.55615">
        <ele>146</ele>
        <time>2011-04-02T14:10:04</time>
      </trkpt>
      <trkpt lat="44.49416" lon="1.55621">
        <ele>146</ele>
        <time>2011-04-02T14:10:06</time>
      </trkpt>
      <trkpt lat="44.49414" lon="1.55624">
        <ele>146</ele>
        <time>2011-04-02T14:10:07</time>
      </trkpt>
      <trkpt lat="44.4941" lon="1.5563">
        <ele>166</ele>
        <time>2011-04-02T14:10:09</time>
      </trkpt>
      <trkpt lat="44.49404" lon="1.55636">
        <ele>166</ele>
        <time>2011-04-02T14:10:11</time>
      </trkpt>
      <trkpt lat="44.49398" lon="1.55644">
        <ele>166</ele>
        <time>2011-04-02T14:10:13</time>
      </trkpt>
      <trkpt lat="44.49392" lon="1.5565">
        <ele>166</ele>
        <time>2011-04-02T14:10:15</time>
      </trkpt>
      <trkpt lat="44.49388" lon="1.55654">
        <ele>166</ele>
        <time>2011-04-02T14:10:16</time>
      </trkpt>
      <trkpt lat="44.49385" lon="1.55657">
        <ele>166</ele>
        <time>2011-04-02T14:10:17</time>
      </trkpt>
      <trkpt lat="44.4938" lon="1.55664">
        <ele>166</ele>
        <time>2011-04-02T14:10:19</time>
      </trkpt>
      <trkpt lat="44.49374" lon="1.55672">
        <ele>144</ele>
        <time>2011-04-02T14:10:21</time>
      </trkpt>
      <trkpt lat="44.49372" lon="1.55677">
        <ele>144</ele>
        <time>2011-04-02T14:10:22</time>
      </trkpt>
      <trkpt lat="44.4937" lon="1.5568">
        <ele>144</ele>
        <time>2011-04-02T14:10:23</time>
      </trkpt>
      <trkpt lat="44.49366" lon="1.55686">
        <ele>144</ele>
        <time>2011-04-02T14:10:25</time>
      </trkpt>
      <trkpt lat="44.49365" lon="1.55689">
        <ele>144</ele>
        <time>2011-04-02T14:10:26</time>
      </trkpt>
      <trkpt lat="44.49362" lon="1.55694">
        <ele>144</ele>
        <time>2011-04-02T14:10:28</time>
      </trkpt>
      <trkpt lat="44.49358" lon="1.55698">
        <ele>144</ele>
        <time>2011-04-02T14:10:30</time>
      </trkpt>
      <trkpt lat="44.49353" lon="1.557">
        <ele>144</ele>
        <time>2011-04-02T14:10:32</time>
      </trkpt>
      <trkpt lat="44.4935" lon="1.55701">
        <ele>144</ele>
        <time>2011-04-02T14:10:33</time>
      </trkpt>
      <trkpt lat="44.49344" lon="1.55702">
        <ele>144</ele>
        <time>2011-04-02T14:10:35</time>
      </trkpt>
      <trkpt lat="44.4934" lon="1.55702">
        <ele>144</ele>
        <time>2011-04-02T14:10:36</time>
      </trkpt>
      <trkpt lat="44.49337" lon="1.55702">
        <ele>144</ele>
        <time>2011-04-02T14:10:37</time>
      </trkpt>
      <trkpt lat="44.49331" lon="1.55703">
        <ele>144</ele>
        <time>2011-04-02T14:10:39</time>
      </trkpt>
      <trkpt lat="44.49326" lon="1.55705">
        <ele>144</ele>
        <time>2011-04-02T14:10:41</time>
      </trkpt>
      <trkpt lat="44.49323" lon="1.55705">
        <ele>144</ele>
        <time>2011-04-02T14:10:42</time>
      </trkpt>
      <trkpt lat="44.49319" lon="1.55707">
        <ele>144</ele>
        <time>2011-04-02T14:10:44</time>
      </trkpt>
      <trkpt lat="44.49314" lon="1.55707">
        <ele>144</ele>
        <time>2011-04-02T14:10:46</time>
      </trkpt>
      <trkpt lat="44.4931" lon="1.55708">
        <ele>144</ele>
        <time>2011-04-02T14:10:48</time>
      </trkpt>
      <trkpt lat="44.49303" lon="1.55709">
        <ele>175</ele>
        <time>2011-04-02T14:10:50</time>
      </trkpt>
      <trkpt lat="44.49296" lon="1.55713">
        <ele>175</ele>
        <time>2011-04-02T14:10:52</time>
      </trkpt>
      <trkpt lat="44.49293" lon="1.55715">
        <ele>175</ele>
        <time>2011-04-02T14:10:53</time>
      </trkpt>
      <trkpt lat="44.49291" lon="1.55716">
        <ele>154</ele>
        <time>2011-04-02T14:10:54</time>
      </trkpt>
      <trkpt lat="44.49288" lon="1.55717">
        <ele>154</ele>
        <time>2011-04-02T14:10:55</time>
      </trkpt>
      <trkpt lat="44.49285" lon="1.5572">
        <ele>154</ele>
        <time>2011-04-02T14:10:57</time>
      </trkpt>
      <trkpt lat="44.49279" lon="1.55726">
        <ele>154</ele>
        <time>2011-04-02T14:11:00</time>
      </trkpt>
      <trkpt lat="44.49277" lon="1.55728">
        <ele>154</ele>
        <time>2011-04-02T14:11:01</time>
      </trkpt>
      <trkpt lat="44.49271" lon="1.55731">
        <ele>154</ele>
        <time>2011-04-02T14:11:03</time>
      </trkpt>
      <trkpt lat="44.49261" lon="1.55733">
        <ele>154</ele>
        <time>2011-04-02T14:11:05</time>
      </trkpt>
      <trkpt lat="44.49256" lon="1.55734">
        <ele>154</ele>
        <time>2011-04-02T14:11:06</time>
      </trkpt>
      <trkpt lat="44.49246" lon="1.55736">
        <ele>154</ele>
        <time>2011-04-02T14:11:08</time>
      </trkpt>
      <trkpt lat="44.49242" lon="1.55739">
        <ele>154</ele>
        <time>2011-04-02T14:11:09</time>
      </trkpt>
      <trkpt lat="44.49234" lon="1.55745">
        <ele>154</ele>
        <time>2011-04-02T14:11:11</time>
      </trkpt>
      <trkpt lat="44.49226" lon="1.55749">
        <ele>154</ele>
        <time>2011-04-02T14:11:13</time>
      </trkpt>
      <trkpt lat="44.49223" lon="1.55752">
        <ele>154</ele>
        <time>2011-04-02T14:11:14</time>
      </trkpt>
      <trkpt lat="44.49216" lon="1.55756">
        <ele>154</ele>
        <time>2011-04-02T14:11:16</time>
      </trkpt>
      <trkpt lat="44.4921" lon="1.55759">
        <ele>154</ele>
        <time>2011-04-02T14:11:18</time>
      </trkpt>
      <trkpt lat="44.49207" lon="1.5576">
        <ele>144</ele>
        <time>2011-04-02T14:11:19</time>
      </trkpt>
      <trkpt lat="44.49202" lon="1.55762">
        <ele>144</ele>
        <time>2011-04-02T14:11:21</time>
      </trkpt>
      <trkpt lat="44.49199" lon="1.55763">
        <ele>144</ele>
        <time>2011-04-02T14:11:23</time>
      </trkpt>
      <trkpt lat="44.49194" lon="1.55762">
        <ele>144</ele>
        <time>2011-04-02T14:11:26</time>
      </trkpt>
      <trkpt lat="44.49191" lon="1.55762">
        <ele>144</ele>
        <time>2011-04-02T14:11:28</time>
      </trkpt>
      <trkpt lat="44.49186" lon="1.55762">
        <ele>144</ele>
        <time>2011-04-02T14:11:30</time>
      </trkpt>
      <trkpt lat="44.49184" lon="1.55763">
        <ele>144</ele>
        <time>2011-04-02T14:11:31</time>
      </trkpt>
      <trkpt lat="44.49179" lon="1.55762">
        <ele>144</ele>
        <time>2011-04-02T14:11:33</time>
      </trkpt>
      <trkpt lat="44.49175" lon="1.55761">
        <ele>144</ele>
        <time>2011-04-02T14:11:35</time>
      </trkpt>
      <trkpt lat="44.49171" lon="1.55762">
        <ele>144</ele>
        <time>2011-04-02T14:11:37</time>
      </trkpt>
      <trkpt lat="44.49167" lon="1.55762">
        <ele>144</ele>
        <time>2011-04-02T14:11:38</time>
      </trkpt>
      <trkpt lat="44.49163" lon="1.55763">
        <ele>144</ele>
        <time>2011-04-02T14:11:39</time>
      </trkpt>
      <trkpt lat="44.49156" lon="1.55763">
        <ele>144</ele>
        <time>2011-04-02T14:11:41</time>
      </trkpt>
      <trkpt lat="44.49149" lon="1.55763">
        <ele>144</ele>
        <time>2011-04-02T14:11:43</time>
      </trkpt>
      <trkpt lat="44.49145" lon="1.55763">
        <ele>144</ele>
        <time>2011-04-02T14:11:44</time>
      </trkpt>
      <trkpt lat="44.49139" lon="1.55764">
        <ele>144</ele>
        <time>2011-04-02T14:11:46</time>
      </trkpt>
      <trkpt lat="44.49136" lon="1.55764">
        <ele>144</ele>
        <time>2011-04-02T14:11:47</time>
      </trkpt>
      <trkpt lat="44.4913" lon="1.55766">
        <ele>144</ele>
        <time>2011-04-02T14:11:49</time>
      </trkpt>
      <trkpt lat="44.49127" lon="1.55767">
        <ele>144</ele>
        <time>2011-04-02T14:11:50</time>
      </trkpt>
      <trkpt lat="44.49124" lon="1.55768">
        <ele>149</ele>
        <time>2011-04-02T14:11:51</time>
      </trkpt>
      <trkpt lat="44.49121" lon="1.55769">
        <ele>149</ele>
        <time>2011-04-02T14:11:52</time>
      </trkpt>
      <trkpt lat="44.49117" lon="1.55769">
        <ele>149</ele>
        <time>2011-04-02T14:11:53</time>
      </trkpt>
      <trkpt lat="44.49109" lon="1.55766">
        <ele>149</ele>
        <time>2011-04-02T14:11:55</time>
      </trkpt>
      <trkpt lat="44.49105" lon="1.55763">
        <ele>149</ele>
        <time>2011-04-02T14:11:56</time>
      </trkpt>
      <trkpt lat="44.49095" lon="1.55758">
        <ele>149</ele>
        <time>2011-04-02T14:11:58</time>
      </trkpt>
      <trkpt lat="44.49091" lon="1.55757">
        <ele>149</ele>
        <time>2011-04-02T14:11:59</time>
      </trkpt>
      <trkpt lat="44.49087" lon="1.55755">
        <ele>149</ele>
        <time>2011-04-02T14:12:00</time>
      </trkpt>
      <trkpt lat="44.4908" lon="1.55751">
        <ele>149</ele>
        <time>2011-04-02T14:12:02</time>
      </trkpt>
      <trkpt lat="44.49074" lon="1.55747">
        <ele>149</ele>
        <time>2011-04-02T14:12:04</time>
      </trkpt>
      <trkpt lat="44.49072" lon="1.55746">
        <ele>149</ele>
        <time>2011-04-02T14:12:05</time>
      </trkpt>
      <trkpt lat="44.49069" lon="1.55744">
        <ele>149</ele>
        <time>2011-04-02T14:12:06</time>
      </trkpt>
      <trkpt lat="44.49064" lon="1.5574">
        <ele>149</ele>
        <time>2011-04-02T14:12:09</time>
      </trkpt>
      <trkpt lat="44.49061" lon="1.55736">
        <ele>149</ele>
        <time>2011-04-02T14:12:11</time>
      </trkpt>
      <trkpt lat="44.49059" lon="1.55734">
        <ele>149</ele>
        <time>2011-04-02T14:12:12</time>
      </trkpt>
      <trkpt lat="44.49056" lon="1.55729">
        <ele>149</ele>
        <time>2011-04-02T14:12:14</time>
      </trkpt>
      <trkpt lat="44.49051" lon="1.55723">
        <ele>149</ele>
        <time>2011-04-02T14:12:17</time>
      </trkpt>
      <trkpt lat="44.49047" lon="1.55718">
        <ele>149</ele>
        <time>2011-04-02T14:12:19</time>
      </trkpt>
      <trkpt lat="44.49045" lon="1.55715">
        <ele>149</ele>
        <time>2011-04-02T14:12:20</time>
      </trkpt>
      <trkpt lat="44.49038" lon="1.55708">
        <ele>145</ele>
        <time>2011-04-02T14:12:22</time>
      </trkpt>
      <trkpt lat="44.49035" lon="1.55704">
        <ele>145</ele>
        <time>2011-04-02T14:12:23</time>
      </trkpt>
      <trkpt lat="44.49028" lon="1.55698">
        <ele>145</ele>
        <time>2011-04-02T14:12:25</time>
      </trkpt>
      <trkpt lat="44.49025" lon="1.55695">
        <ele>145</ele>
        <time>2011-04-02T14:12:26</time>
      </trkpt>
      <trkpt lat="44.49022" lon="1.55692">
        <ele>145</ele>
        <time>2011-04-02T14:12:27</time>
      </trkpt>
      <trkpt lat="44.49016" lon="1.55684">
        <ele>145</ele>
        <time>2011-04-02T14:12:29</time>
      </trkpt>
      <trkpt lat="44.49009" lon="1.55676">
        <ele>145</ele>
        <time>2011-04-02T14:12:31</time>
      </trkpt>
      <trkpt lat="44.49005" lon="1.55673">
        <ele>145</ele>
        <time>2011-04-02T14:12:32</time>
      </trkpt>
      <trkpt lat="44.49003" lon="1.5567">
        <ele>145</ele>
        <time>2011-04-02T14:12:33</time>
      </trkpt>
      <trkpt lat="44.48997" lon="1.55664">
        <ele>145</ele>
        <time>2011-04-02T14:12:35</time>
      </trkpt>
      <trkpt lat="44.48995" lon="1.55661">
        <ele>145</ele>
        <time>2011-04-02T14:12:36</time>
      </trkpt>
      <trkpt lat="44.48989" lon="1.55655">
        <ele>145</ele>
        <time>2011-04-02T14:12:38</time>
      </trkpt>
      <trkpt lat="44.48984" lon="1.55648">
        <ele>145</ele>
        <time>2011-04-02T14:12:40</time>
      </trkpt>
      <trkpt lat="44.48982" lon="1.55645">
        <ele>145</ele>
        <time>2011-04-02T14:12:41</time>
      </trkpt>
      <trkpt lat="44.48978" lon="1.5564">
        <ele>145</ele>
        <time>2011-04-02T14:12:43</time>
      </trkpt>
      <trkpt lat="44.48971" lon="1.55634">
        <ele>145</ele>
        <time>2011-04-02T14:12:45</time>
      </trkpt>
      <trkpt lat="44.48968" lon="1.55631">
        <ele>145</ele>
        <time>2011-04-02T14:12:46</time>
      </trkpt>
      <trkpt lat="44.48962" lon="1.55625">
        <ele>136</ele>
        <time>2011-04-02T14:12:48</time>
      </trkpt>
      <trkpt lat="44.48954" lon="1.55619">
        <ele>151</ele>
        <time>2011-04-02T14:12:50</time>
      </trkpt>
      <trkpt lat="44.48949" lon="1.5561">
        <ele>151</ele>
        <time>2011-04-02T14:12:52</time>
      </trkpt>
      <trkpt lat="44.48947" lon="1.55606">
        <ele>151</ele>
        <time>2011-04-02T14:12:53</time>
      </trkpt>
      <trkpt lat="44.48943" lon="1.55596">
        <ele>151</ele>
        <time>2011-04-02T14:12:55</time>
      </trkpt>
      <trkpt lat="44.48941" lon="1.55591">
        <ele>151</ele>
        <time>2011-04-02T14:12:56</time>
      </trkpt>
      <trkpt lat="44.48937" lon="1.55581">
        <ele>151</ele>
        <time>2011-04-02T14:12:58</time>
      </trkpt>
      <trkpt lat="44.48936" lon="1.55575">
        <ele>151</ele>
        <time>2011-04-02T14:12:59</time>
      </trkpt>
      <trkpt lat="44.48934" lon="1.5557">
        <ele>151</ele>
        <time>2011-04-02T14:13:00</time>
      </trkpt>
      <trkpt lat="44.48931" lon="1.55559">
        <ele>151</ele>
        <time>2011-04-02T14:13:02</time>
      </trkpt>
      <trkpt lat="44.48928" lon="1.55552">
        <ele>151</ele>
        <time>2011-04-02T14:13:03</time>
      </trkpt>
      <trkpt lat="44.48921" lon="1.5554">
        <ele>136</ele>
        <time>2011-04-02T14:13:05</time>
      </trkpt>
      <trkpt lat="44.48913" lon="1.55526">
        <ele>136</ele>
        <time>2011-04-02T14:13:07</time>
      </trkpt>
      <trkpt lat="44.4891" lon="1.5552">
        <ele>136</ele>
        <time>2011-04-02T14:13:08</time>
      </trkpt>
      <trkpt lat="44.48903" lon="1.55508">
        <ele>136</ele>
        <time>2011-04-02T14:13:10</time>
      </trkpt>
      <trkpt lat="44.48897" lon="1.55497">
        <ele>136</ele>
        <time>2011-04-02T14:13:12</time>
      </trkpt>
      <trkpt lat="44.48893" lon="1.55493">
        <ele>136</ele>
        <time>2011-04-02T14:13:13</time>
      </trkpt>
      <trkpt lat="44.48885" lon="1.55483">
        <ele>136</ele>
        <time>2011-04-02T14:13:15</time>
      </trkpt>
      <trkpt lat="44.48877" lon="1.55474">
        <ele>136</ele>
        <time>2011-04-02T14:13:17</time>
      </trkpt>
      <trkpt lat="44.48867" lon="1.55468">
        <ele>158</ele>
        <time>2011-04-02T14:13:19</time>
      </trkpt>
      <trkpt lat="44.48862" lon="1.55465">
        <ele>158</ele>
        <time>2011-04-02T14:13:20</time>
      </trkpt>
      <trkpt lat="44.48852" lon="1.55458">
        <ele>140</ele>
        <time>2011-04-02T14:13:22</time>
      </trkpt>
      <trkpt lat="44.48847" lon="1.55455">
        <ele>140</ele>
        <time>2011-04-02T14:13:23</time>
      </trkpt>
      <trkpt lat="44.48843" lon="1.5545">
        <ele>140</ele>
        <time>2011-04-02T14:13:24</time>
      </trkpt>
      <trkpt lat="44.48839" lon="1.55445">
        <ele>140</ele>
        <time>2011-04-02T14:13:25</time>
      </trkpt>
      <trkpt lat="44.48835" lon="1.55436">
        <ele>140</ele>
        <time>2011-04-02T14:13:27</time>
      </trkpt>
      <trkpt lat="44.48833" lon="1.55432">
        <ele>140</ele>
        <time>2011-04-02T14:13:28</time>
      </trkpt>
      <trkpt lat="44.48831" lon="1.55423">
        <ele>140</ele>
        <time>2011-04-02T14:13:30</time>
      </trkpt>
      <trkpt lat="44.48831" lon="1.55419">
        <ele>140</ele>
        <time>2011-04-02T14:13:31</time>
      </trkpt>
      <trkpt lat="44.4883" lon="1.55413">
        <ele>140</ele>
        <time>2011-04-02T14:13:33</time>
      </trkpt>
      <trkpt lat="44.48828" lon="1.55409">
        <ele>140</ele>
        <time>2011-04-02T14:13:34</time>
      </trkpt>
      <trkpt lat="44.48827" lon="1.55406">
        <ele>140</ele>
        <time>2011-04-02T14:13:35</time>
      </trkpt>
      <trkpt lat="44.48824" lon="1.55401">
        <ele>140</ele>
        <time>2011-04-02T14:13:37</time>
      </trkpt>
      <trkpt lat="44.48822" lon="1.55399">
        <ele>140</ele>
        <time>2011-04-02T14:13:38</time>
      </trkpt>
      <trkpt lat="44.48818" lon="1.55394">
        <ele>140</ele>
        <time>2011-04-02T14:13:40</time>
      </trkpt>
      <trkpt lat="44.48816" lon="1.55392">
        <ele>140</ele>
        <time>2011-04-02T14:13:41</time>
      </trkpt>
      <trkpt lat="44.48811" lon="1.55387">
        <ele>140</ele>
        <time>2011-04-02T14:13:43</time>
      </trkpt>
      <trkpt lat="44.48809" lon="1.55385">
        <ele>140</ele>
        <time>2011-04-02T14:13:44</time>
      </trkpt>
      <trkpt lat="44.48802" lon="1.55382">
        <ele>140</ele>
        <time>2011-04-02T14:13:46</time>
      </trkpt>
      <trkpt lat="44.48797" lon="1.55381">
        <ele>140</ele>
        <time>2011-04-02T14:13:47</time>
      </trkpt>
      <trkpt lat="44.48789" lon="1.55377">
        <ele>147</ele>
        <time>2011-04-02T14:13:49</time>
      </trkpt>
      <trkpt lat="44.48781" lon="1.55373">
        <ele>136</ele>
        <time>2011-04-02T14:13:51</time>
      </trkpt>
      <trkpt lat="44.48774" lon="1.55367">
        <ele>136</ele>
        <time>2011-04-02T14:13:53</time>
      </trkpt>
      <trkpt lat="44.48767" lon="1.55363">
        <ele>136</ele>
        <time>2011-04-02T14:13:55</time>
      </trkpt>
      <trkpt lat="44.48761" lon="1.5536">
        <ele>136</ele>
        <time>2011-04-02T14:13:57</time>
      </trkpt>
      <trkpt lat="44.48754" lon="1.55357">
        <ele>136</ele>
        <time>2011-04-02T14:13:59</time>
      </trkpt>
      <trkpt lat="44.4875" lon="1.55355">
        <ele>136</ele>
        <time>2011-04-02T14:14:00</time>
      </trkpt>
      <trkpt lat="44.48742" lon="1.55353">
        <ele>136</ele>
        <time>2011-04-02T14:14:02</time>
      </trkpt>
      <trkpt lat="44.48733" lon="1.55351">
        <ele>136</ele>
        <time>2011-04-02T14:14:04</time>
      </trkpt>
      <trkpt lat="44.48729" lon="1.5535">
        <ele>136</ele>
        <time>2011-04-02T14:14:05</time>
      </trkpt>
      <trkpt lat="44.48719" lon="1.55349">
        <ele>136</ele>
        <time>2011-04-02T14:14:07</time>
      </trkpt>
      <trkpt lat="44.4871" lon="1.55345">
        <ele>136</ele>
        <time>2011-04-02T14:14:09</time>
      </trkpt>
      <trkpt lat="44.48702" lon="1.5534">
        <ele>133</ele>
        <time>2011-04-02T14:14:11</time>
      </trkpt>
      <trkpt lat="44.48699" lon="1.55336">
        <ele>133</ele>
        <time>2011-04-02T14:14:12</time>
      </trkpt>
      <trkpt lat="44.48692" lon="1.55331">
        <ele>133</ele>
        <time>2011-04-02T14:14:14</time>
      </trkpt>
      <trkpt lat="44.48689" lon="1.55329">
        <ele>133</ele>
        <time>2011-04-02T14:14:15</time>
      </trkpt>
      <trkpt lat="44.48684" lon="1.55327">
        <ele>133</ele>
        <time>2011-04-02T14:14:16</time>
      </trkpt>
      <trkpt lat="44.48675" lon="1.55324">
        <ele>133</ele>
        <time>2011-04-02T14:14:18</time>
      </trkpt>
      <trkpt lat="44.4867" lon="1.55322">
        <ele>133</ele>
        <time>2011-04-02T14:14:19</time>
      </trkpt>
      <trkpt lat="44.48661" lon="1.55318">
        <ele>133</ele>
        <time>2011-04-02T14:14:21</time>
      </trkpt>
      <trkpt lat="44.48656" lon="1.55317">
        <ele>133</ele>
        <time>2011-04-02T14:14:22</time>
      </trkpt>
      <trkpt lat="44.48652" lon="1.55314">
        <ele>133</ele>
        <time>2011-04-02T14:14:23</time>
      </trkpt>
      <trkpt lat="44.48645" lon="1.55311">
        <ele>133</ele>
        <time>2011-04-02T14:14:25</time>
      </trkpt>
      <trkpt lat="44.48637" lon="1.55307">
        <ele>133</ele>
        <time>2011-04-02T14:14:27</time>
      </trkpt>
      <trkpt lat="44.48628" lon="1.55299">
        <ele>133</ele>
        <time>2011-04-02T14:14:29</time>
      </trkpt>
      <trkpt lat="44.48623" lon="1.55296">
        <ele>132</ele>
        <time>2011-04-02T14:14:30</time>
      </trkpt>
      <trkpt lat="44.48613" lon="1.55291">
        <ele>134</ele>
        <time>2011-04-02T14:14:32</time>
      </trkpt>
      <trkpt lat="44.4861" lon="1.55289">
        <ele>134</ele>
        <time>2011-04-02T14:14:33</time>
      </trkpt>
      <trkpt lat="44.48604" lon="1.55287">
        <ele>134</ele>
        <time>2011-04-02T14:14:35</time>
      </trkpt>
      <trkpt lat="44.48601" lon="1.55291">
        <ele>134</ele>
        <time>2011-04-02T14:14:37</time>
      </trkpt>
      <trkpt lat="44.48599" lon="1.55295">
        <ele>132</ele>
        <time>2011-04-02T14:14:38</time>
      </trkpt>
      <trkpt lat="44.48597" lon="1.55303">
        <ele>132</ele>
        <time>2011-04-02T14:14:40</time>
      </trkpt>
      <trkpt lat="44.48595" lon="1.55308">
        <ele>132</ele>
        <time>2011-04-02T14:14:41</time>
      </trkpt>
      <trkpt lat="44.48594" lon="1.55314">
        <ele>132</ele>
        <time>2011-04-02T14:14:42</time>
      </trkpt>
      <trkpt lat="44.48592" lon="1.55321">
        <ele>132</ele>
        <time>2011-04-02T14:14:43</time>
      </trkpt>
      <trkpt lat="44.48591" lon="1.55337">
        <ele>132</ele>
        <time>2011-04-02T14:14:45</time>
      </trkpt>
      <trkpt lat="44.48588" lon="1.5535">
        <ele>132</ele>
        <time>2011-04-02T14:14:47</time>
      </trkpt>
      <trkpt lat="44.48588" lon="1.55357">
        <ele>132</ele>
        <time>2011-04-02T14:14:48</time>
      </trkpt>
      <trkpt lat="44.48586" lon="1.55361">
        <ele>132</ele>
        <time>2011-04-02T14:14:49</time>
      </trkpt>
      <trkpt lat="44.48579" lon="1.55367">
        <ele>132</ele>
        <time>2011-04-02T14:14:51</time>
      </trkpt>
      <trkpt lat="44.48575" lon="1.55369">
        <ele>132</ele>
        <time>2011-04-02T14:14:52</time>
      </trkpt>
      <trkpt lat="44.48567" lon="1.55372">
        <ele>132</ele>
        <time>2011-04-02T14:14:54</time>
      </trkpt>
      <trkpt lat="44.48564" lon="1.55372">
        <ele>132</ele>
        <time>2011-04-02T14:14:55</time>
      </trkpt>
      <trkpt lat="44.4856" lon="1.55374">
        <ele>132</ele>
        <time>2011-04-02T14:14:57</time>
      </trkpt>
      <trkpt lat="44.48557" lon="1.55374">
        <ele>132</ele>
        <time>2011-04-02T14:14:58</time>
      </trkpt>
      <trkpt lat="44.48555" lon="1.55375">
        <ele>132</ele>
        <time>2011-04-02T14:14:59</time>
      </trkpt>
      <trkpt lat="44.48548" lon="1.55378">
        <ele>134</ele>
        <time>2011-04-02T14:15:01</time>
      </trkpt>
      <trkpt lat="44.48542" lon="1.55386">
        <ele>134</ele>
        <time>2011-04-02T14:15:03</time>
      </trkpt>
      <trkpt lat="44.48538" lon="1.5539">
        <ele>125</ele>
        <time>2011-04-02T14:15:04</time>
      </trkpt>
      <trkpt lat="44.48528" lon="1.55394">
        <ele>125</ele>
        <time>2011-04-02T14:15:06</time>
      </trkpt>
      <trkpt lat="44.48519" lon="1.55392">
        <ele>125</ele>
        <time>2011-04-02T14:15:08</time>
      </trkpt>
      <trkpt lat="44.48515" lon="1.55389">
        <ele>125</ele>
        <time>2011-04-02T14:15:09</time>
      </trkpt>
      <trkpt lat="44.48507" lon="1.55381">
        <ele>125</ele>
        <time>2011-04-02T14:15:11</time>
      </trkpt>
      <trkpt lat="44.48504" lon="1.55376">
        <ele>125</ele>
        <time>2011-04-02T14:15:12</time>
      </trkpt>
      <trkpt lat="44.48497" lon="1.55366">
        <ele>126</ele>
        <time>2011-04-02T14:15:14</time>
      </trkpt>
      <trkpt lat="44.48493" lon="1.55362">
        <ele>126</ele>
        <time>2011-04-02T14:15:15</time>
      </trkpt>
      <trkpt lat="44.48485" lon="1.55354">
        <ele>126</ele>
        <time>2011-04-02T14:15:17</time>
      </trkpt>
      <trkpt lat="44.48481" lon="1.55351">
        <ele>126</ele>
        <time>2011-04-02T14:15:18</time>
      </trkpt>
      <trkpt lat="44.48473" lon="1.55345">
        <ele>126</ele>
        <time>2011-04-02T14:15:20</time>
      </trkpt>
      <trkpt lat="44.48465" lon="1.55341">
        <ele>126</ele>
        <time>2011-04-02T14:15:22</time>
      </trkpt>
      <trkpt lat="44.48461" lon="1.5534">
        <ele>126</ele>
        <time>2011-04-02T14:15:23</time>
      </trkpt>
      <trkpt lat="44.48459" lon="1.55337">
        <ele>126</ele>
        <time>2011-04-02T14:15:25</time>
      </trkpt>
      <trkpt lat="44.48458" lon="1.55334">
        <ele>123</ele>
        <time>2011-04-02T14:15:32</time>
      </trkpt>
      <trkpt lat="44.48456" lon="1.55334">
        <ele>123</ele>
        <time>2011-04-02T14:15:39</time>
      </trkpt>
      <trkpt lat="44.48453" lon="1.5533">
        <ele>123</ele>
        <time>2011-04-02T14:15:44</time>
      </trkpt>
      <trkpt lat="44.48452" lon="1.55327">
        <ele>123</ele>
        <time>2011-04-02T14:15:47</time>
      </trkpt>
      <trkpt lat="44.4845" lon="1.55323">
        <ele>123</ele>
        <time>2011-04-02T14:15:52</time>
      </trkpt>
      <trkpt lat="44.48449" lon="1.55321">
        <ele>123</ele>
        <time>2011-04-02T14:15:57</time>
      </trkpt>
      <trkpt lat="44.48448" lon="1.55317">
        <ele>123</ele>
        <time>2011-04-02T14:16:06</time>
      </trkpt>
      <trkpt lat="44.48448" lon="1.55317">
        <ele>123</ele>
        <time>2011-04-02T14:16:14</time>
      </trkpt>
      <trkpt lat="44.4845" lon="1.55321">
        <ele>123</ele>
        <time>2011-04-02T14:16:26</time>
      </trkpt>
      <trkpt lat="44.48446" lon="1.55316">
        <ele>123</ele>
        <time>2011-04-02T14:16:37</time>
      </trkpt>
      <trkpt lat="44.4845" lon="1.55312">
        <ele>123</ele>
        <time>2011-04-02T14:17:14</time>
      </trkpt>
      <trkpt lat="44.48447" lon="1.55315">
        <ele>123</ele>
        <time>2011-04-02T14:17:20</time>
      </trkpt>
      <trkpt lat="44.48447" lon="1.55315">
        <ele>123</ele>
        <time>2011-04-02T14:17:21</time>
      </trkpt>
      <trkpt lat="44.48445" lon="1.55319">
        <ele>123</ele>
        <time>2011-04-02T14:17:22</time>
      </trkpt>
      <trkpt lat="44.48443" lon="1.5532">
        <ele>123</ele>
        <time>2011-04-02T14:17:23</time>
      </trkpt>
      <trkpt lat="44.48437" lon="1.55319">
        <ele>123</ele>
        <time>2011-04-02T14:17:25</time>
      </trkpt>
      <trkpt lat="44.48431" lon="1.55316">
        <ele>123</ele>
        <time>2011-04-02T14:17:27</time>
      </trkpt>
      <trkpt lat="44.48424" lon="1.55313">
        <ele>123</ele>
        <time>2011-04-02T14:17:29</time>
      </trkpt>
      <trkpt lat="44.4842" lon="1.55311">
        <ele>123</ele>
        <time>2011-04-02T14:17:30</time>
      </trkpt>
      <trkpt lat="44.48412" lon="1.55307">
        <ele>123</ele>
        <time>2011-04-02T14:17:32</time>
      </trkpt>
      <trkpt lat="44.48407" lon="1.55304">
        <ele>123</ele>
        <time>2011-04-02T14:17:33</time>
      </trkpt>
      <trkpt lat="44.48399" lon="1.55299">
        <ele>123</ele>
        <time>2011-04-02T14:17:35</time>
      </trkpt>
      <trkpt lat="44.48391" lon="1.55292">
        <ele>123</ele>
        <time>2011-04-02T14:17:37</time>
      </trkpt>
      <trkpt lat="44.48387" lon="1.55289">
        <ele>126</ele>
        <time>2011-04-02T14:17:38</time>
      </trkpt>
      <trkpt lat="44.4838" lon="1.55282">
        <ele>126</ele>
        <time>2011-04-02T14:17:40</time>
      </trkpt>
      <trkpt lat="44.48376" lon="1.55279">
        <ele>126</ele>
        <time>2011-04-02T14:17:41</time>
      </trkpt>
      <trkpt lat="44.48373" lon="1.55276">
        <ele>125</ele>
        <time>2011-04-02T14:17:42</time>
      </trkpt>
      <trkpt lat="44.48367" lon="1.55269">
        <ele>125</ele>
        <time>2011-04-02T14:17:44</time>
      </trkpt>
      <trkpt lat="44.48364" lon="1.55266">
        <ele>125</ele>
        <time>2011-04-02T14:17:45</time>
      </trkpt>
      <trkpt lat="44.48358" lon="1.55259">
        <ele>125</ele>
        <time>2011-04-02T14:17:47</time>
      </trkpt>
      <trkpt lat="44.48356" lon="1.55255">
        <ele>125</ele>
        <time>2011-04-02T14:17:48</time>
      </trkpt>
      <trkpt lat="44.48353" lon="1.55252">
        <ele>125</ele>
        <time>2011-04-02T14:17:49</time>
      </trkpt>
      <trkpt lat="44.48348" lon="1.55246">
        <ele>125</ele>
        <time>2011-04-02T14:17:51</time>
      </trkpt>
      <trkpt lat="44.48342" lon="1.5524">
        <ele>125</ele>
        <time>2011-04-02T14:17:53</time>
      </trkpt>
      <trkpt lat="44.48336" lon="1.55235">
        <ele>125</ele>
        <time>2011-04-02T14:17:55</time>
      </trkpt>
      <trkpt lat="44.48329" lon="1.55229">
        <ele>125</ele>
        <time>2011-04-02T14:17:57</time>
      </trkpt>
      <trkpt lat="44.48326" lon="1.55226">
        <ele>125</ele>
        <time>2011-04-02T14:17:58</time>
      </trkpt>
      <trkpt lat="44.4832" lon="1.55218">
        <ele>125</ele>
        <time>2011-04-02T14:18:00</time>
      </trkpt>
      <trkpt lat="44.48314" lon="1.55211">
        <ele>125</ele>
        <time>2011-04-02T14:18:02</time>
      </trkpt>
      <trkpt lat="44.48311" lon="1.55207">
        <ele>136</ele>
        <time>2011-04-02T14:18:03</time>
      </trkpt>
      <trkpt lat="44.48306" lon="1.55199">
        <ele>136</ele>
        <time>2011-04-02T14:18:05</time>
      </trkpt>
      <trkpt lat="44.483" lon="1.55191">
        <ele>136</ele>
        <time>2011-04-02T14:18:07</time>
      </trkpt>
      <trkpt lat="44.48294" lon="1.55184">
        <ele>136</ele>
        <time>2011-04-02T14:18:09</time>
      </trkpt>
      <trkpt lat="44.48287" lon="1.55177">
        <ele>124</ele>
        <time>2011-04-02T14:18:11</time>
      </trkpt>
      <trkpt lat="44.48279" lon="1.55171">
        <ele>124</ele>
        <time>2011-04-02T14:18:13</time>
      </trkpt>
      <trkpt lat="44.48275" lon="1.55168">
        <ele>124</ele>
        <time>2011-04-02T14:18:14</time>
      </trkpt>
      <trkpt lat="44.48271" lon="1.55165">
        <ele>124</ele>
        <time>2011-04-02T14:18:15</time>
      </trkpt>
      <trkpt lat="44.48263" lon="1.55159">
        <ele>124</ele>
        <time>2011-04-02T14:18:17</time>
      </trkpt>
      <trkpt lat="44.48259" lon="1.55156">
        <ele>124</ele>
        <time>2011-04-02T14:18:18</time>
      </trkpt>
      <trkpt lat="44.48251" lon="1.55151">
        <ele>124</ele>
        <time>2011-04-02T14:18:20</time>
      </trkpt>
      <trkpt lat="44.48247" lon="1.55149">
        <ele>124</ele>
        <time>2011-04-02T14:18:21</time>
      </trkpt>
      <trkpt lat="44.48238" lon="1.55144">
        <ele>124</ele>
        <time>2011-04-02T14:18:23</time>
      </trkpt>
      <trkpt lat="44.4823" lon="1.5514">
        <ele>124</ele>
        <time>2011-04-02T14:18:25</time>
      </trkpt>
      <trkpt lat="44.48222" lon="1.55136">
        <ele>124</ele>
        <time>2011-04-02T14:18:27</time>
      </trkpt>
      <trkpt lat="44.48214" lon="1.55131">
        <ele>124</ele>
        <time>2011-04-02T14:18:29</time>
      </trkpt>
      <trkpt lat="44.48204" lon="1.55127">
        <ele>123</ele>
        <time>2011-04-02T14:18:31</time>
      </trkpt>
      <trkpt lat="44.48199" lon="1.55125">
        <ele>150</ele>
        <time>2011-04-02T14:18:32</time>
      </trkpt>
      <trkpt lat="44.48189" lon="1.55122">
        <ele>150</ele>
        <time>2011-04-02T14:18:34</time>
      </trkpt>
      <trkpt lat="44.48181" lon="1.55119">
        <ele>150</ele>
        <time>2011-04-02T14:18:36</time>
      </trkpt>
      <trkpt lat="44.48173" lon="1.55116">
        <ele>150</ele>
        <time>2011-04-02T14:18:38</time>
      </trkpt>
      <trkpt lat="44.48164" lon="1.55112">
        <ele>150</ele>
        <time>2011-04-02T14:18:40</time>
      </trkpt>
      <trkpt lat="44.48156" lon="1.55109">
        <ele>150</ele>
        <time>2011-04-02T14:18:42</time>
      </trkpt>
      <trkpt lat="44.48148" lon="1.55104">
        <ele>150</ele>
        <time>2011-04-02T14:18:44</time>
      </trkpt>
      <trkpt lat="44.48138" lon="1.55099">
        <ele>150</ele>
        <time>2011-04-02T14:18:46</time>
      </trkpt>
      <trkpt lat="44.48134" lon="1.55097">
        <ele>150</ele>
        <time>2011-04-02T14:18:47</time>
      </trkpt>
      <trkpt lat="44.48124" lon="1.55093">
        <ele>133</ele>
        <time>2011-04-02T14:18:49</time>
      </trkpt>
      <trkpt lat="44.4812" lon="1.55091">
        <ele>133</ele>
        <time>2011-04-02T14:18:50</time>
      </trkpt>
      <trkpt lat="44.48116" lon="1.55089">
        <ele>133</ele>
        <time>2011-04-02T14:18:51</time>
      </trkpt>
      <trkpt lat="44.48108" lon="1.55086">
        <ele>133</ele>
        <time>2011-04-02T14:18:53</time>
      </trkpt>
      <trkpt lat="44.481" lon="1.55083">
        <ele>133</ele>
        <time>2011-04-02T14:18:55</time>
      </trkpt>
      <trkpt lat="44.48091" lon="1.55079">
        <ele>133</ele>
        <time>2011-04-02T14:18:57</time>
      </trkpt>
      <trkpt lat="44.48086" lon="1.55078">
        <ele>133</ele>
        <time>2011-04-02T14:18:58</time>
      </trkpt>
      <trkpt lat="44.48077" lon="1.55075">
        <ele>133</ele>
        <time>2011-04-02T14:19:00</time>
      </trkpt>
      <trkpt lat="44.48073" lon="1.55074">
        <ele>133</ele>
        <time>2011-04-02T14:19:01</time>
      </trkpt>
      <trkpt lat="44.48064" lon="1.55072">
        <ele>133</ele>
        <time>2011-04-02T14:19:03</time>
      </trkpt>
      <trkpt lat="44.48056" lon="1.5507">
        <ele>133</ele>
        <time>2011-04-02T14:19:05</time>
      </trkpt>
      <trkpt lat="44.48046" lon="1.55068">
        <ele>133</ele>
        <time>2011-04-02T14:19:07</time>
      </trkpt>
      <trkpt lat="44.48041" lon="1.55067">
        <ele>131</ele>
        <time>2011-04-02T14:19:08</time>
      </trkpt>
      <trkpt lat="44.4803" lon="1.55064">
        <ele>131</ele>
        <time>2011-04-02T14:19:10</time>
      </trkpt>
      <trkpt lat="44.48025" lon="1.55063">
        <ele>131</ele>
        <time>2011-04-02T14:19:11</time>
      </trkpt>
      <trkpt lat="44.48019" lon="1.55062">
        <ele>131</ele>
        <time>2011-04-02T14:19:12</time>
      </trkpt>
      <trkpt lat="44.48008" lon="1.55059">
        <ele>131</ele>
        <time>2011-04-02T14:19:14</time>
      </trkpt>
      <trkpt lat="44.48003" lon="1.55057">
        <ele>131</ele>
        <time>2011-04-02T14:19:15</time>
      </trkpt>
      <trkpt lat="44.47995" lon="1.55053">
        <ele>131</ele>
        <time>2011-04-02T14:19:17</time>
      </trkpt>
      <trkpt lat="44.47988" lon="1.55051">
        <ele>131</ele>
        <time>2011-04-02T14:19:19</time>
      </trkpt>
      <trkpt lat="44.47986" lon="1.55049">
        <ele>131</ele>
        <time>2011-04-02T14:19:20</time>
      </trkpt>
      <trkpt lat="44.47984" lon="1.55048">
        <ele>131</ele>
        <time>2011-04-02T14:19:21</time>
      </trkpt>
      <trkpt lat="44.47981" lon="1.55047">
        <ele>131</ele>
        <time>2011-04-02T14:19:22</time>
      </trkpt>
      <trkpt lat="44.47977" lon="1.55045">
        <ele>131</ele>
        <time>2011-04-02T14:19:24</time>
      </trkpt>
      <trkpt lat="44.47975" lon="1.55044">
        <ele>131</ele>
        <time>2011-04-02T14:19:25</time>
      </trkpt>
      <trkpt lat="44.47972" lon="1.55044">
        <ele>131</ele>
        <time>2011-04-02T14:19:26</time>
      </trkpt>
      <trkpt lat="44.47968" lon="1.55042">
        <ele>131</ele>
        <time>2011-04-02T14:19:28</time>
      </trkpt>
      <trkpt lat="44.47965" lon="1.55042">
        <ele>154</ele>
        <time>2011-04-02T14:19:29</time>
      </trkpt>
      <trkpt lat="44.47961" lon="1.5504">
        <ele>154</ele>
        <time>2011-04-02T14:19:31</time>
      </trkpt>
      <trkpt lat="44.47956" lon="1.55038">
        <ele>136</ele>
        <time>2011-04-02T14:19:32</time>
      </trkpt>
      <trkpt lat="44.47951" lon="1.55037">
        <ele>136</ele>
        <time>2011-04-02T14:19:34</time>
      </trkpt>
      <trkpt lat="44.47948" lon="1.55036">
        <ele>136</ele>
        <time>2011-04-02T14:19:35</time>
      </trkpt>
      <trkpt lat="44.47942" lon="1.55037">
        <ele>136</ele>
        <time>2011-04-02T14:19:37</time>
      </trkpt>
      <trkpt lat="44.47936" lon="1.55038">
        <ele>136</ele>
        <time>2011-04-02T14:19:39</time>
      </trkpt>
      <trkpt lat="44.47931" lon="1.55038">
        <ele>136</ele>
        <time>2011-04-02T14:19:41</time>
      </trkpt>
      <trkpt lat="44.47928" lon="1.55038">
        <ele>136</ele>
        <time>2011-04-02T14:19:42</time>
      </trkpt>
      <trkpt lat="44.47924" lon="1.55038">
        <ele>136</ele>
        <time>2011-04-02T14:19:43</time>
      </trkpt>
      <trkpt lat="44.47921" lon="1.55038">
        <ele>136</ele>
        <time>2011-04-02T14:19:44</time>
      </trkpt>
      <trkpt lat="44.47913" lon="1.55037">
        <ele>136</ele>
        <time>2011-04-02T14:19:46</time>
      </trkpt>
      <trkpt lat="44.4791" lon="1.55036">
        <ele>136</ele>
        <time>2011-04-02T14:19:47</time>
      </trkpt>
      <trkpt lat="44.47906" lon="1.55036">
        <ele>136</ele>
        <time>2011-04-02T14:19:48</time>
      </trkpt>
      <trkpt lat="44.47902" lon="1.55036">
        <ele>136</ele>
        <time>2011-04-02T14:19:49</time>
      </trkpt>
      <trkpt lat="44.47899" lon="1.55036">
        <ele>136</ele>
        <time>2011-04-02T14:19:50</time>
      </trkpt>
      <trkpt lat="44.47894" lon="1.55036">
        <ele>136</ele>
        <time>2011-04-02T14:19:51</time>
      </trkpt>
      <trkpt lat="44.4788" lon="1.55035">
        <ele>136</ele>
        <time>2011-04-02T14:19:53</time>
      </trkpt>
      <trkpt lat="44.47869" lon="1.55031">
        <ele>128</ele>
        <time>2011-04-02T14:19:55</time>
      </trkpt>
      <trkpt lat="44.4786" lon="1.55024">
        <ele>128</ele>
        <time>2011-04-02T14:19:57</time>
      </trkpt>
      <trkpt lat="44.47856" lon="1.55015">
        <ele>128</ele>
        <time>2011-04-02T14:19:59</time>
      </trkpt>
      <trkpt lat="44.47854" lon="1.5501">
        <ele>128</ele>
        <time>2011-04-02T14:20:00</time>
      </trkpt>
      <trkpt lat="44.47853" lon="1.55">
        <ele>128</ele>
        <time>2011-04-02T14:20:02</time>
      </trkpt>
      <trkpt lat="44.47852" lon="1.54995">
        <ele>128</ele>
        <time>2011-04-02T14:20:03</time>
      </trkpt>
      <trkpt lat="44.47851" lon="1.54985">
        <ele>128</ele>
        <time>2011-04-02T14:20:05</time>
      </trkpt>
      <trkpt lat="44.4785" lon="1.54975">
        <ele>128</ele>
        <time>2011-04-02T14:20:07</time>
      </trkpt>
      <trkpt lat="44.4785" lon="1.54966">
        <ele>128</ele>
        <time>2011-04-02T14:20:09</time>
      </trkpt>
      <trkpt lat="44.4785" lon="1.54961">
        <ele>128</ele>
        <time>2011-04-02T14:20:10</time>
      </trkpt>
      <trkpt lat="44.47848" lon="1.54954">
        <ele>132</ele>
        <time>2011-04-02T14:20:12</time>
      </trkpt>
      <trkpt lat="44.47844" lon="1.54948">
        <ele>132</ele>
        <time>2011-04-02T14:20:14</time>
      </trkpt>
      <trkpt lat="44.47838" lon="1.54942">
        <ele>132</ele>
        <time>2011-04-02T14:20:16</time>
      </trkpt>
      <trkpt lat="44.47834" lon="1.54938">
        <ele>132</ele>
        <time>2011-04-02T14:20:17</time>
      </trkpt>
      <trkpt lat="44.47828" lon="1.54931">
        <ele>132</ele>
        <time>2011-04-02T14:20:19</time>
      </trkpt>
      <trkpt lat="44.47824" lon="1.54928">
        <ele>132</ele>
        <time>2011-04-02T14:20:20</time>
      </trkpt>
      <trkpt lat="44.47817" lon="1.54921">
        <ele>132</ele>
        <time>2011-04-02T14:20:22</time>
      </trkpt>
      <trkpt lat="44.47813" lon="1.54919">
        <ele>132</ele>
        <time>2011-04-02T14:20:23</time>
      </trkpt>
      <trkpt lat="44.47807" lon="1.54913">
        <ele>132</ele>
        <time>2011-04-02T14:20:25</time>
      </trkpt>
      <trkpt lat="44.47801" lon="1.54909">
        <ele>132</ele>
        <time>2011-04-02T14:20:27</time>
      </trkpt>
      <trkpt lat="44.47797" lon="1.54908">
        <ele>132</ele>
        <time>2011-04-02T14:20:28</time>
      </trkpt>
      <trkpt lat="44.47791" lon="1.54905">
        <ele>127</ele>
        <time>2011-04-02T14:20:30</time>
      </trkpt>
      <trkpt lat="44.47784" lon="1.54901">
        <ele>127</ele>
        <time>2011-04-02T14:20:32</time>
      </trkpt>
      <trkpt lat="44.47779" lon="1.54899">
        <ele>127</ele>
        <time>2011-04-02T14:20:34</time>
      </trkpt>
      <trkpt lat="44.47776" lon="1.54896">
        <ele>127</ele>
        <time>2011-04-02T14:20:36</time>
      </trkpt>
      <trkpt lat="44.47771" lon="1.54894">
        <ele>127</ele>
        <time>2011-04-02T14:20:38</time>
      </trkpt>
      <trkpt lat="44.47766" lon="1.54893">
        <ele>127</ele>
        <time>2011-04-02T14:20:40</time>
      </trkpt>
      <trkpt lat="44.47763" lon="1.54892">
        <ele>127</ele>
        <time>2011-04-02T14:20:41</time>
      </trkpt>
      <trkpt lat="44.47758" lon="1.54888">
        <ele>127</ele>
        <time>2011-04-02T14:20:43</time>
      </trkpt>
      <trkpt lat="44.47753" lon="1.54884">
        <ele>127</ele>
        <time>2011-04-02T14:20:45</time>
      </trkpt>
      <trkpt lat="44.47751" lon="1.54882">
        <ele>127</ele>
        <time>2011-04-02T14:20:46</time>
      </trkpt>
      <trkpt lat="44.47746" lon="1.54876">
        <ele>127</ele>
        <time>2011-04-02T14:20:49</time>
      </trkpt>
      <trkpt lat="44.47743" lon="1.54873">
        <ele>133</ele>
        <time>2011-04-02T14:20:51</time>
      </trkpt>
      <trkpt lat="44.4774" lon="1.54871">
        <ele>133</ele>
        <time>2011-04-02T14:20:53</time>
      </trkpt>
      <trkpt lat="44.47738" lon="1.54869">
        <ele>133</ele>
        <time>2011-04-02T14:20:55</time>
      </trkpt>
      <trkpt lat="44.47734" lon="1.54866">
        <ele>133</ele>
        <time>2011-04-02T14:20:57</time>
      </trkpt>
      <trkpt lat="44.47731" lon="1.54862">
        <ele>133</ele>
        <time>2011-04-02T14:20:59</time>
      </trkpt>
      <trkpt lat="44.47729" lon="1.54859">
        <ele>133</ele>
        <time>2011-04-02T14:21:00</time>
      </trkpt>
      <trkpt lat="44.47728" lon="1.54856">
        <ele>133</ele>
        <time>2011-04-02T14:21:01</time>
      </trkpt>
      <trkpt lat="44.47725" lon="1.54847">
        <ele>133</ele>
        <time>2011-04-02T14:21:04</time>
      </trkpt>
      <trkpt lat="44.47725" lon="1.54842">
        <ele>133</ele>
        <time>2011-04-02T14:21:06</time>
      </trkpt>
      <trkpt lat="44.47728" lon="1.54838">
        <ele>133</ele>
        <time>2011-04-02T14:21:08</time>
      </trkpt>
      <trkpt lat="44.47733" lon="1.54836">
        <ele>133</ele>
        <time>2011-04-02T14:21:10</time>
      </trkpt>
      <trkpt lat="44.47736" lon="1.54835">
        <ele>133</ele>
        <time>2011-04-02T14:21:11</time>
      </trkpt>
      <trkpt lat="44.47739" lon="1.54834">
        <ele>133</ele>
        <time>2011-04-02T14:21:12</time>
      </trkpt>
      <trkpt lat="44.47744" lon="1.54831">
        <ele>133</ele>
        <time>2011-04-02T14:21:14</time>
      </trkpt>
      <trkpt lat="44.47747" lon="1.54825">
        <ele>133</ele>
        <time>2011-04-02T14:21:16</time>
      </trkpt>
      <trkpt lat="44.47748" lon="1.54822">
        <ele>133</ele>
        <time>2011-04-02T14:21:17</time>
      </trkpt>
      <trkpt lat="44.47746" lon="1.54815">
        <ele>133</ele>
        <time>2011-04-02T14:21:19</time>
      </trkpt>
      <trkpt lat="44.47742" lon="1.5481">
        <ele>133</ele>
        <time>2011-04-02T14:21:21</time>
      </trkpt>
      <trkpt lat="44.47736" lon="1.54805">
        <ele>133</ele>
        <time>2011-04-02T14:21:23</time>
      </trkpt>
      <trkpt lat="44.4773" lon="1.548">
        <ele>133</ele>
        <time>2011-04-02T14:21:25</time>
      </trkpt>
      <trkpt lat="44.47724" lon="1.54795">
        <ele>133</ele>
        <time>2011-04-02T14:21:27</time>
      </trkpt>
      <trkpt lat="44.47721" lon="1.54792">
        <ele>133</ele>
        <time>2011-04-02T14:21:28</time>
      </trkpt>
      <trkpt lat="44.47718" lon="1.5479">
        <ele>146</ele>
        <time>2011-04-02T14:21:29</time>
      </trkpt>
      <trkpt lat="44.47712" lon="1.54785">
        <ele>146</ele>
        <time>2011-04-02T14:21:31</time>
      </trkpt>
      <trkpt lat="44.47709" lon="1.54783">
        <ele>146</ele>
        <time>2011-04-02T14:21:32</time>
      </trkpt>
      <trkpt lat="44.47706" lon="1.54781">
        <ele>141</ele>
        <time>2011-04-02T14:21:33</time>
      </trkpt>
      <trkpt lat="44.47701" lon="1.54777">
        <ele>141</ele>
        <time>2011-04-02T14:21:35</time>
      </trkpt>
      <trkpt lat="44.47698" lon="1.54776">
        <ele>141</ele>
        <time>2011-04-02T14:21:36</time>
      </trkpt>
      <trkpt lat="44.47692" lon="1.54774">
        <ele>141</ele>
        <time>2011-04-02T14:21:38</time>
      </trkpt>
      <trkpt lat="44.4769" lon="1.54772">
        <ele>141</ele>
        <time>2011-04-02T14:21:39</time>
      </trkpt>
      <trkpt lat="44.47688" lon="1.54771">
        <ele>141</ele>
        <time>2011-04-02T14:21:40</time>
      </trkpt>
      <trkpt lat="44.47685" lon="1.54769">
        <ele>141</ele>
        <time>2011-04-02T14:21:41</time>
      </trkpt>
      <trkpt lat="44.47678" lon="1.54767">
        <ele>141</ele>
        <time>2011-04-02T14:21:43</time>
      </trkpt>
      <trkpt lat="44.47674" lon="1.54766">
        <ele>141</ele>
        <time>2011-04-02T14:21:44</time>
      </trkpt>
      <trkpt lat="44.47666" lon="1.54764">
        <ele>141</ele>
        <time>2011-04-02T14:21:46</time>
      </trkpt>
      <trkpt lat="44.47662" lon="1.54763">
        <ele>141</ele>
        <time>2011-04-02T14:21:47</time>
      </trkpt>
      <trkpt lat="44.47655" lon="1.5476">
        <ele>141</ele>
        <time>2011-04-02T14:21:49</time>
      </trkpt>
      <trkpt lat="44.47651" lon="1.54758">
        <ele>141</ele>
        <time>2011-04-02T14:21:50</time>
      </trkpt>
      <trkpt lat="44.47643" lon="1.54757">
        <ele>141</ele>
        <time>2011-04-02T14:21:52</time>
      </trkpt>
      <trkpt lat="44.4764" lon="1.54756">
        <ele>141</ele>
        <time>2011-04-02T14:21:53</time>
      </trkpt>
      <trkpt lat="44.47633" lon="1.54754">
        <ele>141</ele>
        <time>2011-04-02T14:21:55</time>
      </trkpt>
      <trkpt lat="44.4763" lon="1.54753">
        <ele>141</ele>
        <time>2011-04-02T14:21:56</time>
      </trkpt>
      <trkpt lat="44.47623" lon="1.5475">
        <ele>140</ele>
        <time>2011-04-02T14:21:58</time>
      </trkpt>
      <trkpt lat="44.4762" lon="1.54749">
        <ele>140</ele>
        <time>2011-04-02T14:21:59</time>
      </trkpt>
      <trkpt lat="44.47615" lon="1.54747">
        <ele>140</ele>
        <time>2011-04-02T14:22:01</time>
      </trkpt>
      <trkpt lat="44.47613" lon="1.54746">
        <ele>140</ele>
        <time>2011-04-02T14:22:02</time>
      </trkpt>
      <trkpt lat="44.47607" lon="1.54744">
        <ele>140</ele>
        <time>2011-04-02T14:22:05</time>
      </trkpt>
      <trkpt lat="44.47605" lon="1.54743">
        <ele>140</ele>
        <time>2011-04-02T14:22:07</time>
      </trkpt>
      <trkpt lat="44.47602" lon="1.54741">
        <ele>140</ele>
        <time>2011-04-02T14:22:10</time>
      </trkpt>
      <trkpt lat="44.47599" lon="1.54739">
        <ele>140</ele>
        <time>2011-04-02T14:22:12</time>
      </trkpt>
      <trkpt lat="44.47595" lon="1.54739">
        <ele>140</ele>
        <time>2011-04-02T14:22:14</time>
      </trkpt>
      <trkpt lat="44.47592" lon="1.54738">
        <ele>140</ele>
        <time>2011-04-02T14:22:16</time>
      </trkpt>
      <trkpt lat="44.47589" lon="1.54736">
        <ele>140</ele>
        <time>2011-04-02T14:22:18</time>
      </trkpt>
      <trkpt lat="44.47587" lon="1.54734">
        <ele>140</ele>
        <time>2011-04-02T14:22:20</time>
      </trkpt>
      <trkpt lat="44.47584" lon="1.54733">
        <ele>140</ele>
        <time>2011-04-02T14:22:23</time>
      </trkpt>
      <trkpt lat="44.47581" lon="1.54733">
        <ele>140</ele>
        <time>2011-04-02T14:22:25</time>
      </trkpt>
      <trkpt lat="44.47579" lon="1.54731">
        <ele>140</ele>
        <time>2011-04-02T14:22:27</time>
      </trkpt>
      <trkpt lat="44.47576" lon="1.54729">
        <ele>140</ele>
        <time>2011-04-02T14:22:29</time>
      </trkpt>
      <trkpt lat="44.47573" lon="1.54728">
        <ele>140</ele>
        <time>2011-04-02T14:22:31</time>
      </trkpt>
      <trkpt lat="44.47568" lon="1.54728">
        <ele>140</ele>
        <time>2011-04-02T14:22:33</time>
      </trkpt>
      <trkpt lat="44.47563" lon="1.54728">
        <ele>140</ele>
        <time>2011-04-02T14:22:35</time>
      </trkpt>
      <trkpt lat="44.4756" lon="1.54727">
        <ele>140</ele>
        <time>2011-04-02T14:22:37</time>
      </trkpt>
      <trkpt lat="44.47557" lon="1.54726">
        <ele>140</ele>
        <time>2011-04-02T14:22:39</time>
      </trkpt>
      <trkpt lat="44.47554" lon="1.54725">
        <ele>140</ele>
        <time>2011-04-02T14:22:41</time>
      </trkpt>
      <trkpt lat="44.4755" lon="1.54724">
        <ele>140</ele>
        <time>2011-04-02T14:22:43</time>
      </trkpt>
      <trkpt lat="44.47547" lon="1.54724">
        <ele>140</ele>
        <time>2011-04-02T14:22:45</time>
      </trkpt>
      <trkpt lat="44.47544" lon="1.54725">
        <ele>140</ele>
        <time>2011-04-02T14:22:47</time>
      </trkpt>
      <trkpt lat="44.4754" lon="1.54726">
        <ele>142</ele>
        <time>2011-04-02T14:22:49</time>
      </trkpt>
      <trkpt lat="44.47537" lon="1.54727">
        <ele>142</ele>
        <time>2011-04-02T14:22:51</time>
      </trkpt>
      <trkpt lat="44.47532" lon="1.54729">
        <ele>142</ele>
        <time>2011-04-02T14:22:53</time>
      </trkpt>
      <trkpt lat="44.47527" lon="1.5473">
        <ele>142</ele>
        <time>2011-04-02T14:22:55</time>
      </trkpt>
      <trkpt lat="44.47523" lon="1.54732">
        <ele>142</ele>
        <time>2011-04-02T14:22:57</time>
      </trkpt>
      <trkpt lat="44.4752" lon="1.54733">
        <ele>142</ele>
        <time>2011-04-02T14:22:58</time>
      </trkpt>
      <trkpt lat="44.47515" lon="1.54734">
        <ele>142</ele>
        <time>2011-04-02T14:23:03</time>
      </trkpt>
      <trkpt lat="44.4751" lon="1.54735">
        <ele>142</ele>
        <time>2011-04-02T14:23:09</time>
      </trkpt>
      <trkpt lat="44.47506" lon="1.54737">
        <ele>142</ele>
        <time>2011-04-02T14:23:12</time>
      </trkpt>
      <trkpt lat="44.47501" lon="1.5474">
        <ele>142</ele>
        <time>2011-04-02T14:23:16</time>
      </trkpt>
      <trkpt lat="44.47497" lon="1.54743">
        <ele>142</ele>
        <time>2011-04-02T14:23:24</time>
      </trkpt>
      <trkpt lat="44.47497" lon="1.54743">
        <ele>142</ele>
        <time>2011-04-02T14:23:33</time>
      </trkpt>
      <trkpt lat="44.47496" lon="1.54737">
        <ele>142</ele>
        <time>2011-04-02T14:23:41</time>
      </trkpt>
      <trkpt lat="44.47497" lon="1.54731">
        <ele>142</ele>
        <time>2011-04-02T14:23:46</time>
      </trkpt>
      <trkpt lat="44.47497" lon="1.54731">
        <ele>142</ele>
        <time>2011-04-02T14:23:47</time>
      </trkpt>
      <trkpt lat="44.47497" lon="1.54731">
        <ele>142</ele>
        <time>2011-04-02T14:24:03</time>
      </trkpt>
      <trkpt lat="44.47495" lon="1.54734">
        <ele>142</ele>
        <time>2011-04-02T14:24:08</time>
      </trkpt>
      <trkpt lat="44.47493" lon="1.54738">
        <ele>142</ele>
        <time>2011-04-02T14:24:11</time>
      </trkpt>
      <trkpt lat="44.47493" lon="1.54738">
        <ele>142</ele>
        <time>2011-04-02T14:24:12</time>
      </trkpt>
      <trkpt lat="44.47492" lon="1.54741">
        <ele>142</ele>
        <time>2011-04-02T14:24:13</time>
      </trkpt>
      <trkpt lat="44.47489" lon="1.54744">
        <ele>142</ele>
        <time>2011-04-02T14:24:17</time>
      </trkpt>
      <trkpt lat="44.47486" lon="1.54746">
        <ele>142</ele>
        <time>2011-04-02T14:24:19</time>
      </trkpt>
      <trkpt lat="44.47482" lon="1.54748">
        <ele>142</ele>
        <time>2011-04-02T14:24:21</time>
      </trkpt>
      <trkpt lat="44.47479" lon="1.54748">
        <ele>142</ele>
        <time>2011-04-02T14:24:23</time>
      </trkpt>
      <trkpt lat="44.47476" lon="1.54749">
        <ele>142</ele>
        <time>2011-04-02T14:24:25</time>
      </trkpt>
      <trkpt lat="44.47472" lon="1.54752">
        <ele>142</ele>
        <time>2011-04-02T14:24:27</time>
      </trkpt>
      <trkpt lat="44.4747" lon="1.54753">
        <ele>142</ele>
        <time>2011-04-02T14:24:28</time>
      </trkpt>
      <trkpt lat="44.47465" lon="1.54756">
        <ele>142</ele>
        <time>2011-04-02T14:24:30</time>
      </trkpt>
      <trkpt lat="44.47458" lon="1.54758">
        <ele>149</ele>
        <time>2011-04-02T14:24:33</time>
      </trkpt>
      <trkpt lat="44.47455" lon="1.54759">
        <ele>149</ele>
        <time>2011-04-02T14:24:34</time>
      </trkpt>
      <trkpt lat="44.47451" lon="1.54761">
        <ele>149</ele>
        <time>2011-04-02T14:24:36</time>
      </trkpt>
      <trkpt lat="44.47446" lon="1.54763">
        <ele>149</ele>
        <time>2011-04-02T14:24:38</time>
      </trkpt>
      <trkpt lat="44.47443" lon="1.54763">
        <ele>149</ele>
        <time>2011-04-02T14:24:39</time>
      </trkpt>
      <trkpt lat="44.47441" lon="1.54763">
        <ele>149</ele>
        <time>2011-04-02T14:24:40</time>
      </trkpt>
      <trkpt lat="44.47437" lon="1.54763">
        <ele>149</ele>
        <time>2011-04-02T14:24:42</time>
      </trkpt>
      <trkpt lat="44.47433" lon="1.54765">
        <ele>149</ele>
        <time>2011-04-02T14:24:44</time>
      </trkpt>
      <trkpt lat="44.47428" lon="1.54765">
        <ele>149</ele>
        <time>2011-04-02T14:24:46</time>
      </trkpt>
      <trkpt lat="44.47426" lon="1.54765">
        <ele>149</ele>
        <time>2011-04-02T14:24:47</time>
      </trkpt>
      <trkpt lat="44.47419" lon="1.54766">
        <ele>149</ele>
        <time>2011-04-02T14:24:50</time>
      </trkpt>
      <trkpt lat="44.47415" lon="1.54766">
        <ele>149</ele>
        <time>2011-04-02T14:24:52</time>
      </trkpt>
      <trkpt lat="44.47413" lon="1.54766">
        <ele>149</ele>
        <time>2011-04-02T14:24:53</time>
      </trkpt>
      <trkpt lat="44.47407" lon="1.54767">
        <ele>149</ele>
        <time>2011-04-02T14:24:55</time>
      </trkpt>
      <trkpt lat="44.47405" lon="1.54768">
        <ele>149</ele>
        <time>2011-04-02T14:24:56</time>
      </trkpt>
      <trkpt lat="44.47399" lon="1.54769">
        <ele>149</ele>
        <time>2011-04-02T14:24:58</time>
      </trkpt>
      <trkpt lat="44.47396" lon="1.5477">
        <ele>149</ele>
        <time>2011-04-02T14:24:59</time>
      </trkpt>
      <trkpt lat="44.47393" lon="1.54771">
        <ele>149</ele>
        <time>2011-04-02T14:25:00</time>
      </trkpt>
      <trkpt lat="44.47387" lon="1.54773">
        <ele>149</ele>
        <time>2011-04-02T14:25:02</time>
      </trkpt>
      <trkpt lat="44.47385" lon="1.54773">
        <ele>149</ele>
        <time>2011-04-02T14:25:03</time>
      </trkpt>
      <trkpt lat="44.47378" lon="1.54775">
        <ele>149</ele>
        <time>2011-04-02T14:25:05</time>
      </trkpt>
      <trkpt lat="44.47375" lon="1.54776">
        <ele>159</ele>
        <time>2011-04-02T14:25:06</time>
      </trkpt>
      <trkpt lat="44.47369" lon="1.54779">
        <ele>159</ele>
        <time>2011-04-02T14:25:08</time>
      </trkpt>
      <trkpt lat="44.47366" lon="1.5478">
        <ele>159</ele>
        <time>2011-04-02T14:25:09</time>
      </trkpt>
      <trkpt lat="44.47363" lon="1.54781">
        <ele>159</ele>
        <time>2011-04-02T14:25:10</time>
      </trkpt>
      <trkpt lat="44.47358" lon="1.54784">
        <ele>159</ele>
        <time>2011-04-02T14:25:12</time>
      </trkpt>
      <trkpt lat="44.47355" lon="1.54785">
        <ele>159</ele>
        <time>2011-04-02T14:25:13</time>
      </trkpt>
      <trkpt lat="44.47348" lon="1.54788">
        <ele>159</ele>
        <time>2011-04-02T14:25:16</time>
      </trkpt>
      <trkpt lat="44.47342" lon="1.5479">
        <ele>159</ele>
        <time>2011-04-02T14:25:19</time>
      </trkpt>
      <trkpt lat="44.47338" lon="1.5479">
        <ele>159</ele>
        <time>2011-04-02T14:25:21</time>
      </trkpt>
      <trkpt lat="44.47335" lon="1.5479">
        <ele>159</ele>
        <time>2011-04-02T14:25:23</time>
      </trkpt>
      <trkpt lat="44.4733" lon="1.54791">
        <ele>159</ele>
        <time>2011-04-02T14:25:25</time>
      </trkpt>
      <trkpt lat="44.47326" lon="1.54792">
        <ele>159</ele>
        <time>2011-04-02T14:25:27</time>
      </trkpt>
      <trkpt lat="44.47322" lon="1.54793">
        <ele>134</ele>
        <time>2011-04-02T14:25:28</time>
      </trkpt>
      <trkpt lat="44.47311" lon="1.54797">
        <ele>134</ele>
        <time>2011-04-02T14:25:30</time>
      </trkpt>
      <trkpt lat="44.47305" lon="1.54799">
        <ele>134</ele>
        <time>2011-04-02T14:25:31</time>
      </trkpt>
      <trkpt lat="44.47301" lon="1.548">
        <ele>134</ele>
        <time>2011-04-02T14:25:32</time>
      </trkpt>
      <trkpt lat="44.47296" lon="1.54801">
        <ele>134</ele>
        <time>2011-04-02T14:25:33</time>
      </trkpt>
      <trkpt lat="44.47287" lon="1.54803">
        <ele>140</ele>
        <time>2011-04-02T14:25:35</time>
      </trkpt>
      <trkpt lat="44.47284" lon="1.54803">
        <ele>140</ele>
        <time>2011-04-02T14:25:36</time>
      </trkpt>
      <trkpt lat="44.47276" lon="1.54804">
        <ele>140</ele>
        <time>2011-04-02T14:25:38</time>
      </trkpt>
      <trkpt lat="44.47265" lon="1.54807">
        <ele>140</ele>
        <time>2011-04-02T14:25:40</time>
      </trkpt>
      <trkpt lat="44.47255" lon="1.54811">
        <ele>140</ele>
        <time>2011-04-02T14:25:42</time>
      </trkpt>
      <trkpt lat="44.47246" lon="1.54813">
        <ele>140</ele>
        <time>2011-04-02T14:25:44</time>
      </trkpt>
      <trkpt lat="44.47241" lon="1.54813">
        <ele>140</ele>
        <time>2011-04-02T14:25:46</time>
      </trkpt>
      <trkpt lat="44.47239" lon="1.54815">
        <ele>140</ele>
        <time>2011-04-02T14:25:48</time>
      </trkpt>
      <trkpt lat="44.47238" lon="1.54816">
        <ele>140</ele>
        <time>2011-04-02T14:25:49</time>
      </trkpt>
      <trkpt lat="44.47235" lon="1.54817">
        <ele>140</ele>
        <time>2011-04-02T14:25:51</time>
      </trkpt>
      <trkpt lat="44.47232" lon="1.54818">
        <ele>140</ele>
        <time>2011-04-02T14:25:53</time>
      </trkpt>
      <trkpt lat="44.4723" lon="1.5482">
        <ele>140</ele>
        <time>2011-04-02T14:25:55</time>
      </trkpt>
      <trkpt lat="44.47228" lon="1.54821">
        <ele>140</ele>
        <time>2011-04-02T14:25:57</time>
      </trkpt>
      <trkpt lat="44.47224" lon="1.54821">
        <ele>140</ele>
        <time>2011-04-02T14:26:00</time>
      </trkpt>
      <trkpt lat="44.47222" lon="1.54821">
        <ele>140</ele>
        <time>2011-04-02T14:26:02</time>
      </trkpt>
      <trkpt lat="44.47219" lon="1.54822">
        <ele>140</ele>
        <time>2011-04-02T14:26:04</time>
      </trkpt>
      <trkpt lat="44.47214" lon="1.54823">
        <ele>140</ele>
        <time>2011-04-02T14:26:07</time>
      </trkpt>
      <trkpt lat="44.47211" lon="1.54824">
        <ele>140</ele>
        <time>2011-04-02T14:26:09</time>
      </trkpt>
      <trkpt lat="44.47207" lon="1.54826">
        <ele>147</ele>
        <time>2011-04-02T14:26:11</time>
      </trkpt>
      <trkpt lat="44.47203" lon="1.54827">
        <ele>147</ele>
        <time>2011-04-02T14:26:13</time>
      </trkpt>
      <trkpt lat="44.47197" lon="1.54828">
        <ele>147</ele>
        <time>2011-04-02T14:26:15</time>
      </trkpt>
      <trkpt lat="44.4719" lon="1.54831">
        <ele>147</ele>
        <time>2011-04-02T14:26:17</time>
      </trkpt>
      <trkpt lat="44.47182" lon="1.54833">
        <ele>147</ele>
        <time>2011-04-02T14:26:19</time>
      </trkpt>
      <trkpt lat="44.47173" lon="1.54837">
        <ele>147</ele>
        <time>2011-04-02T14:26:21</time>
      </trkpt>
      <trkpt lat="44.47165" lon="1.54839">
        <ele>147</ele>
        <time>2011-04-02T14:26:23</time>
      </trkpt>
      <trkpt lat="44.47162" lon="1.54839">
        <ele>147</ele>
        <time>2011-04-02T14:26:24</time>
      </trkpt>
      <trkpt lat="44.47158" lon="1.54841">
        <ele>147</ele>
        <time>2011-04-02T14:26:26</time>
      </trkpt>
      <trkpt lat="44.47156" lon="1.54841">
        <ele>147</ele>
        <time>2011-04-02T14:26:27</time>
      </trkpt>
      <trkpt lat="44.4715" lon="1.54843">
        <ele>147</ele>
        <time>2011-04-02T14:26:29</time>
      </trkpt>
      <trkpt lat="44.47147" lon="1.54843">
        <ele>147</ele>
        <time>2011-04-02T14:26:30</time>
      </trkpt>
      <trkpt lat="44.47144" lon="1.54843">
        <ele>147</ele>
        <time>2011-04-02T14:26:31</time>
      </trkpt>
      <trkpt lat="44.47139" lon="1.54842">
        <ele>147</ele>
        <time>2011-04-02T14:26:33</time>
      </trkpt>
      <trkpt lat="44.47137" lon="1.54842">
        <ele>147</ele>
        <time>2011-04-02T14:26:34</time>
      </trkpt>
      <trkpt lat="44.47134" lon="1.54841">
        <ele>147</ele>
        <time>2011-04-02T14:26:35</time>
      </trkpt>
      <trkpt lat="44.47131" lon="1.5484">
        <ele>147</ele>
        <time>2011-04-02T14:26:36</time>
      </trkpt>
      <trkpt lat="44.47124" lon="1.54842">
        <ele>154</ele>
        <time>2011-04-02T14:26:38</time>
      </trkpt>
      <trkpt lat="44.47114" lon="1.54844">
        <ele>154</ele>
        <time>2011-04-02T14:26:40</time>
      </trkpt>
      <trkpt lat="44.47109" lon="1.54845">
        <ele>154</ele>
        <time>2011-04-02T14:26:41</time>
      </trkpt>
      <trkpt lat="44.47105" lon="1.54844">
        <ele>154</ele>
        <time>2011-04-02T14:26:42</time>
      </trkpt>
      <trkpt lat="44.47097" lon="1.54842">
        <ele>154</ele>
        <time>2011-04-02T14:26:44</time>
      </trkpt>
      <trkpt lat="44.47093" lon="1.54841">
        <ele>154</ele>
        <time>2011-04-02T14:26:45</time>
      </trkpt>
      <trkpt lat="44.47085" lon="1.5484">
        <ele>154</ele>
        <time>2011-04-02T14:26:47</time>
      </trkpt>
      <trkpt lat="44.47082" lon="1.5484">
        <ele>154</ele>
        <time>2011-04-02T14:26:48</time>
      </trkpt>
      <trkpt lat="44.47075" lon="1.5484">
        <ele>154</ele>
        <time>2011-04-02T14:26:50</time>
      </trkpt>
      <trkpt lat="44.47071" lon="1.54839">
        <ele>154</ele>
        <time>2011-04-02T14:26:51</time>
      </trkpt>
      <trkpt lat="44.47065" lon="1.54842">
        <ele>154</ele>
        <time>2011-04-02T14:26:53</time>
      </trkpt>
      <trkpt lat="44.47061" lon="1.54843">
        <ele>154</ele>
        <time>2011-04-02T14:26:54</time>
      </trkpt>
      <trkpt lat="44.47059" lon="1.54845">
        <ele>154</ele>
        <time>2011-04-02T14:26:56</time>
      </trkpt>
      <trkpt lat="44.47052" lon="1.5485">
        <ele>154</ele>
        <time>2011-04-02T14:26:57</time>
      </trkpt>
      <trkpt lat="44.47045" lon="1.54856">
        <ele>154</ele>
        <time>2011-04-02T14:26:59</time>
      </trkpt>
      <trkpt lat="44.4704" lon="1.5486">
        <ele>151</ele>
        <time>2011-04-02T14:27:01</time>
      </trkpt>
      <trkpt lat="44.47037" lon="1.54861">
        <ele>151</ele>
        <time>2011-04-02T14:27:02</time>
      </trkpt>
      <trkpt lat="44.47035" lon="1.54862">
        <ele>151</ele>
        <time>2011-04-02T14:27:03</time>
      </trkpt>
      <trkpt lat="44.47029" lon="1.54864">
        <ele>151</ele>
        <time>2011-04-02T14:27:06</time>
      </trkpt>
      <trkpt lat="44.47026" lon="1.54864">
        <ele>151</ele>
        <time>2011-04-02T14:27:08</time>
      </trkpt>
      <trkpt lat="44.47023" lon="1.54864">
        <ele>151</ele>
        <time>2011-04-02T14:27:10</time>
      </trkpt>
      <trkpt lat="44.4702" lon="1.54862">
        <ele>151</ele>
        <time>2011-04-02T14:27:12</time>
      </trkpt>
      <trkpt lat="44.47018" lon="1.5486">
        <ele>151</ele>
        <time>2011-04-02T14:27:14</time>
      </trkpt>
      <trkpt lat="44.47015" lon="1.54859">
        <ele>151</ele>
        <time>2011-04-02T14:27:16</time>
      </trkpt>
      <trkpt lat="44.47012" lon="1.54858">
        <ele>151</ele>
        <time>2011-04-02T14:27:18</time>
      </trkpt>
      <trkpt lat="44.47007" lon="1.54857">
        <ele>151</ele>
        <time>2011-04-02T14:27:20</time>
      </trkpt>
      <trkpt lat="44.47005" lon="1.54857">
        <ele>151</ele>
        <time>2011-04-02T14:27:21</time>
      </trkpt>
      <trkpt lat="44.46997" lon="1.54856">
        <ele>151</ele>
        <time>2011-04-02T14:27:23</time>
      </trkpt>
      <trkpt lat="44.46995" lon="1.54855">
        <ele>151</ele>
        <time>2011-04-02T14:27:24</time>
      </trkpt>
      <trkpt lat="44.46991" lon="1.54853">
        <ele>151</ele>
        <time>2011-04-02T14:27:26</time>
      </trkpt>
      <trkpt lat="44.46987" lon="1.54851">
        <ele>151</ele>
        <time>2011-04-02T14:27:28</time>
      </trkpt>
      <trkpt lat="44.46984" lon="1.5485">
        <ele>151</ele>
        <time>2011-04-02T14:27:30</time>
      </trkpt>
      <trkpt lat="44.46982" lon="1.54848">
        <ele>151</ele>
        <time>2011-04-02T14:27:32</time>
      </trkpt>
      <trkpt lat="44.4698" lon="1.54845">
        <ele>151</ele>
        <time>2011-04-02T14:27:34</time>
      </trkpt>
      <trkpt lat="44.46977" lon="1.54843">
        <ele>151</ele>
        <time>2011-04-02T14:27:36</time>
      </trkpt>
      <trkpt lat="44.46973" lon="1.54842">
        <ele>151</ele>
        <time>2011-04-02T14:27:38</time>
      </trkpt>
      <trkpt lat="44.46969" lon="1.54841">
        <ele>151</ele>
        <time>2011-04-02T14:27:40</time>
      </trkpt>
      <trkpt lat="44.46965" lon="1.54839">
        <ele>151</ele>
        <time>2011-04-02T14:27:42</time>
      </trkpt>
      <trkpt lat="44.46963" lon="1.54838">
        <ele>151</ele>
        <time>2011-04-02T14:27:44</time>
      </trkpt>
      <trkpt lat="44.4696" lon="1.54836">
        <ele>151</ele>
        <time>2011-04-02T14:27:46</time>
      </trkpt>
      <trkpt lat="44.46957" lon="1.54835">
        <ele>137</ele>
        <time>2011-04-02T14:27:48</time>
      </trkpt>
      <trkpt lat="44.46955" lon="1.54834">
        <ele>137</ele>
        <time>2011-04-02T14:27:50</time>
      </trkpt>
      <trkpt lat="44.46952" lon="1.54832">
        <ele>137</ele>
        <time>2011-04-02T14:27:53</time>
      </trkpt>
      <trkpt lat="44.4695" lon="1.5483">
        <ele>137</ele>
        <time>2011-04-02T14:27:56</time>
      </trkpt>
      <trkpt lat="44.46948" lon="1.54827">
        <ele>137</ele>
        <time>2011-04-02T14:27:59</time>
      </trkpt>
      <trkpt lat="44.46945" lon="1.54823">
        <ele>137</ele>
        <time>2011-04-02T14:28:02</time>
      </trkpt>
      <trkpt lat="44.46943" lon="1.54822">
        <ele>137</ele>
        <time>2011-04-02T14:28:04</time>
      </trkpt>
      <trkpt lat="44.4694" lon="1.5482">
        <ele>137</ele>
        <time>2011-04-02T14:28:06</time>
      </trkpt>
      <trkpt lat="44.46938" lon="1.54818">
        <ele>137</ele>
        <time>2011-04-02T14:28:08</time>
      </trkpt>
      <trkpt lat="44.46936" lon="1.54816">
        <ele>137</ele>
        <time>2011-04-02T14:28:10</time>
      </trkpt>
      <trkpt lat="44.46934" lon="1.54814">
        <ele>137</ele>
        <time>2011-04-02T14:28:12</time>
      </trkpt>
      <trkpt lat="44.46932" lon="1.54812">
        <ele>137</ele>
        <time>2011-04-02T14:28:14</time>
      </trkpt>
      <trkpt lat="44.46929" lon="1.54809">
        <ele>137</ele>
        <time>2011-04-02T14:28:16</time>
      </trkpt>
      <trkpt lat="44.46927" lon="1.54806">
        <ele>137</ele>
        <time>2011-04-02T14:28:18</time>
      </trkpt>
      <trkpt lat="44.46925" lon="1.54804">
        <ele>137</ele>
        <time>2011-04-02T14:28:20</time>
      </trkpt>
      <trkpt lat="44.46923" lon="1.54802">
        <ele>137</ele>
        <time>2011-04-02T14:28:22</time>
      </trkpt>
      <trkpt lat="44.4692" lon="1.548">
        <ele>137</ele>
        <time>2011-04-02T14:28:24</time>
      </trkpt>
      <trkpt lat="44.46918" lon="1.54797">
        <ele>137</ele>
        <time>2011-04-02T14:28:26</time>
      </trkpt>
      <trkpt lat="44.46917" lon="1.54794">
        <ele>137</ele>
        <time>2011-04-02T14:28:28</time>
      </trkpt>
      <trkpt lat="44.46915" lon="1.54791">
        <ele>157</ele>
        <time>2011-04-02T14:28:30</time>
      </trkpt>
      <trkpt lat="44.46914" lon="1.54789">
        <ele>157</ele>
        <time>2011-04-02T14:28:32</time>
      </trkpt>
      <trkpt lat="44.46912" lon="1.54786">
        <ele>157</ele>
        <time>2011-04-02T14:28:34</time>
      </trkpt>
      <trkpt lat="44.4691" lon="1.54784">
        <ele>157</ele>
        <time>2011-04-02T14:28:37</time>
      </trkpt>
      <trkpt lat="44.46908" lon="1.54781">
        <ele>157</ele>
        <time>2011-04-02T14:28:41</time>
      </trkpt>
      <trkpt lat="44.46906" lon="1.54778">
        <ele>157</ele>
        <time>2011-04-02T14:28:44</time>
      </trkpt>
      <trkpt lat="44.46905" lon="1.54776">
        <ele>157</ele>
        <time>2011-04-02T14:28:46</time>
      </trkpt>
      <trkpt lat="44.46904" lon="1.54774">
        <ele>157</ele>
        <time>2011-04-02T14:28:47</time>
      </trkpt>
      <trkpt lat="44.46902" lon="1.54772">
        <ele>157</ele>
        <time>2011-04-02T14:28:49</time>
      </trkpt>
      <trkpt lat="44.469" lon="1.54769">
        <ele>157</ele>
        <time>2011-04-02T14:28:51</time>
      </trkpt>
      <trkpt lat="44.46899" lon="1.54766">
        <ele>157</ele>
        <time>2011-04-02T14:28:53</time>
      </trkpt>
      <trkpt lat="44.46898" lon="1.54761">
        <ele>157</ele>
        <time>2011-04-02T14:28:55</time>
      </trkpt>
      <trkpt lat="44.46895" lon="1.54756">
        <ele>157</ele>
        <time>2011-04-02T14:28:57</time>
      </trkpt>
      <trkpt lat="44.46893" lon="1.5475">
        <ele>157</ele>
        <time>2011-04-02T14:28:59</time>
      </trkpt>
      <trkpt lat="44.46892" lon="1.54747">
        <ele>157</ele>
        <time>2011-04-02T14:29:00</time>
      </trkpt>
      <trkpt lat="44.4689" lon="1.54745">
        <ele>157</ele>
        <time>2011-04-02T14:29:01</time>
      </trkpt>
      <trkpt lat="44.46883" lon="1.54737">
        <ele>157</ele>
        <time>2011-04-02T14:29:03</time>
      </trkpt>
      <trkpt lat="44.46878" lon="1.54731">
        <ele>157</ele>
        <time>2011-04-02T14:29:05</time>
      </trkpt>
      <trkpt lat="44.46876" lon="1.54727">
        <ele>157</ele>
        <time>2011-04-02T14:29:06</time>
      </trkpt>
      <trkpt lat="44.46868" lon="1.54718">
        <ele>137</ele>
        <time>2011-04-02T14:29:08</time>
      </trkpt>
      <trkpt lat="44.46859" lon="1.54707">
        <ele>141</ele>
        <time>2011-04-02T14:29:10</time>
      </trkpt>
      <trkpt lat="44.4685" lon="1.54695">
        <ele>141</ele>
        <time>2011-04-02T14:29:12</time>
      </trkpt>
      <trkpt lat="44.46847" lon="1.54689">
        <ele>141</ele>
        <time>2011-04-02T14:29:13</time>
      </trkpt>
      <trkpt lat="44.46842" lon="1.54677">
        <ele>141</ele>
        <time>2011-04-02T14:29:15</time>
      </trkpt>
      <trkpt lat="44.46838" lon="1.54663">
        <ele>141</ele>
        <time>2011-04-02T14:29:17</time>
      </trkpt>
      <trkpt lat="44.46834" lon="1.54654">
        <ele>141</ele>
        <time>2011-04-02T14:29:18</time>
      </trkpt>
      <trkpt lat="44.46826" lon="1.54635">
        <ele>141</ele>
        <time>2011-04-02T14:29:20</time>
      </trkpt>
      <trkpt lat="44.46822" lon="1.54626">
        <ele>141</ele>
        <time>2011-04-02T14:29:21</time>
      </trkpt>
      <trkpt lat="44.46815" lon="1.5461">
        <ele>141</ele>
        <time>2011-04-02T14:29:23</time>
      </trkpt>
      <trkpt lat="44.46814" lon="1.54605">
        <ele>141</ele>
        <time>2011-04-02T14:29:24</time>
      </trkpt>
      <trkpt lat="44.46812" lon="1.54596">
        <ele>141</ele>
        <time>2011-04-02T14:29:29</time>
      </trkpt>
      <trkpt lat="44.46812" lon="1.54596">
        <ele>141</ele>
        <time>2011-04-02T14:29:45</time>
      </trkpt>
      <trkpt lat="44.46818" lon="1.54598">
        <ele>141</ele>
        <time>2011-04-02T14:31:10</time>
      </trkpt>
      <trkpt lat="44.46822" lon="1.54599">
        <ele>141</ele>
        <time>2011-04-02T14:31:17</time>
      </trkpt>
      <trkpt lat="44.46826" lon="1.54599">
        <ele>141</ele>
        <time>2011-04-02T14:31:20</time>
      </trkpt>
      <trkpt lat="44.46826" lon="1.54599">
        <ele>141</ele>
        <time>2011-04-02T14:31:21</time>
      </trkpt>
      <trkpt lat="44.46831" lon="1.54599">
        <ele>141</ele>
        <time>2011-04-02T14:31:25</time>
      </trkpt>
      <trkpt lat="44.46835" lon="1.546">
        <ele>141</ele>
        <time>2011-04-02T14:31:29</time>
      </trkpt>
      <trkpt lat="44.46838" lon="1.546">
        <ele>141</ele>
        <time>2011-04-02T14:31:31</time>
      </trkpt>
      <trkpt lat="44.46844" lon="1.54601">
        <ele>141</ele>
        <time>2011-04-02T14:31:36</time>
      </trkpt>
      <trkpt lat="44.46847" lon="1.54603">
        <ele>141</ele>
        <time>2011-04-02T14:31:39</time>
      </trkpt>
      <trkpt lat="44.4685" lon="1.54605">
        <ele>141</ele>
        <time>2011-04-02T14:31:42</time>
      </trkpt>
      <trkpt lat="44.46852" lon="1.54607">
        <ele>141</ele>
        <time>2011-04-02T14:31:44</time>
      </trkpt>
      <trkpt lat="44.46855" lon="1.54608">
        <ele>141</ele>
        <time>2011-04-02T14:31:46</time>
      </trkpt>
      <trkpt lat="44.46858" lon="1.54611">
        <ele>141</ele>
        <time>2011-04-02T14:31:49</time>
      </trkpt>
      <trkpt lat="44.4686" lon="1.54612">
        <ele>141</ele>
        <time>2011-04-02T14:31:51</time>
      </trkpt>
      <trkpt lat="44.46861" lon="1.54613">
        <ele>141</ele>
        <time>2011-04-02T14:31:54</time>
      </trkpt>
      <trkpt lat="44.46867" lon="1.54612">
        <ele>141</ele>
        <time>2011-04-02T14:31:58</time>
      </trkpt>
      <trkpt lat="44.46871" lon="1.54613">
        <ele>141</ele>
        <time>2011-04-02T14:32:02</time>
      </trkpt>
      <trkpt lat="44.46873" lon="1.54613">
        <ele>141</ele>
        <time>2011-04-02T14:32:04</time>
      </trkpt>
      <trkpt lat="44.46876" lon="1.54613">
        <ele>155</ele>
        <time>2011-04-02T14:32:06</time>
      </trkpt>
      <trkpt lat="44.46879" lon="1.54613">
        <ele>155</ele>
        <time>2011-04-02T14:32:09</time>
      </trkpt>
      <trkpt lat="44.4688" lon="1.54613">
        <ele>155</ele>
        <time>2011-04-02T14:32:10</time>
      </trkpt>
      <trkpt lat="44.46883" lon="1.54615">
        <ele>155</ele>
        <time>2011-04-02T14:32:13</time>
      </trkpt>
      <trkpt lat="44.46886" lon="1.54615">
        <ele>155</ele>
        <time>2011-04-02T14:32:16</time>
      </trkpt>
      <trkpt lat="44.4689" lon="1.54616">
        <ele>155</ele>
        <time>2011-04-02T14:32:19</time>
      </trkpt>
      <trkpt lat="44.46893" lon="1.54617">
        <ele>155</ele>
        <time>2011-04-02T14:32:23</time>
      </trkpt>
      <trkpt lat="44.46896" lon="1.54617">
        <ele>155</ele>
        <time>2011-04-02T14:32:25</time>
      </trkpt>
      <trkpt lat="44.46899" lon="1.54616">
        <ele>155</ele>
        <time>2011-04-02T14:32:27</time>
      </trkpt>
      <trkpt lat="44.46902" lon="1.54615">
        <ele>155</ele>
        <time>2011-04-02T14:32:29</time>
      </trkpt>
      <trkpt lat="44.46904" lon="1.54614">
        <ele>155</ele>
        <time>2011-04-02T14:32:31</time>
      </trkpt>
      <trkpt lat="44.46906" lon="1.54613">
        <ele>155</ele>
        <time>2011-04-02T14:32:33</time>
      </trkpt>
      <trkpt lat="44.46909" lon="1.54613">
        <ele>155</ele>
        <time>2011-04-02T14:32:36</time>
      </trkpt>
      <trkpt lat="44.46911" lon="1.54612">
        <ele>155</ele>
        <time>2011-04-02T14:32:40</time>
      </trkpt>
      <trkpt lat="44.46912" lon="1.54612">
        <ele>155</ele>
        <time>2011-04-02T14:32:41</time>
      </trkpt>
      <trkpt lat="44.46915" lon="1.54613">
        <ele>155</ele>
        <time>2011-04-02T14:32:44</time>
      </trkpt>
      <trkpt lat="44.46917" lon="1.54614">
        <ele>155</ele>
        <time>2011-04-02T14:32:46</time>
      </trkpt>
      <trkpt lat="44.4692" lon="1.54616">
        <ele>155</ele>
        <time>2011-04-02T14:32:48</time>
      </trkpt>
      <trkpt lat="44.46923" lon="1.54617">
        <ele>155</ele>
        <time>2011-04-02T14:32:50</time>
      </trkpt>
      <trkpt lat="44.46924" lon="1.54618">
        <ele>155</ele>
        <time>2011-04-02T14:32:51</time>
      </trkpt>
      <trkpt lat="44.46927" lon="1.5462">
        <ele>155</ele>
        <time>2011-04-02T14:32:53</time>
      </trkpt>
      <trkpt lat="44.46929" lon="1.54621">
        <ele>155</ele>
        <time>2011-04-02T14:32:55</time>
      </trkpt>
      <trkpt lat="44.46932" lon="1.54623">
        <ele>155</ele>
        <time>2011-04-02T14:32:58</time>
      </trkpt>
      <trkpt lat="44.46935" lon="1.54624">
        <ele>155</ele>
        <time>2011-04-02T14:33:01</time>
      </trkpt>
      <trkpt lat="44.46938" lon="1.54623">
        <ele>155</ele>
        <time>2011-04-02T14:33:04</time>
      </trkpt>
      <trkpt lat="44.46942" lon="1.54623">
        <ele>155</ele>
        <time>2011-04-02T14:33:07</time>
      </trkpt>
      <trkpt lat="44.46944" lon="1.54625">
        <ele>159</ele>
        <time>2011-04-02T14:33:10</time>
      </trkpt>
      <trkpt lat="44.46947" lon="1.54627">
        <ele>159</ele>
        <time>2011-04-02T14:33:12</time>
      </trkpt>
      <trkpt lat="44.46949" lon="1.54628">
        <ele>159</ele>
        <time>2011-04-02T14:33:14</time>
      </trkpt>
      <trkpt lat="44.46952" lon="1.54629">
        <ele>159</ele>
        <time>2011-04-02T14:33:16</time>
      </trkpt>
      <trkpt lat="44.46954" lon="1.5463">
        <ele>159</ele>
        <time>2011-04-02T14:33:18</time>
      </trkpt>
      <trkpt lat="44.46957" lon="1.54631">
        <ele>159</ele>
        <time>2011-04-02T14:33:21</time>
      </trkpt>
      <trkpt lat="44.46961" lon="1.54631">
        <ele>166</ele>
        <time>2011-04-02T14:33:24</time>
      </trkpt>
      <trkpt lat="44.46964" lon="1.54631">
        <ele>166</ele>
        <time>2011-04-02T14:33:27</time>
      </trkpt>
      <trkpt lat="44.46967" lon="1.5463">
        <ele>166</ele>
        <time>2011-04-02T14:33:30</time>
      </trkpt>
      <trkpt lat="44.46969" lon="1.5463">
        <ele>166</ele>
        <time>2011-04-02T14:33:34</time>
      </trkpt>
      <trkpt lat="44.46972" lon="1.54629">
        <ele>166</ele>
        <time>2011-04-02T14:33:37</time>
      </trkpt>
      <trkpt lat="44.46974" lon="1.5463">
        <ele>166</ele>
        <time>2011-04-02T14:33:39</time>
      </trkpt>
      <trkpt lat="44.46978" lon="1.54633">
        <ele>166</ele>
        <time>2011-04-02T14:33:41</time>
      </trkpt>
      <trkpt lat="44.46981" lon="1.54634">
        <ele>166</ele>
        <time>2011-04-02T14:33:43</time>
      </trkpt>
      <trkpt lat="44.46984" lon="1.54635">
        <ele>166</ele>
        <time>2011-04-02T14:33:45</time>
      </trkpt>
      <trkpt lat="44.46985" lon="1.54635">
        <ele>166</ele>
        <time>2011-04-02T14:33:46</time>
      </trkpt>
      <trkpt lat="44.46988" lon="1.54635">
        <ele>166</ele>
        <time>2011-04-02T14:33:48</time>
      </trkpt>
      <trkpt lat="44.4699" lon="1.54634">
        <ele>166</ele>
        <time>2011-04-02T14:33:50</time>
      </trkpt>
      <trkpt lat="44.46993" lon="1.54634">
        <ele>166</ele>
        <time>2011-04-02T14:33:52</time>
      </trkpt>
      <trkpt lat="44.46995" lon="1.54634">
        <ele>166</ele>
        <time>2011-04-02T14:33:54</time>
      </trkpt>
      <trkpt lat="44.46998" lon="1.54631">
        <ele>166</ele>
        <time>2011-04-02T14:33:57</time>
      </trkpt>
      <trkpt lat="44.46995" lon="1.5463">
        <ele>166</ele>
        <time>2011-04-02T14:34:00</time>
      </trkpt>
      <trkpt lat="44.46993" lon="1.54628">
        <ele>166</ele>
        <time>2011-04-02T14:34:03</time>
      </trkpt>
      <trkpt lat="44.46991" lon="1.54627">
        <ele>166</ele>
        <time>2011-04-02T14:34:06</time>
      </trkpt>
      <trkpt lat="44.46988" lon="1.54627">
        <ele>166</ele>
        <time>2011-04-02T14:34:09</time>
      </trkpt>
      <trkpt lat="44.46986" lon="1.54626">
        <ele>166</ele>
        <time>2011-04-02T14:34:12</time>
      </trkpt>
      <trkpt lat="44.46985" lon="1.54628">
        <ele>166</ele>
        <time>2011-04-02T14:34:14</time>
      </trkpt>
      <trkpt lat="44.46988" lon="1.54628">
        <ele>166</ele>
        <time>2011-04-02T14:34:20</time>
      </trkpt>
      <trkpt lat="44.4699" lon="1.5463">
        <ele>166</ele>
        <time>2011-04-02T14:34:24</time>
      </trkpt>
      <trkpt lat="44.46994" lon="1.5463">
        <ele>166</ele>
        <time>2011-04-02T14:34:27</time>
      </trkpt>
      <trkpt lat="44.46997" lon="1.54631">
        <ele>166</ele>
        <time>2011-04-02T14:34:30</time>
      </trkpt>
      <trkpt lat="44.46999" lon="1.5463">
        <ele>166</ele>
        <time>2011-04-02T14:34:33</time>
      </trkpt>
      <trkpt lat="44.47003" lon="1.5463">
        <ele>166</ele>
        <time>2011-04-02T14:34:36</time>
      </trkpt>
      <trkpt lat="44.47005" lon="1.54631">
        <ele>166</ele>
        <time>2011-04-02T14:34:39</time>
      </trkpt>
      <trkpt lat="44.47008" lon="1.54631">
        <ele>166</ele>
        <time>2011-04-02T14:34:42</time>
      </trkpt>
      <trkpt lat="44.4701" lon="1.54629">
        <ele>166</ele>
        <time>2011-04-02T14:34:44</time>
      </trkpt>
      <trkpt lat="44.47013" lon="1.54627">
        <ele>166</ele>
        <time>2011-04-02T14:34:46</time>
      </trkpt>
      <trkpt lat="44.47016" lon="1.54624">
        <ele>162</ele>
        <time>2011-04-02T14:34:48</time>
      </trkpt>
      <trkpt lat="44.47019" lon="1.54624">
        <ele>162</ele>
        <time>2011-04-02T14:34:50</time>
      </trkpt>
      <trkpt lat="44.47021" lon="1.54623">
        <ele>162</ele>
        <time>2011-04-02T14:34:52</time>
      </trkpt>
      <trkpt lat="44.47023" lon="1.54622">
        <ele>162</ele>
        <time>2011-04-02T14:34:54</time>
      </trkpt>
      <trkpt lat="44.47026" lon="1.54621">
        <ele>162</ele>
        <time>2011-04-02T14:34:56</time>
      </trkpt>
      <trkpt lat="44.47028" lon="1.5462">
        <ele>162</ele>
        <time>2011-04-02T14:34:58</time>
      </trkpt>
      <trkpt lat="44.47031" lon="1.54619">
        <ele>162</ele>
        <time>2011-04-02T14:35:00</time>
      </trkpt>
      <trkpt lat="44.47033" lon="1.54618">
        <ele>162</ele>
        <time>2011-04-02T14:35:02</time>
      </trkpt>
      <trkpt lat="44.47035" lon="1.54617">
        <ele>162</ele>
        <time>2011-04-02T14:35:04</time>
      </trkpt>
      <trkpt lat="44.47038" lon="1.54616">
        <ele>162</ele>
        <time>2011-04-02T14:35:06</time>
      </trkpt>
      <trkpt lat="44.4704" lon="1.54615">
        <ele>162</ele>
        <time>2011-04-02T14:35:08</time>
      </trkpt>
      <trkpt lat="44.47042" lon="1.54615">
        <ele>171</ele>
        <time>2011-04-02T14:35:10</time>
      </trkpt>
      <trkpt lat="44.47045" lon="1.54615">
        <ele>171</ele>
        <time>2011-04-02T14:35:12</time>
      </trkpt>
      <trkpt lat="44.47047" lon="1.54614">
        <ele>171</ele>
        <time>2011-04-02T14:35:14</time>
      </trkpt>
      <trkpt lat="44.47048" lon="1.54613">
        <ele>171</ele>
        <time>2011-04-02T14:35:15</time>
      </trkpt>
      <trkpt lat="44.47051" lon="1.54612">
        <ele>171</ele>
        <time>2011-04-02T14:35:17</time>
      </trkpt>
      <trkpt lat="44.47054" lon="1.54614">
        <ele>171</ele>
        <time>2011-04-02T14:35:20</time>
      </trkpt>
      <trkpt lat="44.47057" lon="1.54613">
        <ele>171</ele>
        <time>2011-04-02T14:35:23</time>
      </trkpt>
      <trkpt lat="44.47059" lon="1.54611">
        <ele>171</ele>
        <time>2011-04-02T14:35:25</time>
      </trkpt>
      <trkpt lat="44.47062" lon="1.5461">
        <ele>171</ele>
        <time>2011-04-02T14:35:28</time>
      </trkpt>
      <trkpt lat="44.47065" lon="1.54608">
        <ele>171</ele>
        <time>2011-04-02T14:35:30</time>
      </trkpt>
      <trkpt lat="44.47067" lon="1.54606">
        <ele>171</ele>
        <time>2011-04-02T14:35:32</time>
      </trkpt>
      <trkpt lat="44.4707" lon="1.54605">
        <ele>171</ele>
        <time>2011-04-02T14:35:34</time>
      </trkpt>
      <trkpt lat="44.47073" lon="1.54605">
        <ele>171</ele>
        <time>2011-04-02T14:35:36</time>
      </trkpt>
      <trkpt lat="44.47075" lon="1.54605">
        <ele>171</ele>
        <time>2011-04-02T14:35:38</time>
      </trkpt>
      <trkpt lat="44.47078" lon="1.54604">
        <ele>171</ele>
        <time>2011-04-02T14:35:40</time>
      </trkpt>
      <trkpt lat="44.47081" lon="1.54603">
        <ele>171</ele>
        <time>2011-04-02T14:35:42</time>
      </trkpt>
      <trkpt lat="44.47083" lon="1.54603">
        <ele>171</ele>
        <time>2011-04-02T14:35:44</time>
      </trkpt>
      <trkpt lat="44.47086" lon="1.54602">
        <ele>171</ele>
        <time>2011-04-02T14:35:46</time>
      </trkpt>
      <trkpt lat="44.47088" lon="1.54601">
        <ele>171</ele>
        <time>2011-04-02T14:35:48</time>
      </trkpt>
      <trkpt lat="44.47091" lon="1.546">
        <ele>171</ele>
        <time>2011-04-02T14:35:50</time>
      </trkpt>
      <trkpt lat="44.47093" lon="1.54599">
        <ele>171</ele>
        <time>2011-04-02T14:35:52</time>
      </trkpt>
      <trkpt lat="44.47095" lon="1.54598">
        <ele>171</ele>
        <time>2011-04-02T14:35:54</time>
      </trkpt>
      <trkpt lat="44.471" lon="1.54597">
        <ele>171</ele>
        <time>2011-04-02T14:35:57</time>
      </trkpt>
      <trkpt lat="44.47103" lon="1.54596">
        <ele>171</ele>
        <time>2011-04-02T14:35:59</time>
      </trkpt>
      <trkpt lat="44.47107" lon="1.54597">
        <ele>171</ele>
        <time>2011-04-02T14:36:01</time>
      </trkpt>
      <trkpt lat="44.4711" lon="1.54597">
        <ele>171</ele>
        <time>2011-04-02T14:36:03</time>
      </trkpt>
      <trkpt lat="44.47113" lon="1.54596">
        <ele>171</ele>
        <time>2011-04-02T14:36:05</time>
      </trkpt>
      <trkpt lat="44.47117" lon="1.54595">
        <ele>171</ele>
        <time>2011-04-02T14:36:07</time>
      </trkpt>
      <trkpt lat="44.4712" lon="1.54596">
        <ele>171</ele>
        <time>2011-04-02T14:36:09</time>
      </trkpt>
      <trkpt lat="44.47123" lon="1.54595">
        <ele>171</ele>
        <time>2011-04-02T14:36:11</time>
      </trkpt>
      <trkpt lat="44.47126" lon="1.54594">
        <ele>178</ele>
        <time>2011-04-02T14:36:13</time>
      </trkpt>
      <trkpt lat="44.47128" lon="1.54593">
        <ele>178</ele>
        <time>2011-04-02T14:36:15</time>
      </trkpt>
      <trkpt lat="44.47131" lon="1.54593">
        <ele>178</ele>
        <time>2011-04-02T14:36:18</time>
      </trkpt>
      <trkpt lat="44.47134" lon="1.54593">
        <ele>178</ele>
        <time>2011-04-02T14:36:20</time>
      </trkpt>
      <trkpt lat="44.47137" lon="1.54593">
        <ele>178</ele>
        <time>2011-04-02T14:36:22</time>
      </trkpt>
      <trkpt lat="44.4714" lon="1.54594">
        <ele>178</ele>
        <time>2011-04-02T14:36:24</time>
      </trkpt>
      <trkpt lat="44.47143" lon="1.54594">
        <ele>178</ele>
        <time>2011-04-02T14:36:26</time>
      </trkpt>
      <trkpt lat="44.47146" lon="1.54594">
        <ele>178</ele>
        <time>2011-04-02T14:36:28</time>
      </trkpt>
      <trkpt lat="44.4715" lon="1.54593">
        <ele>178</ele>
        <time>2011-04-02T14:36:30</time>
      </trkpt>
      <trkpt lat="44.47153" lon="1.54593">
        <ele>178</ele>
        <time>2011-04-02T14:36:32</time>
      </trkpt>
      <trkpt lat="44.47156" lon="1.54593">
        <ele>178</ele>
        <time>2011-04-02T14:36:34</time>
      </trkpt>
      <trkpt lat="44.47159" lon="1.54593">
        <ele>178</ele>
        <time>2011-04-02T14:36:36</time>
      </trkpt>
      <trkpt lat="44.47164" lon="1.54594">
        <ele>178</ele>
        <time>2011-04-02T14:36:38</time>
      </trkpt>
      <trkpt lat="44.47168" lon="1.54594">
        <ele>178</ele>
        <time>2011-04-02T14:36:40</time>
      </trkpt>
      <trkpt lat="44.47172" lon="1.54593">
        <ele>178</ele>
        <time>2011-04-02T14:36:42</time>
      </trkpt>
      <trkpt lat="44.47174" lon="1.54592">
        <ele>178</ele>
        <time>2011-04-02T14:36:43</time>
      </trkpt>
      <trkpt lat="44.47177" lon="1.54591">
        <ele>178</ele>
        <time>2011-04-02T14:36:45</time>
      </trkpt>
      <trkpt lat="44.4718" lon="1.54591">
        <ele>178</ele>
        <time>2011-04-02T14:36:47</time>
      </trkpt>
      <trkpt lat="44.47184" lon="1.54589">
        <ele>178</ele>
        <time>2011-04-02T14:36:49</time>
      </trkpt>
      <trkpt lat="44.47185" lon="1.54589">
        <ele>178</ele>
        <time>2011-04-02T14:36:50</time>
      </trkpt>
      <trkpt lat="44.47188" lon="1.54588">
        <ele>178</ele>
        <time>2011-04-02T14:36:52</time>
      </trkpt>
      <trkpt lat="44.47192" lon="1.54588">
        <ele>178</ele>
        <time>2011-04-02T14:36:54</time>
      </trkpt>
      <trkpt lat="44.47194" lon="1.54589">
        <ele>178</ele>
        <time>2011-04-02T14:36:55</time>
      </trkpt>
      <trkpt lat="44.47199" lon="1.54591">
        <ele>178</ele>
        <time>2011-04-02T14:36:57</time>
      </trkpt>
      <trkpt lat="44.47203" lon="1.54591">
        <ele>178</ele>
        <time>2011-04-02T14:36:59</time>
      </trkpt>
      <trkpt lat="44.47206" lon="1.54591">
        <ele>178</ele>
        <time>2011-04-02T14:37:01</time>
      </trkpt>
      <trkpt lat="44.4721" lon="1.54589">
        <ele>186</ele>
        <time>2011-04-02T14:37:03</time>
      </trkpt>
      <trkpt lat="44.47216" lon="1.54588">
        <ele>186</ele>
        <time>2011-04-02T14:37:05</time>
      </trkpt>
      <trkpt lat="44.47218" lon="1.54586">
        <ele>186</ele>
        <time>2011-04-02T14:37:06</time>
      </trkpt>
      <trkpt lat="44.47221" lon="1.54584">
        <ele>186</ele>
        <time>2011-04-02T14:37:07</time>
      </trkpt>
      <trkpt lat="44.47226" lon="1.54582">
        <ele>186</ele>
        <time>2011-04-02T14:37:09</time>
      </trkpt>
      <trkpt lat="44.4723" lon="1.54581">
        <ele>186</ele>
        <time>2011-04-02T14:37:11</time>
      </trkpt>
      <trkpt lat="44.47232" lon="1.54581">
        <ele>186</ele>
        <time>2011-04-02T14:37:13</time>
      </trkpt>
      <trkpt lat="44.47235" lon="1.54582">
        <ele>186</ele>
        <time>2011-04-02T14:37:15</time>
      </trkpt>
      <trkpt lat="44.47237" lon="1.54582">
        <ele>186</ele>
        <time>2011-04-02T14:37:17</time>
      </trkpt>
      <trkpt lat="44.47236" lon="1.54579">
        <ele>186</ele>
        <time>2011-04-02T14:37:25</time>
      </trkpt>
      <trkpt lat="44.47233" lon="1.54576">
        <ele>186</ele>
        <time>2011-04-02T14:37:27</time>
      </trkpt>
      <trkpt lat="44.47236" lon="1.54579">
        <ele>186</ele>
        <time>2011-04-02T14:37:32</time>
      </trkpt>
      <trkpt lat="44.47239" lon="1.54582">
        <ele>186</ele>
        <time>2011-04-02T14:37:34</time>
      </trkpt>
      <trkpt lat="44.47241" lon="1.54584">
        <ele>186</ele>
        <time>2011-04-02T14:37:35</time>
      </trkpt>
      <trkpt lat="44.47245" lon="1.54588">
        <ele>186</ele>
        <time>2011-04-02T14:37:37</time>
      </trkpt>
      <trkpt lat="44.47247" lon="1.5459">
        <ele>186</ele>
        <time>2011-04-02T14:37:38</time>
      </trkpt>
      <trkpt lat="44.47251" lon="1.54595">
        <ele>186</ele>
        <time>2011-04-02T14:37:40</time>
      </trkpt>
      <trkpt lat="44.47253" lon="1.54597">
        <ele>186</ele>
        <time>2011-04-02T14:37:41</time>
      </trkpt>
      <trkpt lat="44.47256" lon="1.54601">
        <ele>186</ele>
        <time>2011-04-02T14:37:43</time>
      </trkpt>
      <trkpt lat="44.47258" lon="1.54606">
        <ele>186</ele>
        <time>2011-04-02T14:37:45</time>
      </trkpt>
      <trkpt lat="44.4726" lon="1.54608">
        <ele>186</ele>
        <time>2011-04-02T14:37:46</time>
      </trkpt>
      <trkpt lat="44.47265" lon="1.54614">
        <ele>186</ele>
        <time>2011-04-02T14:37:49</time>
      </trkpt>
      <trkpt lat="44.47269" lon="1.54617">
        <ele>186</ele>
        <time>2011-04-02T14:37:51</time>
      </trkpt>
      <trkpt lat="44.47273" lon="1.54618">
        <ele>186</ele>
        <time>2011-04-02T14:37:53</time>
      </trkpt>
      <trkpt lat="44.47277" lon="1.54619">
        <ele>186</ele>
        <time>2011-04-02T14:37:55</time>
      </trkpt>
      <trkpt lat="44.4728" lon="1.54618">
        <ele>186</ele>
        <time>2011-04-02T14:37:57</time>
      </trkpt>
      <trkpt lat="44.47284" lon="1.54616">
        <ele>186</ele>
        <time>2011-04-02T14:37:59</time>
      </trkpt>
      <trkpt lat="44.47287" lon="1.54615">
        <ele>186</ele>
        <time>2011-04-02T14:38:01</time>
      </trkpt>
      <trkpt lat="44.47289" lon="1.54614">
        <ele>186</ele>
        <time>2011-04-02T14:38:03</time>
      </trkpt>
      <trkpt lat="44.47291" lon="1.54613">
        <ele>186</ele>
        <time>2011-04-02T14:38:05</time>
      </trkpt>
      <trkpt lat="44.47294" lon="1.54611">
        <ele>192</ele>
        <time>2011-04-02T14:38:07</time>
      </trkpt>
      <trkpt lat="44.47297" lon="1.54609">
        <ele>192</ele>
        <time>2011-04-02T14:38:09</time>
      </trkpt>
      <trkpt lat="44.47301" lon="1.54606">
        <ele>192</ele>
        <time>2011-04-02T14:38:11</time>
      </trkpt>
      <trkpt lat="44.47304" lon="1.54602">
        <ele>192</ele>
        <time>2011-04-02T14:38:13</time>
      </trkpt>
      <trkpt lat="44.47308" lon="1.54599">
        <ele>192</ele>
        <time>2011-04-02T14:38:15</time>
      </trkpt>
      <trkpt lat="44.47312" lon="1.54597">
        <ele>192</ele>
        <time>2011-04-02T14:38:17</time>
      </trkpt>
      <trkpt lat="44.47315" lon="1.54596">
        <ele>192</ele>
        <time>2011-04-02T14:38:18</time>
      </trkpt>
      <trkpt lat="44.47319" lon="1.54593">
        <ele>192</ele>
        <time>2011-04-02T14:38:20</time>
      </trkpt>
      <trkpt lat="44.47321" lon="1.54592">
        <ele>192</ele>
        <time>2011-04-02T14:38:21</time>
      </trkpt>
      <trkpt lat="44.47325" lon="1.5459">
        <ele>192</ele>
        <time>2011-04-02T14:38:23</time>
      </trkpt>
      <trkpt lat="44.47329" lon="1.54588">
        <ele>192</ele>
        <time>2011-04-02T14:38:25</time>
      </trkpt>
      <trkpt lat="44.47333" lon="1.54586">
        <ele>192</ele>
        <time>2011-04-02T14:38:27</time>
      </trkpt>
      <trkpt lat="44.47336" lon="1.54584">
        <ele>192</ele>
        <time>2011-04-02T14:38:29</time>
      </trkpt>
      <trkpt lat="44.47339" lon="1.54579">
        <ele>192</ele>
        <time>2011-04-02T14:38:31</time>
      </trkpt>
      <trkpt lat="44.47342" lon="1.54572">
        <ele>192</ele>
        <time>2011-04-02T14:38:33</time>
      </trkpt>
      <trkpt lat="44.47342" lon="1.54565">
        <ele>192</ele>
        <time>2011-04-02T14:38:35</time>
      </trkpt>
      <trkpt lat="44.47341" lon="1.54558">
        <ele>192</ele>
        <time>2011-04-02T14:38:37</time>
      </trkpt>
      <trkpt lat="44.4734" lon="1.54549">
        <ele>192</ele>
        <time>2011-04-02T14:38:40</time>
      </trkpt>
      <trkpt lat="44.47338" lon="1.54543">
        <ele>192</ele>
        <time>2011-04-02T14:38:42</time>
      </trkpt>
      <trkpt lat="44.47338" lon="1.54538">
        <ele>198</ele>
        <time>2011-04-02T14:38:44</time>
      </trkpt>
      <trkpt lat="44.47338" lon="1.54533">
        <ele>198</ele>
        <time>2011-04-02T14:38:46</time>
      </trkpt>
      <trkpt lat="44.47337" lon="1.54528">
        <ele>198</ele>
        <time>2011-04-02T14:38:48</time>
      </trkpt>
      <trkpt lat="44.47336" lon="1.54522">
        <ele>198</ele>
        <time>2011-04-02T14:38:50</time>
      </trkpt>
      <trkpt lat="44.47336" lon="1.54517">
        <ele>198</ele>
        <time>2011-04-02T14:38:52</time>
      </trkpt>
      <trkpt lat="44.47335" lon="1.54512">
        <ele>198</ele>
        <time>2011-04-02T14:38:54</time>
      </trkpt>
      <trkpt lat="44.47334" lon="1.54506">
        <ele>198</ele>
        <time>2011-04-02T14:38:56</time>
      </trkpt>
      <trkpt lat="44.47334" lon="1.54502">
        <ele>198</ele>
        <time>2011-04-02T14:38:58</time>
      </trkpt>
      <trkpt lat="44.47334" lon="1.54497">
        <ele>198</ele>
        <time>2011-04-02T14:39:00</time>
      </trkpt>
      <trkpt lat="44.47335" lon="1.54491">
        <ele>198</ele>
        <time>2011-04-02T14:39:02</time>
      </trkpt>
      <trkpt lat="44.47336" lon="1.54486">
        <ele>198</ele>
        <time>2011-04-02T14:39:04</time>
      </trkpt>
      <trkpt lat="44.47337" lon="1.54481">
        <ele>198</ele>
        <time>2011-04-02T14:39:06</time>
      </trkpt>
      <trkpt lat="44.47339" lon="1.54477">
        <ele>198</ele>
        <time>2011-04-02T14:39:08</time>
      </trkpt>
      <trkpt lat="44.47341" lon="1.54475">
        <ele>198</ele>
        <time>2011-04-02T14:39:10</time>
      </trkpt>
      <trkpt lat="44.47343" lon="1.54473">
        <ele>198</ele>
        <time>2011-04-02T14:39:12</time>
      </trkpt>
      <trkpt lat="44.47346" lon="1.54472">
        <ele>198</ele>
        <time>2011-04-02T14:39:14</time>
      </trkpt>
      <trkpt lat="44.47349" lon="1.54472">
        <ele>198</ele>
        <time>2011-04-02T14:39:16</time>
      </trkpt>
      <trkpt lat="44.47353" lon="1.5447">
        <ele>198</ele>
        <time>2011-04-02T14:39:18</time>
      </trkpt>
      <trkpt lat="44.47358" lon="1.54467">
        <ele>198</ele>
        <time>2011-04-02T14:39:20</time>
      </trkpt>
      <trkpt lat="44.47362" lon="1.54464">
        <ele>198</ele>
        <time>2011-04-02T14:39:22</time>
      </trkpt>
      <trkpt lat="44.47366" lon="1.54463">
        <ele>198</ele>
        <time>2011-04-02T14:39:24</time>
      </trkpt>
      <trkpt lat="44.4737" lon="1.54461">
        <ele>198</ele>
        <time>2011-04-02T14:39:26</time>
      </trkpt>
      <trkpt lat="44.47373" lon="1.54461">
        <ele>198</ele>
        <time>2011-04-02T14:39:28</time>
      </trkpt>
      <trkpt lat="44.47376" lon="1.5446">
        <ele>207</ele>
        <time>2011-04-02T14:39:30</time>
      </trkpt>
      <trkpt lat="44.47379" lon="1.54459">
        <ele>207</ele>
        <time>2011-04-02T14:39:32</time>
      </trkpt>
      <trkpt lat="44.47382" lon="1.54458">
        <ele>212</ele>
        <time>2011-04-02T14:39:34</time>
      </trkpt>
      <trkpt lat="44.47384" lon="1.54456">
        <ele>212</ele>
        <time>2011-04-02T14:39:36</time>
      </trkpt>
      <trkpt lat="44.47386" lon="1.54455">
        <ele>212</ele>
        <time>2011-04-02T14:39:38</time>
      </trkpt>
      <trkpt lat="44.47389" lon="1.54452">
        <ele>212</ele>
        <time>2011-04-02T14:39:40</time>
      </trkpt>
      <trkpt lat="44.47391" lon="1.5445">
        <ele>212</ele>
        <time>2011-04-02T14:39:42</time>
      </trkpt>
      <trkpt lat="44.47394" lon="1.54448">
        <ele>212</ele>
        <time>2011-04-02T14:39:44</time>
      </trkpt>
      <trkpt lat="44.47397" lon="1.54445">
        <ele>212</ele>
        <time>2011-04-02T14:39:46</time>
      </trkpt>
      <trkpt lat="44.47399" lon="1.54443">
        <ele>212</ele>
        <time>2011-04-02T14:39:48</time>
      </trkpt>
      <trkpt lat="44.47402" lon="1.5444">
        <ele>212</ele>
        <time>2011-04-02T14:39:50</time>
      </trkpt>
      <trkpt lat="44.47404" lon="1.54437">
        <ele>212</ele>
        <time>2011-04-02T14:39:52</time>
      </trkpt>
      <trkpt lat="44.47407" lon="1.54434">
        <ele>212</ele>
        <time>2011-04-02T14:39:54</time>
      </trkpt>
      <trkpt lat="44.47409" lon="1.54431">
        <ele>212</ele>
        <time>2011-04-02T14:39:56</time>
      </trkpt>
      <trkpt lat="44.4741" lon="1.54429">
        <ele>212</ele>
        <time>2011-04-02T14:39:58</time>
      </trkpt>
      <trkpt lat="44.47414" lon="1.54428">
        <ele>212</ele>
        <time>2011-04-02T14:40:01</time>
      </trkpt>
      <trkpt lat="44.47416" lon="1.54427">
        <ele>212</ele>
        <time>2011-04-02T14:40:03</time>
      </trkpt>
      <trkpt lat="44.47419" lon="1.54425">
        <ele>212</ele>
        <time>2011-04-02T14:40:05</time>
      </trkpt>
      <trkpt lat="44.47422" lon="1.54422">
        <ele>212</ele>
        <time>2011-04-02T14:40:07</time>
      </trkpt>
      <trkpt lat="44.47425" lon="1.5442">
        <ele>212</ele>
        <time>2011-04-02T14:40:09</time>
      </trkpt>
      <trkpt lat="44.47428" lon="1.54417">
        <ele>212</ele>
        <time>2011-04-02T14:40:11</time>
      </trkpt>
      <trkpt lat="44.4743" lon="1.54414">
        <ele>212</ele>
        <time>2011-04-02T14:40:13</time>
      </trkpt>
      <trkpt lat="44.47432" lon="1.5441">
        <ele>212</ele>
        <time>2011-04-02T14:40:15</time>
      </trkpt>
      <trkpt lat="44.47435" lon="1.54408">
        <ele>212</ele>
        <time>2011-04-02T14:40:17</time>
      </trkpt>
      <trkpt lat="44.47437" lon="1.54405">
        <ele>212</ele>
        <time>2011-04-02T14:40:19</time>
      </trkpt>
      <trkpt lat="44.47439" lon="1.54403">
        <ele>212</ele>
        <time>2011-04-02T14:40:21</time>
      </trkpt>
      <trkpt lat="44.47442" lon="1.54401">
        <ele>212</ele>
        <time>2011-04-02T14:40:23</time>
      </trkpt>
      <trkpt lat="44.47444" lon="1.54399">
        <ele>212</ele>
        <time>2011-04-02T14:40:25</time>
      </trkpt>
      <trkpt lat="44.47447" lon="1.54396">
        <ele>212</ele>
        <time>2011-04-02T14:40:27</time>
      </trkpt>
      <trkpt lat="44.4745" lon="1.54393">
        <ele>212</ele>
        <time>2011-04-02T14:40:29</time>
      </trkpt>
      <trkpt lat="44.47453" lon="1.54391">
        <ele>212</ele>
        <time>2011-04-02T14:40:31</time>
      </trkpt>
      <trkpt lat="44.47455" lon="1.54389">
        <ele>212</ele>
        <time>2011-04-02T14:40:33</time>
      </trkpt>
      <trkpt lat="44.47458" lon="1.54388">
        <ele>212</ele>
        <time>2011-04-02T14:40:35</time>
      </trkpt>
      <trkpt lat="44.4746" lon="1.54385">
        <ele>220</ele>
        <time>2011-04-02T14:40:37</time>
      </trkpt>
      <trkpt lat="44.47462" lon="1.54381">
        <ele>220</ele>
        <time>2011-04-02T14:40:39</time>
      </trkpt>
      <trkpt lat="44.47464" lon="1.54378">
        <ele>220</ele>
        <time>2011-04-02T14:40:41</time>
      </trkpt>
      <trkpt lat="44.47468" lon="1.54377">
        <ele>220</ele>
        <time>2011-04-02T14:40:43</time>
      </trkpt>
      <trkpt lat="44.4747" lon="1.54379">
        <ele>220</ele>
        <time>2011-04-02T14:40:45</time>
      </trkpt>
      <trkpt lat="44.47473" lon="1.54379">
        <ele>220</ele>
        <time>2011-04-02T14:40:47</time>
      </trkpt>
      <trkpt lat="44.47475" lon="1.54378">
        <ele>220</ele>
        <time>2011-04-02T14:40:49</time>
      </trkpt>
      <trkpt lat="44.47478" lon="1.54375">
        <ele>226</ele>
        <time>2011-04-02T14:40:53</time>
      </trkpt>
      <trkpt lat="44.47478" lon="1.54375">
        <ele>226</ele>
        <time>2011-04-02T14:41:11</time>
      </trkpt>
      <trkpt lat="44.47481" lon="1.54369">
        <ele>226</ele>
        <time>2011-04-02T14:41:16</time>
      </trkpt>
      <trkpt lat="44.47479" lon="1.5437">
        <ele>226</ele>
        <time>2011-04-02T14:41:42</time>
      </trkpt>
      <trkpt lat="44.47476" lon="1.54372">
        <ele>226</ele>
        <time>2011-04-02T14:42:31</time>
      </trkpt>
      <trkpt lat="44.47475" lon="1.54375">
        <ele>226</ele>
        <time>2011-04-02T14:42:34</time>
      </trkpt>
      <trkpt lat="44.47475" lon="1.54375">
        <ele>226</ele>
        <time>2011-04-02T14:42:35</time>
      </trkpt>
      <trkpt lat="44.47474" lon="1.54376">
        <ele>220</ele>
        <time>2011-04-02T14:42:35</time>
      </trkpt>
      <trkpt lat="44.47472" lon="1.54376">
        <ele>220</ele>
        <time>2011-04-02T14:42:38</time>
      </trkpt>
      <trkpt lat="44.47469" lon="1.54375">
        <ele>220</ele>
        <time>2011-04-02T14:42:41</time>
      </trkpt>
      <trkpt lat="44.47469" lon="1.54375">
        <ele>220</ele>
        <time>2011-04-02T14:42:42</time>
      </trkpt>
      <trkpt lat="44.47464" lon="1.54374">
        <ele>226</ele>
        <time>2011-04-02T14:42:48</time>
      </trkpt>
      <trkpt lat="44.4746" lon="1.5437">
        <ele>226</ele>
        <time>2011-04-02T14:42:59</time>
      </trkpt>
      <trkpt lat="44.47455" lon="1.54367">
        <ele>218</ele>
        <time>2011-04-02T14:43:03</time>
      </trkpt>
      <trkpt lat="44.47458" lon="1.54365">
        <ele>218</ele>
        <time>2011-04-02T14:43:08</time>
      </trkpt>
      <trkpt lat="44.47464" lon="1.5437">
        <ele>226</ele>
        <time>2011-04-02T14:43:15</time>
      </trkpt>
      <trkpt lat="44.47468" lon="1.54374">
        <ele>226</ele>
        <time>2011-04-02T14:43:20</time>
      </trkpt>
      <trkpt lat="44.47469" lon="1.54371">
        <ele>226</ele>
        <time>2011-04-02T14:43:24</time>
      </trkpt>
      <trkpt lat="44.4747" lon="1.54367">
        <ele>226</ele>
        <time>2011-04-02T14:43:26</time>
      </trkpt>
      <trkpt lat="44.47472" lon="1.54364">
        <ele>226</ele>
        <time>2011-04-02T14:43:28</time>
      </trkpt>
      <trkpt lat="44.47474" lon="1.54362">
        <ele>226</ele>
        <time>2011-04-02T14:43:30</time>
      </trkpt>
      <trkpt lat="44.47474" lon="1.54358">
        <ele>226</ele>
        <time>2011-04-02T14:43:33</time>
      </trkpt>
      <trkpt lat="44.47475" lon="1.54355">
        <ele>226</ele>
        <time>2011-04-02T14:43:41</time>
      </trkpt>
      <trkpt lat="44.47476" lon="1.54351">
        <ele>226</ele>
        <time>2011-04-02T14:43:44</time>
      </trkpt>
      <trkpt lat="44.47477" lon="1.54346">
        <ele>226</ele>
        <time>2011-04-02T14:43:46</time>
      </trkpt>
      <trkpt lat="44.47477" lon="1.54341">
        <ele>226</ele>
        <time>2011-04-02T14:43:48</time>
      </trkpt>
      <trkpt lat="44.47477" lon="1.54335">
        <ele>226</ele>
        <time>2011-04-02T14:43:50</time>
      </trkpt>
      <trkpt lat="44.47478" lon="1.5433">
        <ele>226</ele>
        <time>2011-04-02T14:43:52</time>
      </trkpt>
      <trkpt lat="44.47478" lon="1.54323">
        <ele>226</ele>
        <time>2011-04-02T14:43:54</time>
      </trkpt>
      <trkpt lat="44.47478" lon="1.54315">
        <ele>226</ele>
        <time>2011-04-02T14:43:56</time>
      </trkpt>
      <trkpt lat="44.47478" lon="1.54308">
        <ele>226</ele>
        <time>2011-04-02T14:43:58</time>
      </trkpt>
      <trkpt lat="44.47479" lon="1.543">
        <ele>226</ele>
        <time>2011-04-02T14:44:00</time>
      </trkpt>
      <trkpt lat="44.47479" lon="1.54292">
        <ele>226</ele>
        <time>2011-04-02T14:44:02</time>
      </trkpt>
      <trkpt lat="44.4748" lon="1.54289">
        <ele>231</ele>
        <time>2011-04-02T14:44:03</time>
      </trkpt>
      <trkpt lat="44.47481" lon="1.54282">
        <ele>231</ele>
        <time>2011-04-02T14:44:05</time>
      </trkpt>
      <trkpt lat="44.47482" lon="1.54274">
        <ele>231</ele>
        <time>2011-04-02T14:44:07</time>
      </trkpt>
      <trkpt lat="44.47482" lon="1.54271">
        <ele>231</ele>
        <time>2011-04-02T14:44:08</time>
      </trkpt>
      <trkpt lat="44.47484" lon="1.54264">
        <ele>231</ele>
        <time>2011-04-02T14:44:10</time>
      </trkpt>
      <trkpt lat="44.47485" lon="1.54261">
        <ele>231</ele>
        <time>2011-04-02T14:44:11</time>
      </trkpt>
      <trkpt lat="44.47486" lon="1.54258">
        <ele>231</ele>
        <time>2011-04-02T14:44:12</time>
      </trkpt>
      <trkpt lat="44.47489" lon="1.5425">
        <ele>231</ele>
        <time>2011-04-02T14:44:15</time>
      </trkpt>
      <trkpt lat="44.47492" lon="1.54248">
        <ele>231</ele>
        <time>2011-04-02T14:44:17</time>
      </trkpt>
      <trkpt lat="44.47494" lon="1.54247">
        <ele>231</ele>
        <time>2011-04-02T14:44:19</time>
      </trkpt>
      <trkpt lat="44.47497" lon="1.54246">
        <ele>231</ele>
        <time>2011-04-02T14:44:21</time>
      </trkpt>
      <trkpt lat="44.47499" lon="1.54244">
        <ele>231</ele>
        <time>2011-04-02T14:44:23</time>
      </trkpt>
      <trkpt lat="44.47504" lon="1.54239">
        <ele>231</ele>
        <time>2011-04-02T14:44:25</time>
      </trkpt>
      <trkpt lat="44.47509" lon="1.54235">
        <ele>231</ele>
        <time>2011-04-02T14:44:27</time>
      </trkpt>
      <trkpt lat="44.47513" lon="1.5423">
        <ele>231</ele>
        <time>2011-04-02T14:44:29</time>
      </trkpt>
      <trkpt lat="44.47519" lon="1.54225">
        <ele>231</ele>
        <time>2011-04-02T14:44:32</time>
      </trkpt>
      <trkpt lat="44.47524" lon="1.5422">
        <ele>231</ele>
        <time>2011-04-02T14:44:35</time>
      </trkpt>
      <trkpt lat="44.47527" lon="1.54218">
        <ele>231</ele>
        <time>2011-04-02T14:44:37</time>
      </trkpt>
      <trkpt lat="44.47531" lon="1.54216">
        <ele>231</ele>
        <time>2011-04-02T14:44:39</time>
      </trkpt>
      <trkpt lat="44.47534" lon="1.54214">
        <ele>231</ele>
        <time>2011-04-02T14:44:41</time>
      </trkpt>
      <trkpt lat="44.47537" lon="1.54211">
        <ele>231</ele>
        <time>2011-04-02T14:44:43</time>
      </trkpt>
      <trkpt lat="44.47541" lon="1.54208">
        <ele>234</ele>
        <time>2011-04-02T14:44:45</time>
      </trkpt>
      <trkpt lat="44.47544" lon="1.54204">
        <ele>241</ele>
        <time>2011-04-02T14:44:47</time>
      </trkpt>
      <trkpt lat="44.47547" lon="1.542">
        <ele>241</ele>
        <time>2011-04-02T14:44:49</time>
      </trkpt>
      <trkpt lat="44.4755" lon="1.54197">
        <ele>241</ele>
        <time>2011-04-02T14:44:51</time>
      </trkpt>
      <trkpt lat="44.47554" lon="1.54193">
        <ele>241</ele>
        <time>2011-04-02T14:44:53</time>
      </trkpt>
      <trkpt lat="44.47556" lon="1.54191">
        <ele>241</ele>
        <time>2011-04-02T14:44:54</time>
      </trkpt>
      <trkpt lat="44.47558" lon="1.5419">
        <ele>241</ele>
        <time>2011-04-02T14:44:55</time>
      </trkpt>
      <trkpt lat="44.47561" lon="1.54186">
        <ele>241</ele>
        <time>2011-04-02T14:44:57</time>
      </trkpt>
      <trkpt lat="44.47564" lon="1.54184">
        <ele>241</ele>
        <time>2011-04-02T14:44:59</time>
      </trkpt>
      <trkpt lat="44.47567" lon="1.54181">
        <ele>241</ele>
        <time>2011-04-02T14:45:01</time>
      </trkpt>
      <trkpt lat="44.47569" lon="1.54179">
        <ele>241</ele>
        <time>2011-04-02T14:45:02</time>
      </trkpt>
      <trkpt lat="44.47571" lon="1.54177">
        <ele>241</ele>
        <time>2011-04-02T14:45:03</time>
      </trkpt>
      <trkpt lat="44.47575" lon="1.54173">
        <ele>241</ele>
        <time>2011-04-02T14:45:05</time>
      </trkpt>
      <trkpt lat="44.47579" lon="1.54166">
        <ele>241</ele>
        <time>2011-04-02T14:45:08</time>
      </trkpt>
      <trkpt lat="44.47581" lon="1.54163">
        <ele>241</ele>
        <time>2011-04-02T14:45:09</time>
      </trkpt>
      <trkpt lat="44.47585" lon="1.54158">
        <ele>241</ele>
        <time>2011-04-02T14:45:11</time>
      </trkpt>
      <trkpt lat="44.47588" lon="1.54152">
        <ele>241</ele>
        <time>2011-04-02T14:45:13</time>
      </trkpt>
      <trkpt lat="44.47591" lon="1.54147">
        <ele>241</ele>
        <time>2011-04-02T14:45:15</time>
      </trkpt>
      <trkpt lat="44.47593" lon="1.54145">
        <ele>241</ele>
        <time>2011-04-02T14:45:16</time>
      </trkpt>
      <trkpt lat="44.47596" lon="1.54141">
        <ele>241</ele>
        <time>2011-04-02T14:45:18</time>
      </trkpt>
      <trkpt lat="44.47599" lon="1.54137">
        <ele>241</ele>
        <time>2011-04-02T14:45:20</time>
      </trkpt>
      <trkpt lat="44.47602" lon="1.54133">
        <ele>241</ele>
        <time>2011-04-02T14:45:22</time>
      </trkpt>
      <trkpt lat="44.47605" lon="1.54128">
        <ele>241</ele>
        <time>2011-04-02T14:45:24</time>
      </trkpt>
      <trkpt lat="44.47608" lon="1.54123">
        <ele>240</ele>
        <time>2011-04-02T14:45:26</time>
      </trkpt>
      <trkpt lat="44.47611" lon="1.54119">
        <ele>240</ele>
        <time>2011-04-02T14:45:28</time>
      </trkpt>
      <trkpt lat="44.47614" lon="1.54114">
        <ele>240</ele>
        <time>2011-04-02T14:45:30</time>
      </trkpt>
      <trkpt lat="44.47618" lon="1.54111">
        <ele>240</ele>
        <time>2011-04-02T14:45:32</time>
      </trkpt>
      <trkpt lat="44.47621" lon="1.54109">
        <ele>240</ele>
        <time>2011-04-02T14:45:34</time>
      </trkpt>
      <trkpt lat="44.47625" lon="1.54106">
        <ele>240</ele>
        <time>2011-04-02T14:45:36</time>
      </trkpt>
      <trkpt lat="44.47627" lon="1.54105">
        <ele>248</ele>
        <time>2011-04-02T14:45:37</time>
      </trkpt>
      <trkpt lat="44.4763" lon="1.54101">
        <ele>248</ele>
        <time>2011-04-02T14:45:39</time>
      </trkpt>
      <trkpt lat="44.47634" lon="1.54098">
        <ele>248</ele>
        <time>2011-04-02T14:45:41</time>
      </trkpt>
      <trkpt lat="44.47638" lon="1.54096">
        <ele>248</ele>
        <time>2011-04-02T14:45:43</time>
      </trkpt>
      <trkpt lat="44.47642" lon="1.54095">
        <ele>248</ele>
        <time>2011-04-02T14:45:45</time>
      </trkpt>
      <trkpt lat="44.47646" lon="1.54096">
        <ele>248</ele>
        <time>2011-04-02T14:45:47</time>
      </trkpt>
      <trkpt lat="44.4765" lon="1.54099">
        <ele>248</ele>
        <time>2011-04-02T14:45:49</time>
      </trkpt>
      <trkpt lat="44.47652" lon="1.54102">
        <ele>248</ele>
        <time>2011-04-02T14:45:51</time>
      </trkpt>
      <trkpt lat="44.47652" lon="1.54106">
        <ele>248</ele>
        <time>2011-04-02T14:45:53</time>
      </trkpt>
      <trkpt lat="44.47652" lon="1.5411">
        <ele>248</ele>
        <time>2011-04-02T14:45:55</time>
      </trkpt>
      <trkpt lat="44.47652" lon="1.54116">
        <ele>248</ele>
        <time>2011-04-02T14:45:57</time>
      </trkpt>
      <trkpt lat="44.47652" lon="1.54122">
        <ele>248</ele>
        <time>2011-04-02T14:45:59</time>
      </trkpt>
      <trkpt lat="44.47652" lon="1.54129">
        <ele>245</ele>
        <time>2011-04-02T14:46:01</time>
      </trkpt>
      <trkpt lat="44.47652" lon="1.54133">
        <ele>245</ele>
        <time>2011-04-02T14:46:02</time>
      </trkpt>
      <trkpt lat="44.47654" lon="1.54143">
        <ele>245</ele>
        <time>2011-04-02T14:46:04</time>
      </trkpt>
      <trkpt lat="44.47656" lon="1.54155">
        <ele>245</ele>
        <time>2011-04-02T14:46:06</time>
      </trkpt>
      <trkpt lat="44.47743" lon="1.54341">
        <ele>231</ele>
        <time>2011-04-02T14:46:07</time>
      </trkpt>
      <trkpt lat="44.47662" lon="1.54168">
        <ele>245</ele>
        <time>2011-04-02T14:46:08</time>
      </trkpt>
      <trkpt lat="44.47669" lon="1.54183">
        <ele>245</ele>
        <time>2011-04-02T14:46:10</time>
      </trkpt>
      <trkpt lat="44.47677" lon="1.542">
        <ele>245</ele>
        <time>2011-04-02T14:46:12</time>
      </trkpt>
      <trkpt lat="44.4768" lon="1.54209">
        <ele>240</ele>
        <time>2011-04-02T14:46:13</time>
      </trkpt>
      <trkpt lat="44.47685" lon="1.54218">
        <ele>240</ele>
        <time>2011-04-02T14:46:14</time>
      </trkpt>
      <trkpt lat="44.47689" lon="1.54228">
        <ele>240</ele>
        <time>2011-04-02T14:46:15</time>
      </trkpt>
      <trkpt lat="44.47694" lon="1.54239">
        <ele>240</ele>
        <time>2011-04-02T14:46:16</time>
      </trkpt>
      <trkpt lat="44.47702" lon="1.54258">
        <ele>240</ele>
        <time>2011-04-02T14:46:18</time>
      </trkpt>
      <trkpt lat="44.47706" lon="1.54268">
        <ele>240</ele>
        <time>2011-04-02T14:46:19</time>
      </trkpt>
      <trkpt lat="44.4771" lon="1.54276">
        <ele>235</ele>
        <time>2011-04-02T14:46:20</time>
      </trkpt>
      <trkpt lat="44.47718" lon="1.54292">
        <ele>231</ele>
        <time>2011-04-02T14:46:22</time>
      </trkpt>
      <trkpt lat="44.47726" lon="1.54308">
        <ele>231</ele>
        <time>2011-04-02T14:46:24</time>
      </trkpt>
      <trkpt lat="44.4773" lon="1.54314">
        <ele>231</ele>
        <time>2011-04-02T14:46:25</time>
      </trkpt>
      <trkpt lat="44.47738" lon="1.54323">
        <ele>231</ele>
        <time>2011-04-02T14:46:27</time>
      </trkpt>
      <trkpt lat="44.47741" lon="1.54327">
        <ele>231</ele>
        <time>2011-04-02T14:46:28</time>
      </trkpt>
      <trkpt lat="44.47745" lon="1.54335">
        <ele>231</ele>
        <time>2011-04-02T14:46:32</time>
      </trkpt>
      <trkpt lat="44.47743" lon="1.54341">
        <ele>231</ele>
        <time>2011-04-02T14:46:35</time>
      </trkpt>
      <trkpt lat="44.47743" lon="1.54341">
        <ele>231</ele>
        <time>2011-04-02T14:46:53</time>
      </trkpt>
    </trkseg>
  </trk>
</gpx>